<?xml version='1.0' encoding='UTF-8'?><gpx version="1.1" creator="JPX - https://github.com/jenetics/jpx" xmlns="http://www.topografix.com/GPX/1/1"><trk><trkseg><trkpt lat="46.6018447" lon="12.4794408"><ele>1218.4</ele><time>2026-04-30T08:47:31.395Z</time></trkpt><trkpt lat="46.601776" lon="12.4796145"><ele>1217.8000000000002</ele><time>2026-04-30T08:47:33.38Z</time></trkpt><trkpt lat="46.6017332" lon="12.4797"><ele>1217.1999999999998</ele><time>2026-04-30T08:47:35.309Z</time></trkpt><trkpt lat="46.6016768" lon="12.4798212"><ele>1216.6</ele><time>2026-04-30T08:47:37.414Z</time></trkpt><trkpt lat="46.6016539" lon="12.4799699"><ele>1216.0</ele><time>2026-04-30T08:47:39.38Z</time></trkpt><trkpt lat="46.6016616" lon="12.4801165"><ele>1216.0</ele><time>2026-04-30T08:47:41.38Z</time></trkpt><trkpt lat="46.6016874" lon="12.4802558"><ele>1216.0</ele><time>2026-04-30T08:47:43.38Z</time></trkpt><trkpt lat="46.6017369" lon="12.4804239"><ele>1216.0</ele><time>2026-04-30T08:47:45.38Z</time></trkpt><trkpt lat="46.6017657" lon="12.4805217"><ele>1216.0</ele><time>2026-04-30T08:47:46.38Z</time></trkpt><trkpt lat="46.6017948" lon="12.480627"><ele>1216.0</ele><time>2026-04-30T08:47:47.379Z</time></trkpt><trkpt lat="46.6018152" lon="12.4807218"><ele>1216.0</ele><time>2026-04-30T08:47:48.379Z</time></trkpt><trkpt lat="46.6018318" lon="12.4808262"><ele>1215.5714285714284</ele><time>2026-04-30T08:47:49.38Z</time></trkpt><trkpt lat="46.6018391" lon="12.4809338"><ele>1215.1428571428573</ele><time>2026-04-30T08:47:50.38Z</time></trkpt><trkpt lat="46.6018367" lon="12.481041"><ele>1214.7142857142858</ele><time>2026-04-30T08:47:51.38Z</time></trkpt><trkpt lat="46.6018323" lon="12.4811473"><ele>1214.2857142857142</ele><time>2026-04-30T08:47:52.381Z</time></trkpt><trkpt lat="46.6018214" lon="12.4812544"><ele>1213.8571428571427</ele><time>2026-04-30T08:47:53.38Z</time></trkpt><trkpt lat="46.601801" lon="12.4813556"><ele>1213.4285714285716</ele><time>2026-04-30T08:47:54.38Z</time></trkpt><trkpt lat="46.6017678" lon="12.4814634"><ele>1213.0</ele><time>2026-04-30T08:47:55.38Z</time></trkpt><trkpt lat="46.6017272" lon="12.4815657"><ele>1212.5</ele><time>2026-04-30T08:47:56.38Z</time></trkpt><trkpt lat="46.6016779" lon="12.4816633"><ele>1212.0</ele><time>2026-04-30T08:47:57.38Z</time></trkpt><trkpt lat="46.6016195" lon="12.4817567"><ele>1211.5</ele><time>2026-04-30T08:47:58.38Z</time></trkpt><trkpt lat="46.6015536" lon="12.4818427"><ele>1211.0</ele><time>2026-04-30T08:47:59.38Z</time></trkpt><trkpt lat="46.6014883" lon="12.481931"><ele>1210.5</ele><time>2026-04-30T08:48:00.38Z</time></trkpt><trkpt lat="46.6014332" lon="12.4820316"><ele>1210.0</ele><time>2026-04-30T08:48:01.38Z</time></trkpt><trkpt lat="46.6013865" lon="12.4821328"><ele>1210.0</ele><time>2026-04-30T08:48:02.38Z</time></trkpt><trkpt lat="46.6013462" lon="12.4822353"><ele>1210.0</ele><time>2026-04-30T08:48:03.38Z</time></trkpt><trkpt lat="46.6013047" lon="12.4823401"><ele>1210.0</ele><time>2026-04-30T08:48:04.38Z</time></trkpt><trkpt lat="46.6012536" lon="12.4824251"><ele>1210.0</ele><time>2026-04-30T08:48:05.38Z</time></trkpt><trkpt lat="46.6011992" lon="12.4825096"><ele>1210.0</ele><time>2026-04-30T08:48:06.38Z</time></trkpt><trkpt lat="46.6011451" lon="12.4825979"><ele>1210.0</ele><time>2026-04-30T08:48:07.38Z</time></trkpt><trkpt lat="46.6010901" lon="12.4826893"><ele>1210.3333333333333</ele><time>2026-04-30T08:48:08.38Z</time></trkpt><trkpt lat="46.6010456" lon="12.4827839"><ele>1210.6666666666665</ele><time>2026-04-30T08:48:09.38Z</time></trkpt><trkpt lat="46.6009934" lon="12.4828811"><ele>1211.0</ele><time>2026-04-30T08:48:10.38Z</time></trkpt><trkpt lat="46.6009392" lon="12.4829727"><ele>1211.3333333333333</ele><time>2026-04-30T08:48:11.38Z</time></trkpt><trkpt lat="46.6008792" lon="12.4830585"><ele>1211.6666666666667</ele><time>2026-04-30T08:48:12.38Z</time></trkpt><trkpt lat="46.6008101" lon="12.4831428"><ele>1212.0</ele><time>2026-04-30T08:48:13.38Z</time></trkpt><trkpt lat="46.6007534" lon="12.4832309"><ele>1210.6666666666667</ele><time>2026-04-30T08:48:14.38Z</time></trkpt><trkpt lat="46.6007143" lon="12.4833292"><ele>1209.3333333333333</ele><time>2026-04-30T08:48:15.38Z</time></trkpt><trkpt lat="46.6006884" lon="12.4834324"><ele>1208.0</ele><time>2026-04-30T08:48:16.38Z</time></trkpt><trkpt lat="46.6006659" lon="12.4835367"><ele>1206.6666666666665</ele><time>2026-04-30T08:48:17.381Z</time></trkpt><trkpt lat="46.6006417" lon="12.4836234"><ele>1205.3333333333333</ele><time>2026-04-30T08:48:18.38Z</time></trkpt><trkpt lat="46.6005947" lon="12.4837532"><ele>1204.0</ele><time>2026-04-30T08:48:20.379Z</time></trkpt><trkpt lat="46.6005025" lon="12.4837633"><ele>1204.0</ele><time>2026-04-30T08:48:22.38Z</time></trkpt><trkpt lat="46.6004312" lon="12.4837325"><ele>1204.0</ele><time>2026-04-30T08:48:23.38Z</time></trkpt><trkpt lat="46.6002586" lon="12.4837142"><ele>1204.0</ele><time>2026-04-30T08:48:25.38Z</time></trkpt><trkpt lat="46.6001688" lon="12.4837011"><ele>1204.0</ele><time>2026-04-30T08:48:26.38Z</time></trkpt><trkpt lat="46.6000768" lon="12.4837035"><ele>1204.0</ele><time>2026-04-30T08:48:27.38Z</time></trkpt><trkpt lat="46.5999799" lon="12.4836995"><ele>1203.8</ele><time>2026-04-30T08:48:28.38Z</time></trkpt><trkpt lat="46.5998877" lon="12.4836902"><ele>1203.6000000000001</ele><time>2026-04-30T08:48:29.38Z</time></trkpt><trkpt lat="46.5997945" lon="12.4836732"><ele>1203.4</ele><time>2026-04-30T08:48:30.379Z</time></trkpt><trkpt lat="46.5996991" lon="12.4836595"><ele>1203.2</ele><time>2026-04-30T08:48:31.38Z</time></trkpt><trkpt lat="46.5996069" lon="12.4836281"><ele>1203.0</ele><time>2026-04-30T08:48:32.38Z</time></trkpt><trkpt lat="46.5995245" lon="12.4835751"><ele>1204.0</ele><time>2026-04-30T08:48:33.38Z</time></trkpt><trkpt lat="46.5994403" lon="12.48352"><ele>1205.0</ele><time>2026-04-30T08:48:34.38Z</time></trkpt><trkpt lat="46.5993505" lon="12.4834562"><ele>1206.0</ele><time>2026-04-30T08:48:35.38Z</time></trkpt><trkpt lat="46.5992653" lon="12.4833966"><ele>1207.0</ele><time>2026-04-30T08:48:36.38Z</time></trkpt><trkpt lat="46.5991871" lon="12.4833393"><ele>1208.0</ele><time>2026-04-30T08:48:37.38Z</time></trkpt><trkpt lat="46.5991113" lon="12.4832835"><ele>1208.0</ele><time>2026-04-30T08:48:38.38Z</time></trkpt><trkpt lat="46.5990424" lon="12.4832329"><ele>1208.0</ele><time>2026-04-30T08:48:39.38Z</time></trkpt><trkpt lat="46.5989789" lon="12.4831819"><ele>1208.0</ele><time>2026-04-30T08:48:40.38Z</time></trkpt><trkpt lat="46.5989185" lon="12.4831401"><ele>1208.0</ele><time>2026-04-30T08:48:41.381Z</time></trkpt><trkpt lat="46.5988606" lon="12.4830622"><ele>1208.0</ele><time>2026-04-30T08:48:42.379Z</time></trkpt><trkpt lat="46.5987877" lon="12.4829272"><ele>1208.0</ele><time>2026-04-30T08:48:44.38Z</time></trkpt><trkpt lat="46.5987518" lon="12.4828509"><ele>1207.8333333333335</ele><time>2026-04-30T08:48:45.38Z</time></trkpt><trkpt lat="46.5987228" lon="12.4827547"><ele>1207.6666666666667</ele><time>2026-04-30T08:48:46.38Z</time></trkpt><trkpt lat="46.5986776" lon="12.4826691"><ele>1207.5</ele><time>2026-04-30T08:48:47.38Z</time></trkpt><trkpt lat="46.5986155" lon="12.4825968"><ele>1207.3333333333333</ele><time>2026-04-30T08:48:48.38Z</time></trkpt><trkpt lat="46.5985472" lon="12.4825724"><ele>1207.1666666666665</ele><time>2026-04-30T08:48:49.38Z</time></trkpt><trkpt lat="46.5984629" lon="12.4825302"><ele>1207.0</ele><time>2026-04-30T08:48:50.38Z</time></trkpt><trkpt lat="46.5983701" lon="12.4824701"><ele>1207.0</ele><time>2026-04-30T08:48:51.38Z</time></trkpt><trkpt lat="46.5982844" lon="12.4824283"><ele>1207.0</ele><time>2026-04-30T08:48:52.38Z</time></trkpt><trkpt lat="46.5982131" lon="12.4824051"><ele>1207.0</ele><time>2026-04-30T08:48:53.38Z</time></trkpt><trkpt lat="46.5981098" lon="12.4824281"><ele>1207.0</ele><time>2026-04-30T08:48:55.38Z</time></trkpt><trkpt lat="46.5980403" lon="12.4825628"><ele>1207.0</ele><time>2026-04-30T08:48:57.38Z</time></trkpt><trkpt lat="46.5979852" lon="12.4826324"><ele>1207.0</ele><time>2026-04-30T08:48:58.38Z</time></trkpt><trkpt lat="46.5978967" lon="12.482762"><ele>1207.0</ele><time>2026-04-30T08:49:00.38Z</time></trkpt><trkpt lat="46.5978742" lon="12.4828735"><ele>1207.0</ele><time>2026-04-30T08:49:01.38Z</time></trkpt><trkpt lat="46.597848" lon="12.482991"><ele>1207.0</ele><time>2026-04-30T08:49:02.38Z</time></trkpt><trkpt lat="46.5978283" lon="12.4831195"><ele>1207.0</ele><time>2026-04-30T08:49:03.38Z</time></trkpt><trkpt lat="46.5978367" lon="12.4832502"><ele>1207.0</ele><time>2026-04-30T08:49:04.381Z</time></trkpt><trkpt lat="46.5978654" lon="12.4833883"><ele>1207.0</ele><time>2026-04-30T08:49:05.38Z</time></trkpt><trkpt lat="46.5978896" lon="12.4835293"><ele>1207.0</ele><time>2026-04-30T08:49:06.38Z</time></trkpt><trkpt lat="46.597909" lon="12.4836607"><ele>1207.0</ele><time>2026-04-30T08:49:07.38Z</time></trkpt><trkpt lat="46.5979304" lon="12.4837634"><ele>1207.0</ele><time>2026-04-30T08:49:08.38Z</time></trkpt><trkpt lat="46.5979433" lon="12.4838542"><ele>1207.0</ele><time>2026-04-30T08:49:09.38Z</time></trkpt><trkpt lat="46.5979438" lon="12.4840075"><ele>1206.8</ele><time>2026-04-30T08:49:11.38Z</time></trkpt><trkpt lat="46.597893" lon="12.484142"><ele>1206.6</ele><time>2026-04-30T08:49:13.38Z</time></trkpt><trkpt lat="46.597846" lon="12.4842925"><ele>1206.3999999999999</ele><time>2026-04-30T08:49:15.38Z</time></trkpt><trkpt lat="46.5978229" lon="12.4844693"><ele>1206.2</ele><time>2026-04-30T08:49:17.379Z</time></trkpt><trkpt lat="46.5978146" lon="12.4845879"><ele>1206.0</ele><time>2026-04-30T08:49:18.379Z</time></trkpt><trkpt lat="46.5978054" lon="12.484707"><ele>1206.3999999999999</ele><time>2026-04-30T08:49:19.38Z</time></trkpt><trkpt lat="46.5977924" lon="12.4848242"><ele>1206.8</ele><time>2026-04-30T08:49:20.38Z</time></trkpt><trkpt lat="46.5977702" lon="12.484939"><ele>1207.1999999999998</ele><time>2026-04-30T08:49:21.379Z</time></trkpt><trkpt lat="46.5977346" lon="12.4850466"><ele>1207.6</ele><time>2026-04-30T08:49:22.38Z</time></trkpt><trkpt lat="46.5976316" lon="12.4851407"><ele>1208.0</ele><time>2026-04-30T08:49:24.381Z</time></trkpt><trkpt lat="46.5975503" lon="12.4852074"><ele>1208.0</ele><time>2026-04-30T08:49:26.38Z</time></trkpt><trkpt lat="46.5974813" lon="12.485179"><ele>1208.0</ele><time>2026-04-30T08:49:28.38Z</time></trkpt><trkpt lat="46.5973991" lon="12.4852185"><ele>1208.0</ele><time>2026-04-30T08:49:30.381Z</time></trkpt><trkpt lat="46.5973175" lon="12.4853275"><ele>1208.0</ele><time>2026-04-30T08:49:32.38Z</time></trkpt><trkpt lat="46.5972622" lon="12.4854309"><ele>1208.0</ele><time>2026-04-30T08:49:33.381Z</time></trkpt><trkpt lat="46.597209" lon="12.4855381"><ele>1207.0</ele><time>2026-04-30T08:49:34.38Z</time></trkpt><trkpt lat="46.5971567" lon="12.4856622"><ele>1206.0</ele><time>2026-04-30T08:49:35.38Z</time></trkpt><trkpt lat="46.5971037" lon="12.4857773"><ele>1205.0</ele><time>2026-04-30T08:49:36.379Z</time></trkpt><trkpt lat="46.5970503" lon="12.4858779"><ele>1204.0</ele><time>2026-04-30T08:49:37.38Z</time></trkpt><trkpt lat="46.5969882" lon="12.4859691"><ele>1203.0</ele><time>2026-04-30T08:49:38.381Z</time></trkpt><trkpt lat="46.5969186" lon="12.4860468"><ele>1203.0</ele><time>2026-04-30T08:49:39.38Z</time></trkpt><trkpt lat="46.5968398" lon="12.4861122"><ele>1203.0</ele><time>2026-04-30T08:49:40.38Z</time></trkpt><trkpt lat="46.5966634" lon="12.4862101"><ele>1203.0</ele><time>2026-04-30T08:49:42.38Z</time></trkpt><trkpt lat="46.5965739" lon="12.4862524"><ele>1203.0</ele><time>2026-04-30T08:49:43.38Z</time></trkpt><trkpt lat="46.5964833" lon="12.4863163"><ele>1202.2</ele><time>2026-04-30T08:49:44.38Z</time></trkpt><trkpt lat="46.596389" lon="12.486379"><ele>1201.4</ele><time>2026-04-30T08:49:45.38Z</time></trkpt><trkpt lat="46.5962932" lon="12.4864386"><ele>1200.6000000000001</ele><time>2026-04-30T08:49:46.38Z</time></trkpt><trkpt lat="46.5962012" lon="12.4864687"><ele>1199.8</ele><time>2026-04-30T08:49:47.38Z</time></trkpt><trkpt lat="46.5961357" lon="12.4864912"><ele>1199.0</ele><time>2026-04-30T08:49:48.38Z</time></trkpt><trkpt lat="46.5960616" lon="12.4865562"><ele>1197.8</ele><time>2026-04-30T08:49:49.381Z</time></trkpt><trkpt lat="46.5959905" lon="12.4866168"><ele>1196.6000000000001</ele><time>2026-04-30T08:49:50.38Z</time></trkpt><trkpt lat="46.5959175" lon="12.4867505"><ele>1195.4</ele><time>2026-04-30T08:49:51.381Z</time></trkpt><trkpt lat="46.5958552" lon="12.4868714"><ele>1194.2</ele><time>2026-04-30T08:49:52.38Z</time></trkpt><trkpt lat="46.5958037" lon="12.4870362"><ele>1193.0</ele><time>2026-04-30T08:49:53.38Z</time></trkpt><trkpt lat="46.5957753" lon="12.487152"><ele>1190.6</ele><time>2026-04-30T08:49:54.38Z</time></trkpt><trkpt lat="46.5957233" lon="12.4872443"><ele>1188.1999999999998</ele><time>2026-04-30T08:49:55.38Z</time></trkpt><trkpt lat="46.5956463" lon="12.4873638"><ele>1185.8</ele><time>2026-04-30T08:49:56.38Z</time></trkpt><trkpt lat="46.5955389" lon="12.4874433"><ele>1183.3999999999999</ele><time>2026-04-30T08:49:57.38Z</time></trkpt><trkpt lat="46.5954446" lon="12.4875004"><ele>1181.0</ele><time>2026-04-30T08:49:58.38Z</time></trkpt><trkpt lat="46.5953568" lon="12.4875385"><ele>1181.6</ele><time>2026-04-30T08:49:59.38Z</time></trkpt><trkpt lat="46.5952603" lon="12.4875214"><ele>1182.1999999999998</ele><time>2026-04-30T08:50:00.38Z</time></trkpt><trkpt lat="46.5951443" lon="12.4874827"><ele>1182.8000000000002</ele><time>2026-04-30T08:50:01.38Z</time></trkpt><trkpt lat="46.5950348" lon="12.4874373"><ele>1183.4</ele><time>2026-04-30T08:50:02.38Z</time></trkpt><trkpt lat="46.5949296" lon="12.4873818"><ele>1184.0</ele><time>2026-04-30T08:50:03.38Z</time></trkpt><trkpt lat="46.5948517" lon="12.4873027"><ele>1184.0</ele><time>2026-04-30T08:50:04.381Z</time></trkpt><trkpt lat="46.5947831" lon="12.4872267"><ele>1184.0</ele><time>2026-04-30T08:50:05.38Z</time></trkpt><trkpt lat="46.5947321" lon="12.4870931"><ele>1184.0</ele><time>2026-04-30T08:50:06.38Z</time></trkpt><trkpt lat="46.5946774" lon="12.486957"><ele>1184.0</ele><time>2026-04-30T08:50:07.38Z</time></trkpt><trkpt lat="46.5946248" lon="12.4868169"><ele>1184.0</ele><time>2026-04-30T08:50:08.38Z</time></trkpt><trkpt lat="46.5945559" lon="12.4867038"><ele>1185.8333333333335</ele><time>2026-04-30T08:50:09.38Z</time></trkpt><trkpt lat="46.594494" lon="12.4865967"><ele>1187.6666666666667</ele><time>2026-04-30T08:50:10.38Z</time></trkpt><trkpt lat="46.5944315" lon="12.4865155"><ele>1189.5</ele><time>2026-04-30T08:50:11.38Z</time></trkpt><trkpt lat="46.5943462" lon="12.4864962"><ele>1191.3333333333333</ele><time>2026-04-30T08:50:12.38Z</time></trkpt><trkpt lat="46.5942722" lon="12.4864676"><ele>1193.1666666666665</ele><time>2026-04-30T08:50:13.38Z</time></trkpt><trkpt lat="46.5941898" lon="12.4864731"><ele>1195.0</ele><time>2026-04-30T08:50:14.38Z</time></trkpt><trkpt lat="46.5941124" lon="12.4865315"><ele>1195.0</ele><time>2026-04-30T08:50:15.38Z</time></trkpt><trkpt lat="46.594076" lon="12.4866214"><ele>1195.0</ele><time>2026-04-30T08:50:16.38Z</time></trkpt><trkpt lat="46.5940484" lon="12.4867618"><ele>1195.0</ele><time>2026-04-30T08:50:17.38Z</time></trkpt><trkpt lat="46.5940033" lon="12.4868928"><ele>1195.0</ele><time>2026-04-30T08:50:18.38Z</time></trkpt><trkpt lat="46.5939586" lon="12.4870026"><ele>1195.0</ele><time>2026-04-30T08:50:19.38Z</time></trkpt><trkpt lat="46.5939149" lon="12.4871099"><ele>1195.0</ele><time>2026-04-30T08:50:20.38Z</time></trkpt><trkpt lat="46.5938361" lon="12.487172"><ele>1194.2</ele><time>2026-04-30T08:50:21.38Z</time></trkpt><trkpt lat="46.5937706" lon="12.4872499"><ele>1193.4</ele><time>2026-04-30T08:50:22.38Z</time></trkpt><trkpt lat="46.593648" lon="12.4872587"><ele>1192.6</ele><time>2026-04-30T08:50:23.379Z</time></trkpt><trkpt lat="46.5935448" lon="12.48731"><ele>1191.8</ele><time>2026-04-30T08:50:24.38Z</time></trkpt><trkpt lat="46.5934552" lon="12.4873516"><ele>1191.0</ele><time>2026-04-30T08:50:25.38Z</time></trkpt><trkpt lat="46.5933594" lon="12.4874118"><ele>1191.0</ele><time>2026-04-30T08:50:26.38Z</time></trkpt><trkpt lat="46.5933096" lon="12.4875711"><ele>1191.0</ele><time>2026-04-30T08:50:27.38Z</time></trkpt><trkpt lat="46.593234" lon="12.4877213"><ele>1191.0</ele><time>2026-04-30T08:50:28.38Z</time></trkpt><trkpt lat="46.5930713" lon="12.4880323"><ele>1187.5</ele><time>2026-04-30T08:50:30.38Z</time></trkpt><trkpt lat="46.5930073" lon="12.4881957"><ele>1184.0</ele><time>2026-04-30T08:50:31.38Z</time></trkpt><trkpt lat="46.5929307" lon="12.4883567"><ele>1180.5</ele><time>2026-04-30T08:50:32.38Z</time></trkpt><trkpt lat="46.5928664" lon="12.4885265"><ele>1177.0</ele><time>2026-04-30T08:50:33.38Z</time></trkpt><trkpt lat="46.5927985" lon="12.4886877"><ele>1179.75</ele><time>2026-04-30T08:50:34.38Z</time></trkpt><trkpt lat="46.5927356" lon="12.4888498"><ele>1182.5</ele><time>2026-04-30T08:50:35.38Z</time></trkpt><trkpt lat="46.5926839" lon="12.4890285"><ele>1185.25</ele><time>2026-04-30T08:50:36.38Z</time></trkpt><trkpt lat="46.5926341" lon="12.4891807"><ele>1188.0</ele><time>2026-04-30T08:50:37.38Z</time></trkpt><trkpt lat="46.592585" lon="12.4893564"><ele>1188.0</ele><time>2026-04-30T08:50:38.381Z</time></trkpt><trkpt lat="46.59256" lon="12.4895502"><ele>1188.0</ele><time>2026-04-30T08:50:39.38Z</time></trkpt><trkpt lat="46.5925327" lon="12.4896985"><ele>1188.0</ele><time>2026-04-30T08:50:40.381Z</time></trkpt><trkpt lat="46.5925059" lon="12.48983"><ele>1188.0</ele><time>2026-04-30T08:50:41.381Z</time></trkpt><trkpt lat="46.5924556" lon="12.4899513"><ele>1188.0</ele><time>2026-04-30T08:50:42.381Z</time></trkpt><trkpt lat="46.5924094" lon="12.4900633"><ele>1184.4</ele><time>2026-04-30T08:50:43.382Z</time></trkpt><trkpt lat="46.5923258" lon="12.4901204"><ele>1180.8</ele><time>2026-04-30T08:50:44.381Z</time></trkpt><trkpt lat="46.592283" lon="12.4902208"><ele>1177.2</ele><time>2026-04-30T08:50:45.381Z</time></trkpt><trkpt lat="46.592241" lon="12.4903182"><ele>1173.6</ele><time>2026-04-30T08:50:46.381Z</time></trkpt><trkpt lat="46.5922774" lon="12.4904592"><ele>1170.0</ele><time>2026-04-30T08:50:47.381Z</time></trkpt><trkpt lat="46.5922944" lon="12.4906007"><ele>1167.2</ele><time>2026-04-30T08:50:48.381Z</time></trkpt><trkpt lat="46.5923152" lon="12.4907461"><ele>1164.4</ele><time>2026-04-30T08:50:49.381Z</time></trkpt><trkpt lat="46.5923388" lon="12.4909056"><ele>1161.6</ele><time>2026-04-30T08:50:50.381Z</time></trkpt><trkpt lat="46.5923662" lon="12.4910647"><ele>1158.8</ele><time>2026-04-30T08:50:51.382Z</time></trkpt><trkpt lat="46.592423" lon="12.4912114"><ele>1156.0</ele><time>2026-04-30T08:50:52.381Z</time></trkpt><trkpt lat="46.5924874" lon="12.4913598"><ele>1156.0</ele><time>2026-04-30T08:50:53.381Z</time></trkpt><trkpt lat="46.5925532" lon="12.4914923"><ele>1156.0</ele><time>2026-04-30T08:50:54.381Z</time></trkpt><trkpt lat="46.5926132" lon="12.491628"><ele>1156.0</ele><time>2026-04-30T08:50:55.381Z</time></trkpt><trkpt lat="46.5926314" lon="12.4917508"><ele>1156.0</ele><time>2026-04-30T08:50:56.381Z</time></trkpt><trkpt lat="46.5926435" lon="12.4918761"><ele>1156.0</ele><time>2026-04-30T08:50:57.38Z</time></trkpt><trkpt lat="46.592636" lon="12.4920206"><ele>1156.25</ele><time>2026-04-30T08:50:58.381Z</time></trkpt><trkpt lat="46.5926159" lon="12.4921816"><ele>1156.5</ele><time>2026-04-30T08:50:59.381Z</time></trkpt><trkpt lat="46.5925968" lon="12.4923511"><ele>1156.75</ele><time>2026-04-30T08:51:00.381Z</time></trkpt><trkpt lat="46.5925875" lon="12.4925314"><ele>1157.0</ele><time>2026-04-30T08:51:01.381Z</time></trkpt><trkpt lat="46.5925969" lon="12.4927205"><ele>1157.0</ele><time>2026-04-30T08:51:02.381Z</time></trkpt><trkpt lat="46.592607" lon="12.4929094"><ele>1157.0</ele><time>2026-04-30T08:51:03.38Z</time></trkpt><trkpt lat="46.5926101" lon="12.4930955"><ele>1157.0</ele><time>2026-04-30T08:51:04.381Z</time></trkpt><trkpt lat="46.5926006" lon="12.4932874"><ele>1157.0</ele><time>2026-04-30T08:51:05.381Z</time></trkpt><trkpt lat="46.5925884" lon="12.4934724"><ele>1155.0</ele><time>2026-04-30T08:51:06.38Z</time></trkpt><trkpt lat="46.5925794" lon="12.4936385"><ele>1153.0</ele><time>2026-04-30T08:51:07.381Z</time></trkpt><trkpt lat="46.5925964" lon="12.4937867"><ele>1151.0</ele><time>2026-04-30T08:51:08.381Z</time></trkpt><trkpt lat="46.5926416" lon="12.4939385"><ele>1149.0</ele><time>2026-04-30T08:51:09.381Z</time></trkpt><trkpt lat="46.5926715" lon="12.4941197"><ele>1149.0</ele><time>2026-04-30T08:51:10.381Z</time></trkpt><trkpt lat="46.5926891" lon="12.4943026"><ele>1149.0</ele><time>2026-04-30T08:51:11.381Z</time></trkpt><trkpt lat="46.5926591" lon="12.494497"><ele>1149.0</ele><time>2026-04-30T08:51:12.38Z</time></trkpt><trkpt lat="46.592647" lon="12.4946824"><ele>1149.0</ele><time>2026-04-30T08:51:13.38Z</time></trkpt><trkpt lat="46.5926095" lon="12.494867"><ele>1149.0</ele><time>2026-04-30T08:51:14.381Z</time></trkpt><trkpt lat="46.5925811" lon="12.495052"><ele>1149.0</ele><time>2026-04-30T08:51:15.381Z</time></trkpt><trkpt lat="46.5925576" lon="12.4952242"><ele>1149.0</ele><time>2026-04-30T08:51:16.381Z</time></trkpt><trkpt lat="46.5925635" lon="12.4953543"><ele>1149.0</ele><time>2026-04-30T08:51:17.381Z</time></trkpt><trkpt lat="46.5925699" lon="12.4955042"><ele>1149.0</ele><time>2026-04-30T08:51:18.381Z</time></trkpt><trkpt lat="46.5925909" lon="12.4956639"><ele>1149.0</ele><time>2026-04-30T08:51:19.381Z</time></trkpt><trkpt lat="46.592642" lon="12.4957763"><ele>1149.0</ele><time>2026-04-30T08:51:20.381Z</time></trkpt><trkpt lat="46.5926726" lon="12.4959045"><ele>1149.0</ele><time>2026-04-30T08:51:21.381Z</time></trkpt><trkpt lat="46.5926838" lon="12.4960549"><ele>1149.0</ele><time>2026-04-30T08:51:22.381Z</time></trkpt><trkpt lat="46.5926886" lon="12.4962094"><ele>1149.0</ele><time>2026-04-30T08:51:23.38Z</time></trkpt><trkpt lat="46.5926607" lon="12.4964021"><ele>1146.5</ele><time>2026-04-30T08:51:24.381Z</time></trkpt><trkpt lat="46.5925901" lon="12.4965799"><ele>1144.0</ele><time>2026-04-30T08:51:25.381Z</time></trkpt><trkpt lat="46.5925472" lon="12.496747"><ele>1141.5</ele><time>2026-04-30T08:51:26.381Z</time></trkpt><trkpt lat="46.5925004" lon="12.4969124"><ele>1139.0</ele><time>2026-04-30T08:51:27.381Z</time></trkpt><trkpt lat="46.5924315" lon="12.4970862"><ele>1134.5</ele><time>2026-04-30T08:51:28.381Z</time></trkpt><trkpt lat="46.5923708" lon="12.4972522"><ele>1130.0</ele><time>2026-04-30T08:51:29.381Z</time></trkpt><trkpt lat="46.5922884" lon="12.4973755"><ele>1125.5</ele><time>2026-04-30T08:51:30.381Z</time></trkpt><trkpt lat="46.5922017" lon="12.4975226"><ele>1121.0</ele><time>2026-04-30T08:51:31.381Z</time></trkpt><trkpt lat="46.5920955" lon="12.4976428"><ele>1119.6666666666667</ele><time>2026-04-30T08:51:32.381Z</time></trkpt><trkpt lat="46.591992" lon="12.4977728"><ele>1118.3333333333333</ele><time>2026-04-30T08:51:33.381Z</time></trkpt><trkpt lat="46.591862" lon="12.4979337"><ele>1117.0</ele><time>2026-04-30T08:51:34.381Z</time></trkpt><trkpt lat="46.5917405" lon="12.498087"><ele>1117.0</ele><time>2026-04-30T08:51:35.381Z</time></trkpt><trkpt lat="46.5916217" lon="12.4982099"><ele>1117.0</ele><time>2026-04-30T08:51:36.381Z</time></trkpt><trkpt lat="46.5915049" lon="12.4983258"><ele>1117.0</ele><time>2026-04-30T08:51:37.382Z</time></trkpt><trkpt lat="46.5913936" lon="12.4984535"><ele>1117.0</ele><time>2026-04-30T08:51:38.381Z</time></trkpt><trkpt lat="46.5912967" lon="12.4985826"><ele>1117.0</ele><time>2026-04-30T08:51:39.382Z</time></trkpt><trkpt lat="46.5912053" lon="12.4987278"><ele>1117.0</ele><time>2026-04-30T08:51:40.381Z</time></trkpt><trkpt lat="46.591131" lon="12.4988606"><ele>1117.0</ele><time>2026-04-30T08:51:41.381Z</time></trkpt><trkpt lat="46.5910323" lon="12.4989884"><ele>1117.0</ele><time>2026-04-30T08:51:42.381Z</time></trkpt><trkpt lat="46.5909322" lon="12.4991068"><ele>1118.5</ele><time>2026-04-30T08:51:43.38Z</time></trkpt><trkpt lat="46.5908348" lon="12.4992463"><ele>1120.0</ele><time>2026-04-30T08:51:44.381Z</time></trkpt><trkpt lat="46.5907584" lon="12.4993887"><ele>1121.5</ele><time>2026-04-30T08:51:45.381Z</time></trkpt><trkpt lat="46.5906907" lon="12.4995418"><ele>1123.0</ele><time>2026-04-30T08:51:46.381Z</time></trkpt><trkpt lat="46.5906311" lon="12.4997061"><ele>1119.4</ele><time>2026-04-30T08:51:47.381Z</time></trkpt><trkpt lat="46.590591" lon="12.4998707"><ele>1115.8</ele><time>2026-04-30T08:51:48.381Z</time></trkpt><trkpt lat="46.5905758" lon="12.5000292"><ele>1112.2</ele><time>2026-04-30T08:51:49.381Z</time></trkpt><trkpt lat="46.5905536" lon="12.5001643"><ele>1108.6</ele><time>2026-04-30T08:51:50.381Z</time></trkpt><trkpt lat="46.5905324" lon="12.5003068"><ele>1105.0</ele><time>2026-04-30T08:51:51.381Z</time></trkpt><trkpt lat="46.5904997" lon="12.5004417"><ele>1104.0</ele><time>2026-04-30T08:51:52.381Z</time></trkpt><trkpt lat="46.5904907" lon="12.5005681"><ele>1103.0</ele><time>2026-04-30T08:51:53.381Z</time></trkpt><trkpt lat="46.5904849" lon="12.5006848"><ele>1102.0</ele><time>2026-04-30T08:51:54.381Z</time></trkpt><trkpt lat="46.5904437" lon="12.5008238"><ele>1101.0</ele><time>2026-04-30T08:51:56.381Z</time></trkpt><trkpt lat="46.5903451" lon="12.5009286"><ele>1100.0</ele><time>2026-04-30T08:51:58.381Z</time></trkpt><trkpt lat="46.5902691" lon="12.5009426"><ele>1100.0</ele><time>2026-04-30T08:51:59.381Z</time></trkpt><trkpt lat="46.5901314" lon="12.5009298"><ele>1100.0</ele><time>2026-04-30T08:52:00.38Z</time></trkpt><trkpt lat="46.5900225" lon="12.5009633"><ele>1100.0</ele><time>2026-04-30T08:52:01.381Z</time></trkpt><trkpt lat="46.5899438" lon="12.5010216"><ele>1100.0</ele><time>2026-04-30T08:52:02.381Z</time></trkpt><trkpt lat="46.5898654" lon="12.5010542"><ele>1100.0</ele><time>2026-04-30T08:52:03.381Z</time></trkpt><trkpt lat="46.5898004" lon="12.5010253"><ele>1100.0</ele><time>2026-04-30T08:52:04.381Z</time></trkpt><trkpt lat="46.5897213" lon="12.5010116"><ele>1100.0</ele><time>2026-04-30T08:52:05.381Z</time></trkpt><trkpt lat="46.5896424" lon="12.5010025"><ele>1100.0</ele><time>2026-04-30T08:52:06.381Z</time></trkpt><trkpt lat="46.589568" lon="12.5009886"><ele>1100.0</ele><time>2026-04-30T08:52:07.381Z</time></trkpt><trkpt lat="46.589482" lon="12.5009709"><ele>1100.0</ele><time>2026-04-30T08:52:08.381Z</time></trkpt><trkpt lat="46.5893993" lon="12.5009335"><ele>1100.0</ele><time>2026-04-30T08:52:09.381Z</time></trkpt><trkpt lat="46.5893221" lon="12.500889"><ele>1094.2</ele><time>2026-04-30T08:52:10.381Z</time></trkpt><trkpt lat="46.5892495" lon="12.5008355"><ele>1088.4</ele><time>2026-04-30T08:52:11.381Z</time></trkpt><trkpt lat="46.589153" lon="12.5007656"><ele>1082.6</ele><time>2026-04-30T08:52:13.381Z</time></trkpt><trkpt lat="46.5890818" lon="12.5008051"><ele>1076.8</ele><time>2026-04-30T08:52:16.381Z</time></trkpt><trkpt lat="46.5891178" lon="12.5009714"><ele>1071.0</ele><time>2026-04-30T08:52:18.381Z</time></trkpt><trkpt lat="46.5891436" lon="12.5010749"><ele>1071.0</ele><time>2026-04-30T08:52:19.381Z</time></trkpt><trkpt lat="46.5891647" lon="12.5011914"><ele>1071.0</ele><time>2026-04-30T08:52:20.381Z</time></trkpt><trkpt lat="46.5891722" lon="12.5013061"><ele>1071.0</ele><time>2026-04-30T08:52:21.381Z</time></trkpt><trkpt lat="46.5891621" lon="12.501434"><ele>1071.0</ele><time>2026-04-30T08:52:23.381Z</time></trkpt><trkpt lat="46.589082" lon="12.5014484"><ele>1071.0</ele><time>2026-04-30T08:52:25.381Z</time></trkpt><trkpt lat="46.5889767" lon="12.5013784"><ele>1071.0</ele><time>2026-04-30T08:52:27.381Z</time></trkpt><trkpt lat="46.5889221" lon="12.5013243"><ele>1067.5</ele><time>2026-04-30T08:52:28.381Z</time></trkpt><trkpt lat="46.5888641" lon="12.5012674"><ele>1064.0</ele><time>2026-04-30T08:52:30.381Z</time></trkpt><trkpt lat="46.588809" lon="12.5013208"><ele>1060.5</ele><time>2026-04-30T08:52:32.382Z</time></trkpt><trkpt lat="46.5887825" lon="12.5014931"><ele>1057.0</ele><time>2026-04-30T08:52:34.381Z</time></trkpt><trkpt lat="46.5887951" lon="12.5016203"><ele>1053.5</ele><time>2026-04-30T08:52:35.381Z</time></trkpt><trkpt lat="46.5887945" lon="12.5017543"><ele>1050.0</ele><time>2026-04-30T08:52:36.381Z</time></trkpt><trkpt lat="46.5888039" lon="12.5018982"><ele>1050.0</ele><time>2026-04-30T08:52:37.381Z</time></trkpt><trkpt lat="46.5888205" lon="12.5020432"><ele>1050.0</ele><time>2026-04-30T08:52:38.381Z</time></trkpt><trkpt lat="46.5888468" lon="12.502185"><ele>1050.0</ele><time>2026-04-30T08:52:39.381Z</time></trkpt><trkpt lat="46.5889029" lon="12.5023021"><ele>1050.0</ele><time>2026-04-30T08:52:40.381Z</time></trkpt><trkpt lat="46.588946" lon="12.5024077"><ele>1050.0</ele><time>2026-04-30T08:52:41.381Z</time></trkpt><trkpt lat="46.5889676" lon="12.5024958"><ele>1050.0</ele><time>2026-04-30T08:52:42.381Z</time></trkpt><trkpt lat="46.588943" lon="12.5026737"><ele>1049.1666666666667</ele><time>2026-04-30T08:52:44.381Z</time></trkpt><trkpt lat="46.588905" lon="12.5027684"><ele>1048.3333333333333</ele><time>2026-04-30T08:52:45.381Z</time></trkpt><trkpt lat="46.5888812" lon="12.5028738"><ele>1047.5</ele><time>2026-04-30T08:52:46.381Z</time></trkpt><trkpt lat="46.5888558" lon="12.5029781"><ele>1046.6666666666665</ele><time>2026-04-30T08:52:47.381Z</time></trkpt><trkpt lat="46.588832" lon="12.5030887"><ele>1045.8333333333333</ele><time>2026-04-30T08:52:48.381Z</time></trkpt><trkpt lat="46.5888065" lon="12.5032055"><ele>1045.0</ele><time>2026-04-30T08:52:49.381Z</time></trkpt><trkpt lat="46.5887781" lon="12.5033259"><ele>1047.2</ele><time>2026-04-30T08:52:50.381Z</time></trkpt><trkpt lat="46.5887509" lon="12.5034517"><ele>1049.4</ele><time>2026-04-30T08:52:51.381Z</time></trkpt><trkpt lat="46.5887348" lon="12.503589"><ele>1051.6</ele><time>2026-04-30T08:52:52.381Z</time></trkpt><trkpt lat="46.5887312" lon="12.5037234"><ele>1053.8</ele><time>2026-04-30T08:52:53.381Z</time></trkpt><trkpt lat="46.5887325" lon="12.5038574"><ele>1056.0</ele><time>2026-04-30T08:52:54.381Z</time></trkpt><trkpt lat="46.5887248" lon="12.5040073"><ele>1057.3333333333333</ele><time>2026-04-30T08:52:55.381Z</time></trkpt><trkpt lat="46.5887145" lon="12.5041463"><ele>1058.6666666666667</ele><time>2026-04-30T08:52:56.38Z</time></trkpt><trkpt lat="46.5887054" lon="12.50428"><ele>1060.0</ele><time>2026-04-30T08:52:57.381Z</time></trkpt><trkpt lat="46.5886892" lon="12.5044097"><ele>1061.3333333333335</ele><time>2026-04-30T08:52:58.381Z</time></trkpt><trkpt lat="46.5886792" lon="12.5045251"><ele>1062.6666666666667</ele><time>2026-04-30T08:52:59.381Z</time></trkpt><trkpt lat="46.5886651" lon="12.504632"><ele>1064.0</ele><time>2026-04-30T08:53:00.381Z</time></trkpt><trkpt lat="46.5886394" lon="12.5047285"><ele>1059.4</ele><time>2026-04-30T08:53:01.382Z</time></trkpt><trkpt lat="46.5885855" lon="12.504814"><ele>1054.8000000000002</ele><time>2026-04-30T08:53:02.381Z</time></trkpt><trkpt lat="46.588537" lon="12.5049083"><ele>1050.1999999999998</ele><time>2026-04-30T08:53:03.382Z</time></trkpt><trkpt lat="46.5884602" lon="12.5050006"><ele>1045.6</ele><time>2026-04-30T08:53:04.381Z</time></trkpt><trkpt lat="46.5883962" lon="12.5051076"><ele>1041.0</ele><time>2026-04-30T08:53:05.381Z</time></trkpt><trkpt lat="46.5883222" lon="12.5051974"><ele>1041.0</ele><time>2026-04-30T08:53:06.381Z</time></trkpt><trkpt lat="46.5882497" lon="12.5052976"><ele>1041.0</ele><time>2026-04-30T08:53:07.381Z</time></trkpt><trkpt lat="46.5881738" lon="12.5053956"><ele>1041.0</ele><time>2026-04-30T08:53:08.382Z</time></trkpt><trkpt lat="46.5880865" lon="12.5054863"><ele>1041.0</ele><time>2026-04-30T08:53:09.381Z</time></trkpt><trkpt lat="46.5879971" lon="12.5055714"><ele>1041.0</ele><time>2026-04-30T08:53:10.381Z</time></trkpt><trkpt lat="46.5879042" lon="12.5056529"><ele>1038.8</ele><time>2026-04-30T08:53:11.381Z</time></trkpt><trkpt lat="46.5878082" lon="12.5057212"><ele>1036.6</ele><time>2026-04-30T08:53:12.38Z</time></trkpt><trkpt lat="46.5877138" lon="12.5057846"><ele>1034.4</ele><time>2026-04-30T08:53:13.381Z</time></trkpt><trkpt lat="46.5876107" lon="12.5058553"><ele>1032.2</ele><time>2026-04-30T08:53:14.381Z</time></trkpt><trkpt lat="46.5875111" lon="12.5059245"><ele>1030.0</ele><time>2026-04-30T08:53:15.381Z</time></trkpt><trkpt lat="46.5874118" lon="12.5059921"><ele>1030.0</ele><time>2026-04-30T08:53:16.381Z</time></trkpt><trkpt lat="46.5873125" lon="12.5060632"><ele>1030.0</ele><time>2026-04-30T08:53:17.381Z</time></trkpt><trkpt lat="46.5872178" lon="12.5061303"><ele>1030.0</ele><time>2026-04-30T08:53:18.381Z</time></trkpt><trkpt lat="46.5871249" lon="12.506189"><ele>1030.0</ele><time>2026-04-30T08:53:19.38Z</time></trkpt><trkpt lat="46.5870359" lon="12.506249"><ele>1030.0</ele><time>2026-04-30T08:53:20.381Z</time></trkpt><trkpt lat="46.5869481" lon="12.506316"><ele>1033.0</ele><time>2026-04-30T08:53:21.381Z</time></trkpt><trkpt lat="46.5868739" lon="12.5063688"><ele>1036.0</ele><time>2026-04-30T08:53:22.381Z</time></trkpt><trkpt lat="46.5868098" lon="12.5064448"><ele>1039.0</ele><time>2026-04-30T08:53:23.381Z</time></trkpt><trkpt lat="46.5868" lon="12.5065664"><ele>1042.0</ele><time>2026-04-30T08:53:24.381Z</time></trkpt><trkpt lat="46.5867979" lon="12.5066844"><ele>1045.0</ele><time>2026-04-30T08:53:25.381Z</time></trkpt><trkpt lat="46.5868183" lon="12.5068046"><ele>1048.0</ele><time>2026-04-30T08:53:26.381Z</time></trkpt><trkpt lat="46.5868526" lon="12.5069179"><ele>1048.0</ele><time>2026-04-30T08:53:27.381Z</time></trkpt><trkpt lat="46.5868883" lon="12.5070259"><ele>1048.0</ele><time>2026-04-30T08:53:28.381Z</time></trkpt><trkpt lat="46.5869017" lon="12.5071472"><ele>1048.0</ele><time>2026-04-30T08:53:29.382Z</time></trkpt><trkpt lat="46.5868997" lon="12.5072796"><ele>1048.0</ele><time>2026-04-30T08:53:30.381Z</time></trkpt><trkpt lat="46.5868952" lon="12.5074168"><ele>1048.0</ele><time>2026-04-30T08:53:31.381Z</time></trkpt><trkpt lat="46.5868523" lon="12.5075501"><ele>1047.6</ele><time>2026-04-30T08:53:32.381Z</time></trkpt><trkpt lat="46.5868179" lon="12.5076922"><ele>1047.1999999999998</ele><time>2026-04-30T08:53:33.382Z</time></trkpt><trkpt lat="46.5867885" lon="12.507835"><ele>1046.8</ele><time>2026-04-30T08:53:34.381Z</time></trkpt><trkpt lat="46.5867628" lon="12.5079708"><ele>1046.3999999999999</ele><time>2026-04-30T08:53:35.381Z</time></trkpt><trkpt lat="46.5867533" lon="12.5081003"><ele>1046.0</ele><time>2026-04-30T08:53:36.381Z</time></trkpt><trkpt lat="46.5867578" lon="12.5082298"><ele>1048.0</ele><time>2026-04-30T08:53:37.381Z</time></trkpt><trkpt lat="46.5867722" lon="12.5083681"><ele>1050.0</ele><time>2026-04-30T08:53:38.381Z</time></trkpt><trkpt lat="46.5868188" lon="12.5084897"><ele>1052.0</ele><time>2026-04-30T08:53:39.381Z</time></trkpt><trkpt lat="46.5868587" lon="12.5086097"><ele>1054.0</ele><time>2026-04-30T08:53:40.381Z</time></trkpt><trkpt lat="46.5869054" lon="12.5087339"><ele>1056.0</ele><time>2026-04-30T08:53:41.381Z</time></trkpt><trkpt lat="46.5869545" lon="12.508864"><ele>1057.3999999999999</ele><time>2026-04-30T08:53:42.381Z</time></trkpt><trkpt lat="46.5870077" lon="12.5089969"><ele>1058.8</ele><time>2026-04-30T08:53:43.38Z</time></trkpt><trkpt lat="46.5870551" lon="12.5091259"><ele>1060.1999999999998</ele><time>2026-04-30T08:53:44.381Z</time></trkpt><trkpt lat="46.5870839" lon="12.5092653"><ele>1061.6</ele><time>2026-04-30T08:53:45.381Z</time></trkpt><trkpt lat="46.5870972" lon="12.5094151"><ele>1063.0</ele><time>2026-04-30T08:53:46.38Z</time></trkpt><trkpt lat="46.5871087" lon="12.5095689"><ele>1064.2</ele><time>2026-04-30T08:53:47.381Z</time></trkpt><trkpt lat="46.5871195" lon="12.5097249"><ele>1065.4</ele><time>2026-04-30T08:53:48.381Z</time></trkpt><trkpt lat="46.5871233" lon="12.5098854"><ele>1066.6000000000001</ele><time>2026-04-30T08:53:49.381Z</time></trkpt><trkpt lat="46.5871216" lon="12.5100473"><ele>1067.8</ele><time>2026-04-30T08:53:50.381Z</time></trkpt><trkpt lat="46.5871183" lon="12.5102046"><ele>1069.0</ele><time>2026-04-30T08:53:51.381Z</time></trkpt><trkpt lat="46.5871118" lon="12.510356"><ele>1069.0</ele><time>2026-04-30T08:53:52.381Z</time></trkpt><trkpt lat="46.5870614" lon="12.5105285"><ele>1069.0</ele><time>2026-04-30T08:53:53.381Z</time></trkpt><trkpt lat="46.5870113" lon="12.5106856"><ele>1069.0</ele><time>2026-04-30T08:53:54.381Z</time></trkpt><trkpt lat="46.5869599" lon="12.5108456"><ele>1069.0</ele><time>2026-04-30T08:53:55.381Z</time></trkpt><trkpt lat="46.5868748" lon="12.5109814"><ele>1063.25</ele><time>2026-04-30T08:53:56.381Z</time></trkpt><trkpt lat="46.5868005" lon="12.5111238"><ele>1057.5</ele><time>2026-04-30T08:53:57.381Z</time></trkpt><trkpt lat="46.5867272" lon="12.5112675"><ele>1051.75</ele><time>2026-04-30T08:53:58.381Z</time></trkpt><trkpt lat="46.5866282" lon="12.5114182"><ele>1046.0</ele><time>2026-04-30T08:53:59.381Z</time></trkpt><trkpt lat="46.5865406" lon="12.5115306"><ele>1044.75</ele><time>2026-04-30T08:54:00.382Z</time></trkpt><trkpt lat="46.5864399" lon="12.5116239"><ele>1043.5</ele><time>2026-04-30T08:54:01.381Z</time></trkpt><trkpt lat="46.5863337" lon="12.5117052"><ele>1042.25</ele><time>2026-04-30T08:54:02.381Z</time></trkpt><trkpt lat="46.5862158" lon="12.511753"><ele>1041.0</ele><time>2026-04-30T08:54:03.381Z</time></trkpt><trkpt lat="46.5860959" lon="12.5117844"><ele>1038.25</ele><time>2026-04-30T08:54:04.381Z</time></trkpt><trkpt lat="46.5859769" lon="12.511822"><ele>1035.5</ele><time>2026-04-30T08:54:05.381Z</time></trkpt><trkpt lat="46.5858715" lon="12.5118878"><ele>1032.75</ele><time>2026-04-30T08:54:06.382Z</time></trkpt><trkpt lat="46.5857762" lon="12.5119692"><ele>1030.0</ele><time>2026-04-30T08:54:07.381Z</time></trkpt><trkpt lat="46.5856864" lon="12.5120836"><ele>1028.75</ele><time>2026-04-30T08:54:08.382Z</time></trkpt><trkpt lat="46.5856013" lon="12.5122049"><ele>1027.5</ele><time>2026-04-30T08:54:09.381Z</time></trkpt><trkpt lat="46.5855153" lon="12.5123358"><ele>1026.25</ele><time>2026-04-30T08:54:10.381Z</time></trkpt><trkpt lat="46.5854411" lon="12.5124812"><ele>1025.0</ele><time>2026-04-30T08:54:11.381Z</time></trkpt><trkpt lat="46.5853775" lon="12.5126342"><ele>1023.75</ele><time>2026-04-30T08:54:12.381Z</time></trkpt><trkpt lat="46.5853145" lon="12.5127849"><ele>1022.5</ele><time>2026-04-30T08:54:13.381Z</time></trkpt><trkpt lat="46.5852624" lon="12.5129306"><ele>1021.25</ele><time>2026-04-30T08:54:14.381Z</time></trkpt><trkpt lat="46.5852247" lon="12.5130903"><ele>1020.0</ele><time>2026-04-30T08:54:15.382Z</time></trkpt><trkpt lat="46.5851966" lon="12.5132535"><ele>1020.0</ele><time>2026-04-30T08:54:16.381Z</time></trkpt><trkpt lat="46.5852033" lon="12.5134212"><ele>1020.0</ele><time>2026-04-30T08:54:17.38Z</time></trkpt><trkpt lat="46.5852236" lon="12.5135865"><ele>1020.0</ele><time>2026-04-30T08:54:18.381Z</time></trkpt><trkpt lat="46.585236" lon="12.5137363"><ele>1020.0</ele><time>2026-04-30T08:54:19.381Z</time></trkpt><trkpt lat="46.5852079" lon="12.5138631"><ele>1020.0</ele><time>2026-04-30T08:54:20.381Z</time></trkpt><trkpt lat="46.5851663" lon="12.5139902"><ele>1021.2</ele><time>2026-04-30T08:54:21.381Z</time></trkpt><trkpt lat="46.5851239" lon="12.514125"><ele>1022.4</ele><time>2026-04-30T08:54:22.381Z</time></trkpt><trkpt lat="46.5850799" lon="12.5142734"><ele>1023.5999999999999</ele><time>2026-04-30T08:54:23.381Z</time></trkpt><trkpt lat="46.5850358" lon="12.51443"><ele>1024.8</ele><time>2026-04-30T08:54:24.381Z</time></trkpt><trkpt lat="46.58499" lon="12.514586"><ele>1026.0</ele><time>2026-04-30T08:54:25.381Z</time></trkpt><trkpt lat="46.5849446" lon="12.5147423"><ele>1029.0</ele><time>2026-04-30T08:54:26.381Z</time></trkpt><trkpt lat="46.5848962" lon="12.5148979"><ele>1032.0</ele><time>2026-04-30T08:54:27.381Z</time></trkpt><trkpt lat="46.5848419" lon="12.5150516"><ele>1035.0</ele><time>2026-04-30T08:54:28.381Z</time></trkpt><trkpt lat="46.5847868" lon="12.5152051"><ele>1038.0</ele><time>2026-04-30T08:54:29.381Z</time></trkpt><trkpt lat="46.5847351" lon="12.5153516"><ele>1036.8</ele><time>2026-04-30T08:54:30.381Z</time></trkpt><trkpt lat="46.5846827" lon="12.5154896"><ele>1035.6</ele><time>2026-04-30T08:54:31.381Z</time></trkpt><trkpt lat="46.5846308" lon="12.5156162"><ele>1034.4</ele><time>2026-04-30T08:54:32.382Z</time></trkpt><trkpt lat="46.5845717" lon="12.5157282"><ele>1033.2</ele><time>2026-04-30T08:54:33.381Z</time></trkpt><trkpt lat="46.5845061" lon="12.5158361"><ele>1032.0</ele><time>2026-04-30T08:54:34.381Z</time></trkpt><trkpt lat="46.5843706" lon="12.516052"><ele>1032.0</ele><time>2026-04-30T08:54:36.381Z</time></trkpt><trkpt lat="46.5843101" lon="12.5161688"><ele>1032.0</ele><time>2026-04-30T08:54:37.381Z</time></trkpt><trkpt lat="46.5842532" lon="12.5162863"><ele>1032.0</ele><time>2026-04-30T08:54:38.381Z</time></trkpt><trkpt lat="46.5841986" lon="12.5164023"><ele>1032.0</ele><time>2026-04-30T08:54:39.381Z</time></trkpt><trkpt lat="46.584147" lon="12.5165221"><ele>1032.0</ele><time>2026-04-30T08:54:40.382Z</time></trkpt><trkpt lat="46.5840979" lon="12.5166421"><ele>1027.6</ele><time>2026-04-30T08:54:41.381Z</time></trkpt><trkpt lat="46.5840429" lon="12.5167631"><ele>1023.2</ele><time>2026-04-30T08:54:42.381Z</time></trkpt><trkpt lat="46.583988" lon="12.5168819"><ele>1018.8</ele><time>2026-04-30T08:54:43.381Z</time></trkpt><trkpt lat="46.5839356" lon="12.5169988"><ele>1014.4</ele><time>2026-04-30T08:54:44.381Z</time></trkpt><trkpt lat="46.5838815" lon="12.5171154"><ele>1010.0</ele><time>2026-04-30T08:54:45.381Z</time></trkpt><trkpt lat="46.5838256" lon="12.5172312"><ele>1007.8</ele><time>2026-04-30T08:54:46.381Z</time></trkpt><trkpt lat="46.5837691" lon="12.517353"><ele>1005.6</ele><time>2026-04-30T08:54:47.381Z</time></trkpt><trkpt lat="46.5837073" lon="12.5174773"><ele>1003.4000000000001</ele><time>2026-04-30T08:54:48.381Z</time></trkpt><trkpt lat="46.5836382" lon="12.5176026"><ele>1001.2</ele><time>2026-04-30T08:54:49.38Z</time></trkpt><trkpt lat="46.5835673" lon="12.5177347"><ele>999.0</ele><time>2026-04-30T08:54:50.381Z</time></trkpt><trkpt lat="46.5834893" lon="12.5178618"><ele>999.75</ele><time>2026-04-30T08:54:51.381Z</time></trkpt><trkpt lat="46.5834083" lon="12.5179936"><ele>1000.5</ele><time>2026-04-30T08:54:52.381Z</time></trkpt><trkpt lat="46.5833252" lon="12.518126"><ele>1001.25</ele><time>2026-04-30T08:54:53.381Z</time></trkpt><trkpt lat="46.5832387" lon="12.5182585"><ele>1002.0</ele><time>2026-04-30T08:54:54.381Z</time></trkpt><trkpt lat="46.5831512" lon="12.5183872"><ele>1002.0</ele><time>2026-04-30T08:54:55.381Z</time></trkpt><trkpt lat="46.5830623" lon="12.5185183"><ele>1002.0</ele><time>2026-04-30T08:54:56.381Z</time></trkpt><trkpt lat="46.5829751" lon="12.518635"><ele>1002.0</ele><time>2026-04-30T08:54:57.381Z</time></trkpt><trkpt lat="46.5828806" lon="12.5187343"><ele>1002.0</ele><time>2026-04-30T08:54:58.381Z</time></trkpt><trkpt lat="46.582769" lon="12.5188185"><ele>1003.5</ele><time>2026-04-30T08:54:59.381Z</time></trkpt><trkpt lat="46.582652" lon="12.5188909"><ele>1005.0</ele><time>2026-04-30T08:55:00.38Z</time></trkpt><trkpt lat="46.5825301" lon="12.5189666"><ele>1006.5</ele><time>2026-04-30T08:55:01.381Z</time></trkpt><trkpt lat="46.5824119" lon="12.5190456"><ele>1008.0</ele><time>2026-04-30T08:55:02.381Z</time></trkpt><trkpt lat="46.5822887" lon="12.5191332"><ele>1008.0</ele><time>2026-04-30T08:55:03.381Z</time></trkpt><trkpt lat="46.5821801" lon="12.5192452"><ele>1008.0</ele><time>2026-04-30T08:55:04.38Z</time></trkpt><trkpt lat="46.582069" lon="12.5193818"><ele>1008.0</ele><time>2026-04-30T08:55:05.381Z</time></trkpt><trkpt lat="46.5819715" lon="12.5195262"><ele>1008.0</ele><time>2026-04-30T08:55:06.382Z</time></trkpt><trkpt lat="46.5818878" lon="12.5196801"><ele>1013.25</ele><time>2026-04-30T08:55:07.381Z</time></trkpt><trkpt lat="46.5818147" lon="12.5198453"><ele>1018.5</ele><time>2026-04-30T08:55:08.381Z</time></trkpt><trkpt lat="46.5817465" lon="12.5200013"><ele>1023.75</ele><time>2026-04-30T08:55:09.381Z</time></trkpt><trkpt lat="46.5816879" lon="12.5201417"><ele>1029.0</ele><time>2026-04-30T08:55:10.381Z</time></trkpt><trkpt lat="46.581626" lon="12.5202554"><ele>1029.0</ele><time>2026-04-30T08:55:11.381Z</time></trkpt><trkpt lat="46.581556" lon="12.5203539"><ele>1029.0</ele><time>2026-04-30T08:55:12.381Z</time></trkpt><trkpt lat="46.5814862" lon="12.5204374"><ele>1029.0</ele><time>2026-04-30T08:55:13.381Z</time></trkpt><trkpt lat="46.5814261" lon="12.5205367"><ele>1029.0</ele><time>2026-04-30T08:55:14.381Z</time></trkpt><trkpt lat="46.5813867" lon="12.5206534"><ele>1029.0</ele><time>2026-04-30T08:55:15.381Z</time></trkpt><trkpt lat="46.581342" lon="12.5207783"><ele>1028.5</ele><time>2026-04-30T08:55:16.381Z</time></trkpt><trkpt lat="46.5812867" lon="12.520907"><ele>1028.0</ele><time>2026-04-30T08:55:17.381Z</time></trkpt><trkpt lat="46.5811597" lon="12.5211809"><ele>1027.5</ele><time>2026-04-30T08:55:19.382Z</time></trkpt><trkpt lat="46.5811039" lon="12.5213239"><ele>1027.0</ele><time>2026-04-30T08:55:20.381Z</time></trkpt><trkpt lat="46.5810488" lon="12.5214513"><ele>1027.0</ele><time>2026-04-30T08:55:21.381Z</time></trkpt><trkpt lat="46.5809922" lon="12.5215543"><ele>1027.0</ele><time>2026-04-30T08:55:22.381Z</time></trkpt><trkpt lat="46.5809286" lon="12.5216464"><ele>1027.0</ele><time>2026-04-30T08:55:23.381Z</time></trkpt><trkpt lat="46.5808761" lon="12.5217398"><ele>1027.0</ele><time>2026-04-30T08:55:24.381Z</time></trkpt><trkpt lat="46.5808458" lon="12.5218682"><ele>1027.0</ele><time>2026-04-30T08:55:25.381Z</time></trkpt><trkpt lat="46.5808309" lon="12.5220229"><ele>1025.0</ele><time>2026-04-30T08:55:26.381Z</time></trkpt><trkpt lat="46.5808111" lon="12.5222024"><ele>1023.0</ele><time>2026-04-30T08:55:27.381Z</time></trkpt><trkpt lat="46.5807842" lon="12.522398"><ele>1021.0</ele><time>2026-04-30T08:55:28.38Z</time></trkpt><trkpt lat="46.580771" lon="12.5225737"><ele>1019.0</ele><time>2026-04-30T08:55:29.381Z</time></trkpt><trkpt lat="46.5807701" lon="12.5227278"><ele>1019.0</ele><time>2026-04-30T08:55:30.381Z</time></trkpt><trkpt lat="46.5807828" lon="12.5228722"><ele>1019.0000000000001</ele><time>2026-04-30T08:55:31.381Z</time></trkpt><trkpt lat="46.5807858" lon="12.5229884"><ele>1019.0000000000001</ele><time>2026-04-30T08:55:32.381Z</time></trkpt><trkpt lat="46.5807613" lon="12.5231106"><ele>1019.0</ele><time>2026-04-30T08:55:33.38Z</time></trkpt><trkpt lat="46.5807057" lon="12.5232374"><ele>1019.0</ele><time>2026-04-30T08:55:34.381Z</time></trkpt><trkpt lat="46.5806266" lon="12.5233658"><ele>1015.75</ele><time>2026-04-30T08:55:35.381Z</time></trkpt><trkpt lat="46.5805472" lon="12.5235185"><ele>1012.5</ele><time>2026-04-30T08:55:36.381Z</time></trkpt><trkpt lat="46.5804774" lon="12.5236697"><ele>1009.25</ele><time>2026-04-30T08:55:37.381Z</time></trkpt><trkpt lat="46.580413" lon="12.5238159"><ele>1006.0</ele><time>2026-04-30T08:55:38.381Z</time></trkpt><trkpt lat="46.5803507" lon="12.5239714"><ele>1008.75</ele><time>2026-04-30T08:55:39.381Z</time></trkpt><trkpt lat="46.5802915" lon="12.5241337"><ele>1011.5</ele><time>2026-04-30T08:55:40.381Z</time></trkpt><trkpt lat="46.5802422" lon="12.5242768"><ele>1014.25</ele><time>2026-04-30T08:55:41.382Z</time></trkpt><trkpt lat="46.5801755" lon="12.5244038"><ele>1017.0</ele><time>2026-04-30T08:55:42.381Z</time></trkpt><trkpt lat="46.5801117" lon="12.5245401"><ele>1012.0</ele><time>2026-04-30T08:55:43.382Z</time></trkpt><trkpt lat="46.5800388" lon="12.5246619"><ele>1007.0</ele><time>2026-04-30T08:55:44.381Z</time></trkpt><trkpt lat="46.579973" lon="12.524767"><ele>1002.0</ele><time>2026-04-30T08:55:45.381Z</time></trkpt><trkpt lat="46.5799098" lon="12.5248698"><ele>997.0</ele><time>2026-04-30T08:55:46.381Z</time></trkpt><trkpt lat="46.5798338" lon="12.5249468"><ele>992.0</ele><time>2026-04-30T08:55:47.381Z</time></trkpt><trkpt lat="46.579751" lon="12.5250325"><ele>992.0</ele><time>2026-04-30T08:55:48.381Z</time></trkpt><trkpt lat="46.5796623" lon="12.5251197"><ele>992.0</ele><time>2026-04-30T08:55:49.382Z</time></trkpt><trkpt lat="46.5795692" lon="12.5252222"><ele>992.0</ele><time>2026-04-30T08:55:50.381Z</time></trkpt><trkpt lat="46.5794714" lon="12.5253216"><ele>992.0</ele><time>2026-04-30T08:55:51.381Z</time></trkpt><trkpt lat="46.5793723" lon="12.5254385"><ele>991.5</ele><time>2026-04-30T08:55:52.381Z</time></trkpt><trkpt lat="46.5792726" lon="12.5255695"><ele>991.0</ele><time>2026-04-30T08:55:53.382Z</time></trkpt><trkpt lat="46.5791717" lon="12.5257062"><ele>990.5</ele><time>2026-04-30T08:55:54.381Z</time></trkpt><trkpt lat="46.5790739" lon="12.5258304"><ele>990.0</ele><time>2026-04-30T08:55:55.381Z</time></trkpt><trkpt lat="46.5789749" lon="12.5259363"><ele>990.0</ele><time>2026-04-30T08:55:56.381Z</time></trkpt><trkpt lat="46.5788721" lon="12.526045"><ele>990.0</ele><time>2026-04-30T08:55:57.381Z</time></trkpt><trkpt lat="46.5787692" lon="12.5261536"><ele>990.0</ele><time>2026-04-30T08:55:58.381Z</time></trkpt><trkpt lat="46.5786669" lon="12.5262656"><ele>990.0</ele><time>2026-04-30T08:55:59.38Z</time></trkpt><trkpt lat="46.5785681" lon="12.5263894"><ele>992.5</ele><time>2026-04-30T08:56:00.382Z</time></trkpt><trkpt lat="46.5784776" lon="12.5265277"><ele>995.0</ele><time>2026-04-30T08:56:01.381Z</time></trkpt><trkpt lat="46.5783951" lon="12.526679"><ele>997.5</ele><time>2026-04-30T08:56:02.381Z</time></trkpt><trkpt lat="46.5783232" lon="12.5268412"><ele>1000.0</ele><time>2026-04-30T08:56:03.381Z</time></trkpt><trkpt lat="46.5782625" lon="12.5270156"><ele>995.0</ele><time>2026-04-30T08:56:04.381Z</time></trkpt><trkpt lat="46.5782004" lon="12.527189"><ele>990.0</ele><time>2026-04-30T08:56:05.381Z</time></trkpt><trkpt lat="46.5781385" lon="12.527348"><ele>985.0</ele><time>2026-04-30T08:56:06.38Z</time></trkpt><trkpt lat="46.5780687" lon="12.5275065"><ele>980.0</ele><time>2026-04-30T08:56:07.381Z</time></trkpt><trkpt lat="46.5779949" lon="12.5276693"><ele>980.0</ele><time>2026-04-30T08:56:08.381Z</time></trkpt><trkpt lat="46.577924" lon="12.5278364"><ele>980.0</ele><time>2026-04-30T08:56:09.381Z</time></trkpt><trkpt lat="46.5778467" lon="12.5280019"><ele>980.0</ele><time>2026-04-30T08:56:10.381Z</time></trkpt><trkpt lat="46.5777599" lon="12.5281578"><ele>980.0</ele><time>2026-04-30T08:56:11.381Z</time></trkpt><trkpt lat="46.5776732" lon="12.5282944"><ele>979.5</ele><time>2026-04-30T08:56:12.381Z</time></trkpt><trkpt lat="46.577591" lon="12.5284303"><ele>979.0</ele><time>2026-04-30T08:56:13.381Z</time></trkpt><trkpt lat="46.5775133" lon="12.5285633"><ele>978.5</ele><time>2026-04-30T08:56:14.381Z</time></trkpt><trkpt lat="46.577439" lon="12.5286954"><ele>978.0</ele><time>2026-04-30T08:56:15.381Z</time></trkpt><trkpt lat="46.5773682" lon="12.5288299"><ele>978.0</ele><time>2026-04-30T08:56:16.382Z</time></trkpt><trkpt lat="46.5773016" lon="12.5289655"><ele>978.0</ele><time>2026-04-30T08:56:17.381Z</time></trkpt><trkpt lat="46.5772386" lon="12.5291035"><ele>978.0</ele><time>2026-04-30T08:56:18.381Z</time></trkpt><trkpt lat="46.5771723" lon="12.5292356"><ele>978.0</ele><time>2026-04-30T08:56:19.381Z</time></trkpt><trkpt lat="46.5770972" lon="12.5293614"><ele>978.6666666666667</ele><time>2026-04-30T08:56:20.381Z</time></trkpt><trkpt lat="46.577013" lon="12.5294761"><ele>979.3333333333334</ele><time>2026-04-30T08:56:21.381Z</time></trkpt><trkpt lat="46.5769208" lon="12.5295792"><ele>980.0</ele><time>2026-04-30T08:56:22.381Z</time></trkpt><trkpt lat="46.5767206" lon="12.5297724"><ele>980.0</ele><time>2026-04-30T08:56:24.381Z</time></trkpt><trkpt lat="46.5766123" lon="12.5298667"><ele>980.0</ele><time>2026-04-30T08:56:25.381Z</time></trkpt><trkpt lat="46.5765002" lon="12.5299619"><ele>980.0</ele><time>2026-04-30T08:56:26.38Z</time></trkpt><trkpt lat="46.5763826" lon="12.5300471"><ele>980.0</ele><time>2026-04-30T08:56:27.382Z</time></trkpt><trkpt lat="46.5762665" lon="12.5301202"><ele>981.4</ele><time>2026-04-30T08:56:28.381Z</time></trkpt><trkpt lat="46.5761578" lon="12.5301809"><ele>982.8</ele><time>2026-04-30T08:56:29.381Z</time></trkpt><trkpt lat="46.5760577" lon="12.5302366"><ele>984.2</ele><time>2026-04-30T08:56:30.381Z</time></trkpt><trkpt lat="46.5759671" lon="12.5302993"><ele>985.6</ele><time>2026-04-30T08:56:31.381Z</time></trkpt><trkpt lat="46.5758858" lon="12.5303712"><ele>987.0</ele><time>2026-04-30T08:56:32.381Z</time></trkpt><trkpt lat="46.5757999" lon="12.5304553"><ele>983.4000000000001</ele><time>2026-04-30T08:56:33.381Z</time></trkpt><trkpt lat="46.5757176" lon="12.5305601"><ele>979.8000000000001</ele><time>2026-04-30T08:56:34.381Z</time></trkpt><trkpt lat="46.5756319" lon="12.5306631"><ele>976.2</ele><time>2026-04-30T08:56:35.381Z</time></trkpt><trkpt lat="46.5755462" lon="12.5307584"><ele>972.6</ele><time>2026-04-30T08:56:36.381Z</time></trkpt><trkpt lat="46.5754618" lon="12.5308423"><ele>969.0</ele><time>2026-04-30T08:56:37.381Z</time></trkpt><trkpt lat="46.5753807" lon="12.5309303"><ele>968.6666666666666</ele><time>2026-04-30T08:56:38.381Z</time></trkpt><trkpt lat="46.5753083" lon="12.5310031"><ele>968.3333333333333</ele><time>2026-04-30T08:56:39.381Z</time></trkpt><trkpt lat="46.5752439" lon="12.531064"><ele>968.0</ele><time>2026-04-30T08:56:40.381Z</time></trkpt><trkpt lat="46.5751816" lon="12.5311664"><ele>967.6666666666666</ele><time>2026-04-30T08:56:42.381Z</time></trkpt><trkpt lat="46.5752364" lon="12.5313029"><ele>967.3333333333333</ele><time>2026-04-30T08:56:44.382Z</time></trkpt><trkpt lat="46.5752996" lon="12.5313633"><ele>967.0</ele><time>2026-04-30T08:56:45.381Z</time></trkpt><trkpt lat="46.5753854" lon="12.5314347"><ele>967.0</ele><time>2026-04-30T08:56:46.381Z</time></trkpt><trkpt lat="46.5754637" lon="12.5315295"><ele>967.0</ele><time>2026-04-30T08:56:47.381Z</time></trkpt><trkpt lat="46.5755415" lon="12.5316375"><ele>967.0</ele><time>2026-04-30T08:56:48.381Z</time></trkpt><trkpt lat="46.575627" lon="12.5317453"><ele>967.0</ele><time>2026-04-30T08:56:49.381Z</time></trkpt><trkpt lat="46.5757209" lon="12.531856"><ele>967.0</ele><time>2026-04-30T08:56:50.381Z</time></trkpt><trkpt lat="46.5758168" lon="12.5319672"><ele>968.4000000000001</ele><time>2026-04-30T08:56:51.381Z</time></trkpt><trkpt lat="46.575906" lon="12.5320739"><ele>969.8000000000001</ele><time>2026-04-30T08:56:52.381Z</time></trkpt><trkpt lat="46.575984" lon="12.532171"><ele>971.2</ele><time>2026-04-30T08:56:53.381Z</time></trkpt><trkpt lat="46.5760514" lon="12.5322528"><ele>972.6</ele><time>2026-04-30T08:56:54.381Z</time></trkpt><trkpt lat="46.5761036" lon="12.53232"><ele>974.0</ele><time>2026-04-30T08:56:55.381Z</time></trkpt><trkpt lat="46.5761738" lon="12.53243"><ele>974.0</ele><time>2026-04-30T08:56:57.38Z</time></trkpt><trkpt lat="46.5762021" lon="12.5325244"><ele>974.0</ele><time>2026-04-30T08:57:04.381Z</time></trkpt><trkpt lat="46.5762335" lon="12.5326092"><ele>974.0</ele><time>2026-04-30T08:57:05.38Z</time></trkpt><trkpt lat="46.576249" lon="12.5327073"><ele>974.0</ele><time>2026-04-30T08:57:06.381Z</time></trkpt><trkpt lat="46.5762225" lon="12.5328046"><ele>974.0</ele><time>2026-04-30T08:57:07.381Z</time></trkpt><trkpt lat="46.5761649" lon="12.5328721"><ele>974.0</ele><time>2026-04-30T08:57:08.381Z</time></trkpt><trkpt lat="46.5760891" lon="12.532902"><ele>974.0</ele><time>2026-04-30T08:57:09.38Z</time></trkpt><trkpt lat="46.5759989" lon="12.5329262"><ele>976.2</ele><time>2026-04-30T08:57:10.381Z</time></trkpt><trkpt lat="46.5759089" lon="12.5329657"><ele>978.4000000000001</ele><time>2026-04-30T08:57:11.381Z</time></trkpt><trkpt lat="46.5758287" lon="12.5330141"><ele>980.6</ele><time>2026-04-30T08:57:12.382Z</time></trkpt><trkpt lat="46.5757431" lon="12.5330853"><ele>982.8</ele><time>2026-04-30T08:57:13.381Z</time></trkpt><trkpt lat="46.5756641" lon="12.5331732"><ele>985.0</ele><time>2026-04-30T08:57:14.382Z</time></trkpt><trkpt lat="46.5755804" lon="12.5332772"><ele>985.0</ele><time>2026-04-30T08:57:15.382Z</time></trkpt><trkpt lat="46.5755009" lon="12.5333897"><ele>985.0</ele><time>2026-04-30T08:57:16.381Z</time></trkpt><trkpt lat="46.5754229" lon="12.5335153"><ele>985.0</ele><time>2026-04-30T08:57:17.381Z</time></trkpt><trkpt lat="46.5753469" lon="12.5336438"><ele>985.0</ele><time>2026-04-30T08:57:18.381Z</time></trkpt><trkpt lat="46.5752766" lon="12.5337816"><ele>986.0</ele><time>2026-04-30T08:57:19.381Z</time></trkpt><trkpt lat="46.5752108" lon="12.5339201"><ele>987.0</ele><time>2026-04-30T08:57:20.381Z</time></trkpt><trkpt lat="46.5751438" lon="12.5340504"><ele>988.0</ele><time>2026-04-30T08:57:21.381Z</time></trkpt><trkpt lat="46.5750707" lon="12.5341642"><ele>989.0</ele><time>2026-04-30T08:57:22.381Z</time></trkpt><trkpt lat="46.5750025" lon="12.5342583"><ele>990.0</ele><time>2026-04-30T08:57:23.381Z</time></trkpt><trkpt lat="46.5749519" lon="12.5343357"><ele>990.0</ele><time>2026-04-30T08:57:24.381Z</time></trkpt><trkpt lat="46.5749618" lon="12.5344842"><ele>990.0</ele><time>2026-04-30T08:57:26.381Z</time></trkpt><trkpt lat="46.5750926" lon="12.5344813"><ele>990.0</ele><time>2026-04-30T08:57:28.382Z</time></trkpt><trkpt lat="46.5751673" lon="12.5344203"><ele>990.0</ele><time>2026-04-30T08:57:29.382Z</time></trkpt><trkpt lat="46.5752514" lon="12.5343532"><ele>990.0</ele><time>2026-04-30T08:57:30.38Z</time></trkpt><trkpt lat="46.5753443" lon="12.5342891"><ele>991.6</ele><time>2026-04-30T08:57:31.382Z</time></trkpt><trkpt lat="46.5754423" lon="12.5342295"><ele>993.2</ele><time>2026-04-30T08:57:32.381Z</time></trkpt><trkpt lat="46.5755421" lon="12.5341667"><ele>994.8</ele><time>2026-04-30T08:57:33.381Z</time></trkpt><trkpt lat="46.5756326" lon="12.5340998"><ele>996.4</ele><time>2026-04-30T08:57:34.381Z</time></trkpt><trkpt lat="46.575707" lon="12.5340475"><ele>998.0</ele><time>2026-04-30T08:57:35.381Z</time></trkpt><trkpt lat="46.5757707" lon="12.5340239"><ele>998.0</ele><time>2026-04-30T08:57:36.381Z</time></trkpt><trkpt lat="46.575839" lon="12.5341438"><ele>998.0</ele><time>2026-04-30T08:57:38.381Z</time></trkpt><trkpt lat="46.5757418" lon="12.5342776"><ele>998.0</ele><time>2026-04-30T08:57:40.381Z</time></trkpt><trkpt lat="46.5756689" lon="12.5343419"><ele>998.0</ele><time>2026-04-30T08:57:41.381Z</time></trkpt><trkpt lat="46.575593" lon="12.5344205"><ele>998.0</ele><time>2026-04-30T08:57:42.381Z</time></trkpt><trkpt lat="46.5755175" lon="12.5345151"><ele>1000.0</ele><time>2026-04-30T08:57:43.381Z</time></trkpt><trkpt lat="46.5754434" lon="12.5346192"><ele>1002.0</ele><time>2026-04-30T08:57:44.381Z</time></trkpt><trkpt lat="46.5753671" lon="12.5347242"><ele>1004.0</ele><time>2026-04-30T08:57:45.381Z</time></trkpt><trkpt lat="46.5752888" lon="12.5348399"><ele>1006.0</ele><time>2026-04-30T08:57:46.381Z</time></trkpt><trkpt lat="46.5752021" lon="12.5349604"><ele>1008.0</ele><time>2026-04-30T08:57:47.381Z</time></trkpt><trkpt lat="46.5751204" lon="12.5350779"><ele>1008.0</ele><time>2026-04-30T08:57:48.381Z</time></trkpt><trkpt lat="46.5750363" lon="12.5352022"><ele>1008.0</ele><time>2026-04-30T08:57:49.381Z</time></trkpt><trkpt lat="46.5749476" lon="12.5353171"><ele>1008.0</ele><time>2026-04-30T08:57:50.381Z</time></trkpt><trkpt lat="46.5748516" lon="12.535416"><ele>1008.0</ele><time>2026-04-30T08:57:51.381Z</time></trkpt><trkpt lat="46.5747571" lon="12.5355045"><ele>1011.75</ele><time>2026-04-30T08:57:52.38Z</time></trkpt><trkpt lat="46.5746574" lon="12.5355901"><ele>1015.5</ele><time>2026-04-30T08:57:53.38Z</time></trkpt><trkpt lat="46.5745585" lon="12.5356799"><ele>1019.25</ele><time>2026-04-30T08:57:54.38Z</time></trkpt><trkpt lat="46.5744739" lon="12.5357863"><ele>1023.0</ele><time>2026-04-30T08:57:55.381Z</time></trkpt><trkpt lat="46.5744059" lon="12.535916"><ele>1023.0</ele><time>2026-04-30T08:57:56.381Z</time></trkpt><trkpt lat="46.5743376" lon="12.5360474"><ele>1023.0</ele><time>2026-04-30T08:57:57.381Z</time></trkpt><trkpt lat="46.5742481" lon="12.5361604"><ele>1023.0</ele><time>2026-04-30T08:57:58.381Z</time></trkpt><trkpt lat="46.5741431" lon="12.5362502"><ele>1023.0</ele><time>2026-04-30T08:57:59.381Z</time></trkpt><trkpt lat="46.5740313" lon="12.5363272"><ele>1024.75</ele><time>2026-04-30T08:58:00.381Z</time></trkpt><trkpt lat="46.5739134" lon="12.536402"><ele>1026.5</ele><time>2026-04-30T08:58:01.381Z</time></trkpt><trkpt lat="46.5737944" lon="12.5364704"><ele>1028.25</ele><time>2026-04-30T08:58:02.381Z</time></trkpt><trkpt lat="46.5736819" lon="12.5365565"><ele>1030.0</ele><time>2026-04-30T08:58:03.38Z</time></trkpt><trkpt lat="46.5735764" lon="12.5366736"><ele>1030.0</ele><time>2026-04-30T08:58:04.381Z</time></trkpt><trkpt lat="46.5734783" lon="12.5367974"><ele>1030.0</ele><time>2026-04-30T08:58:05.382Z</time></trkpt><trkpt lat="46.5733811" lon="12.5369219"><ele>1030.0</ele><time>2026-04-30T08:58:06.381Z</time></trkpt><trkpt lat="46.5732853" lon="12.5370453"><ele>1030.0</ele><time>2026-04-30T08:58:07.382Z</time></trkpt><trkpt lat="46.5731867" lon="12.5371641"><ele>1032.75</ele><time>2026-04-30T08:58:08.381Z</time></trkpt><trkpt lat="46.5730851" lon="12.5372787"><ele>1035.5</ele><time>2026-04-30T08:58:09.381Z</time></trkpt><trkpt lat="46.5729801" lon="12.5373853"><ele>1038.25</ele><time>2026-04-30T08:58:10.381Z</time></trkpt><trkpt lat="46.5728741" lon="12.53749"><ele>1041.0</ele><time>2026-04-30T08:58:11.382Z</time></trkpt><trkpt lat="46.5727713" lon="12.5375967"><ele>1041.0</ele><time>2026-04-30T08:58:12.381Z</time></trkpt><trkpt lat="46.5726712" lon="12.5377045"><ele>1041.0</ele><time>2026-04-30T08:58:13.382Z</time></trkpt><trkpt lat="46.5725744" lon="12.5378135"><ele>1041.0</ele><time>2026-04-30T08:58:14.381Z</time></trkpt><trkpt lat="46.5724758" lon="12.5379216"><ele>1041.0</ele><time>2026-04-30T08:58:15.381Z</time></trkpt><trkpt lat="46.5723832" lon="12.5380255"><ele>1045.0</ele><time>2026-04-30T08:58:16.381Z</time></trkpt><trkpt lat="46.5722924" lon="12.5381297"><ele>1049.0</ele><time>2026-04-30T08:58:17.381Z</time></trkpt><trkpt lat="46.5722026" lon="12.538233"><ele>1053.0</ele><time>2026-04-30T08:58:18.382Z</time></trkpt><trkpt lat="46.5721162" lon="12.5383446"><ele>1057.0</ele><time>2026-04-30T08:58:19.381Z</time></trkpt><trkpt lat="46.5720283" lon="12.5384637"><ele>1057.5</ele><time>2026-04-30T08:58:20.381Z</time></trkpt><trkpt lat="46.5719456" lon="12.5385923"><ele>1058.0</ele><time>2026-04-30T08:58:21.381Z</time></trkpt><trkpt lat="46.571859" lon="12.5387171"><ele>1058.5</ele><time>2026-04-30T08:58:22.381Z</time></trkpt><trkpt lat="46.5717673" lon="12.5388334"><ele>1059.0</ele><time>2026-04-30T08:58:23.381Z</time></trkpt><trkpt lat="46.5716752" lon="12.5389445"><ele>1059.0</ele><time>2026-04-30T08:58:24.381Z</time></trkpt><trkpt lat="46.5715925" lon="12.5390504"><ele>1059.0</ele><time>2026-04-30T08:58:25.381Z</time></trkpt><trkpt lat="46.5715263" lon="12.5391476"><ele>1059.0</ele><time>2026-04-30T08:58:26.381Z</time></trkpt><trkpt lat="46.5714898" lon="12.5392419"><ele>1059.0</ele><time>2026-04-30T08:58:27.381Z</time></trkpt><trkpt lat="46.5714834" lon="12.5393441"><ele>1059.0</ele><time>2026-04-30T08:58:28.381Z</time></trkpt><trkpt lat="46.571459" lon="12.5395061"><ele>1058.8333333333333</ele><time>2026-04-30T08:58:30.381Z</time></trkpt><trkpt lat="46.5714021" lon="12.5395881"><ele>1058.6666666666667</ele><time>2026-04-30T08:58:31.381Z</time></trkpt><trkpt lat="46.5713422" lon="12.539655"><ele>1058.5</ele><time>2026-04-30T08:58:32.381Z</time></trkpt><trkpt lat="46.5712751" lon="12.5397387"><ele>1058.3333333333335</ele><time>2026-04-30T08:58:33.381Z</time></trkpt><trkpt lat="46.5712005" lon="12.5398095"><ele>1058.1666666666667</ele><time>2026-04-30T08:58:34.381Z</time></trkpt><trkpt lat="46.5711268" lon="12.5398609"><ele>1058.0</ele><time>2026-04-30T08:58:35.381Z</time></trkpt><trkpt lat="46.5710598" lon="12.539907"><ele>1058.0</ele><time>2026-04-30T08:58:36.381Z</time></trkpt><trkpt lat="46.5710015" lon="12.5399504"><ele>1058.0</ele><time>2026-04-30T08:58:37.381Z</time></trkpt><trkpt lat="46.5709432" lon="12.5400035"><ele>1058.0</ele><time>2026-04-30T08:58:38.381Z</time></trkpt><trkpt lat="46.5708827" lon="12.540057"><ele>1058.0</ele><time>2026-04-30T08:58:39.381Z</time></trkpt><trkpt lat="46.5708261" lon="12.5401082"><ele>1058.0</ele><time>2026-04-30T08:58:40.381Z</time></trkpt><trkpt lat="46.5707642" lon="12.5401728"><ele>1058.0</ele><time>2026-04-30T08:58:41.381Z</time></trkpt><trkpt lat="46.5706913" lon="12.5402257"><ele>1058.0</ele><time>2026-04-30T08:58:42.381Z</time></trkpt><trkpt lat="46.5706354" lon="12.5402968"><ele>1058.0</ele><time>2026-04-30T08:58:43.381Z</time></trkpt><trkpt lat="46.5705782" lon="12.5403794"><ele>1058.0</ele><time>2026-04-30T08:58:44.381Z</time></trkpt><trkpt lat="46.5705099" lon="12.5404575"><ele>1058.0</ele><time>2026-04-30T08:58:45.381Z</time></trkpt><trkpt lat="46.5704338" lon="12.5405249"><ele>1058.0</ele><time>2026-04-30T08:58:46.381Z</time></trkpt><trkpt lat="46.5703559" lon="12.5405809"><ele>1058.0</ele><time>2026-04-30T08:58:47.381Z</time></trkpt><trkpt lat="46.5702976" lon="12.5406411"><ele>1058.0</ele><time>2026-04-30T08:58:48.381Z</time></trkpt><trkpt lat="46.5702073" lon="12.5407523"><ele>1056.1666666666667</ele><time>2026-04-30T08:58:50.381Z</time></trkpt><trkpt lat="46.5701739" lon="12.5408395"><ele>1054.3333333333335</ele><time>2026-04-30T08:58:51.381Z</time></trkpt><trkpt lat="46.5701445" lon="12.5409544"><ele>1052.5</ele><time>2026-04-30T08:58:52.381Z</time></trkpt><trkpt lat="46.5700981" lon="12.5410535"><ele>1050.6666666666667</ele><time>2026-04-30T08:58:53.381Z</time></trkpt><trkpt lat="46.5700311" lon="12.5411315"><ele>1048.8333333333333</ele><time>2026-04-30T08:58:54.381Z</time></trkpt><trkpt lat="46.569959" lon="12.5412049"><ele>1047.0</ele><time>2026-04-30T08:58:55.381Z</time></trkpt><trkpt lat="46.5698939" lon="12.5412938"><ele>1051.4</ele><time>2026-04-30T08:58:56.381Z</time></trkpt><trkpt lat="46.5698282" lon="12.5413832"><ele>1055.8000000000002</ele><time>2026-04-30T08:58:57.381Z</time></trkpt><trkpt lat="46.5697674" lon="12.5414768"><ele>1060.2</ele><time>2026-04-30T08:58:58.381Z</time></trkpt><trkpt lat="46.5697136" lon="12.5415739"><ele>1064.6000000000001</ele><time>2026-04-30T08:58:59.381Z</time></trkpt><trkpt lat="46.5696573" lon="12.5416756"><ele>1069.0</ele><time>2026-04-30T08:59:00.381Z</time></trkpt><trkpt lat="46.5695982" lon="12.5418003"><ele>1069.0</ele><time>2026-04-30T08:59:01.381Z</time></trkpt><trkpt lat="46.5695325" lon="12.541911"><ele>1069.0</ele><time>2026-04-30T08:59:02.381Z</time></trkpt><trkpt lat="46.5694618" lon="12.5420166"><ele>1069.0</ele><time>2026-04-30T08:59:03.381Z</time></trkpt><trkpt lat="46.5693811" lon="12.5421017"><ele>1069.0</ele><time>2026-04-30T08:59:04.381Z</time></trkpt><trkpt lat="46.5693066" lon="12.5421771"><ele>1069.0</ele><time>2026-04-30T08:59:05.381Z</time></trkpt><trkpt lat="46.5692426" lon="12.5422601"><ele>1067.4</ele><time>2026-04-30T08:59:06.381Z</time></trkpt><trkpt lat="46.5691779" lon="12.5423433"><ele>1065.8000000000002</ele><time>2026-04-30T08:59:07.381Z</time></trkpt><trkpt lat="46.5691158" lon="12.5424372"><ele>1064.1999999999998</ele><time>2026-04-30T08:59:08.381Z</time></trkpt><trkpt lat="46.5690459" lon="12.5425373"><ele>1062.6</ele><time>2026-04-30T08:59:09.381Z</time></trkpt><trkpt lat="46.5689852" lon="12.5426383"><ele>1061.0</ele><time>2026-04-30T08:59:10.381Z</time></trkpt><trkpt lat="46.5689357" lon="12.542755"><ele>1061.0</ele><time>2026-04-30T08:59:11.381Z</time></trkpt><trkpt lat="46.5688815" lon="12.5428645"><ele>1061.0</ele><time>2026-04-30T08:59:12.381Z</time></trkpt><trkpt lat="46.5688479" lon="12.5429613"><ele>1061.0</ele><time>2026-04-30T08:59:13.381Z</time></trkpt><trkpt lat="46.5687977" lon="12.5430839"><ele>1061.0</ele><time>2026-04-30T08:59:15.381Z</time></trkpt><trkpt lat="46.5688454" lon="12.5432557"><ele>1061.0</ele><time>2026-04-30T08:59:18.381Z</time></trkpt><trkpt lat="46.5688171" lon="12.5433407"><ele>1062.3333333333335</ele><time>2026-04-30T08:59:22.381Z</time></trkpt><trkpt lat="46.5687427" lon="12.5433665"><ele>1063.6666666666667</ele><time>2026-04-30T08:59:24.381Z</time></trkpt><trkpt lat="46.5686559" lon="12.5434297"><ele>1065.0</ele><time>2026-04-30T08:59:26.381Z</time></trkpt><trkpt lat="46.5686054" lon="12.5434921"><ele>1066.3333333333333</ele><time>2026-04-30T08:59:27.381Z</time></trkpt><trkpt lat="46.5685582" lon="12.5435775"><ele>1067.6666666666665</ele><time>2026-04-30T08:59:28.382Z</time></trkpt><trkpt lat="46.5685127" lon="12.543653"><ele>1069.0</ele><time>2026-04-30T08:59:29.381Z</time></trkpt><trkpt lat="46.5684704" lon="12.5437413"><ele>1069.0</ele><time>2026-04-30T08:59:30.381Z</time></trkpt><trkpt lat="46.5684389" lon="12.543832"><ele>1069.0</ele><time>2026-04-30T08:59:31.381Z</time></trkpt><trkpt lat="46.5684027" lon="12.5439257"><ele>1069.0</ele><time>2026-04-30T08:59:32.381Z</time></trkpt><trkpt lat="46.5683612" lon="12.5440175"><ele>1069.0</ele><time>2026-04-30T08:59:33.381Z</time></trkpt><trkpt lat="46.5683126" lon="12.5441987"><ele>1069.0</ele><time>2026-04-30T08:59:35.381Z</time></trkpt><trkpt lat="46.5682943" lon="12.5442891"><ele>1069.0</ele><time>2026-04-30T08:59:36.381Z</time></trkpt><trkpt lat="46.5682638" lon="12.5443739"><ele>1069.0</ele><time>2026-04-30T08:59:37.381Z</time></trkpt><trkpt lat="46.5682217" lon="12.5445258"><ele>1069.0</ele><time>2026-04-30T08:59:39.381Z</time></trkpt><trkpt lat="46.5682176" lon="12.5446624"><ele>1069.0</ele><time>2026-04-30T08:59:41.381Z</time></trkpt><trkpt lat="46.5682195" lon="12.5447698"><ele>1069.0</ele><time>2026-04-30T08:59:42.381Z</time></trkpt><trkpt lat="46.5682185" lon="12.544952"><ele>1069.0</ele><time>2026-04-30T08:59:44.381Z</time></trkpt><trkpt lat="46.5682125" lon="12.545046"><ele>1072.0</ele><time>2026-04-30T08:59:45.381Z</time></trkpt><trkpt lat="46.5681766" lon="12.5451356"><ele>1075.0</ele><time>2026-04-30T08:59:46.381Z</time></trkpt><trkpt lat="46.5681412" lon="12.5452462"><ele>1078.0</ele><time>2026-04-30T08:59:49.381Z</time></trkpt><trkpt lat="46.5681098" lon="12.5453272"><ele>1081.0</ele><time>2026-04-30T08:59:53.381Z</time></trkpt><trkpt lat="46.568079" lon="12.5454219"><ele>1084.0</ele><time>2026-04-30T09:00:45.382Z</time></trkpt><trkpt lat="46.568052" lon="12.5455281"><ele>1087.0</ele><time>2026-04-30T09:00:48.382Z</time></trkpt><trkpt lat="46.5680324" lon="12.545672"><ele>1087.8333333333333</ele><time>2026-04-30T09:00:51.382Z</time></trkpt><trkpt lat="46.5679914" lon="12.5457576"><ele>1088.6666666666665</ele><time>2026-04-30T09:00:55.382Z</time></trkpt><trkpt lat="46.5679469" lon="12.5458423"><ele>1089.5</ele><time>2026-04-30T09:01:01.382Z</time></trkpt><trkpt lat="46.5678984" lon="12.5459469"><ele>1090.3333333333333</ele><time>2026-04-30T09:01:05.382Z</time></trkpt><trkpt lat="46.5678598" lon="12.54605"><ele>1091.1666666666667</ele><time>2026-04-30T09:01:07.382Z</time></trkpt><trkpt lat="46.5678194" lon="12.5461476"><ele>1092.0</ele><time>2026-04-30T09:01:09.382Z</time></trkpt><trkpt lat="46.5677548" lon="12.5462924"><ele>1092.0</ele><time>2026-04-30T09:01:12.382Z</time></trkpt><trkpt lat="46.5677136" lon="12.5463857"><ele>1092.0</ele><time>2026-04-30T09:01:15.382Z</time></trkpt><trkpt lat="46.5676795" lon="12.5464947"><ele>1092.0</ele><time>2026-04-30T09:01:18.382Z</time></trkpt><trkpt lat="46.5676455" lon="12.5466033"><ele>1092.0</ele><time>2026-04-30T09:01:20.382Z</time></trkpt><trkpt lat="46.5675938" lon="12.5467373"><ele>1092.0</ele><time>2026-04-30T09:01:22.382Z</time></trkpt><trkpt lat="46.5675274" lon="12.54682"><ele>1092.0</ele><time>2026-04-30T09:01:24.383Z</time></trkpt><trkpt lat="46.5675362" lon="12.5469535"><ele>1092.0</ele><time>2026-04-30T09:01:28.382Z</time></trkpt><trkpt lat="46.5675888" lon="12.5470262"><ele>1092.0</ele><time>2026-04-30T09:01:30.382Z</time></trkpt><trkpt lat="46.5676482" lon="12.5471029"><ele>1092.0</ele><time>2026-04-30T09:01:33.382Z</time></trkpt><trkpt lat="46.5677111" lon="12.5471293"><ele>1092.0</ele><time>2026-04-30T09:01:36.382Z</time></trkpt><trkpt lat="46.5677655" lon="12.5471981"><ele>1092.0</ele><time>2026-04-30T09:01:40.382Z</time></trkpt><trkpt lat="46.5678158" lon="12.5472664"><ele>1092.0</ele><time>2026-04-30T09:01:43.382Z</time></trkpt><trkpt lat="46.5678076" lon="12.547384"><ele>1092.0</ele><time>2026-04-30T09:02:44.382Z</time></trkpt><trkpt lat="46.5677356" lon="12.5474011"><ele>1095.8</ele><time>2026-04-30T09:02:48.354Z</time></trkpt><trkpt lat="46.5676171" lon="12.5475231"><ele>1099.6</ele><time>2026-04-30T09:02:49.382Z</time></trkpt><trkpt lat="46.5675263" lon="12.5475585"><ele>1103.3999999999999</ele><time>2026-04-30T09:02:52.382Z</time></trkpt><trkpt lat="46.5674743" lon="12.547615"><ele>1107.2</ele><time>2026-04-30T09:02:54.382Z</time></trkpt><trkpt lat="46.5674563" lon="12.5477176"><ele>1111.0</ele><time>2026-04-30T09:02:56.382Z</time></trkpt><trkpt lat="46.5674705" lon="12.5478366"><ele>1113.5</ele><time>2026-04-30T09:02:58.382Z</time></trkpt><trkpt lat="46.5674883" lon="12.5479692"><ele>1116.0</ele><time>2026-04-30T09:03:00.382Z</time></trkpt><trkpt lat="46.5674636" lon="12.5480843"><ele>1118.5</ele><time>2026-04-30T09:03:02.382Z</time></trkpt><trkpt lat="46.5674108" lon="12.5481364"><ele>1121.0</ele><time>2026-04-30T09:03:04.382Z</time></trkpt><trkpt lat="46.5673629" lon="12.5482452"><ele>1123.5</ele><time>2026-04-30T09:03:06.382Z</time></trkpt><trkpt lat="46.5673369" lon="12.5483628"><ele>1126.0</ele><time>2026-04-30T09:03:08.382Z</time></trkpt><trkpt lat="46.5672792" lon="12.548481"><ele>1126.0</ele><time>2026-04-30T09:03:10.383Z</time></trkpt><trkpt lat="46.5672149" lon="12.5485862"><ele>1126.0</ele><time>2026-04-30T09:03:12.382Z</time></trkpt><trkpt lat="46.5671712" lon="12.5486718"><ele>1126.0</ele><time>2026-04-30T09:03:13.382Z</time></trkpt><trkpt lat="46.5671098" lon="12.5487795"><ele>1126.0</ele><time>2026-04-30T09:03:15.382Z</time></trkpt><trkpt lat="46.5670085" lon="12.5488516"><ele>1126.0</ele><time>2026-04-30T09:03:17.381Z</time></trkpt><trkpt lat="46.5669045" lon="12.5489006"><ele>1124.6</ele><time>2026-04-30T09:03:19.382Z</time></trkpt><trkpt lat="46.5667735" lon="12.548952"><ele>1123.1999999999998</ele><time>2026-04-30T09:03:21.382Z</time></trkpt><trkpt lat="46.5666844" lon="12.5490204"><ele>1121.8000000000002</ele><time>2026-04-30T09:03:22.381Z</time></trkpt><trkpt lat="46.5666052" lon="12.5490686"><ele>1120.4</ele><time>2026-04-30T09:03:23.382Z</time></trkpt><trkpt lat="46.5665238" lon="12.5490819"><ele>1119.0</ele><time>2026-04-30T09:03:24.382Z</time></trkpt><trkpt lat="46.5664517" lon="12.5491084"><ele>1119.0</ele><time>2026-04-30T09:03:25.382Z</time></trkpt><trkpt lat="46.5663731" lon="12.5491247"><ele>1119.0</ele><time>2026-04-30T09:03:26.382Z</time></trkpt><trkpt lat="46.5662941" lon="12.5491524"><ele>1119.0</ele><time>2026-04-30T09:03:27.382Z</time></trkpt><trkpt lat="46.5662205" lon="12.549144"><ele>1119.0</ele><time>2026-04-30T09:03:28.382Z</time></trkpt><trkpt lat="46.5661433" lon="12.549161"><ele>1119.0</ele><time>2026-04-30T09:03:29.382Z</time></trkpt><trkpt lat="46.5660014" lon="12.5492544"><ele>1115.0</ele><time>2026-04-30T09:03:31.382Z</time></trkpt><trkpt lat="46.5659154" lon="12.5492805"><ele>1111.0</ele><time>2026-04-30T09:03:32.381Z</time></trkpt><trkpt lat="46.5658397" lon="12.5493328"><ele>1107.0</ele><time>2026-04-30T09:03:33.383Z</time></trkpt><trkpt lat="46.5657646" lon="12.5493632"><ele>1103.0</ele><time>2026-04-30T09:03:34.382Z</time></trkpt><trkpt lat="46.5656102" lon="12.549396"><ele>1099.0</ele><time>2026-04-30T09:03:36.382Z</time></trkpt><trkpt lat="46.565532" lon="12.549413"><ele>1099.0</ele><time>2026-04-30T09:03:37.382Z</time></trkpt><trkpt lat="46.5654445" lon="12.5494395"><ele>1099.0</ele><time>2026-04-30T09:03:38.382Z</time></trkpt><trkpt lat="46.5653595" lon="12.5494788"><ele>1099.0</ele><time>2026-04-30T09:03:39.382Z</time></trkpt><trkpt lat="46.565266" lon="12.5495228"><ele>1099.0</ele><time>2026-04-30T09:03:40.382Z</time></trkpt><trkpt lat="46.5651874" lon="12.5495723"><ele>1099.0</ele><time>2026-04-30T09:03:41.382Z</time></trkpt><trkpt lat="46.5651128" lon="12.5496172"><ele>1099.0</ele><time>2026-04-30T09:03:42.382Z</time></trkpt><trkpt lat="46.5650345" lon="12.5496385"><ele>1098.1666666666665</ele><time>2026-04-30T09:03:43.382Z</time></trkpt><trkpt lat="46.5649573" lon="12.5496577"><ele>1097.3333333333333</ele><time>2026-04-30T09:03:44.382Z</time></trkpt><trkpt lat="46.564892" lon="12.5496546"><ele>1096.5</ele><time>2026-04-30T09:03:45.382Z</time></trkpt><trkpt lat="46.5648306" lon="12.5496228"><ele>1095.6666666666667</ele><time>2026-04-30T09:03:46.382Z</time></trkpt><trkpt lat="46.5647341" lon="12.5495522"><ele>1094.8333333333335</ele><time>2026-04-30T09:03:48.382Z</time></trkpt><trkpt lat="46.5646259" lon="12.5495084"><ele>1094.0</ele><time>2026-04-30T09:03:50.382Z</time></trkpt><trkpt lat="46.5645176" lon="12.5494803"><ele>1091.0</ele><time>2026-04-30T09:03:52.382Z</time></trkpt><trkpt lat="46.5644274" lon="12.5494679"><ele>1088.0</ele><time>2026-04-30T09:03:54.382Z</time></trkpt><trkpt lat="46.564339" lon="12.5494631"><ele>1085.0</ele><time>2026-04-30T09:03:57.382Z</time></trkpt><trkpt lat="46.5642757" lon="12.5494527"><ele>1082.0</ele><time>2026-04-30T09:03:59.382Z</time></trkpt><trkpt lat="46.5641911" lon="12.5494667"><ele>1079.0</ele><time>2026-04-30T09:04:01.382Z</time></trkpt><trkpt lat="46.5641365" lon="12.5495224"><ele>1076.0</ele><time>2026-04-30T09:04:03.383Z</time></trkpt><trkpt lat="46.5640942" lon="12.5496183"><ele>1076.0</ele><time>2026-04-30T09:04:06.382Z</time></trkpt><trkpt lat="46.5640237" lon="12.5495374"><ele>1076.0</ele><time>2026-04-30T09:04:09.382Z</time></trkpt><trkpt lat="46.563942" lon="12.5495136"><ele>1076.0</ele><time>2026-04-30T09:04:12.382Z</time></trkpt><trkpt lat="46.5638809" lon="12.5495422"><ele>1076.0</ele><time>2026-04-30T09:04:15.382Z</time></trkpt><trkpt lat="46.5638127" lon="12.5494721"><ele>1076.0</ele><time>2026-04-30T09:04:18.382Z</time></trkpt><trkpt lat="46.5637373" lon="12.5495913"><ele>1076.0</ele><time>2026-04-30T09:04:20.382Z</time></trkpt><trkpt lat="46.5636927" lon="12.5495241"><ele>1070.6666666666667</ele><time>2026-04-30T09:04:22.382Z</time></trkpt><trkpt lat="46.5636764" lon="12.5494354"><ele>1065.3333333333335</ele><time>2026-04-30T09:04:24.382Z</time></trkpt><trkpt lat="46.5635956" lon="12.5494341"><ele>1060.0</ele><time>2026-04-30T09:04:27.382Z</time></trkpt><trkpt lat="46.5635038" lon="12.5494761"><ele>1054.6666666666667</ele><time>2026-04-30T09:04:29.382Z</time></trkpt><trkpt lat="46.563446" lon="12.5493153"><ele>1049.3333333333333</ele><time>2026-04-30T09:04:33.382Z</time></trkpt><trkpt lat="46.5633886" lon="12.5492254"><ele>1044.0</ele><time>2026-04-30T09:04:36.382Z</time></trkpt><trkpt lat="46.5632957" lon="12.5492434"><ele>1044.0</ele><time>2026-04-30T09:04:39.382Z</time></trkpt><trkpt lat="46.5632081" lon="12.5493248"><ele>1044.0</ele><time>2026-04-30T09:04:41.382Z</time></trkpt><trkpt lat="46.563126" lon="12.5493472"><ele>1044.0</ele><time>2026-04-30T09:04:42.382Z</time></trkpt><trkpt lat="46.5630448" lon="12.5492579"><ele>1044.0</ele><time>2026-04-30T09:04:44.382Z</time></trkpt><trkpt lat="46.5629587" lon="12.5492393"><ele>1044.0</ele><time>2026-04-30T09:04:46.382Z</time></trkpt><trkpt lat="46.5628615" lon="12.5492735"><ele>1041.8</ele><time>2026-04-30T09:04:48.382Z</time></trkpt><trkpt lat="46.5627359" lon="12.5493377"><ele>1039.6000000000001</ele><time>2026-04-30T09:04:50.382Z</time></trkpt><trkpt lat="46.562636" lon="12.5493857"><ele>1037.4</ele><time>2026-04-30T09:04:51.382Z</time></trkpt><trkpt lat="46.5625643" lon="12.5494321"><ele>1035.2</ele><time>2026-04-30T09:04:52.382Z</time></trkpt><trkpt lat="46.5624604" lon="12.5495171"><ele>1033.0</ele><time>2026-04-30T09:04:54.382Z</time></trkpt><trkpt lat="46.5623526" lon="12.5495648"><ele>1033.0</ele><time>2026-04-30T09:04:56.382Z</time></trkpt><trkpt lat="46.5622825" lon="12.5495945"><ele>1033.0</ele><time>2026-04-30T09:04:57.382Z</time></trkpt><trkpt lat="46.5622076" lon="12.5496544"><ele>1033.0</ele><time>2026-04-30T09:04:59.382Z</time></trkpt><trkpt lat="46.5621044" lon="12.5496703"><ele>1033.0</ele><time>2026-04-30T09:05:01.382Z</time></trkpt><trkpt lat="46.5620361" lon="12.5495801"><ele>1033.0</ele><time>2026-04-30T09:05:03.382Z</time></trkpt><trkpt lat="46.5619679" lon="12.5494777"><ele>1026.2</ele><time>2026-04-30T09:05:05.382Z</time></trkpt><trkpt lat="46.5618952" lon="12.5494573"><ele>1019.4</ele><time>2026-04-30T09:05:07.382Z</time></trkpt><trkpt lat="46.5618114" lon="12.54949"><ele>1012.6000000000001</ele><time>2026-04-30T09:05:09.382Z</time></trkpt><trkpt lat="46.5616873" lon="12.5496652"><ele>1005.8000000000001</ele><time>2026-04-30T09:05:12.382Z</time></trkpt><trkpt lat="46.5616243" lon="12.5497695"><ele>999.0</ele><time>2026-04-30T09:05:14.382Z</time></trkpt><trkpt lat="46.5615532" lon="12.5498005"><ele>999.0</ele><time>2026-04-30T09:05:15.382Z</time></trkpt><trkpt lat="46.5614552" lon="12.5498242"><ele>999.0000000000001</ele><time>2026-04-30T09:05:17.382Z</time></trkpt><trkpt lat="46.5613985" lon="12.54992"><ele>999.0000000000001</ele><time>2026-04-30T09:05:19.382Z</time></trkpt><trkpt lat="46.5613319" lon="12.5500291"><ele>999.0</ele><time>2026-04-30T09:05:22.382Z</time></trkpt><trkpt lat="46.5612069" lon="12.550077"><ele>999.0</ele><time>2026-04-30T09:05:24.382Z</time></trkpt><trkpt lat="46.561131" lon="12.5500163"><ele>993.8333333333334</ele><time>2026-04-30T09:05:25.382Z</time></trkpt><trkpt lat="46.561118" lon="12.5499221"><ele>988.6666666666667</ele><time>2026-04-30T09:05:26.382Z</time></trkpt><trkpt lat="46.5610561" lon="12.5499034"><ele>983.5</ele><time>2026-04-30T09:05:27.382Z</time></trkpt><trkpt lat="46.5609401" lon="12.5498822"><ele>978.3333333333334</ele><time>2026-04-30T09:05:29.382Z</time></trkpt><trkpt lat="46.5608634" lon="12.5499696"><ele>973.1666666666667</ele><time>2026-04-30T09:05:31.382Z</time></trkpt><trkpt lat="46.5608081" lon="12.5500673"><ele>968.0</ele><time>2026-04-30T09:05:33.382Z</time></trkpt><trkpt lat="46.5607486" lon="12.55011"><ele>968.0</ele><time>2026-04-30T09:05:35.382Z</time></trkpt><trkpt lat="46.560726" lon="12.5499202"><ele>968.0</ele><time>2026-04-30T09:05:38.382Z</time></trkpt><trkpt lat="46.5607131" lon="12.549825"><ele>968.0</ele><time>2026-04-30T09:05:39.382Z</time></trkpt><trkpt lat="46.5606431" lon="12.5496925"><ele>968.0</ele><time>2026-04-30T09:05:41.382Z</time></trkpt><trkpt lat="46.5605506" lon="12.5495685"><ele>968.0</ele><time>2026-04-30T09:05:43.383Z</time></trkpt><trkpt lat="46.5604914" lon="12.5495239"><ele>965.0</ele><time>2026-04-30T09:05:44.382Z</time></trkpt><trkpt lat="46.5604321" lon="12.5494247"><ele>962.0</ele><time>2026-04-30T09:05:46.382Z</time></trkpt><trkpt lat="46.5604478" lon="12.5492792"><ele>959.0</ele><time>2026-04-30T09:05:48.382Z</time></trkpt><trkpt lat="46.5605216" lon="12.549196"><ele>956.0</ele><time>2026-04-30T09:05:50.382Z</time></trkpt><trkpt lat="46.5606178" lon="12.5491816"><ele>953.0</ele><time>2026-04-30T09:05:52.382Z</time></trkpt><trkpt lat="46.5606724" lon="12.5490553"><ele>953.0</ele><time>2026-04-30T09:05:54.382Z</time></trkpt><trkpt lat="46.5607146" lon="12.5489138"><ele>953.0</ele><time>2026-04-30T09:05:56.382Z</time></trkpt><trkpt lat="46.5607585" lon="12.5487535"><ele>953.0</ele><time>2026-04-30T09:05:58.382Z</time></trkpt><trkpt lat="46.5607691" lon="12.5485935"><ele>953.0</ele><time>2026-04-30T09:06:00.382Z</time></trkpt><trkpt lat="46.5607456" lon="12.5484311"><ele>953.0</ele><time>2026-04-30T09:06:02.382Z</time></trkpt><trkpt lat="46.5607092" lon="12.548285"><ele>949.0000000000001</ele><time>2026-04-30T09:06:04.382Z</time></trkpt><trkpt lat="46.5606508" lon="12.5481606"><ele>945.0</ele><time>2026-04-30T09:06:06.382Z</time></trkpt><trkpt lat="46.5605865" lon="12.5480879"><ele>941.0</ele><time>2026-04-30T09:06:08.382Z</time></trkpt><trkpt lat="46.5605214" lon="12.548047"><ele>937.0</ele><time>2026-04-30T09:06:10.382Z</time></trkpt><trkpt lat="46.5604754" lon="12.5479604"><ele>933.0000000000001</ele><time>2026-04-30T09:06:25.382Z</time></trkpt><trkpt lat="46.5603991" lon="12.5479526"><ele>929.0</ele><time>2026-04-30T09:06:29.381Z</time></trkpt><trkpt lat="46.5603198" lon="12.5480349"><ele>926.6</ele><time>2026-04-30T09:06:31.382Z</time></trkpt><trkpt lat="46.5602325" lon="12.5481188"><ele>924.2</ele><time>2026-04-30T09:06:33.382Z</time></trkpt><trkpt lat="46.5601432" lon="12.5481956"><ele>921.8000000000001</ele><time>2026-04-30T09:06:35.382Z</time></trkpt><trkpt lat="46.5600527" lon="12.548294"><ele>919.4000000000001</ele><time>2026-04-30T09:06:37.382Z</time></trkpt><trkpt lat="46.5599568" lon="12.548385"><ele>917.0</ele><time>2026-04-30T09:06:39.382Z</time></trkpt><trkpt lat="46.5599072" lon="12.5485401"><ele>918.5000000000001</ele><time>2026-04-30T09:06:41.382Z</time></trkpt><trkpt lat="46.5598818" lon="12.5487168"><ele>920.0</ele><time>2026-04-30T09:06:43.382Z</time></trkpt><trkpt lat="46.5598565" lon="12.5488038"><ele>921.5</ele><time>2026-04-30T09:06:44.381Z</time></trkpt><trkpt lat="46.5598148" lon="12.5488904"><ele>923.0</ele><time>2026-04-30T09:06:45.382Z</time></trkpt><trkpt lat="46.559769" lon="12.5489772"><ele>924.5000000000001</ele><time>2026-04-30T09:06:46.382Z</time></trkpt><trkpt lat="46.559721" lon="12.5490572"><ele>926.0</ele><time>2026-04-30T09:06:47.382Z</time></trkpt><trkpt lat="46.5596719" lon="12.5491325"><ele>926.0000000000001</ele><time>2026-04-30T09:06:48.382Z</time></trkpt><trkpt lat="46.5596251" lon="12.5492102"><ele>926.0</ele><time>2026-04-30T09:06:49.381Z</time></trkpt><trkpt lat="46.5595848" lon="12.5492964"><ele>926.0</ele><time>2026-04-30T09:06:50.382Z</time></trkpt><trkpt lat="46.5595411" lon="12.5493872"><ele>926.0</ele><time>2026-04-30T09:06:51.382Z</time></trkpt><trkpt lat="46.5595033" lon="12.5494814"><ele>926.0000000000001</ele><time>2026-04-30T09:06:52.382Z</time></trkpt><trkpt lat="46.5594699" lon="12.5495798"><ele>926.0</ele><time>2026-04-30T09:06:53.383Z</time></trkpt><trkpt lat="46.5594381" lon="12.5496902"><ele>925.0000000000001</ele><time>2026-04-30T09:06:54.382Z</time></trkpt><trkpt lat="46.5594097" lon="12.5497995"><ele>924.0</ele><time>2026-04-30T09:06:55.382Z</time></trkpt><trkpt lat="46.5593892" lon="12.5499177"><ele>923.0</ele><time>2026-04-30T09:06:56.382Z</time></trkpt><trkpt lat="46.5593748" lon="12.5500365"><ele>922.0</ele><time>2026-04-30T09:06:57.382Z</time></trkpt><trkpt lat="46.5593668" lon="12.5501533"><ele>921.0000000000001</ele><time>2026-04-30T09:06:58.382Z</time></trkpt><trkpt lat="46.5593593" lon="12.5502729"><ele>920.0</ele><time>2026-04-30T09:06:59.382Z</time></trkpt><trkpt lat="46.5593377" lon="12.5503964"><ele>919.6</ele><time>2026-04-30T09:07:00.382Z</time></trkpt><trkpt lat="46.5593187" lon="12.5505245"><ele>919.2</ele><time>2026-04-30T09:07:01.382Z</time></trkpt><trkpt lat="46.5593043" lon="12.5506588"><ele>918.8</ele><time>2026-04-30T09:07:02.382Z</time></trkpt><trkpt lat="46.5592956" lon="12.5507969"><ele>918.4</ele><time>2026-04-30T09:07:03.382Z</time></trkpt><trkpt lat="46.5592822" lon="12.5509386"><ele>918.0</ele><time>2026-04-30T09:07:04.382Z</time></trkpt><trkpt lat="46.5592756" lon="12.5510841"><ele>917.5999999999999</ele><time>2026-04-30T09:07:05.382Z</time></trkpt><trkpt lat="46.5592661" lon="12.5512294"><ele>917.1999999999999</ele><time>2026-04-30T09:07:06.382Z</time></trkpt><trkpt lat="46.5592528" lon="12.5513764"><ele>916.8</ele><time>2026-04-30T09:07:07.382Z</time></trkpt><trkpt lat="46.5592455" lon="12.5515206"><ele>916.4</ele><time>2026-04-30T09:07:08.382Z</time></trkpt><trkpt lat="46.5592447" lon="12.5516666"><ele>916.0</ele><time>2026-04-30T09:07:09.382Z</time></trkpt><trkpt lat="46.5592499" lon="12.5518084"><ele>916.0</ele><time>2026-04-30T09:07:10.382Z</time></trkpt><trkpt lat="46.5592485" lon="12.5519519"><ele>915.9999999999999</ele><time>2026-04-30T09:07:11.381Z</time></trkpt><trkpt lat="46.5592446" lon="12.5520988"><ele>915.9999999999999</ele><time>2026-04-30T09:07:12.382Z</time></trkpt><trkpt lat="46.5592441" lon="12.552251"><ele>916.0</ele><time>2026-04-30T09:07:13.382Z</time></trkpt><trkpt lat="46.5592415" lon="12.5524054"><ele>916.0</ele><time>2026-04-30T09:07:14.382Z</time></trkpt><trkpt lat="46.5592417" lon="12.5525613"><ele>916.1999999999999</ele><time>2026-04-30T09:07:15.383Z</time></trkpt><trkpt lat="46.5592388" lon="12.5527148"><ele>916.3999999999999</ele><time>2026-04-30T09:07:16.382Z</time></trkpt><trkpt lat="46.5592387" lon="12.5528673"><ele>916.6</ele><time>2026-04-30T09:07:17.382Z</time></trkpt><trkpt lat="46.5592388" lon="12.553022"><ele>916.8</ele><time>2026-04-30T09:07:18.382Z</time></trkpt><trkpt lat="46.5592417" lon="12.5531808"><ele>917.0</ele><time>2026-04-30T09:07:19.382Z</time></trkpt><trkpt lat="46.5592394" lon="12.5533397"><ele>917.0</ele><time>2026-04-30T09:07:20.382Z</time></trkpt><trkpt lat="46.5592417" lon="12.5534984"><ele>917.0</ele><time>2026-04-30T09:07:21.381Z</time></trkpt><trkpt lat="46.5592468" lon="12.5536574"><ele>917.0</ele><time>2026-04-30T09:07:22.382Z</time></trkpt><trkpt lat="46.5592463" lon="12.5538123"><ele>917.0</ele><time>2026-04-30T09:07:23.382Z</time></trkpt><trkpt lat="46.5592481" lon="12.5539628"><ele>917.0</ele><time>2026-04-30T09:07:24.382Z</time></trkpt><trkpt lat="46.5592465" lon="12.5541178"><ele>916.6</ele><time>2026-04-30T09:07:25.382Z</time></trkpt><trkpt lat="46.5592447" lon="12.5542684"><ele>916.2</ele><time>2026-04-30T09:07:26.382Z</time></trkpt><trkpt lat="46.5592389" lon="12.5544139"><ele>915.8</ele><time>2026-04-30T09:07:27.382Z</time></trkpt><trkpt lat="46.5592298" lon="12.5545587"><ele>915.4</ele><time>2026-04-30T09:07:28.382Z</time></trkpt><trkpt lat="46.5592154" lon="12.5547001"><ele>915.0</ele><time>2026-04-30T09:07:29.382Z</time></trkpt><trkpt lat="46.5591923" lon="12.5548415"><ele>914.8</ele><time>2026-04-30T09:07:30.382Z</time></trkpt><trkpt lat="46.5591652" lon="12.5549797"><ele>914.6</ele><time>2026-04-30T09:07:31.381Z</time></trkpt><trkpt lat="46.5591441" lon="12.5551069"><ele>914.4000000000001</ele><time>2026-04-30T09:07:32.381Z</time></trkpt><trkpt lat="46.5591314" lon="12.5552279"><ele>914.2</ele><time>2026-04-30T09:07:33.382Z</time></trkpt><trkpt lat="46.5591304" lon="12.555347"><ele>914.0</ele><time>2026-04-30T09:07:34.382Z</time></trkpt><trkpt lat="46.5591416" lon="12.5555969"><ele>913.8333333333334</ele><time>2026-04-30T09:07:36.382Z</time></trkpt><trkpt lat="46.5591476" lon="12.5557189"><ele>913.6666666666667</ele><time>2026-04-30T09:07:37.382Z</time></trkpt><trkpt lat="46.5591517" lon="12.5558424"><ele>913.5</ele><time>2026-04-30T09:07:38.382Z</time></trkpt><trkpt lat="46.559154" lon="12.5559504"><ele>913.3333333333333</ele><time>2026-04-30T09:07:39.382Z</time></trkpt><trkpt lat="46.5591473" lon="12.5560418"><ele>913.1666666666666</ele><time>2026-04-30T09:07:40.382Z</time></trkpt><trkpt lat="46.5591168" lon="12.5561489"><ele>913.0</ele><time>2026-04-30T09:07:42.383Z</time></trkpt><trkpt lat="46.5590815" lon="12.5562915"><ele>912.5714285714284</ele><time>2026-04-30T09:07:44.382Z</time></trkpt><trkpt lat="46.5590791" lon="12.5563834"><ele>912.1428571428571</ele><time>2026-04-30T09:07:45.382Z</time></trkpt><trkpt lat="46.5590939" lon="12.5564824"><ele>911.7142857142857</ele><time>2026-04-30T09:07:46.382Z</time></trkpt><trkpt lat="46.5591112" lon="12.5565853"><ele>911.2857142857142</ele><time>2026-04-30T09:07:47.382Z</time></trkpt><trkpt lat="46.5591322" lon="12.5566933"><ele>910.8571428571429</ele><time>2026-04-30T09:07:48.381Z</time></trkpt><trkpt lat="46.5591366" lon="12.556787"><ele>910.4285714285714</ele><time>2026-04-30T09:07:49.382Z</time></trkpt><trkpt lat="46.5591193" lon="12.5568775"><ele>910.0</ele><time>2026-04-30T09:07:50.382Z</time></trkpt><trkpt lat="46.559079" lon="12.5569516"><ele>910.0</ele><time>2026-04-30T09:07:51.382Z</time></trkpt><trkpt lat="46.5590215" lon="12.5569944"><ele>910.0</ele><time>2026-04-30T09:07:52.382Z</time></trkpt><trkpt lat="46.5589551" lon="12.5570272"><ele>910.0</ele><time>2026-04-30T09:07:53.382Z</time></trkpt><trkpt lat="46.5588839" lon="12.5570532"><ele>910.0</ele><time>2026-04-30T09:07:54.382Z</time></trkpt><trkpt lat="46.5588102" lon="12.5570801"><ele>910.0</ele><time>2026-04-30T09:07:55.382Z</time></trkpt><trkpt lat="46.5587365" lon="12.5571088"><ele>910.0</ele><time>2026-04-30T09:07:56.382Z</time></trkpt><trkpt lat="46.5586664" lon="12.5571389"><ele>910.0</ele><time>2026-04-30T09:07:57.382Z</time></trkpt><trkpt lat="46.558608" lon="12.5571768"><ele>911.2857142857142</ele><time>2026-04-30T09:07:58.382Z</time></trkpt><trkpt lat="46.5585546" lon="12.5572441"><ele>912.5714285714286</ele><time>2026-04-30T09:07:59.382Z</time></trkpt><trkpt lat="46.5585128" lon="12.5573333"><ele>913.8571428571429</ele><time>2026-04-30T09:08:00.382Z</time></trkpt><trkpt lat="46.5584763" lon="12.5574213"><ele>915.1428571428571</ele><time>2026-04-30T09:08:01.382Z</time></trkpt><trkpt lat="46.5584322" lon="12.5575078"><ele>916.4285714285713</ele><time>2026-04-30T09:08:02.382Z</time></trkpt><trkpt lat="46.5583829" lon="12.5575793"><ele>917.7142857142857</ele><time>2026-04-30T09:08:03.382Z</time></trkpt><trkpt lat="46.5583201" lon="12.5576516"><ele>919.0</ele><time>2026-04-30T09:08:04.382Z</time></trkpt><trkpt lat="46.5582497" lon="12.5577004"><ele>918.9999999999999</ele><time>2026-04-30T09:08:05.383Z</time></trkpt><trkpt lat="46.5581762" lon="12.5577092"><ele>919.0</ele><time>2026-04-30T09:08:06.382Z</time></trkpt><trkpt lat="46.5581071" lon="12.5577365"><ele>919.0</ele><time>2026-04-30T09:08:07.383Z</time></trkpt><trkpt lat="46.5580409" lon="12.5577677"><ele>919.0</ele><time>2026-04-30T09:08:08.382Z</time></trkpt><trkpt lat="46.5579739" lon="12.5578072"><ele>918.9999999999999</ele><time>2026-04-30T09:08:09.382Z</time></trkpt><trkpt lat="46.5578459" lon="12.5579224"><ele>919.0</ele><time>2026-04-30T09:08:11.382Z</time></trkpt><trkpt lat="46.5577685" lon="12.5580301"><ele>918.8333333333333</ele><time>2026-04-30T09:08:13.382Z</time></trkpt><trkpt lat="46.5577741" lon="12.5581698"><ele>918.6666666666666</ele><time>2026-04-30T09:08:15.382Z</time></trkpt><trkpt lat="46.5578053" lon="12.5582558"><ele>918.5</ele><time>2026-04-30T09:08:16.382Z</time></trkpt><trkpt lat="46.5578358" lon="12.5583526"><ele>918.3333333333333</ele><time>2026-04-30T09:08:17.382Z</time></trkpt><trkpt lat="46.5578659" lon="12.5584625"><ele>918.1666666666666</ele><time>2026-04-30T09:08:18.382Z</time></trkpt><trkpt lat="46.5579033" lon="12.5585627"><ele>918.0</ele><time>2026-04-30T09:08:19.382Z</time></trkpt><trkpt lat="46.5579506" lon="12.5586647"><ele>918.5</ele><time>2026-04-30T09:08:20.382Z</time></trkpt><trkpt lat="46.5580003" lon="12.5587659"><ele>919.0</ele><time>2026-04-30T09:08:21.382Z</time></trkpt><trkpt lat="46.558044" lon="12.5588752"><ele>919.5</ele><time>2026-04-30T09:08:22.383Z</time></trkpt><trkpt lat="46.5580844" lon="12.5589832"><ele>920.0</ele><time>2026-04-30T09:08:23.382Z</time></trkpt><trkpt lat="46.5581291" lon="12.5590861"><ele>920.5</ele><time>2026-04-30T09:08:24.382Z</time></trkpt><trkpt lat="46.5581703" lon="12.5591792"><ele>921.0</ele><time>2026-04-30T09:08:25.382Z</time></trkpt><trkpt lat="46.5582087" lon="12.5592723"><ele>921.0</ele><time>2026-04-30T09:08:26.382Z</time></trkpt><trkpt lat="46.5582401" lon="12.5593651"><ele>921.0</ele><time>2026-04-30T09:08:27.382Z</time></trkpt><trkpt lat="46.5582759" lon="12.5594642"><ele>921.0</ele><time>2026-04-30T09:08:28.382Z</time></trkpt><trkpt lat="46.5583168" lon="12.5595749"><ele>921.0</ele><time>2026-04-30T09:08:29.382Z</time></trkpt><trkpt lat="46.5583622" lon="12.5596919"><ele>921.0</ele><time>2026-04-30T09:08:30.382Z</time></trkpt><trkpt lat="46.5584123" lon="12.5598077"><ele>921.0</ele><time>2026-04-30T09:08:31.383Z</time></trkpt><trkpt lat="46.5584595" lon="12.5599335"><ele>923.1666666666666</ele><time>2026-04-30T09:08:32.383Z</time></trkpt><trkpt lat="46.5584986" lon="12.5600486"><ele>925.3333333333333</ele><time>2026-04-30T09:08:33.382Z</time></trkpt><trkpt lat="46.5585344" lon="12.5601656"><ele>927.5</ele><time>2026-04-30T09:08:34.383Z</time></trkpt><trkpt lat="46.5585643" lon="12.5602828"><ele>929.6666666666666</ele><time>2026-04-30T09:08:35.382Z</time></trkpt><trkpt lat="46.5585823" lon="12.5603986"><ele>931.8333333333333</ele><time>2026-04-30T09:08:36.382Z</time></trkpt><trkpt lat="46.5585876" lon="12.5605236"><ele>934.0</ele><time>2026-04-30T09:08:37.382Z</time></trkpt><trkpt lat="46.5585738" lon="12.5606506"><ele>935.4000000000001</ele><time>2026-04-30T09:08:38.382Z</time></trkpt><trkpt lat="46.5585693" lon="12.5607767"><ele>936.8000000000001</ele><time>2026-04-30T09:08:39.382Z</time></trkpt><trkpt lat="46.5585734" lon="12.5609105"><ele>938.1999999999999</ele><time>2026-04-30T09:08:40.382Z</time></trkpt><trkpt lat="46.5585753" lon="12.5610463"><ele>939.5999999999999</ele><time>2026-04-30T09:08:41.382Z</time></trkpt><trkpt lat="46.5585653" lon="12.5611892"><ele>941.0</ele><time>2026-04-30T09:08:42.382Z</time></trkpt><trkpt lat="46.5585531" lon="12.5613279"><ele>941.3333333333334</ele><time>2026-04-30T09:08:43.382Z</time></trkpt><trkpt lat="46.5585407" lon="12.5614546"><ele>941.6666666666667</ele><time>2026-04-30T09:08:44.382Z</time></trkpt><trkpt lat="46.5585165" lon="12.5615735"><ele>942.0</ele><time>2026-04-30T09:08:45.382Z</time></trkpt><trkpt lat="46.5584832" lon="12.5617038"><ele>942.3333333333333</ele><time>2026-04-30T09:08:46.382Z</time></trkpt><trkpt lat="46.5584489" lon="12.5618242"><ele>942.6666666666666</ele><time>2026-04-30T09:08:47.382Z</time></trkpt><trkpt lat="46.5584148" lon="12.5619129"><ele>943.0</ele><time>2026-04-30T09:08:48.382Z</time></trkpt><trkpt lat="46.5583279" lon="12.5620301"><ele>944.3333333333333</ele><time>2026-04-30T09:08:50.382Z</time></trkpt><trkpt lat="46.5582522" lon="12.5620695"><ele>945.6666666666666</ele><time>2026-04-30T09:08:52.382Z</time></trkpt><trkpt lat="46.5582046" lon="12.5621623"><ele>947.0</ele><time>2026-04-30T09:08:55.382Z</time></trkpt><trkpt lat="46.5581715" lon="12.5622536"><ele>948.3333333333333</ele><time>2026-04-30T09:08:58.382Z</time></trkpt><trkpt lat="46.5582511" lon="12.5622196"><ele>949.6666666666666</ele><time>2026-04-30T09:09:03.383Z</time></trkpt><trkpt lat="46.5583524" lon="12.5622582"><ele>951.0</ele><time>2026-04-30T09:09:05.383Z</time></trkpt><trkpt lat="46.5584026" lon="12.5623601"><ele>951.0</ele><time>2026-04-30T09:09:07.383Z</time></trkpt><trkpt lat="46.558433" lon="12.5625341"><ele>951.0</ele><time>2026-04-30T09:09:09.383Z</time></trkpt><trkpt lat="46.558456" lon="12.5626363"><ele>951.0</ele><time>2026-04-30T09:09:10.383Z</time></trkpt><trkpt lat="46.558481" lon="12.5627361"><ele>951.0</ele><time>2026-04-30T09:09:11.383Z</time></trkpt><trkpt lat="46.558516" lon="12.5628376"><ele>951.0</ele><time>2026-04-30T09:09:12.383Z</time></trkpt><trkpt lat="46.5585527" lon="12.5629382"><ele>951.0</ele><time>2026-04-30T09:09:13.383Z</time></trkpt><trkpt lat="46.5585958" lon="12.5630464"><ele>952.5</ele><time>2026-04-30T09:09:14.382Z</time></trkpt><trkpt lat="46.5586397" lon="12.5631586"><ele>954.0</ele><time>2026-04-30T09:09:15.383Z</time></trkpt><trkpt lat="46.5586822" lon="12.5632737"><ele>955.5</ele><time>2026-04-30T09:09:16.383Z</time></trkpt><trkpt lat="46.5587167" lon="12.5633885"><ele>957.0</ele><time>2026-04-30T09:09:17.383Z</time></trkpt><trkpt lat="46.5587509" lon="12.5634965"><ele>958.5</ele><time>2026-04-30T09:09:18.383Z</time></trkpt><trkpt lat="46.5587855" lon="12.5635997"><ele>960.0</ele><time>2026-04-30T09:09:19.383Z</time></trkpt><trkpt lat="46.5588144" lon="12.5636887"><ele>955.5</ele><time>2026-04-30T09:09:20.383Z</time></trkpt><trkpt lat="46.5588542" lon="12.5637656"><ele>951.0</ele><time>2026-04-30T09:09:21.382Z</time></trkpt><trkpt lat="46.5589304" lon="12.5639081"><ele>946.5</ele><time>2026-04-30T09:09:23.383Z</time></trkpt><trkpt lat="46.5589682" lon="12.5639889"><ele>942.0</ele><time>2026-04-30T09:09:24.383Z</time></trkpt><trkpt lat="46.5590068" lon="12.5640797"><ele>937.5</ele><time>2026-04-30T09:09:25.383Z</time></trkpt><trkpt lat="46.5590418" lon="12.5641692"><ele>933.0</ele><time>2026-04-30T09:09:26.383Z</time></trkpt><trkpt lat="46.5590878" lon="12.5643529"><ele>933.0</ele><time>2026-04-30T09:09:28.383Z</time></trkpt><trkpt lat="46.5591096" lon="12.5644509"><ele>933.0</ele><time>2026-04-30T09:09:29.383Z</time></trkpt><trkpt lat="46.5591314" lon="12.5645395"><ele>933.0</ele><time>2026-04-30T09:09:30.383Z</time></trkpt><trkpt lat="46.5591545" lon="12.5646361"><ele>933.0</ele><time>2026-04-30T09:09:31.383Z</time></trkpt><trkpt lat="46.5591777" lon="12.5647237"><ele>933.0</ele><time>2026-04-30T09:09:32.383Z</time></trkpt><trkpt lat="46.5592257" lon="12.5648679"><ele>933.0</ele><time>2026-04-30T09:09:34.383Z</time></trkpt><trkpt lat="46.5592652" lon="12.5650009"><ele>933.8333333333334</ele><time>2026-04-30T09:09:36.384Z</time></trkpt><trkpt lat="46.5593161" lon="12.5651603"><ele>934.6666666666667</ele><time>2026-04-30T09:09:38.383Z</time></trkpt><trkpt lat="46.5593427" lon="12.5652534"><ele>935.5</ele><time>2026-04-30T09:09:39.383Z</time></trkpt><trkpt lat="46.5593488" lon="12.5653658"><ele>936.3333333333334</ele><time>2026-04-30T09:09:40.383Z</time></trkpt><trkpt lat="46.559364" lon="12.5654672"><ele>937.1666666666667</ele><time>2026-04-30T09:09:41.383Z</time></trkpt><trkpt lat="46.5593773" lon="12.5655654"><ele>938.0</ele><time>2026-04-30T09:09:42.383Z</time></trkpt><trkpt lat="46.559425" lon="12.5656997"><ele>935.5999999999999</ele><time>2026-04-30T09:09:44.383Z</time></trkpt><trkpt lat="46.559514" lon="12.565729"><ele>933.1999999999999</ele><time>2026-04-30T09:09:46.383Z</time></trkpt><trkpt lat="46.5596185" lon="12.5657783"><ele>930.8</ele><time>2026-04-30T09:09:48.383Z</time></trkpt><trkpt lat="46.5597057" lon="12.5658905"><ele>928.4</ele><time>2026-04-30T09:09:50.382Z</time></trkpt><trkpt lat="46.5597699" lon="12.5660365"><ele>926.0</ele><time>2026-04-30T09:09:52.383Z</time></trkpt><trkpt lat="46.559773" lon="12.5661477"><ele>927.1666666666667</ele><time>2026-04-30T09:09:53.383Z</time></trkpt><trkpt lat="46.5598116" lon="12.5662392"><ele>928.3333333333334</ele><time>2026-04-30T09:09:54.383Z</time></trkpt><trkpt lat="46.5598527" lon="12.5663531"><ele>929.5</ele><time>2026-04-30T09:09:55.383Z</time></trkpt><trkpt lat="46.5598723" lon="12.5664592"><ele>930.6666666666667</ele><time>2026-04-30T09:09:56.383Z</time></trkpt><trkpt lat="46.5598796" lon="12.56657"><ele>931.8333333333334</ele><time>2026-04-30T09:09:57.383Z</time></trkpt><trkpt lat="46.5598797" lon="12.5666797"><ele>933.0</ele><time>2026-04-30T09:09:58.382Z</time></trkpt><trkpt lat="46.5598835" lon="12.566775"><ele>933.0</ele><time>2026-04-30T09:09:59.384Z</time></trkpt><trkpt lat="46.5599008" lon="12.5669431"><ele>933.0</ele><time>2026-04-30T09:10:01.383Z</time></trkpt><trkpt lat="46.5599496" lon="12.5670902"><ele>933.0</ele><time>2026-04-30T09:10:03.383Z</time></trkpt><trkpt lat="46.5600055" lon="12.567191"><ele>933.0</ele><time>2026-04-30T09:10:05.383Z</time></trkpt><trkpt lat="46.5600091" lon="12.5673683"><ele>933.0</ele><time>2026-04-30T09:10:07.383Z</time></trkpt><trkpt lat="46.5599995" lon="12.5674687"><ele>935.5</ele><time>2026-04-30T09:10:08.383Z</time></trkpt><trkpt lat="46.5600045" lon="12.5675724"><ele>938.0</ele><time>2026-04-30T09:10:09.383Z</time></trkpt><trkpt lat="46.5600153" lon="12.5676808"><ele>940.5</ele><time>2026-04-30T09:10:10.384Z</time></trkpt><trkpt lat="46.5600216" lon="12.567793"><ele>943.0</ele><time>2026-04-30T09:10:11.383Z</time></trkpt><trkpt lat="46.5600225" lon="12.5679056"><ele>945.5</ele><time>2026-04-30T09:10:12.383Z</time></trkpt><trkpt lat="46.5600165" lon="12.5680198"><ele>948.0</ele><time>2026-04-30T09:10:13.383Z</time></trkpt><trkpt lat="46.5600043" lon="12.5681326"><ele>949.0</ele><time>2026-04-30T09:10:14.383Z</time></trkpt><trkpt lat="46.5599837" lon="12.5682478"><ele>950.0</ele><time>2026-04-30T09:10:15.383Z</time></trkpt><trkpt lat="46.5599563" lon="12.5683461"><ele>951.0</ele><time>2026-04-30T09:10:16.383Z</time></trkpt><trkpt lat="46.5599311" lon="12.5684345"><ele>952.0</ele><time>2026-04-30T09:10:17.383Z</time></trkpt><trkpt lat="46.5599151" lon="12.5685888"><ele>953.0</ele><time>2026-04-30T09:10:19.383Z</time></trkpt><trkpt lat="46.5599404" lon="12.5687401"><ele>954.0</ele><time>2026-04-30T09:10:21.383Z</time></trkpt><trkpt lat="46.5599813" lon="12.5688866"><ele>955.4000000000001</ele><time>2026-04-30T09:10:23.383Z</time></trkpt><trkpt lat="46.5600502" lon="12.5690209"><ele>956.8000000000001</ele><time>2026-04-30T09:10:25.383Z</time></trkpt><trkpt lat="46.5601188" lon="12.5691482"><ele>958.1999999999999</ele><time>2026-04-30T09:10:27.383Z</time></trkpt><trkpt lat="46.5601694" lon="12.5692664"><ele>959.5999999999999</ele><time>2026-04-30T09:10:29.383Z</time></trkpt><trkpt lat="46.5602065" lon="12.5693659"><ele>961.0</ele><time>2026-04-30T09:10:31.383Z</time></trkpt><trkpt lat="46.5602635" lon="12.5695079"><ele>963.6666666666666</ele><time>2026-04-30T09:10:33.383Z</time></trkpt><trkpt lat="46.5602986" lon="12.5695976"><ele>966.3333333333333</ele><time>2026-04-30T09:10:34.383Z</time></trkpt><trkpt lat="46.5603334" lon="12.569697"><ele>969.0</ele><time>2026-04-30T09:10:35.383Z</time></trkpt><trkpt lat="46.5603701" lon="12.5697896"><ele>971.6666666666667</ele><time>2026-04-30T09:10:36.383Z</time></trkpt><trkpt lat="46.560415" lon="12.5698862"><ele>974.3333333333334</ele><time>2026-04-30T09:10:37.383Z</time></trkpt><trkpt lat="46.5604613" lon="12.5699902"><ele>977.0</ele><time>2026-04-30T09:10:38.383Z</time></trkpt><trkpt lat="46.560505" lon="12.5700847"><ele>972.2</ele><time>2026-04-30T09:10:39.383Z</time></trkpt><trkpt lat="46.5605395" lon="12.5701664"><ele>967.4000000000001</ele><time>2026-04-30T09:10:40.383Z</time></trkpt><trkpt lat="46.5605825" lon="12.5703046"><ele>962.5999999999999</ele><time>2026-04-30T09:10:42.383Z</time></trkpt><trkpt lat="46.5606368" lon="12.5704141"><ele>957.8</ele><time>2026-04-30T09:10:44.383Z</time></trkpt><trkpt lat="46.5607468" lon="12.5704824"><ele>953.0</ele><time>2026-04-30T09:10:46.382Z</time></trkpt><trkpt lat="46.5607896" lon="12.570559"><ele>953.0000000000001</ele><time>2026-04-30T09:10:47.383Z</time></trkpt><trkpt lat="46.5608241" lon="12.5706514"><ele>953.0</ele><time>2026-04-30T09:10:48.383Z</time></trkpt><trkpt lat="46.5608688" lon="12.5707547"><ele>953.0</ele><time>2026-04-30T09:10:49.383Z</time></trkpt><trkpt lat="46.5609132" lon="12.570854"><ele>953.0</ele><time>2026-04-30T09:10:50.383Z</time></trkpt><trkpt lat="46.5609641" lon="12.5709519"><ele>953.0000000000001</ele><time>2026-04-30T09:10:51.383Z</time></trkpt><trkpt lat="46.561016" lon="12.5710538"><ele>953.0</ele><time>2026-04-30T09:10:52.383Z</time></trkpt><trkpt lat="46.5610726" lon="12.5711534"><ele>957.0</ele><time>2026-04-30T09:10:53.384Z</time></trkpt><trkpt lat="46.5611336" lon="12.571253"><ele>961.0</ele><time>2026-04-30T09:10:54.383Z</time></trkpt><trkpt lat="46.5611985" lon="12.571351"><ele>965.0</ele><time>2026-04-30T09:10:55.382Z</time></trkpt><trkpt lat="46.5612613" lon="12.5714476"><ele>969.0</ele><time>2026-04-30T09:10:56.383Z</time></trkpt><trkpt lat="46.561325" lon="12.5715456"><ele>973.0</ele><time>2026-04-30T09:10:57.383Z</time></trkpt><trkpt lat="46.5613936" lon="12.5716455"><ele>968.9999999999999</ele><time>2026-04-30T09:10:58.383Z</time></trkpt><trkpt lat="46.5614577" lon="12.5717477"><ele>965.0</ele><time>2026-04-30T09:10:59.383Z</time></trkpt><trkpt lat="46.5615158" lon="12.5718501"><ele>961.0</ele><time>2026-04-30T09:11:00.383Z</time></trkpt><trkpt lat="46.5615716" lon="12.5719454"><ele>957.0</ele><time>2026-04-30T09:11:01.383Z</time></trkpt><trkpt lat="46.5616266" lon="12.5720403"><ele>952.9999999999999</ele><time>2026-04-30T09:11:02.383Z</time></trkpt><trkpt lat="46.561678" lon="12.5721318"><ele>949.0</ele><time>2026-04-30T09:11:03.383Z</time></trkpt><trkpt lat="46.5617225" lon="12.5722074"><ele>949.0</ele><time>2026-04-30T09:11:04.383Z</time></trkpt><trkpt lat="46.5617704" lon="12.5722789"><ele>949.0000000000001</ele><time>2026-04-30T09:11:05.383Z</time></trkpt><trkpt lat="46.5618478" lon="12.572399"><ele>949.0000000000001</ele><time>2026-04-30T09:11:07.382Z</time></trkpt><trkpt lat="46.5618799" lon="12.5725251"><ele>949.0</ele><time>2026-04-30T09:11:09.384Z</time></trkpt><trkpt lat="46.5618733" lon="12.5726539"><ele>949.0</ele><time>2026-04-30T09:11:11.383Z</time></trkpt><trkpt lat="46.5619271" lon="12.5728133"><ele>947.4999999999999</ele><time>2026-04-30T09:11:13.382Z</time></trkpt><trkpt lat="46.5619673" lon="12.5728897"><ele>946.0</ele><time>2026-04-30T09:11:14.383Z</time></trkpt><trkpt lat="46.5620127" lon="12.5729684"><ele>944.5</ele><time>2026-04-30T09:11:15.383Z</time></trkpt><trkpt lat="46.5620764" lon="12.5730578"><ele>943.0</ele><time>2026-04-30T09:11:16.383Z</time></trkpt><trkpt lat="46.5621352" lon="12.5731487"><ele>941.4999999999999</ele><time>2026-04-30T09:11:17.383Z</time></trkpt><trkpt lat="46.5621934" lon="12.5732545"><ele>940.0</ele><time>2026-04-30T09:11:18.384Z</time></trkpt><trkpt lat="46.5622464" lon="12.5733748"><ele>940.0</ele><time>2026-04-30T09:11:19.383Z</time></trkpt><trkpt lat="46.5622997" lon="12.573501"><ele>940.0</ele><time>2026-04-30T09:11:20.383Z</time></trkpt><trkpt lat="46.5623576" lon="12.5736225"><ele>940.0</ele><time>2026-04-30T09:11:21.383Z</time></trkpt><trkpt lat="46.5624195" lon="12.5737402"><ele>940.0</ele><time>2026-04-30T09:11:22.383Z</time></trkpt><trkpt lat="46.5624731" lon="12.573863"><ele>940.0</ele><time>2026-04-30T09:11:23.383Z</time></trkpt><trkpt lat="46.5625298" lon="12.5739739"><ele>942.2</ele><time>2026-04-30T09:11:24.383Z</time></trkpt><trkpt lat="46.5625899" lon="12.5740741"><ele>944.4</ele><time>2026-04-30T09:11:25.383Z</time></trkpt><trkpt lat="46.5626504" lon="12.5741745"><ele>946.5999999999999</ele><time>2026-04-30T09:11:26.384Z</time></trkpt><trkpt lat="46.5627125" lon="12.5742868"><ele>948.8</ele><time>2026-04-30T09:11:27.383Z</time></trkpt><trkpt lat="46.5627732" lon="12.5743978"><ele>951.0</ele><time>2026-04-30T09:11:28.383Z</time></trkpt><trkpt lat="46.5628409" lon="12.5745164"><ele>949.1999999999999</ele><time>2026-04-30T09:11:29.383Z</time></trkpt><trkpt lat="46.5629067" lon="12.5746441"><ele>947.3999999999999</ele><time>2026-04-30T09:11:30.383Z</time></trkpt><trkpt lat="46.5629812" lon="12.5747587"><ele>945.6</ele><time>2026-04-30T09:11:31.383Z</time></trkpt><trkpt lat="46.5630497" lon="12.5748864"><ele>943.8</ele><time>2026-04-30T09:11:32.383Z</time></trkpt><trkpt lat="46.5631143" lon="12.5750125"><ele>942.0</ele><time>2026-04-30T09:11:33.383Z</time></trkpt><trkpt lat="46.5631793" lon="12.5751259"><ele>942.0</ele><time>2026-04-30T09:11:34.383Z</time></trkpt><trkpt lat="46.5632336" lon="12.5752307"><ele>942.0</ele><time>2026-04-30T09:11:35.383Z</time></trkpt><trkpt lat="46.5632805" lon="12.5753388"><ele>942.0</ele><time>2026-04-30T09:11:36.383Z</time></trkpt><trkpt lat="46.5633295" lon="12.5754502"><ele>942.0</ele><time>2026-04-30T09:11:37.384Z</time></trkpt><trkpt lat="46.5633785" lon="12.5755658"><ele>942.0</ele><time>2026-04-30T09:11:38.382Z</time></trkpt><trkpt lat="46.5634093" lon="12.575675"><ele>942.0</ele><time>2026-04-30T09:11:39.383Z</time></trkpt><trkpt lat="46.5634459" lon="12.5757791"><ele>942.5</ele><time>2026-04-30T09:11:40.383Z</time></trkpt><trkpt lat="46.5634719" lon="12.5758896"><ele>943.0</ele><time>2026-04-30T09:11:41.382Z</time></trkpt><trkpt lat="46.5634899" lon="12.5759897"><ele>943.5</ele><time>2026-04-30T09:11:42.383Z</time></trkpt><trkpt lat="46.5634998" lon="12.5761043"><ele>944.0</ele><time>2026-04-30T09:11:43.383Z</time></trkpt><trkpt lat="46.5634957" lon="12.5762285"><ele>944.5</ele><time>2026-04-30T09:11:44.383Z</time></trkpt><trkpt lat="46.5634844" lon="12.5763519"><ele>945.0</ele><time>2026-04-30T09:11:45.383Z</time></trkpt><trkpt lat="46.563461" lon="12.5764649"><ele>945.0</ele><time>2026-04-30T09:11:46.383Z</time></trkpt><trkpt lat="46.5634283" lon="12.5765755"><ele>945.0</ele><time>2026-04-30T09:11:47.383Z</time></trkpt><trkpt lat="46.5633719" lon="12.576658"><ele>945.0</ele><time>2026-04-30T09:11:48.384Z</time></trkpt><trkpt lat="46.5633164" lon="12.5767328"><ele>945.0</ele><time>2026-04-30T09:11:49.383Z</time></trkpt><trkpt lat="46.56325" lon="12.5767963"><ele>945.0</ele><time>2026-04-30T09:11:50.383Z</time></trkpt><trkpt lat="46.5631602" lon="12.5768537"><ele>945.0</ele><time>2026-04-30T09:11:51.383Z</time></trkpt><trkpt lat="46.563078" lon="12.5769015"><ele>945.0</ele><time>2026-04-30T09:11:52.383Z</time></trkpt><trkpt lat="46.5629988" lon="12.5769566"><ele>945.0</ele><time>2026-04-30T09:11:53.383Z</time></trkpt><trkpt lat="46.5629653" lon="12.5770539"><ele>945.0</ele><time>2026-04-30T09:11:54.383Z</time></trkpt><trkpt lat="46.5629478" lon="12.5771818"><ele>945.0</ele><time>2026-04-30T09:11:55.383Z</time></trkpt><trkpt lat="46.562941" lon="12.5773036"><ele>945.0</ele><time>2026-04-30T09:11:56.383Z</time></trkpt><trkpt lat="46.5629642" lon="12.5774385"><ele>945.0</ele><time>2026-04-30T09:11:57.383Z</time></trkpt><trkpt lat="46.563004" lon="12.5775676"><ele>943.0</ele><time>2026-04-30T09:11:58.383Z</time></trkpt><trkpt lat="46.5630575" lon="12.5776942"><ele>941.0</ele><time>2026-04-30T09:11:59.383Z</time></trkpt><trkpt lat="46.5631143" lon="12.5778246"><ele>939.0</ele><time>2026-04-30T09:12:00.383Z</time></trkpt><trkpt lat="46.5631735" lon="12.5779565"><ele>937.0</ele><time>2026-04-30T09:12:01.383Z</time></trkpt><trkpt lat="46.563234" lon="12.5780906"><ele>935.0</ele><time>2026-04-30T09:12:02.382Z</time></trkpt><trkpt lat="46.5632901" lon="12.5782268"><ele>934.8</ele><time>2026-04-30T09:12:03.383Z</time></trkpt><trkpt lat="46.5633465" lon="12.5783622"><ele>934.6</ele><time>2026-04-30T09:12:04.383Z</time></trkpt><trkpt lat="46.5633988" lon="12.5785016"><ele>934.4000000000001</ele><time>2026-04-30T09:12:05.383Z</time></trkpt><trkpt lat="46.5634492" lon="12.5786384"><ele>934.2</ele><time>2026-04-30T09:12:06.383Z</time></trkpt><trkpt lat="46.5635008" lon="12.5787768"><ele>934.0</ele><time>2026-04-30T09:12:07.383Z</time></trkpt><trkpt lat="46.5635531" lon="12.5789122"><ele>934.2</ele><time>2026-04-30T09:12:08.383Z</time></trkpt><trkpt lat="46.563601" lon="12.5790509"><ele>934.4000000000001</ele><time>2026-04-30T09:12:09.383Z</time></trkpt><trkpt lat="46.5636542" lon="12.5791889"><ele>934.6</ele><time>2026-04-30T09:12:10.383Z</time></trkpt><trkpt lat="46.5637055" lon="12.5793299"><ele>934.8</ele><time>2026-04-30T09:12:11.383Z</time></trkpt><trkpt lat="46.5637517" lon="12.5794754"><ele>935.0</ele><time>2026-04-30T09:12:12.384Z</time></trkpt><trkpt lat="46.5637999" lon="12.5796188"><ele>935.3333333333334</ele><time>2026-04-30T09:12:13.383Z</time></trkpt><trkpt lat="46.5638432" lon="12.5797531"><ele>935.6666666666667</ele><time>2026-04-30T09:12:14.383Z</time></trkpt><trkpt lat="46.5638777" lon="12.579878"><ele>936.0</ele><time>2026-04-30T09:12:15.383Z</time></trkpt><trkpt lat="46.5639059" lon="12.5800056"><ele>936.3333333333333</ele><time>2026-04-30T09:12:16.383Z</time></trkpt><trkpt lat="46.5639211" lon="12.5801242"><ele>936.6666666666666</ele><time>2026-04-30T09:12:17.383Z</time></trkpt><trkpt lat="46.5639226" lon="12.5802296"><ele>937.0</ele><time>2026-04-30T09:12:18.383Z</time></trkpt><trkpt lat="46.5639037" lon="12.5803214"><ele>937.0</ele><time>2026-04-30T09:12:19.383Z</time></trkpt><trkpt lat="46.5638059" lon="12.5804517"><ele>937.0</ele><time>2026-04-30T09:12:21.383Z</time></trkpt><trkpt lat="46.5637485" lon="12.5804966"><ele>937.0</ele><time>2026-04-30T09:12:22.383Z</time></trkpt><trkpt lat="46.5636861" lon="12.5805322"><ele>937.0</ele><time>2026-04-30T09:12:23.383Z</time></trkpt><trkpt lat="46.5636221" lon="12.5805966"><ele>937.0</ele><time>2026-04-30T09:12:24.383Z</time></trkpt><trkpt lat="46.5635801" lon="12.580797"><ele>937.2857142857142</ele><time>2026-04-30T09:12:26.383Z</time></trkpt><trkpt lat="46.5635796" lon="12.5809011"><ele>937.5714285714287</ele><time>2026-04-30T09:12:27.383Z</time></trkpt><trkpt lat="46.5635857" lon="12.581002"><ele>937.8571428571429</ele><time>2026-04-30T09:12:28.383Z</time></trkpt><trkpt lat="46.5636045" lon="12.581101"><ele>938.1428571428571</ele><time>2026-04-30T09:12:29.383Z</time></trkpt><trkpt lat="46.5636458" lon="12.5811911"><ele>938.4285714285713</ele><time>2026-04-30T09:12:30.383Z</time></trkpt><trkpt lat="46.5636927" lon="12.5812791"><ele>938.7142857142858</ele><time>2026-04-30T09:12:31.383Z</time></trkpt><trkpt lat="46.563729" lon="12.5813635"><ele>939.0</ele><time>2026-04-30T09:12:32.383Z</time></trkpt><trkpt lat="46.5637694" lon="12.5814851"><ele>939.0</ele><time>2026-04-30T09:12:34.383Z</time></trkpt><trkpt lat="46.563813" lon="12.5815633"><ele>939.0</ele><time>2026-04-30T09:12:43.383Z</time></trkpt><trkpt lat="46.5639189" lon="12.5815427"><ele>939.0</ele><time>2026-04-30T09:12:45.383Z</time></trkpt><trkpt lat="46.5639747" lon="12.5815895"><ele>939.0</ele><time>2026-04-30T09:12:46.383Z</time></trkpt><trkpt lat="46.5640155" lon="12.5816935"><ele>939.0</ele><time>2026-04-30T09:12:47.383Z</time></trkpt><trkpt lat="46.5640417" lon="12.5818244"><ele>939.0</ele><time>2026-04-30T09:12:48.383Z</time></trkpt><trkpt lat="46.5640697" lon="12.5819574"><ele>939.0</ele><time>2026-04-30T09:12:49.383Z</time></trkpt><trkpt lat="46.5641011" lon="12.582099"><ele>939.0000000000001</ele><time>2026-04-30T09:12:50.383Z</time></trkpt><trkpt lat="46.5641329" lon="12.5822463"><ele>939.0000000000001</ele><time>2026-04-30T09:12:51.383Z</time></trkpt><trkpt lat="46.5641701" lon="12.5824007"><ele>939.0</ele><time>2026-04-30T09:12:52.383Z</time></trkpt><trkpt lat="46.5642096" lon="12.5825588"><ele>939.0</ele><time>2026-04-30T09:12:53.383Z</time></trkpt><trkpt lat="46.5642477" lon="12.5827088"><ele>939.0</ele><time>2026-04-30T09:12:54.383Z</time></trkpt><trkpt lat="46.5642911" lon="12.5828516"><ele>939.0000000000001</ele><time>2026-04-30T09:12:55.383Z</time></trkpt><trkpt lat="46.5643352" lon="12.5829991"><ele>939.0000000000001</ele><time>2026-04-30T09:12:56.383Z</time></trkpt><trkpt lat="46.5643807" lon="12.5831468"><ele>939.0</ele><time>2026-04-30T09:12:57.383Z</time></trkpt><trkpt lat="46.5644278" lon="12.5832903"><ele>939.0</ele><time>2026-04-30T09:12:58.383Z</time></trkpt><trkpt lat="46.564483" lon="12.5834303"><ele>939.0</ele><time>2026-04-30T09:12:59.383Z</time></trkpt><trkpt lat="46.5645448" lon="12.5835656"><ele>939.0000000000001</ele><time>2026-04-30T09:13:00.383Z</time></trkpt><trkpt lat="46.5646034" lon="12.583699"><ele>939.0000000000001</ele><time>2026-04-30T09:13:01.383Z</time></trkpt><trkpt lat="46.5646647" lon="12.5838326"><ele>939.0</ele><time>2026-04-30T09:13:02.383Z</time></trkpt><trkpt lat="46.564725" lon="12.583972"><ele>939.0</ele><time>2026-04-30T09:13:03.383Z</time></trkpt><trkpt lat="46.5647894" lon="12.5841098"><ele>939.0</ele><time>2026-04-30T09:13:04.383Z</time></trkpt><trkpt lat="46.5648584" lon="12.5842456"><ele>939.0</ele><time>2026-04-30T09:13:05.383Z</time></trkpt><trkpt lat="46.5649261" lon="12.5843773"><ele>939.0</ele><time>2026-04-30T09:13:06.384Z</time></trkpt><trkpt lat="46.5649935" lon="12.5845144"><ele>939.0</ele><time>2026-04-30T09:13:07.383Z</time></trkpt><trkpt lat="46.5650641" lon="12.5846509"><ele>940.0</ele><time>2026-04-30T09:13:08.383Z</time></trkpt><trkpt lat="46.565135" lon="12.584786"><ele>941.0</ele><time>2026-04-30T09:13:09.383Z</time></trkpt><trkpt lat="46.5652039" lon="12.5849235"><ele>942.0</ele><time>2026-04-30T09:13:10.383Z</time></trkpt><trkpt lat="46.565272" lon="12.5850592"><ele>943.0</ele><time>2026-04-30T09:13:11.384Z</time></trkpt><trkpt lat="46.5653375" lon="12.5851992"><ele>942.75</ele><time>2026-04-30T09:13:12.383Z</time></trkpt><trkpt lat="46.5654035" lon="12.5853396"><ele>942.5</ele><time>2026-04-30T09:13:13.383Z</time></trkpt><trkpt lat="46.5654681" lon="12.5854785"><ele>942.25</ele><time>2026-04-30T09:13:14.383Z</time></trkpt><trkpt lat="46.5655596" lon="12.5857464"><ele>942.0</ele><time>2026-04-30T09:13:16.383Z</time></trkpt><trkpt lat="46.5655904" lon="12.5858827"><ele>942.0</ele><time>2026-04-30T09:13:17.383Z</time></trkpt><trkpt lat="46.5656174" lon="12.5860218"><ele>942.0</ele><time>2026-04-30T09:13:18.383Z</time></trkpt><trkpt lat="46.5656346" lon="12.5861611"><ele>942.0</ele><time>2026-04-30T09:13:19.383Z</time></trkpt><trkpt lat="46.5656425" lon="12.5863047"><ele>942.0</ele><time>2026-04-30T09:13:20.383Z</time></trkpt><trkpt lat="46.5656419" lon="12.5864396"><ele>942.0</ele><time>2026-04-30T09:13:21.383Z</time></trkpt><trkpt lat="46.5656595" lon="12.5865621"><ele>942.6</ele><time>2026-04-30T09:13:22.383Z</time></trkpt><trkpt lat="46.5657" lon="12.5866514"><ele>943.2</ele><time>2026-04-30T09:13:23.383Z</time></trkpt><trkpt lat="46.5657391" lon="12.586735"><ele>943.8</ele><time>2026-04-30T09:13:24.383Z</time></trkpt><trkpt lat="46.5658088" lon="12.5868716"><ele>944.4</ele><time>2026-04-30T09:13:26.382Z</time></trkpt><trkpt lat="46.5658477" lon="12.5869555"><ele>945.0</ele><time>2026-04-30T09:13:27.383Z</time></trkpt><trkpt lat="46.5659523" lon="12.5871539"><ele>945.2</ele><time>2026-04-30T09:13:29.383Z</time></trkpt><trkpt lat="46.5660148" lon="12.5872646"><ele>945.4</ele><time>2026-04-30T09:13:30.383Z</time></trkpt><trkpt lat="46.5660771" lon="12.5873822"><ele>945.5999999999999</ele><time>2026-04-30T09:13:31.383Z</time></trkpt><trkpt lat="46.5661425" lon="12.5875027"><ele>945.8</ele><time>2026-04-30T09:13:32.383Z</time></trkpt><trkpt lat="46.5662145" lon="12.5876232"><ele>946.0</ele><time>2026-04-30T09:13:33.384Z</time></trkpt><trkpt lat="46.5662868" lon="12.5877343"><ele>946.0</ele><time>2026-04-30T09:13:34.382Z</time></trkpt><trkpt lat="46.5663552" lon="12.5878402"><ele>945.9999999999999</ele><time>2026-04-30T09:13:35.383Z</time></trkpt><trkpt lat="46.5664211" lon="12.5879422"><ele>945.9999999999999</ele><time>2026-04-30T09:13:36.383Z</time></trkpt><trkpt lat="46.566478" lon="12.5880275"><ele>946.0</ele><time>2026-04-30T09:13:37.383Z</time></trkpt><trkpt lat="46.56658" lon="12.5881588"><ele>946.0</ele><time>2026-04-30T09:13:39.383Z</time></trkpt><trkpt lat="46.5666812" lon="12.5882211"><ele>947.0</ele><time>2026-04-30T09:13:40.383Z</time></trkpt><trkpt lat="46.5667455" lon="12.5883383"><ele>947.9999999999999</ele><time>2026-04-30T09:13:41.383Z</time></trkpt><trkpt lat="46.5668225" lon="12.5884512"><ele>948.9999999999999</ele><time>2026-04-30T09:13:42.383Z</time></trkpt><trkpt lat="46.5669029" lon="12.5885666"><ele>950.0</ele><time>2026-04-30T09:13:43.383Z</time></trkpt><trkpt lat="46.5669859" lon="12.588686"><ele>951.0</ele><time>2026-04-30T09:13:44.382Z</time></trkpt><trkpt lat="46.567067" lon="12.5888143"><ele>952.0</ele><time>2026-04-30T09:13:45.383Z</time></trkpt><trkpt lat="46.5671428" lon="12.5889441"><ele>952.9999999999999</ele><time>2026-04-30T09:13:46.383Z</time></trkpt><trkpt lat="46.567216" lon="12.5890745"><ele>953.9999999999999</ele><time>2026-04-30T09:13:47.383Z</time></trkpt><trkpt lat="46.5672876" lon="12.5891937"><ele>955.0</ele><time>2026-04-30T09:13:48.383Z</time></trkpt><trkpt lat="46.5673555" lon="12.589297"><ele>956.0</ele><time>2026-04-30T09:13:49.383Z</time></trkpt><trkpt lat="46.5674287" lon="12.5893844"><ele>956.0</ele><time>2026-04-30T09:13:50.383Z</time></trkpt><trkpt lat="46.5675024" lon="12.589457"><ele>955.9999999999999</ele><time>2026-04-30T09:13:51.383Z</time></trkpt><trkpt lat="46.5675756" lon="12.589525"><ele>955.9999999999999</ele><time>2026-04-30T09:13:52.383Z</time></trkpt><trkpt lat="46.5677227" lon="12.5895402"><ele>956.0</ele><time>2026-04-30T09:13:53.383Z</time></trkpt><trkpt lat="46.5678308" lon="12.5896017"><ele>956.0</ele><time>2026-04-30T09:13:54.383Z</time></trkpt><trkpt lat="46.5679411" lon="12.5896726"><ele>955.25</ele><time>2026-04-30T09:13:55.383Z</time></trkpt><trkpt lat="46.5680535" lon="12.5897517"><ele>954.5</ele><time>2026-04-30T09:13:56.383Z</time></trkpt><trkpt lat="46.568173" lon="12.589828"><ele>953.75</ele><time>2026-04-30T09:13:57.383Z</time></trkpt><trkpt lat="46.5682909" lon="12.5899098"><ele>953.0</ele><time>2026-04-30T09:13:58.384Z</time></trkpt><trkpt lat="46.5684083" lon="12.5899925"><ele>953.0</ele><time>2026-04-30T09:13:59.383Z</time></trkpt><trkpt lat="46.5685257" lon="12.590079"><ele>953.0</ele><time>2026-04-30T09:14:00.383Z</time></trkpt><trkpt lat="46.5686398" lon="12.5901641"><ele>953.0</ele><time>2026-04-30T09:14:01.383Z</time></trkpt><trkpt lat="46.5687544" lon="12.5902471"><ele>953.0</ele><time>2026-04-30T09:14:02.383Z</time></trkpt><trkpt lat="46.568863" lon="12.5903338"><ele>952.5</ele><time>2026-04-30T09:14:03.383Z</time></trkpt><trkpt lat="46.5689722" lon="12.5904295"><ele>952.0</ele><time>2026-04-30T09:14:04.383Z</time></trkpt><trkpt lat="46.5690707" lon="12.5905373"><ele>951.5</ele><time>2026-04-30T09:14:05.383Z</time></trkpt><trkpt lat="46.569171" lon="12.5906509"><ele>951.0</ele><time>2026-04-30T09:14:06.382Z</time></trkpt><trkpt lat="46.5692672" lon="12.5907693"><ele>951.0</ele><time>2026-04-30T09:14:07.383Z</time></trkpt><trkpt lat="46.5693567" lon="12.5908968"><ele>951.0</ele><time>2026-04-30T09:14:08.383Z</time></trkpt><trkpt lat="46.5694386" lon="12.5910375"><ele>951.0</ele><time>2026-04-30T09:14:09.383Z</time></trkpt><trkpt lat="46.5695119" lon="12.591189"><ele>951.0</ele><time>2026-04-30T09:14:10.383Z</time></trkpt><trkpt lat="46.569577" lon="12.5913448"><ele>951.25</ele><time>2026-04-30T09:14:11.383Z</time></trkpt><trkpt lat="46.5696493" lon="12.5914862"><ele>951.5</ele><time>2026-04-30T09:14:12.384Z</time></trkpt><trkpt lat="46.5697347" lon="12.5916106"><ele>951.75</ele><time>2026-04-30T09:14:13.383Z</time></trkpt><trkpt lat="46.569825" lon="12.5917277"><ele>952.0</ele><time>2026-04-30T09:14:14.383Z</time></trkpt><trkpt lat="46.5699137" lon="12.5918368"><ele>951.9999999999999</ele><time>2026-04-30T09:14:15.383Z</time></trkpt><trkpt lat="46.569989" lon="12.5919441"><ele>952.0</ele><time>2026-04-30T09:14:16.383Z</time></trkpt><trkpt lat="46.570056" lon="12.5920505"><ele>952.0</ele><time>2026-04-30T09:14:17.383Z</time></trkpt><trkpt lat="46.5701172" lon="12.5921429"><ele>952.0</ele><time>2026-04-30T09:14:18.383Z</time></trkpt><trkpt lat="46.5701732" lon="12.5922164"><ele>951.9999999999999</ele><time>2026-04-30T09:14:19.383Z</time></trkpt><trkpt lat="46.5702306" lon="12.5922756"><ele>952.0</ele><time>2026-04-30T09:14:20.383Z</time></trkpt><trkpt lat="46.5702952" lon="12.5923291"><ele>952.1666666666666</ele><time>2026-04-30T09:14:21.383Z</time></trkpt><trkpt lat="46.5703525" lon="12.5923837"><ele>952.3333333333333</ele><time>2026-04-30T09:14:22.383Z</time></trkpt><trkpt lat="46.5704071" lon="12.5924551"><ele>952.5</ele><time>2026-04-30T09:14:23.383Z</time></trkpt><trkpt lat="46.5704538" lon="12.5925598"><ele>952.6666666666667</ele><time>2026-04-30T09:14:24.384Z</time></trkpt><trkpt lat="46.5705075" lon="12.5926758"><ele>952.8333333333334</ele><time>2026-04-30T09:14:25.383Z</time></trkpt><trkpt lat="46.5705724" lon="12.5927859"><ele>953.0</ele><time>2026-04-30T09:14:26.383Z</time></trkpt><trkpt lat="46.5706454" lon="12.5928962"><ele>954.75</ele><time>2026-04-30T09:14:27.383Z</time></trkpt><trkpt lat="46.5707246" lon="12.5930049"><ele>956.5</ele><time>2026-04-30T09:14:28.383Z</time></trkpt><trkpt lat="46.5707965" lon="12.5931316"><ele>958.25</ele><time>2026-04-30T09:14:29.383Z</time></trkpt><trkpt lat="46.5708712" lon="12.5932698"><ele>960.0</ele><time>2026-04-30T09:14:30.383Z</time></trkpt><trkpt lat="46.5709458" lon="12.5934101"><ele>960.0</ele><time>2026-04-30T09:14:31.383Z</time></trkpt><trkpt lat="46.5710293" lon="12.5935523"><ele>960.0</ele><time>2026-04-30T09:14:32.383Z</time></trkpt><trkpt lat="46.5711063" lon="12.5936893"><ele>960.0</ele><time>2026-04-30T09:14:33.383Z</time></trkpt><trkpt lat="46.571186" lon="12.5938287"><ele>960.0</ele><time>2026-04-30T09:14:34.383Z</time></trkpt><trkpt lat="46.5712647" lon="12.5939685"><ele>958.75</ele><time>2026-04-30T09:14:35.383Z</time></trkpt><trkpt lat="46.5713461" lon="12.5941112"><ele>957.5</ele><time>2026-04-30T09:14:36.383Z</time></trkpt><trkpt lat="46.5714251" lon="12.5942586"><ele>956.25</ele><time>2026-04-30T09:14:37.383Z</time></trkpt><trkpt lat="46.5715102" lon="12.5944066"><ele>955.0</ele><time>2026-04-30T09:14:38.383Z</time></trkpt><trkpt lat="46.5715934" lon="12.5945522"><ele>959.0</ele><time>2026-04-30T09:14:39.383Z</time></trkpt><trkpt lat="46.5716749" lon="12.5946969"><ele>963.0</ele><time>2026-04-30T09:14:40.382Z</time></trkpt><trkpt lat="46.5717573" lon="12.5948405"><ele>967.0</ele><time>2026-04-30T09:14:41.383Z</time></trkpt><trkpt lat="46.5718401" lon="12.5949829"><ele>971.0</ele><time>2026-04-30T09:14:42.383Z</time></trkpt><trkpt lat="46.5719198" lon="12.595122"><ele>971.0</ele><time>2026-04-30T09:14:43.383Z</time></trkpt><trkpt lat="46.5719998" lon="12.5952554"><ele>971.0</ele><time>2026-04-30T09:14:44.382Z</time></trkpt><trkpt lat="46.5720806" lon="12.5953841"><ele>971.0</ele><time>2026-04-30T09:14:45.383Z</time></trkpt><trkpt lat="46.5721612" lon="12.5955029"><ele>971.0</ele><time>2026-04-30T09:14:46.383Z</time></trkpt><trkpt lat="46.5722308" lon="12.5956137"><ele>969.5999999999999</ele><time>2026-04-30T09:14:47.383Z</time></trkpt><trkpt lat="46.5722859" lon="12.5957411"><ele>968.1999999999999</ele><time>2026-04-30T09:14:48.383Z</time></trkpt><trkpt lat="46.5723287" lon="12.5958836"><ele>966.8000000000001</ele><time>2026-04-30T09:14:49.383Z</time></trkpt><trkpt lat="46.5723697" lon="12.5960346"><ele>965.4000000000001</ele><time>2026-04-30T09:14:50.383Z</time></trkpt><trkpt lat="46.5724122" lon="12.5961924"><ele>964.0</ele><time>2026-04-30T09:14:51.383Z</time></trkpt><trkpt lat="46.5724507" lon="12.596364"><ele>964.25</ele><time>2026-04-30T09:14:52.383Z</time></trkpt><trkpt lat="46.5724946" lon="12.5965305"><ele>964.5</ele><time>2026-04-30T09:14:53.383Z</time></trkpt><trkpt lat="46.5725391" lon="12.5966949"><ele>964.75</ele><time>2026-04-30T09:14:54.383Z</time></trkpt><trkpt lat="46.57258" lon="12.5968559"><ele>965.0</ele><time>2026-04-30T09:14:55.382Z</time></trkpt><trkpt lat="46.5726229" lon="12.5970096"><ele>965.0</ele><time>2026-04-30T09:14:56.383Z</time></trkpt><trkpt lat="46.572667" lon="12.5971681"><ele>965.0</ele><time>2026-04-30T09:14:57.383Z</time></trkpt><trkpt lat="46.5727242" lon="12.5973324"><ele>965.0</ele><time>2026-04-30T09:14:58.382Z</time></trkpt><trkpt lat="46.5727811" lon="12.5974925"><ele>965.0</ele><time>2026-04-30T09:14:59.383Z</time></trkpt><trkpt lat="46.5728397" lon="12.5976514"><ele>965.4</ele><time>2026-04-30T09:15:00.383Z</time></trkpt><trkpt lat="46.572897" lon="12.5978059"><ele>965.8</ele><time>2026-04-30T09:15:01.383Z</time></trkpt><trkpt lat="46.5729501" lon="12.5979439"><ele>966.2</ele><time>2026-04-30T09:15:02.383Z</time></trkpt><trkpt lat="46.573" lon="12.5980727"><ele>966.6</ele><time>2026-04-30T09:15:03.383Z</time></trkpt><trkpt lat="46.5730384" lon="12.598192"><ele>967.0</ele><time>2026-04-30T09:15:04.383Z</time></trkpt><trkpt lat="46.5730607" lon="12.5983079"><ele>966.2</ele><time>2026-04-30T09:15:05.383Z</time></trkpt><trkpt lat="46.5730719" lon="12.5984396"><ele>965.4000000000001</ele><time>2026-04-30T09:15:06.383Z</time></trkpt><trkpt lat="46.5730856" lon="12.5985779"><ele>964.5999999999999</ele><time>2026-04-30T09:15:07.383Z</time></trkpt><trkpt lat="46.5731057" lon="12.5987216"><ele>963.8</ele><time>2026-04-30T09:15:08.383Z</time></trkpt><trkpt lat="46.5731294" lon="12.5988678"><ele>963.0</ele><time>2026-04-30T09:15:09.383Z</time></trkpt><trkpt lat="46.5731538" lon="12.5990161"><ele>962.8</ele><time>2026-04-30T09:15:10.383Z</time></trkpt><trkpt lat="46.5731808" lon="12.5991665"><ele>962.5999999999999</ele><time>2026-04-30T09:15:11.383Z</time></trkpt><trkpt lat="46.5732128" lon="12.5993186"><ele>962.4000000000001</ele><time>2026-04-30T09:15:12.383Z</time></trkpt><trkpt lat="46.5732499" lon="12.5994721"><ele>962.2</ele><time>2026-04-30T09:15:13.383Z</time></trkpt><trkpt lat="46.5732973" lon="12.5996197"><ele>962.0</ele><time>2026-04-30T09:15:14.383Z</time></trkpt><trkpt lat="46.5733538" lon="12.5997624"><ele>964.0</ele><time>2026-04-30T09:15:15.383Z</time></trkpt><trkpt lat="46.5734119" lon="12.5999053"><ele>966.0</ele><time>2026-04-30T09:15:16.383Z</time></trkpt><trkpt lat="46.5734771" lon="12.6000456"><ele>968.0</ele><time>2026-04-30T09:15:17.384Z</time></trkpt><trkpt lat="46.5735431" lon="12.6001878"><ele>970.0</ele><time>2026-04-30T09:15:18.383Z</time></trkpt><trkpt lat="46.5736086" lon="12.6003304"><ele>970.25</ele><time>2026-04-30T09:15:19.383Z</time></trkpt><trkpt lat="46.5736694" lon="12.6004797"><ele>970.5</ele><time>2026-04-30T09:15:20.383Z</time></trkpt><trkpt lat="46.5737297" lon="12.6006301"><ele>970.75</ele><time>2026-04-30T09:15:21.383Z</time></trkpt><trkpt lat="46.5737933" lon="12.6007765"><ele>971.0</ele><time>2026-04-30T09:15:22.383Z</time></trkpt><trkpt lat="46.5738628" lon="12.6009165"><ele>971.0</ele><time>2026-04-30T09:15:23.383Z</time></trkpt><trkpt lat="46.5739392" lon="12.6010478"><ele>971.0</ele><time>2026-04-30T09:15:24.383Z</time></trkpt><trkpt lat="46.5740174" lon="12.6011756"><ele>971.0</ele><time>2026-04-30T09:15:25.383Z</time></trkpt><trkpt lat="46.5740972" lon="12.601301"><ele>971.0</ele><time>2026-04-30T09:15:26.382Z</time></trkpt><trkpt lat="46.5741781" lon="12.6014225"><ele>971.75</ele><time>2026-04-30T09:15:27.383Z</time></trkpt><trkpt lat="46.5742577" lon="12.6015437"><ele>972.5</ele><time>2026-04-30T09:15:28.383Z</time></trkpt><trkpt lat="46.5743381" lon="12.6016645"><ele>973.25</ele><time>2026-04-30T09:15:29.383Z</time></trkpt><trkpt lat="46.5744212" lon="12.6017829"><ele>974.0</ele><time>2026-04-30T09:15:30.384Z</time></trkpt><trkpt lat="46.574503" lon="12.6019012"><ele>973.25</ele><time>2026-04-30T09:15:31.383Z</time></trkpt><trkpt lat="46.5745847" lon="12.6020189"><ele>972.5</ele><time>2026-04-30T09:15:32.383Z</time></trkpt><trkpt lat="46.5746667" lon="12.6021362"><ele>971.75</ele><time>2026-04-30T09:15:33.383Z</time></trkpt><trkpt lat="46.5747478" lon="12.6022521"><ele>971.0</ele><time>2026-04-30T09:15:34.383Z</time></trkpt><trkpt lat="46.5748303" lon="12.6023677"><ele>971.0</ele><time>2026-04-30T09:15:35.382Z</time></trkpt><trkpt lat="46.5749103" lon="12.602484"><ele>971.0</ele><time>2026-04-30T09:15:36.383Z</time></trkpt><trkpt lat="46.5749959" lon="12.6025925"><ele>971.0</ele><time>2026-04-30T09:15:37.384Z</time></trkpt><trkpt lat="46.5751707" lon="12.602813"><ele>970.5</ele><time>2026-04-30T09:15:39.383Z</time></trkpt><trkpt lat="46.5752608" lon="12.6029231"><ele>970.0</ele><time>2026-04-30T09:15:40.383Z</time></trkpt><trkpt lat="46.5753583" lon="12.6030246"><ele>969.5</ele><time>2026-04-30T09:15:41.383Z</time></trkpt><trkpt lat="46.5754614" lon="12.6031176"><ele>969.0</ele><time>2026-04-30T09:15:42.383Z</time></trkpt><trkpt lat="46.5755695" lon="12.6032064"><ele>969.0</ele><time>2026-04-30T09:15:43.383Z</time></trkpt><trkpt lat="46.5756774" lon="12.6032919"><ele>969.0000000000001</ele><time>2026-04-30T09:15:44.383Z</time></trkpt><trkpt lat="46.575778" lon="12.6033697"><ele>969.0000000000001</ele><time>2026-04-30T09:15:45.383Z</time></trkpt><trkpt lat="46.5758642" lon="12.6034373"><ele>969.0</ele><time>2026-04-30T09:15:46.383Z</time></trkpt><trkpt lat="46.5759407" lon="12.6034972"><ele>969.0</ele><time>2026-04-30T09:15:47.383Z</time></trkpt><trkpt lat="46.5760133" lon="12.6035537"><ele>969.0</ele><time>2026-04-30T09:15:48.383Z</time></trkpt><trkpt lat="46.5760755" lon="12.6035996"><ele>969.0000000000001</ele><time>2026-04-30T09:15:49.383Z</time></trkpt><trkpt lat="46.5761459" lon="12.6036906"><ele>969.0000000000001</ele><time>2026-04-30T09:15:51.383Z</time></trkpt><trkpt lat="46.5761064" lon="12.6038419"><ele>969.0</ele><time>2026-04-30T09:15:53.382Z</time></trkpt><trkpt lat="46.5760325" lon="12.6039827"><ele>969.0</ele><time>2026-04-30T09:15:55.383Z</time></trkpt><trkpt lat="46.5759593" lon="12.6039978"><ele>971.1666666666666</ele><time>2026-04-30T09:15:56.383Z</time></trkpt><trkpt lat="46.5758834" lon="12.6040517"><ele>973.3333333333333</ele><time>2026-04-30T09:15:57.383Z</time></trkpt><trkpt lat="46.5758047" lon="12.6040744"><ele>975.5</ele><time>2026-04-30T09:15:58.384Z</time></trkpt><trkpt lat="46.5757258" lon="12.6040836"><ele>977.6666666666666</ele><time>2026-04-30T09:15:59.383Z</time></trkpt><trkpt lat="46.5756512" lon="12.6040945"><ele>979.8333333333333</ele><time>2026-04-30T09:16:00.383Z</time></trkpt><trkpt lat="46.5755729" lon="12.6041014"><ele>982.0</ele><time>2026-04-30T09:16:01.383Z</time></trkpt><trkpt lat="46.5755" lon="12.6041293"><ele>981.9999999999999</ele><time>2026-04-30T09:16:02.383Z</time></trkpt><trkpt lat="46.5754331" lon="12.6041596"><ele>982.0</ele><time>2026-04-30T09:16:03.383Z</time></trkpt><trkpt lat="46.5753299" lon="12.6041599"><ele>982.0</ele><time>2026-04-30T09:16:05.383Z</time></trkpt><trkpt lat="46.5752637" lon="12.6042178"><ele>982.0</ele><time>2026-04-30T09:16:07.383Z</time></trkpt><trkpt lat="46.5752499" lon="12.6043113"><ele>981.9999999999999</ele><time>2026-04-30T09:16:09.383Z</time></trkpt><trkpt lat="46.5752897" lon="12.6044551"><ele>982.0</ele><time>2026-04-30T09:16:11.383Z</time></trkpt><trkpt lat="46.5753176" lon="12.604544"><ele>984.3333333333333</ele><time>2026-04-30T09:16:12.383Z</time></trkpt><trkpt lat="46.5753347" lon="12.6046453"><ele>986.6666666666666</ele><time>2026-04-30T09:16:13.383Z</time></trkpt><trkpt lat="46.5753349" lon="12.6047574"><ele>989.0</ele><time>2026-04-30T09:16:14.383Z</time></trkpt><trkpt lat="46.5753264" lon="12.6048781"><ele>991.3333333333333</ele><time>2026-04-30T09:16:15.383Z</time></trkpt><trkpt lat="46.5753316" lon="12.6050047"><ele>993.6666666666666</ele><time>2026-04-30T09:16:16.383Z</time></trkpt><trkpt lat="46.5753362" lon="12.6051274"><ele>996.0</ele><time>2026-04-30T09:16:17.383Z</time></trkpt><trkpt lat="46.5753456" lon="12.6052349"><ele>998.5</ele><time>2026-04-30T09:16:18.384Z</time></trkpt><trkpt lat="46.5753612" lon="12.6053558"><ele>1001.0</ele><time>2026-04-30T09:16:19.385Z</time></trkpt><trkpt lat="46.5753666" lon="12.6054691"><ele>1003.5</ele><time>2026-04-30T09:16:20.384Z</time></trkpt><trkpt lat="46.5753839" lon="12.6056253"><ele>1006.0</ele><time>2026-04-30T09:16:22.384Z</time></trkpt><trkpt lat="46.5754685" lon="12.6057298"><ele>1008.5</ele><time>2026-04-30T09:16:24.384Z</time></trkpt><trkpt lat="46.5755268" lon="12.6057741"><ele>1011.0</ele><time>2026-04-30T09:16:25.384Z</time></trkpt><trkpt lat="46.5755984" lon="12.6058352"><ele>1010.9999999999999</ele><time>2026-04-30T09:16:26.384Z</time></trkpt><trkpt lat="46.5756624" lon="12.6058987"><ele>1011.0</ele><time>2026-04-30T09:16:27.384Z</time></trkpt><trkpt lat="46.5757208" lon="12.6059763"><ele>1010.9999999999999</ele><time>2026-04-30T09:16:28.385Z</time></trkpt><trkpt lat="46.5757719" lon="12.6060604"><ele>1010.9999999999999</ele><time>2026-04-30T09:16:29.384Z</time></trkpt><trkpt lat="46.5758178" lon="12.6061454"><ele>1011.0</ele><time>2026-04-30T09:16:30.384Z</time></trkpt><trkpt lat="46.5758472" lon="12.6062425"><ele>1010.9999999999999</ele><time>2026-04-30T09:16:31.384Z</time></trkpt><trkpt lat="46.5758672" lon="12.6063337"><ele>1010.9999999999999</ele><time>2026-04-30T09:16:32.384Z</time></trkpt><trkpt lat="46.5758751" lon="12.6065071"><ele>1013.8333333333334</ele><time>2026-04-30T09:16:34.383Z</time></trkpt><trkpt lat="46.5758538" lon="12.6066668"><ele>1016.6666666666667</ele><time>2026-04-30T09:16:36.384Z</time></trkpt><trkpt lat="46.5758872" lon="12.6067796"><ele>1019.5</ele><time>2026-04-30T09:20:08.384Z</time></trkpt><trkpt lat="46.5758831" lon="12.6068941"><ele>1022.3333333333334</ele><time>2026-04-30T09:20:11.384Z</time></trkpt><trkpt lat="46.5759334" lon="12.60699"><ele>1025.1666666666667</ele><time>2026-04-30T09:20:14.383Z</time></trkpt><trkpt lat="46.5759234" lon="12.607095"><ele>1028.0</ele><time>2026-04-30T09:20:19.385Z</time></trkpt><trkpt lat="46.5758503" lon="12.6071713"><ele>1029.1666666666667</ele><time>2026-04-30T09:20:22.384Z</time></trkpt><trkpt lat="46.5757774" lon="12.6071786"><ele>1030.3333333333335</ele><time>2026-04-30T09:20:24.394Z</time></trkpt><trkpt lat="46.5757001" lon="12.6072538"><ele>1031.5</ele><time>2026-04-30T09:20:26.402Z</time></trkpt><trkpt lat="46.5756402" lon="12.6073479"><ele>1032.6666666666667</ele><time>2026-04-30T09:20:28.35Z</time></trkpt><trkpt lat="46.5755676" lon="12.6074414"><ele>1033.8333333333333</ele><time>2026-04-30T09:20:30.307Z</time></trkpt><trkpt lat="46.5754902" lon="12.6075007"><ele>1035.0</ele><time>2026-04-30T09:20:32.384Z</time></trkpt><trkpt lat="46.5754232" lon="12.6075279"><ele>1040.0</ele><time>2026-04-30T09:20:34.401Z</time></trkpt><trkpt lat="46.5753374" lon="12.6075236"><ele>1045.0</ele><time>2026-04-30T09:20:37.384Z</time></trkpt><trkpt lat="46.5752647" lon="12.6075743"><ele>1050.0</ele><time>2026-04-30T09:20:40.384Z</time></trkpt><trkpt lat="46.5752054" lon="12.6076909"><ele>1055.0</ele><time>2026-04-30T09:20:43.384Z</time></trkpt><trkpt lat="46.5751124" lon="12.6076832"><ele>1060.0</ele><time>2026-04-30T09:20:45.384Z</time></trkpt><trkpt lat="46.5750458" lon="12.6076523"><ele>1065.0</ele><time>2026-04-30T09:20:51.384Z</time></trkpt><trkpt lat="46.574971" lon="12.6076178"><ele>1065.0</ele><time>2026-04-30T09:20:54.383Z</time></trkpt><trkpt lat="46.5748887" lon="12.6076109"><ele>1065.0</ele><time>2026-04-30T09:20:57.385Z</time></trkpt><trkpt lat="46.5748223" lon="12.6076288"><ele>1065.0</ele><time>2026-04-30T09:20:59.384Z</time></trkpt><trkpt lat="46.5747526" lon="12.6076599"><ele>1065.0</ele><time>2026-04-30T09:21:01.384Z</time></trkpt><trkpt lat="46.5746867" lon="12.6077253"><ele>1065.0</ele><time>2026-04-30T09:21:04.384Z</time></trkpt><trkpt lat="46.5746476" lon="12.6078272"><ele>1065.0</ele><time>2026-04-30T09:21:06.384Z</time></trkpt><trkpt lat="46.5745709" lon="12.607913"><ele>1070.4285714285716</ele><time>2026-04-30T09:21:08.383Z</time></trkpt><trkpt lat="46.57448" lon="12.6079364"><ele>1075.857142857143</ele><time>2026-04-30T09:21:10.303Z</time></trkpt><trkpt lat="46.5744087" lon="12.6079688"><ele>1081.2857142857142</ele><time>2026-04-30T09:21:12.384Z</time></trkpt><trkpt lat="46.5743444" lon="12.608017"><ele>1086.7142857142858</ele><time>2026-04-30T09:21:15.385Z</time></trkpt><trkpt lat="46.5743975" lon="12.6080677"><ele>1092.142857142857</ele><time>2026-04-30T09:21:20.384Z</time></trkpt><trkpt lat="46.5743394" lon="12.6081113"><ele>1097.5714285714287</ele><time>2026-04-30T09:21:36.383Z</time></trkpt><trkpt lat="46.5742622" lon="12.6081429"><ele>1103.0</ele><time>2026-04-30T09:21:45.384Z</time></trkpt><trkpt lat="46.5741687" lon="12.6081643"><ele>1103.0</ele><time>2026-04-30T09:21:48.384Z</time></trkpt><trkpt lat="46.5741096" lon="12.6082112"><ele>1103.0</ele><time>2026-04-30T09:21:50.385Z</time></trkpt><trkpt lat="46.5740988" lon="12.6083061"><ele>1103.0</ele><time>2026-04-30T09:21:54.384Z</time></trkpt><trkpt lat="46.5740916" lon="12.6084294"><ele>1103.0</ele><time>2026-04-30T09:21:57.384Z</time></trkpt><trkpt lat="46.5741117" lon="12.6085973"><ele>1103.0</ele><time>2026-04-30T09:21:59.384Z</time></trkpt><trkpt lat="46.5741299" lon="12.6086938"><ele>1103.0</ele><time>2026-04-30T09:22:00.384Z</time></trkpt><trkpt lat="46.5741419" lon="12.6087863"><ele>1103.2</ele><time>2026-04-30T09:22:01.384Z</time></trkpt><trkpt lat="46.5741563" lon="12.6089217"><ele>1103.4</ele><time>2026-04-30T09:22:03.384Z</time></trkpt><trkpt lat="46.5741872" lon="12.609004"><ele>1103.6000000000001</ele><time>2026-04-30T09:22:05.383Z</time></trkpt><trkpt lat="46.5743195" lon="12.6089607"><ele>1103.8</ele><time>2026-04-30T09:22:08.384Z</time></trkpt><trkpt lat="46.5744107" lon="12.6088915"><ele>1104.0</ele><time>2026-04-30T09:22:10.384Z</time></trkpt><trkpt lat="46.5744797" lon="12.6089547"><ele>1103.4</ele><time>2026-04-30T09:22:14.385Z</time></trkpt><trkpt lat="46.5745365" lon="12.6090451"><ele>1102.8000000000002</ele><time>2026-04-30T09:22:16.384Z</time></trkpt><trkpt lat="46.5745899" lon="12.6091849"><ele>1102.1999999999998</ele><time>2026-04-30T09:22:18.384Z</time></trkpt><trkpt lat="46.574644" lon="12.6092867"><ele>1101.6</ele><time>2026-04-30T09:22:20.384Z</time></trkpt><trkpt lat="46.5746968" lon="12.6094114"><ele>1101.0</ele><time>2026-04-30T09:22:22.384Z</time></trkpt><trkpt lat="46.5747797" lon="12.6094806"><ele>1105.5</ele><time>2026-04-30T09:22:25.384Z</time></trkpt><trkpt lat="46.5748403" lon="12.6095463"><ele>1110.0</ele><time>2026-04-30T09:22:27.383Z</time></trkpt><trkpt lat="46.5748808" lon="12.6096403"><ele>1114.5</ele><time>2026-04-30T09:22:29.384Z</time></trkpt><trkpt lat="46.5748946" lon="12.6097483"><ele>1119.0</ele><time>2026-04-30T09:22:31.384Z</time></trkpt><trkpt lat="46.5749071" lon="12.6098602"><ele>1123.5</ele><time>2026-04-30T09:22:33.384Z</time></trkpt><trkpt lat="46.574951" lon="12.6099478"><ele>1128.0</ele><time>2026-04-30T09:22:35.384Z</time></trkpt><trkpt lat="46.5749358" lon="12.610078"><ele>1128.0</ele><time>2026-04-30T09:22:37.384Z</time></trkpt><trkpt lat="46.5749134" lon="12.6102048"><ele>1128.0</ele><time>2026-04-30T09:22:39.384Z</time></trkpt><trkpt lat="46.5748385" lon="12.6103586"><ele>1128.0</ele><time>2026-04-30T09:22:41.383Z</time></trkpt><trkpt lat="46.5747679" lon="12.610471"><ele>1128.0</ele><time>2026-04-30T09:22:43.384Z</time></trkpt><trkpt lat="46.5747413" lon="12.6105606"><ele>1128.0</ele><time>2026-04-30T09:22:44.384Z</time></trkpt><trkpt lat="46.5746845" lon="12.6106495"><ele>1127.1666666666667</ele><time>2026-04-30T09:22:46.384Z</time></trkpt><trkpt lat="46.5745974" lon="12.6107715"><ele>1126.3333333333333</ele><time>2026-04-30T09:22:48.385Z</time></trkpt><trkpt lat="46.5745273" lon="12.6108312"><ele>1125.5</ele><time>2026-04-30T09:22:51.383Z</time></trkpt><trkpt lat="46.5744565" lon="12.6108521"><ele>1124.6666666666665</ele><time>2026-04-30T09:22:53.384Z</time></trkpt><trkpt lat="46.5743958" lon="12.6109115"><ele>1123.8333333333333</ele><time>2026-04-30T09:22:55.384Z</time></trkpt><trkpt lat="46.5743535" lon="12.6110037"><ele>1123.0</ele><time>2026-04-30T09:23:34.384Z</time></trkpt><trkpt lat="46.5743072" lon="12.6111253"><ele>1133.25</ele><time>2026-04-30T09:23:36.383Z</time></trkpt><trkpt lat="46.5743129" lon="12.6112941"><ele>1143.5</ele><time>2026-04-30T09:23:38.385Z</time></trkpt><trkpt lat="46.5743069" lon="12.6114815"><ele>1153.75</ele><time>2026-04-30T09:23:40.385Z</time></trkpt><trkpt lat="46.5742566" lon="12.6116468"><ele>1164.0</ele><time>2026-04-30T09:23:42.384Z</time></trkpt><trkpt lat="46.5742091" lon="12.6117769"><ele>1164.0</ele><time>2026-04-30T09:23:44.385Z</time></trkpt><trkpt lat="46.5741687" lon="12.6119173"><ele>1164.0</ele><time>2026-04-30T09:23:46.385Z</time></trkpt><trkpt lat="46.5741296" lon="12.6120296"><ele>1164.0</ele><time>2026-04-30T09:23:48.385Z</time></trkpt><trkpt lat="46.5740851" lon="12.612121"><ele>1164.0</ele><time>2026-04-30T09:23:51.385Z</time></trkpt><trkpt lat="46.5741158" lon="12.6122167"><ele>1164.0</ele><time>2026-04-30T09:24:09.385Z</time></trkpt><trkpt lat="46.5741904" lon="12.6122012"><ele>1164.0</ele><time>2026-04-30T09:24:13.386Z</time></trkpt><trkpt lat="46.57424" lon="12.6121435"><ele>1164.0</ele><time>2026-04-30T09:24:16.385Z</time></trkpt><trkpt lat="46.5743023" lon="12.6120757"><ele>1164.0</ele><time>2026-04-30T09:24:19.385Z</time></trkpt><trkpt lat="46.5743309" lon="12.6119745"><ele>1164.0</ele><time>2026-04-30T09:24:22.384Z</time></trkpt><trkpt lat="46.5743907" lon="12.6118911"><ele>1164.0</ele><time>2026-04-30T09:24:25.385Z</time></trkpt><trkpt lat="46.5744689" lon="12.6118224"><ele>1164.0</ele><time>2026-04-30T09:24:28.385Z</time></trkpt><trkpt lat="46.5745364" lon="12.6117718"><ele>1164.0</ele><time>2026-04-30T09:24:30.385Z</time></trkpt><trkpt lat="46.5745795" lon="12.6116767"><ele>1155.8</ele><time>2026-04-30T09:24:32.385Z</time></trkpt><trkpt lat="46.5746044" lon="12.6115645"><ele>1147.6000000000001</ele><time>2026-04-30T09:24:34.385Z</time></trkpt><trkpt lat="46.5746415" lon="12.6114701"><ele>1139.4</ele><time>2026-04-30T09:24:36.385Z</time></trkpt><trkpt lat="46.5747888" lon="12.6112894"><ele>1131.2</ele><time>2026-04-30T09:24:47.385Z</time></trkpt><trkpt lat="46.574871" lon="12.6112678"><ele>1123.0</ele><time>2026-04-30T09:24:50.385Z</time></trkpt><trkpt lat="46.5748896" lon="12.611362"><ele>1123.0</ele><time>2026-04-30T09:24:57.386Z</time></trkpt><trkpt lat="46.57488" lon="12.6114856"><ele>1123.0</ele><time>2026-04-30T09:24:59.385Z</time></trkpt><trkpt lat="46.5749276" lon="12.6116001"><ele>1123.0</ele><time>2026-04-30T09:25:01.385Z</time></trkpt><trkpt lat="46.5749788" lon="12.6117068"><ele>1123.0</ele><time>2026-04-30T09:25:03.385Z</time></trkpt><trkpt lat="46.5750393" lon="12.6117845"><ele>1123.0</ele><time>2026-04-30T09:25:05.385Z</time></trkpt><trkpt lat="46.5751077" lon="12.6118452"><ele>1123.0</ele><time>2026-04-30T09:25:07.384Z</time></trkpt><trkpt lat="46.5751599" lon="12.6119304"><ele>1124.5</ele><time>2026-04-30T09:25:10.385Z</time></trkpt><trkpt lat="46.5751806" lon="12.6120672"><ele>1126.0</ele><time>2026-04-30T09:25:13.385Z</time></trkpt><trkpt lat="46.5751298" lon="12.6122281"><ele>1127.5</ele><time>2026-04-30T09:25:23.385Z</time></trkpt><trkpt lat="46.5750955" lon="12.6123095"><ele>1129.0</ele><time>2026-04-30T09:25:25.384Z</time></trkpt><trkpt lat="46.5750497" lon="12.6123815"><ele>1130.5</ele><time>2026-04-30T09:25:27.385Z</time></trkpt><trkpt lat="46.5749911" lon="12.6124729"><ele>1132.0</ele><time>2026-04-30T09:25:29.385Z</time></trkpt><trkpt lat="46.5749175" lon="12.6125434"><ele>1132.0</ele><time>2026-04-30T09:25:31.385Z</time></trkpt><trkpt lat="46.5748721" lon="12.6126219"><ele>1132.0</ele><time>2026-04-30T09:25:33.385Z</time></trkpt><trkpt lat="46.5748699" lon="12.6127187"><ele>1132.0</ele><time>2026-04-30T09:25:35.385Z</time></trkpt><trkpt lat="46.5749205" lon="12.6128343"><ele>1132.0</ele><time>2026-04-30T09:25:37.385Z</time></trkpt><trkpt lat="46.5749511" lon="12.6129434"><ele>1132.0</ele><time>2026-04-30T09:25:39.385Z</time></trkpt><trkpt lat="46.5749677" lon="12.6130411"><ele>1132.0</ele><time>2026-04-30T09:25:40.385Z</time></trkpt><trkpt lat="46.5749971" lon="12.6131864"><ele>1133.8333333333333</ele><time>2026-04-30T09:25:42.385Z</time></trkpt><trkpt lat="46.5749883" lon="12.6133235"><ele>1135.6666666666665</ele><time>2026-04-30T09:25:44.385Z</time></trkpt><trkpt lat="46.5749986" lon="12.6134562"><ele>1137.5</ele><time>2026-04-30T09:25:46.385Z</time></trkpt><trkpt lat="46.574982" lon="12.6135647"><ele>1139.3333333333333</ele><time>2026-04-30T09:25:48.385Z</time></trkpt><trkpt lat="46.5749279" lon="12.6136786"><ele>1141.1666666666667</ele><time>2026-04-30T09:25:50.385Z</time></trkpt><trkpt lat="46.5749473" lon="12.6137731"><ele>1143.0</ele><time>2026-04-30T09:25:52.385Z</time></trkpt><trkpt lat="46.5749738" lon="12.6138563"><ele>1144.5714285714284</ele><time>2026-04-30T09:25:59.385Z</time></trkpt><trkpt lat="46.5749165" lon="12.613903"><ele>1146.142857142857</ele><time>2026-04-30T09:26:07.385Z</time></trkpt><trkpt lat="46.5748805" lon="12.6139886"><ele>1147.7142857142858</ele><time>2026-04-30T09:27:20.385Z</time></trkpt><trkpt lat="46.5748473" lon="12.6140705"><ele>1149.2857142857142</ele><time>2026-04-30T09:27:27.385Z</time></trkpt><trkpt lat="46.5748252" lon="12.6141664"><ele>1150.857142857143</ele><time>2026-04-30T09:27:30.385Z</time></trkpt><trkpt lat="46.5748228" lon="12.6142659"><ele>1152.4285714285713</ele><time>2026-04-30T09:27:44.385Z</time></trkpt><trkpt lat="46.5747763" lon="12.6143779"><ele>1154.0</ele><time>2026-04-30T09:27:48.385Z</time></trkpt><trkpt lat="46.5747065" lon="12.6144445"><ele>1155.142857142857</ele><time>2026-04-30T09:27:50.385Z</time></trkpt><trkpt lat="46.5746541" lon="12.6145212"><ele>1156.2857142857142</ele><time>2026-04-30T09:27:52.385Z</time></trkpt><trkpt lat="46.5746391" lon="12.6146117"><ele>1157.4285714285716</ele><time>2026-04-30T09:27:55.385Z</time></trkpt><trkpt lat="46.5746866" lon="12.614672"><ele>1158.5714285714284</ele><time>2026-04-30T09:28:01.385Z</time></trkpt><trkpt lat="46.5746621" lon="12.6147696"><ele>1159.7142857142858</ele><time>2026-04-30T09:28:20.385Z</time></trkpt><trkpt lat="46.5745949" lon="12.6147584"><ele>1160.857142857143</ele><time>2026-04-30T09:28:58.385Z</time></trkpt><trkpt lat="46.5746199" lon="12.6148701"><ele>1162.0</ele><time>2026-04-30T09:29:03.385Z</time></trkpt><trkpt lat="46.5746369" lon="12.6149625"><ele>1162.0</ele><time>2026-04-30T09:29:09.385Z</time></trkpt><trkpt lat="46.5746545" lon="12.6151115"><ele>1162.0</ele><time>2026-04-30T09:29:13.385Z</time></trkpt><trkpt lat="46.5746746" lon="12.6151998"><ele>1162.0</ele><time>2026-04-30T09:29:17.385Z</time></trkpt><trkpt lat="46.5747343" lon="12.6152346"><ele>1162.0</ele><time>2026-04-30T09:29:25.385Z</time></trkpt><trkpt lat="46.574752" lon="12.6153246"><ele>1162.0</ele><time>2026-04-30T09:29:30.385Z</time></trkpt><trkpt lat="46.5748048" lon="12.6153787"><ele>1162.0</ele><time>2026-04-30T09:29:40.385Z</time></trkpt><trkpt lat="46.5748605" lon="12.6154446"><ele>1162.0</ele><time>2026-04-30T09:29:51.384Z</time></trkpt><trkpt lat="46.5749128" lon="12.6154962"><ele>1164.4285714285713</ele><time>2026-04-30T09:29:56.385Z</time></trkpt><trkpt lat="46.5749816" lon="12.6155119"><ele>1166.857142857143</ele><time>2026-04-30T09:30:01.385Z</time></trkpt><trkpt lat="46.5750447" lon="12.6155289"><ele>1169.2857142857142</ele><time>2026-04-30T09:30:25.385Z</time></trkpt><trkpt lat="46.5751076" lon="12.615541"><ele>1171.7142857142858</ele><time>2026-04-30T09:30:35.384Z</time></trkpt><trkpt lat="46.575184" lon="12.615547"><ele>1174.142857142857</ele><time>2026-04-30T09:30:53.385Z</time></trkpt><trkpt lat="46.5752324" lon="12.615469"><ele>1176.5714285714284</ele><time>2026-04-30T09:30:59.385Z</time></trkpt><trkpt lat="46.5752928" lon="12.6154312"><ele>1179.0</ele><time>2026-04-30T09:31:30.386Z</time></trkpt><trkpt lat="46.5753787" lon="12.6153908"><ele>1172.6666666666667</ele><time>2026-04-30T09:32:32.386Z</time></trkpt><trkpt lat="46.5754382" lon="12.6155116"><ele>1166.3333333333333</ele><time>2026-04-30T09:32:57.386Z</time></trkpt><trkpt lat="46.5754965" lon="12.615559"><ele>1160.0</ele><time>2026-04-30T09:33:04.386Z</time></trkpt><trkpt lat="46.5755188" lon="12.615669"><ele>1153.6666666666665</ele><time>2026-04-30T09:33:11.39Z</time></trkpt><trkpt lat="46.5754686" lon="12.6157901"><ele>1147.3333333333333</ele><time>2026-04-30T09:33:14.386Z</time></trkpt><trkpt lat="46.5754264" lon="12.6159143"><ele>1141.0</ele><time>2026-04-30T09:33:17.386Z</time></trkpt><trkpt lat="46.5753954" lon="12.6159986"><ele>1141.0</ele><time>2026-04-30T09:33:19.386Z</time></trkpt><trkpt lat="46.5753768" lon="12.6160982"><ele>1141.0</ele><time>2026-04-30T09:33:21.386Z</time></trkpt><trkpt lat="46.5753737" lon="12.6162219"><ele>1141.0</ele><time>2026-04-30T09:33:23.292Z</time></trkpt><trkpt lat="46.5753407" lon="12.6164015"><ele>1141.0</ele><time>2026-04-30T09:33:24.386Z</time></trkpt><trkpt lat="46.5753279" lon="12.6164942"><ele>1141.0</ele><time>2026-04-30T09:33:25.386Z</time></trkpt><trkpt lat="46.5753196" lon="12.6166166"><ele>1141.0</ele><time>2026-04-30T09:33:27.387Z</time></trkpt><trkpt lat="46.575319" lon="12.6167128"><ele>1148.6666666666665</ele><time>2026-04-30T09:33:29.386Z</time></trkpt><trkpt lat="46.5753322" lon="12.6168185"><ele>1156.3333333333333</ele><time>2026-04-30T09:33:31.386Z</time></trkpt><trkpt lat="46.5753265" lon="12.6169165"><ele>1164.0</ele><time>2026-04-30T09:33:33.386Z</time></trkpt><trkpt lat="46.5753138" lon="12.6170256"><ele>1171.6666666666667</ele><time>2026-04-30T09:33:35.386Z</time></trkpt><trkpt lat="46.5752956" lon="12.6171366"><ele>1179.3333333333335</ele><time>2026-04-30T09:33:37.386Z</time></trkpt><trkpt lat="46.5752641" lon="12.6172544"><ele>1187.0</ele><time>2026-04-30T09:33:39.386Z</time></trkpt><trkpt lat="46.5753029" lon="12.617338"><ele>1188.8333333333335</ele><time>2026-04-30T09:33:41.386Z</time></trkpt><trkpt lat="46.5753125" lon="12.6174774"><ele>1190.6666666666667</ele><time>2026-04-30T09:33:44.386Z</time></trkpt><trkpt lat="46.5753206" lon="12.6175873"><ele>1192.5</ele><time>2026-04-30T09:33:46.386Z</time></trkpt><trkpt lat="46.57532" lon="12.617689"><ele>1194.3333333333333</ele><time>2026-04-30T09:33:48.386Z</time></trkpt><trkpt lat="46.5753019" lon="12.6178191"><ele>1196.1666666666665</ele><time>2026-04-30T09:33:51.386Z</time></trkpt><trkpt lat="46.5753035" lon="12.6179629"><ele>1198.0</ele><time>2026-04-30T09:33:53.386Z</time></trkpt><trkpt lat="46.5752998" lon="12.6180887"><ele>1200.5</ele><time>2026-04-30T09:33:56.386Z</time></trkpt><trkpt lat="46.5752916" lon="12.6181963"><ele>1203.0</ele><time>2026-04-30T09:33:58.386Z</time></trkpt><trkpt lat="46.575283" lon="12.6183373"><ele>1205.5</ele><time>2026-04-30T09:34:00.386Z</time></trkpt><trkpt lat="46.5753303" lon="12.618435"><ele>1208.0</ele><time>2026-04-30T09:34:02.386Z</time></trkpt><trkpt lat="46.575358" lon="12.6185506"><ele>1210.5</ele><time>2026-04-30T09:34:04.386Z</time></trkpt><trkpt lat="46.5754062" lon="12.618692"><ele>1213.0</ele><time>2026-04-30T09:34:06.386Z</time></trkpt><trkpt lat="46.5754367" lon="12.6187819"><ele>1206.8</ele><time>2026-04-30T09:34:07.386Z</time></trkpt><trkpt lat="46.5755103" lon="12.618908"><ele>1200.6</ele><time>2026-04-30T09:34:09.386Z</time></trkpt><trkpt lat="46.5755743" lon="12.6189475"><ele>1194.4</ele><time>2026-04-30T09:34:11.386Z</time></trkpt><trkpt lat="46.5756412" lon="12.618943"><ele>1188.2</ele><time>2026-04-30T09:34:13.386Z</time></trkpt><trkpt lat="46.5757545" lon="12.6189572"><ele>1182.0</ele><time>2026-04-30T09:34:16.386Z</time></trkpt><trkpt lat="46.5758329" lon="12.6190283"><ele>1182.0</ele><time>2026-04-30T09:34:18.386Z</time></trkpt><trkpt lat="46.5759007" lon="12.6191277"><ele>1182.0</ele><time>2026-04-30T09:34:20.386Z</time></trkpt><trkpt lat="46.5759815" lon="12.6192013"><ele>1182.0</ele><time>2026-04-30T09:34:22.386Z</time></trkpt><trkpt lat="46.5760735" lon="12.619267"><ele>1182.0</ele><time>2026-04-30T09:34:24.387Z</time></trkpt><trkpt lat="46.5761976" lon="12.6193053"><ele>1182.0</ele><time>2026-04-30T09:34:26.386Z</time></trkpt><trkpt lat="46.5762614" lon="12.6193258"><ele>1179.857142857143</ele><time>2026-04-30T09:34:27.386Z</time></trkpt><trkpt lat="46.5763188" lon="12.6193764"><ele>1177.7142857142858</ele><time>2026-04-30T09:34:28.386Z</time></trkpt><trkpt lat="46.5763725" lon="12.6194295"><ele>1175.5714285714287</ele><time>2026-04-30T09:34:29.386Z</time></trkpt><trkpt lat="46.5764225" lon="12.6194895"><ele>1173.4285714285716</ele><time>2026-04-30T09:34:30.387Z</time></trkpt><trkpt lat="46.5764612" lon="12.6195704"><ele>1171.2857142857144</ele><time>2026-04-30T09:34:31.386Z</time></trkpt><trkpt lat="46.5765023" lon="12.6196447"><ele>1169.142857142857</ele><time>2026-04-30T09:34:32.386Z</time></trkpt><trkpt lat="46.5765517" lon="12.6197025"><ele>1167.0</ele><time>2026-04-30T09:34:33.386Z</time></trkpt><trkpt lat="46.5766056" lon="12.6197514"><ele>1166.8</ele><time>2026-04-30T09:34:34.386Z</time></trkpt><trkpt lat="46.5767176" lon="12.6198279"><ele>1166.6</ele><time>2026-04-30T09:34:36.386Z</time></trkpt><trkpt lat="46.5768285" lon="12.6199022"><ele>1166.3999999999999</ele><time>2026-04-30T09:34:38.386Z</time></trkpt><trkpt lat="46.5769252" lon="12.6200022"><ele>1166.2</ele><time>2026-04-30T09:34:40.386Z</time></trkpt><trkpt lat="46.5769863" lon="12.6200538"><ele>1166.0</ele><time>2026-04-30T09:34:41.386Z</time></trkpt><trkpt lat="46.5770504" lon="12.6201114"><ele>1165.6666666666667</ele><time>2026-04-30T09:34:42.385Z</time></trkpt><trkpt lat="46.5771129" lon="12.6201701"><ele>1165.3333333333335</ele><time>2026-04-30T09:34:43.386Z</time></trkpt><trkpt lat="46.5771625" lon="12.6202351"><ele>1165.0</ele><time>2026-04-30T09:34:44.386Z</time></trkpt><trkpt lat="46.5772276" lon="12.6203072"><ele>1164.6666666666667</ele><time>2026-04-30T09:34:45.386Z</time></trkpt><trkpt lat="46.5772867" lon="12.620369"><ele>1164.3333333333333</ele><time>2026-04-30T09:34:46.386Z</time></trkpt><trkpt lat="46.577357" lon="12.6204809"><ele>1164.0</ele><time>2026-04-30T09:34:48.386Z</time></trkpt><trkpt lat="46.5774209" lon="12.6205565"><ele>1164.0</ele><time>2026-04-30T09:34:51.386Z</time></trkpt><trkpt lat="46.5774745" lon="12.6204902"><ele>1164.0</ele><time>2026-04-30T09:34:54.386Z</time></trkpt><trkpt lat="46.5774694" lon="12.6203953"><ele>1164.0</ele><time>2026-04-30T09:34:56.386Z</time></trkpt><trkpt lat="46.5774151" lon="12.6202648"><ele>1164.0</ele><time>2026-04-30T09:34:58.386Z</time></trkpt><trkpt lat="46.5774426" lon="12.6201777"><ele>1164.0</ele><time>2026-04-30T09:35:00.386Z</time></trkpt><trkpt lat="46.5775191" lon="12.6202304"><ele>1164.0</ele><time>2026-04-30T09:35:02.386Z</time></trkpt><trkpt lat="46.5775692" lon="12.6203535"><ele>1155.4285714285713</ele><time>2026-04-30T09:35:04.386Z</time></trkpt><trkpt lat="46.5776035" lon="12.6204536"><ele>1146.8571428571427</ele><time>2026-04-30T09:35:07.386Z</time></trkpt><trkpt lat="46.5776637" lon="12.6204816"><ele>1138.2857142857142</ele><time>2026-04-30T09:35:10.386Z</time></trkpt><trkpt lat="46.5777276" lon="12.6204932"><ele>1129.7142857142858</ele><time>2026-04-30T09:35:13.386Z</time></trkpt><trkpt lat="46.5777861" lon="12.6204525"><ele>1121.1428571428573</ele><time>2026-04-30T09:35:16.386Z</time></trkpt><trkpt lat="46.5778416" lon="12.6203542"><ele>1112.5714285714287</ele><time>2026-04-30T09:35:19.386Z</time></trkpt><trkpt lat="46.5778791" lon="12.6202739"><ele>1104.0</ele><time>2026-04-30T09:35:21.385Z</time></trkpt><trkpt lat="46.5779174" lon="12.6203968"><ele>1097.2</ele><time>2026-04-30T09:35:25.386Z</time></trkpt><trkpt lat="46.5779311" lon="12.6205426"><ele>1090.4</ele><time>2026-04-30T09:35:27.386Z</time></trkpt><trkpt lat="46.5779476" lon="12.6207177"><ele>1083.6</ele><time>2026-04-30T09:35:29.387Z</time></trkpt><trkpt lat="46.577969" lon="12.6208491"><ele>1076.8</ele><time>2026-04-30T09:35:31.386Z</time></trkpt><trkpt lat="46.5780349" lon="12.6209196"><ele>1070.0</ele><time>2026-04-30T09:35:33.386Z</time></trkpt><trkpt lat="46.5781523" lon="12.6210061"><ele>1070.0</ele><time>2026-04-30T09:35:35.386Z</time></trkpt><trkpt lat="46.5782148" lon="12.6210567"><ele>1070.0</ele><time>2026-04-30T09:35:36.386Z</time></trkpt><trkpt lat="46.5782519" lon="12.621135"><ele>1070.0</ele><time>2026-04-30T09:35:37.387Z</time></trkpt><trkpt lat="46.5782995" lon="12.6212039"><ele>1070.0</ele><time>2026-04-30T09:35:38.385Z</time></trkpt><trkpt lat="46.5783133" lon="12.6213029"><ele>1070.0</ele><time>2026-04-30T09:35:39.386Z</time></trkpt><trkpt lat="46.578305" lon="12.6214043"><ele>1070.0</ele><time>2026-04-30T09:35:40.386Z</time></trkpt><trkpt lat="46.5783515" lon="12.621504"><ele>1070.0</ele><time>2026-04-30T09:35:42.386Z</time></trkpt><trkpt lat="46.5784069" lon="12.6216163"><ele>1071.8</ele><time>2026-04-30T09:35:45.386Z</time></trkpt><trkpt lat="46.5784734" lon="12.6217111"><ele>1073.6</ele><time>2026-04-30T09:35:47.387Z</time></trkpt><trkpt lat="46.5785739" lon="12.6218085"><ele>1075.4</ele><time>2026-04-30T09:35:49.386Z</time></trkpt><trkpt lat="46.5786568" lon="12.6218663"><ele>1077.2</ele><time>2026-04-30T09:35:51.386Z</time></trkpt><trkpt lat="46.5787227" lon="12.6218012"><ele>1079.0</ele><time>2026-04-30T09:35:55.386Z</time></trkpt><trkpt lat="46.5787564" lon="12.6216881"><ele>1079.0</ele><time>2026-04-30T09:35:57.386Z</time></trkpt><trkpt lat="46.5787582" lon="12.6215698"><ele>1079.0</ele><time>2026-04-30T09:35:59.386Z</time></trkpt><trkpt lat="46.578752" lon="12.6214656"><ele>1079.0</ele><time>2026-04-30T09:36:01.385Z</time></trkpt><trkpt lat="46.5787452" lon="12.6213282"><ele>1079.0</ele><time>2026-04-30T09:36:03.386Z</time></trkpt><trkpt lat="46.5787069" lon="12.6211875"><ele>1079.0</ele><time>2026-04-30T09:36:05.386Z</time></trkpt><trkpt lat="46.5787012" lon="12.6210146"><ele>1077.5</ele><time>2026-04-30T09:36:07.386Z</time></trkpt><trkpt lat="46.5787175" lon="12.6209256"><ele>1076.0</ele><time>2026-04-30T09:36:08.385Z</time></trkpt><trkpt lat="46.5787218" lon="12.6207392"><ele>1074.5</ele><time>2026-04-30T09:36:10.386Z</time></trkpt><trkpt lat="46.5787102" lon="12.6206449"><ele>1073.0</ele><time>2026-04-30T09:36:11.386Z</time></trkpt><trkpt lat="46.5786882" lon="12.6205535"><ele>1071.5</ele><time>2026-04-30T09:36:12.386Z</time></trkpt><trkpt lat="46.5786593" lon="12.6204617"><ele>1070.0</ele><time>2026-04-30T09:36:13.386Z</time></trkpt><trkpt lat="46.5786379" lon="12.6203637"><ele>1066.4</ele><time>2026-04-30T09:36:14.386Z</time></trkpt><trkpt lat="46.5786294" lon="12.6202618"><ele>1062.8</ele><time>2026-04-30T09:36:15.386Z</time></trkpt><trkpt lat="46.5786247" lon="12.6200959"><ele>1059.2</ele><time>2026-04-30T09:36:17.386Z</time></trkpt><trkpt lat="46.578736" lon="12.620064"><ele>1055.6</ele><time>2026-04-30T09:36:20.386Z</time></trkpt><trkpt lat="46.578815" lon="12.6201582"><ele>1052.0</ele><time>2026-04-30T09:36:22.386Z</time></trkpt><trkpt lat="46.5788763" lon="12.6202123"><ele>1052.0</ele><time>2026-04-30T09:36:25.386Z</time></trkpt><trkpt lat="46.5789451" lon="12.6201795"><ele>1052.0</ele><time>2026-04-30T09:36:28.386Z</time></trkpt><trkpt lat="46.5790234" lon="12.6201627"><ele>1052.0</ele><time>2026-04-30T09:36:31.386Z</time></trkpt><trkpt lat="46.5791091" lon="12.6201877"><ele>1052.0</ele><time>2026-04-30T09:36:34.386Z</time></trkpt><trkpt lat="46.5792001" lon="12.6202144"><ele>1052.0</ele><time>2026-04-30T09:36:37.386Z</time></trkpt><trkpt lat="46.5792856" lon="12.6202329"><ele>1052.0</ele><time>2026-04-30T09:36:40.386Z</time></trkpt><trkpt lat="46.5793497" lon="12.6202992"><ele>1056.0</ele><time>2026-04-30T09:36:42.386Z</time></trkpt><trkpt lat="46.5794718" lon="12.6204408"><ele>1060.0</ele><time>2026-04-30T09:36:45.386Z</time></trkpt><trkpt lat="46.5795381" lon="12.6205721"><ele>1064.0</ele><time>2026-04-30T09:36:47.385Z</time></trkpt><trkpt lat="46.5796068" lon="12.620723"><ele>1068.0</ele><time>2026-04-30T09:36:49.386Z</time></trkpt><trkpt lat="46.579642" lon="12.6208027"><ele>1061.6666666666667</ele><time>2026-04-30T09:36:50.386Z</time></trkpt><trkpt lat="46.5796747" lon="12.6208852"><ele>1055.3333333333333</ele><time>2026-04-30T09:36:51.387Z</time></trkpt><trkpt lat="46.5797401" lon="12.6210198"><ele>1049.0</ele><time>2026-04-30T09:36:53.386Z</time></trkpt><trkpt lat="46.5798044" lon="12.6210849"><ele>1042.6666666666665</ele><time>2026-04-30T09:36:55.387Z</time></trkpt><trkpt lat="46.5798552" lon="12.6210193"><ele>1036.3333333333333</ele><time>2026-04-30T09:36:59.386Z</time></trkpt><trkpt lat="46.5799082" lon="12.6209202"><ele>1030.0</ele><time>2026-04-30T09:37:03.386Z</time></trkpt><trkpt lat="46.5799595" lon="12.6208462"><ele>1030.0</ele><time>2026-04-30T09:37:06.386Z</time></trkpt><trkpt lat="46.5800157" lon="12.6207892"><ele>1030.0</ele><time>2026-04-30T09:37:09.386Z</time></trkpt><trkpt lat="46.5800627" lon="12.620712"><ele>1030.0</ele><time>2026-04-30T09:37:12.386Z</time></trkpt><trkpt lat="46.5801119" lon="12.6206139"><ele>1030.0</ele><time>2026-04-30T09:37:15.386Z</time></trkpt><trkpt lat="46.5801454" lon="12.6205267"><ele>1030.0</ele><time>2026-04-30T09:37:18.386Z</time></trkpt><trkpt lat="46.580171" lon="12.6204338"><ele>1030.0</ele><time>2026-04-30T09:37:23.386Z</time></trkpt><trkpt lat="46.5802194" lon="12.6203364"><ele>1030.0</ele><time>2026-04-30T09:37:27.386Z</time></trkpt><trkpt lat="46.5802833" lon="12.6202877"><ele>1027.5</ele><time>2026-04-30T09:37:32.385Z</time></trkpt><trkpt lat="46.5803448" lon="12.6202677"><ele>1025.0</ele><time>2026-04-30T09:37:36.386Z</time></trkpt><trkpt lat="46.580406" lon="12.6202273"><ele>1022.5</ele><time>2026-04-30T09:37:39.386Z</time></trkpt><trkpt lat="46.5804884" lon="12.6202003"><ele>1020.0</ele><time>2026-04-30T09:37:42.386Z</time></trkpt><trkpt lat="46.5805383" lon="12.6202711"><ele>1017.4999999999999</ele><time>2026-04-30T09:37:44.386Z</time></trkpt><trkpt lat="46.5805851" lon="12.6203655"><ele>1015.0</ele><time>2026-04-30T09:37:46.386Z</time></trkpt><trkpt lat="46.58061" lon="12.6204868"><ele>1012.0</ele><time>2026-04-30T09:37:48.386Z</time></trkpt><trkpt lat="46.5806756" lon="12.6206135"><ele>1009.0</ele><time>2026-04-30T09:37:50.386Z</time></trkpt><trkpt lat="46.5807353" lon="12.6207808"><ele>1006.0</ele><time>2026-04-30T09:37:52.386Z</time></trkpt><trkpt lat="46.5807616" lon="12.6208706"><ele>1003.0</ele><time>2026-04-30T09:37:53.386Z</time></trkpt><trkpt lat="46.5807816" lon="12.6209691"><ele>1000.0</ele><time>2026-04-30T09:37:54.386Z</time></trkpt><trkpt lat="46.5808025" lon="12.6210726"><ele>1000.6666666666666</ele><time>2026-04-30T09:37:55.386Z</time></trkpt><trkpt lat="46.5808206" lon="12.6211779"><ele>1001.3333333333333</ele><time>2026-04-30T09:37:56.386Z</time></trkpt><trkpt lat="46.5808356" lon="12.6212848"><ele>1002.0</ele><time>2026-04-30T09:37:57.386Z</time></trkpt><trkpt lat="46.5808405" lon="12.6214005"><ele>1002.6666666666667</ele><time>2026-04-30T09:37:58.386Z</time></trkpt><trkpt lat="46.5808492" lon="12.6215209"><ele>1003.3333333333334</ele><time>2026-04-30T09:37:59.386Z</time></trkpt><trkpt lat="46.580861" lon="12.6216417"><ele>1004.0</ele><time>2026-04-30T09:38:00.386Z</time></trkpt><trkpt lat="46.5808728" lon="12.6217671"><ele>1004.0000000000001</ele><time>2026-04-30T09:38:01.386Z</time></trkpt><trkpt lat="46.5808804" lon="12.6218911"><ele>1004.0</ele><time>2026-04-30T09:38:02.386Z</time></trkpt><trkpt lat="46.5808916" lon="12.6220247"><ele>1004.0</ele><time>2026-04-30T09:38:03.386Z</time></trkpt><trkpt lat="46.5809027" lon="12.6221529"><ele>1004.0</ele><time>2026-04-30T09:38:04.386Z</time></trkpt><trkpt lat="46.5809157" lon="12.6222835"><ele>1004.0000000000001</ele><time>2026-04-30T09:38:05.386Z</time></trkpt><trkpt lat="46.5809344" lon="12.6224083"><ele>1004.0</ele><time>2026-04-30T09:38:06.385Z</time></trkpt><trkpt lat="46.5809468" lon="12.6225321"><ele>1004.8333333333334</ele><time>2026-04-30T09:38:07.386Z</time></trkpt><trkpt lat="46.5809579" lon="12.6226547"><ele>1005.6666666666667</ele><time>2026-04-30T09:38:08.387Z</time></trkpt><trkpt lat="46.5809711" lon="12.6227741"><ele>1006.5</ele><time>2026-04-30T09:38:09.386Z</time></trkpt><trkpt lat="46.5809788" lon="12.6228936"><ele>1007.3333333333333</ele><time>2026-04-30T09:38:10.386Z</time></trkpt><trkpt lat="46.5809791" lon="12.6230124"><ele>1008.1666666666666</ele><time>2026-04-30T09:38:11.386Z</time></trkpt><trkpt lat="46.5809753" lon="12.6231283"><ele>1009.0</ele><time>2026-04-30T09:38:12.386Z</time></trkpt><trkpt lat="46.580973" lon="12.6232278"><ele>1009.3333333333333</ele><time>2026-04-30T09:38:13.386Z</time></trkpt><trkpt lat="46.5809744" lon="12.623326"><ele>1009.6666666666666</ele><time>2026-04-30T09:38:14.386Z</time></trkpt><trkpt lat="46.5810105" lon="12.6234771"><ele>1010.0</ele><time>2026-04-30T09:38:16.386Z</time></trkpt><trkpt lat="46.5810971" lon="12.6235602"><ele>1010.3333333333333</ele><time>2026-04-30T09:38:18.386Z</time></trkpt><trkpt lat="46.5811853" lon="12.6235476"><ele>1010.6666666666666</ele><time>2026-04-30T09:38:19.386Z</time></trkpt><trkpt lat="46.5812615" lon="12.623545"><ele>1011.0</ele><time>2026-04-30T09:38:20.385Z</time></trkpt><trkpt lat="46.5813415" lon="12.6235443"><ele>1011.0</ele><time>2026-04-30T09:38:21.386Z</time></trkpt><trkpt lat="46.5814199" lon="12.6235433"><ele>1011.0</ele><time>2026-04-30T09:38:22.387Z</time></trkpt><trkpt lat="46.5815011" lon="12.6235458"><ele>1011.0</ele><time>2026-04-30T09:38:23.386Z</time></trkpt><trkpt lat="46.5815873" lon="12.6235504"><ele>1011.0</ele><time>2026-04-30T09:38:24.386Z</time></trkpt><trkpt lat="46.5816746" lon="12.6235415"><ele>1011.0</ele><time>2026-04-30T09:38:25.386Z</time></trkpt><trkpt lat="46.5817427" lon="12.6235131"><ele>1011.0</ele><time>2026-04-30T09:38:26.386Z</time></trkpt><trkpt lat="46.5818137" lon="12.6234654"><ele>1011.0</ele><time>2026-04-30T09:38:27.386Z</time></trkpt><trkpt lat="46.5818295" lon="12.6233541"><ele>1011.0</ele><time>2026-04-30T09:38:28.386Z</time></trkpt><trkpt lat="46.5818563" lon="12.6232535"><ele>1011.0</ele><time>2026-04-30T09:38:29.386Z</time></trkpt><trkpt lat="46.5818983" lon="12.6231715"><ele>1011.0</ele><time>2026-04-30T09:38:30.386Z</time></trkpt><trkpt lat="46.5819494" lon="12.6231042"><ele>1011.0</ele><time>2026-04-30T09:38:31.386Z</time></trkpt><trkpt lat="46.5820158" lon="12.6229635"><ele>1011.0</ele><time>2026-04-30T09:38:33.385Z</time></trkpt><trkpt lat="46.5820284" lon="12.6228552"><ele>1019.5999999999999</ele><time>2026-04-30T09:38:34.386Z</time></trkpt><trkpt lat="46.5820412" lon="12.6227324"><ele>1028.1999999999998</ele><time>2026-04-30T09:38:35.385Z</time></trkpt><trkpt lat="46.5820583" lon="12.6226001"><ele>1036.8000000000002</ele><time>2026-04-30T09:38:36.387Z</time></trkpt><trkpt lat="46.5820841" lon="12.6224633"><ele>1045.4</ele><time>2026-04-30T09:38:37.385Z</time></trkpt><trkpt lat="46.582112" lon="12.6223361"><ele>1054.0</ele><time>2026-04-30T09:38:38.386Z</time></trkpt><trkpt lat="46.5821317" lon="12.6221918"><ele>1054.0</ele><time>2026-04-30T09:38:39.386Z</time></trkpt><trkpt lat="46.5821426" lon="12.6220413"><ele>1054.0</ele><time>2026-04-30T09:38:40.386Z</time></trkpt><trkpt lat="46.5821385" lon="12.6219013"><ele>1054.0</ele><time>2026-04-30T09:38:41.386Z</time></trkpt><trkpt lat="46.5821332" lon="12.6217455"><ele>1054.0</ele><time>2026-04-30T09:38:42.386Z</time></trkpt><trkpt lat="46.5821288" lon="12.621596"><ele>1054.0</ele><time>2026-04-30T09:38:43.386Z</time></trkpt><trkpt lat="46.5821234" lon="12.6214434"><ele>1053.6000000000001</ele><time>2026-04-30T09:38:44.387Z</time></trkpt><trkpt lat="46.5821127" lon="12.6212892"><ele>1053.2</ele><time>2026-04-30T09:38:45.386Z</time></trkpt><trkpt lat="46.5821058" lon="12.6211446"><ele>1052.8000000000002</ele><time>2026-04-30T09:38:46.386Z</time></trkpt><trkpt lat="46.5820895" lon="12.620994"><ele>1052.4</ele><time>2026-04-30T09:38:47.386Z</time></trkpt><trkpt lat="46.582071" lon="12.6208453"><ele>1052.0</ele><time>2026-04-30T09:38:48.386Z</time></trkpt><trkpt lat="46.5820541" lon="12.6206946"><ele>1053.6</ele><time>2026-04-30T09:38:49.385Z</time></trkpt><trkpt lat="46.5820313" lon="12.6205457"><ele>1055.2</ele><time>2026-04-30T09:38:50.386Z</time></trkpt><trkpt lat="46.582005" lon="12.6203923"><ele>1056.8</ele><time>2026-04-30T09:38:51.386Z</time></trkpt><trkpt lat="46.5819712" lon="12.620236"><ele>1058.4</ele><time>2026-04-30T09:38:52.386Z</time></trkpt><trkpt lat="46.5819326" lon="12.6200968"><ele>1060.0</ele><time>2026-04-30T09:38:53.386Z</time></trkpt><trkpt lat="46.5818691" lon="12.6199597"><ele>1059.0</ele><time>2026-04-30T09:38:54.386Z</time></trkpt><trkpt lat="46.5817995" lon="12.6198372"><ele>1058.0</ele><time>2026-04-30T09:38:55.386Z</time></trkpt><trkpt lat="46.5817379" lon="12.6197185"><ele>1057.0</ele><time>2026-04-30T09:38:56.386Z</time></trkpt><trkpt lat="46.5816984" lon="12.6196159"><ele>1056.0</ele><time>2026-04-30T09:38:57.386Z</time></trkpt><trkpt lat="46.5816683" lon="12.6194906"><ele>1055.0</ele><time>2026-04-30T09:38:58.386Z</time></trkpt><trkpt lat="46.5816509" lon="12.6193502"><ele>1055.0</ele><time>2026-04-30T09:38:59.386Z</time></trkpt><trkpt lat="46.5816289" lon="12.6191938"><ele>1055.0</ele><time>2026-04-30T09:39:00.386Z</time></trkpt><trkpt lat="46.5816014" lon="12.6190433"><ele>1055.0</ele><time>2026-04-30T09:39:01.386Z</time></trkpt><trkpt lat="46.5815721" lon="12.6188898"><ele>1055.0</ele><time>2026-04-30T09:39:02.386Z</time></trkpt><trkpt lat="46.5815366" lon="12.6187382"><ele>1055.0</ele><time>2026-04-30T09:39:03.386Z</time></trkpt><trkpt lat="46.5814981" lon="12.618592"><ele>1057.2</ele><time>2026-04-30T09:39:04.386Z</time></trkpt><trkpt lat="46.581469" lon="12.6184413"><ele>1059.4</ele><time>2026-04-30T09:39:05.387Z</time></trkpt><trkpt lat="46.5814529" lon="12.618285"><ele>1061.6</ele><time>2026-04-30T09:39:06.387Z</time></trkpt><trkpt lat="46.5814414" lon="12.6181239"><ele>1063.8</ele><time>2026-04-30T09:39:07.386Z</time></trkpt><trkpt lat="46.5814301" lon="12.6179533"><ele>1066.0</ele><time>2026-04-30T09:39:08.386Z</time></trkpt><trkpt lat="46.5814183" lon="12.6177973"><ele>1069.0</ele><time>2026-04-30T09:39:09.387Z</time></trkpt><trkpt lat="46.5813819" lon="12.6176102"><ele>1072.0</ele><time>2026-04-30T09:39:10.386Z</time></trkpt><trkpt lat="46.5813411" lon="12.6174402"><ele>1075.0</ele><time>2026-04-30T09:39:11.385Z</time></trkpt><trkpt lat="46.5812952" lon="12.617255"><ele>1078.0</ele><time>2026-04-30T09:39:12.386Z</time></trkpt><trkpt lat="46.5812403" lon="12.6170634"><ele>1070.0</ele><time>2026-04-30T09:39:13.386Z</time></trkpt><trkpt lat="46.5811787" lon="12.6168557"><ele>1062.0</ele><time>2026-04-30T09:39:14.386Z</time></trkpt><trkpt lat="46.5811179" lon="12.6166285"><ele>1054.0</ele><time>2026-04-30T09:39:15.386Z</time></trkpt><trkpt lat="46.5810546" lon="12.6164037"><ele>1054.0</ele><time>2026-04-30T09:39:16.386Z</time></trkpt><trkpt lat="46.580984" lon="12.6161687"><ele>1054.0</ele><time>2026-04-30T09:39:17.386Z</time></trkpt><trkpt lat="46.5808687" lon="12.6157369"><ele>1056.75</ele><time>2026-04-30T09:39:19.386Z</time></trkpt><trkpt lat="46.5808295" lon="12.6155347"><ele>1059.5</ele><time>2026-04-30T09:39:20.387Z</time></trkpt><trkpt lat="46.5808047" lon="12.6153254"><ele>1062.25</ele><time>2026-04-30T09:39:21.388Z</time></trkpt><trkpt lat="46.5807799" lon="12.6151253"><ele>1065.0</ele><time>2026-04-30T09:39:22.386Z</time></trkpt><trkpt lat="46.58075" lon="12.6149086"><ele>1070.25</ele><time>2026-04-30T09:39:23.387Z</time></trkpt><trkpt lat="46.5807345" lon="12.6147074"><ele>1075.5</ele><time>2026-04-30T09:39:24.387Z</time></trkpt><trkpt lat="46.5807222" lon="12.6145215"><ele>1080.75</ele><time>2026-04-30T09:39:25.388Z</time></trkpt><trkpt lat="46.5807144" lon="12.6143464"><ele>1086.0</ele><time>2026-04-30T09:39:26.387Z</time></trkpt><trkpt lat="46.5807197" lon="12.6142021"><ele>1087.8</ele><time>2026-04-30T09:39:27.386Z</time></trkpt><trkpt lat="46.5807399" lon="12.6140603"><ele>1089.6</ele><time>2026-04-30T09:39:28.387Z</time></trkpt><trkpt lat="46.5807715" lon="12.6139241"><ele>1091.4</ele><time>2026-04-30T09:39:29.387Z</time></trkpt><trkpt lat="46.580814" lon="12.6137732"><ele>1093.2</ele><time>2026-04-30T09:39:30.387Z</time></trkpt><trkpt lat="46.5808532" lon="12.6136324"><ele>1095.0</ele><time>2026-04-30T09:39:31.387Z</time></trkpt><trkpt lat="46.5808844" lon="12.613487"><ele>1096.2</ele><time>2026-04-30T09:39:32.387Z</time></trkpt><trkpt lat="46.5808768" lon="12.6133467"><ele>1097.4</ele><time>2026-04-30T09:39:33.386Z</time></trkpt><trkpt lat="46.5808619" lon="12.6131963"><ele>1098.6</ele><time>2026-04-30T09:39:34.387Z</time></trkpt><trkpt lat="46.5808707" lon="12.6130265"><ele>1099.8</ele><time>2026-04-30T09:39:35.387Z</time></trkpt><trkpt lat="46.5808653" lon="12.6128721"><ele>1101.0</ele><time>2026-04-30T09:39:36.387Z</time></trkpt><trkpt lat="46.5808601" lon="12.6127053"><ele>1101.8</ele><time>2026-04-30T09:39:37.387Z</time></trkpt><trkpt lat="46.5808712" lon="12.6125427"><ele>1102.6</ele><time>2026-04-30T09:39:38.387Z</time></trkpt><trkpt lat="46.5808926" lon="12.6123893"><ele>1103.4</ele><time>2026-04-30T09:39:39.387Z</time></trkpt><trkpt lat="46.5809267" lon="12.6122387"><ele>1104.2</ele><time>2026-04-30T09:39:40.386Z</time></trkpt><trkpt lat="46.5809676" lon="12.6120909"><ele>1105.0</ele><time>2026-04-30T09:39:41.387Z</time></trkpt><trkpt lat="46.5810082" lon="12.6119522"><ele>1106.25</ele><time>2026-04-30T09:39:42.386Z</time></trkpt><trkpt lat="46.5810374" lon="12.6117995"><ele>1107.5</ele><time>2026-04-30T09:39:43.387Z</time></trkpt><trkpt lat="46.5810513" lon="12.6116234"><ele>1108.75</ele><time>2026-04-30T09:39:44.387Z</time></trkpt><trkpt lat="46.5810584" lon="12.6114475"><ele>1110.0</ele><time>2026-04-30T09:39:45.387Z</time></trkpt><trkpt lat="46.5810707" lon="12.6112734"><ele>1111.2</ele><time>2026-04-30T09:39:46.387Z</time></trkpt><trkpt lat="46.581088" lon="12.6111132"><ele>1112.4</ele><time>2026-04-30T09:39:47.387Z</time></trkpt><trkpt lat="46.58111" lon="12.6109642"><ele>1113.6</ele><time>2026-04-30T09:39:48.387Z</time></trkpt><trkpt lat="46.5811424" lon="12.6108209"><ele>1114.8</ele><time>2026-04-30T09:39:49.387Z</time></trkpt><trkpt lat="46.5811869" lon="12.610682"><ele>1116.0</ele><time>2026-04-30T09:39:50.387Z</time></trkpt><trkpt lat="46.581227" lon="12.6105532"><ele>1123.6</ele><time>2026-04-30T09:39:51.387Z</time></trkpt><trkpt lat="46.5812528" lon="12.6104333"><ele>1131.1999999999998</ele><time>2026-04-30T09:39:52.387Z</time></trkpt><trkpt lat="46.5812651" lon="12.6103183"><ele>1138.8000000000002</ele><time>2026-04-30T09:39:53.386Z</time></trkpt><trkpt lat="46.5813063" lon="12.6101883"><ele>1146.4</ele><time>2026-04-30T09:39:55.387Z</time></trkpt><trkpt lat="46.5813755" lon="12.6102239"><ele>1154.0</ele><time>2026-04-30T09:39:57.387Z</time></trkpt><trkpt lat="46.5814192" lon="12.6103779"><ele>1154.0</ele><time>2026-04-30T09:39:59.387Z</time></trkpt><trkpt lat="46.5814602" lon="12.6105472"><ele>1154.0</ele><time>2026-04-30T09:40:01.387Z</time></trkpt><trkpt lat="46.5814773" lon="12.6106396"><ele>1154.0</ele><time>2026-04-30T09:40:02.387Z</time></trkpt><trkpt lat="46.5815169" lon="12.610795"><ele>1154.0</ele><time>2026-04-30T09:40:04.387Z</time></trkpt><trkpt lat="46.5815692" lon="12.6109311"><ele>1154.0</ele><time>2026-04-30T09:40:06.387Z</time></trkpt><trkpt lat="46.5816307" lon="12.6110465"><ele>1154.0</ele><time>2026-04-30T09:40:08.387Z</time></trkpt><trkpt lat="46.5815829" lon="12.6109303"><ele>1154.0</ele><time>2026-04-30T09:40:40.387Z</time></trkpt><trkpt lat="46.5815277" lon="12.6108161"><ele>1154.0</ele><time>2026-04-30T09:40:42.387Z</time></trkpt><trkpt lat="46.5814825" lon="12.6106663"><ele>1154.0</ele><time>2026-04-30T09:40:44.387Z</time></trkpt><trkpt lat="46.581448" lon="12.6104964"><ele>1154.0</ele><time>2026-04-30T09:40:46.387Z</time></trkpt><trkpt lat="46.5814091" lon="12.6103353"><ele>1154.0</ele><time>2026-04-30T09:40:48.387Z</time></trkpt><trkpt lat="46.5813682" lon="12.6102022"><ele>1154.0</ele><time>2026-04-30T09:40:50.387Z</time></trkpt><trkpt lat="46.5813257" lon="12.6101132"><ele>1154.0</ele><time>2026-04-30T09:40:52.387Z</time></trkpt><trkpt lat="46.58134" lon="12.6102132"><ele>1154.0</ele><time>2026-04-30T09:40:56.387Z</time></trkpt><trkpt lat="46.581398" lon="12.6103436"><ele>1154.0</ele><time>2026-04-30T09:40:58.387Z</time></trkpt><trkpt lat="46.5814193" lon="12.6104383"><ele>1154.0</ele><time>2026-04-30T09:40:59.388Z</time></trkpt><trkpt lat="46.5814411" lon="12.6105257"><ele>1154.0</ele><time>2026-04-30T09:41:00.387Z</time></trkpt><trkpt lat="46.5814801" lon="12.6106999"><ele>1154.0</ele><time>2026-04-30T09:41:02.387Z</time></trkpt><trkpt lat="46.5815273" lon="12.6108462"><ele>1154.0</ele><time>2026-04-30T09:41:04.387Z</time></trkpt><trkpt lat="46.5815872" lon="12.6109607"><ele>1154.0</ele><time>2026-04-30T09:41:06.387Z</time></trkpt><trkpt lat="46.5816365" lon="12.6110463"><ele>1154.0</ele><time>2026-04-30T09:41:08.386Z</time></trkpt><trkpt lat="46.5817167" lon="12.6110588"><ele>1154.0</ele><time>2026-04-30T09:41:10.387Z</time></trkpt><trkpt lat="46.581808" lon="12.6110286"><ele>1154.0</ele><time>2026-04-30T09:41:12.388Z</time></trkpt><trkpt lat="46.5819094" lon="12.6109921"><ele>1154.0</ele><time>2026-04-30T09:41:14.387Z</time></trkpt><trkpt lat="46.5819778" lon="12.6109776"><ele>1154.0</ele><time>2026-04-30T09:41:15.387Z</time></trkpt><trkpt lat="46.5820788" lon="12.6109469"><ele>1154.0</ele><time>2026-04-30T09:41:17.387Z</time></trkpt><trkpt lat="46.5821802" lon="12.6109163"><ele>1164.6000000000001</ele><time>2026-04-30T09:41:19.387Z</time></trkpt><trkpt lat="46.5822836" lon="12.6109072"><ele>1175.2</ele><time>2026-04-30T09:41:22.387Z</time></trkpt><trkpt lat="46.5823621" lon="12.6108716"><ele>1185.8000000000002</ele><time>2026-04-30T09:41:26.387Z</time></trkpt><trkpt lat="46.5824226" lon="12.6108073"><ele>1196.4</ele><time>2026-04-30T09:42:17.387Z</time></trkpt><trkpt lat="46.5825101" lon="12.6107674"><ele>1207.0</ele><time>2026-04-30T09:42:20.387Z</time></trkpt><trkpt lat="46.5825961" lon="12.6108996"><ele>1207.0</ele><time>2026-04-30T09:42:47.387Z</time></trkpt><trkpt lat="46.5826294" lon="12.6109997"><ele>1207.0</ele><time>2026-04-30T09:42:48.387Z</time></trkpt><trkpt lat="46.582654" lon="12.6111847"><ele>1207.0</ele><time>2026-04-30T09:42:50.387Z</time></trkpt><trkpt lat="46.5826558" lon="12.611279"><ele>1207.0</ele><time>2026-04-30T09:42:51.387Z</time></trkpt><trkpt lat="46.5826651" lon="12.6114324"><ele>1207.0</ele><time>2026-04-30T09:42:53.387Z</time></trkpt><trkpt lat="46.5826727" lon="12.6115628"><ele>1206.8333333333333</ele><time>2026-04-30T09:42:55.387Z</time></trkpt><trkpt lat="46.5826809" lon="12.6116797"><ele>1206.6666666666665</ele><time>2026-04-30T09:42:57.387Z</time></trkpt><trkpt lat="46.5827454" lon="12.6116869"><ele>1206.5</ele><time>2026-04-30T09:43:00.387Z</time></trkpt><trkpt lat="46.582772" lon="12.6115449"><ele>1206.3333333333333</ele><time>2026-04-30T09:43:02.387Z</time></trkpt><trkpt lat="46.5827925" lon="12.6114461"><ele>1206.1666666666667</ele><time>2026-04-30T09:43:03.387Z</time></trkpt><trkpt lat="46.5828043" lon="12.6113353"><ele>1206.0</ele><time>2026-04-30T09:43:04.386Z</time></trkpt><trkpt lat="46.5828083" lon="12.6112316"><ele>1206.142857142857</ele><time>2026-04-30T09:43:05.387Z</time></trkpt><trkpt lat="46.5828219" lon="12.611133"><ele>1206.2857142857142</ele><time>2026-04-30T09:43:06.387Z</time></trkpt><trkpt lat="46.5828441" lon="12.6110317"><ele>1206.4285714285713</ele><time>2026-04-30T09:43:07.387Z</time></trkpt><trkpt lat="46.5828724" lon="12.6109253"><ele>1206.5714285714284</ele><time>2026-04-30T09:43:08.387Z</time></trkpt><trkpt lat="46.5829085" lon="12.6108247"><ele>1206.7142857142858</ele><time>2026-04-30T09:43:09.387Z</time></trkpt><trkpt lat="46.5829323" lon="12.6107219"><ele>1206.8571428571427</ele><time>2026-04-30T09:43:10.387Z</time></trkpt><trkpt lat="46.5829315" lon="12.6106227"><ele>1207.0</ele><time>2026-04-30T09:43:11.387Z</time></trkpt><trkpt lat="46.5829333" lon="12.6105246"><ele>1215.8</ele><time>2026-04-30T09:43:12.387Z</time></trkpt><trkpt lat="46.5829238" lon="12.610425"><ele>1224.6</ele><time>2026-04-30T09:43:13.387Z</time></trkpt><trkpt lat="46.5829105" lon="12.6103324"><ele>1233.3999999999999</ele><time>2026-04-30T09:43:14.387Z</time></trkpt><trkpt lat="46.5828954" lon="12.6101684"><ele>1242.2</ele><time>2026-04-30T09:43:16.387Z</time></trkpt><trkpt lat="46.5828965" lon="12.6099999"><ele>1251.0</ele><time>2026-04-30T09:43:18.387Z</time></trkpt><trkpt lat="46.5829034" lon="12.6098541"><ele>1251.2</ele><time>2026-04-30T09:43:20.387Z</time></trkpt><trkpt lat="46.5829469" lon="12.6097437"><ele>1251.3999999999999</ele><time>2026-04-30T09:43:22.387Z</time></trkpt><trkpt lat="46.5830387" lon="12.609661"><ele>1251.6</ele><time>2026-04-30T09:43:24.387Z</time></trkpt><trkpt lat="46.5831134" lon="12.6096101"><ele>1251.8</ele><time>2026-04-30T09:43:26.387Z</time></trkpt><trkpt lat="46.5831596" lon="12.6095158"><ele>1252.0</ele><time>2026-04-30T09:43:28.387Z</time></trkpt><trkpt lat="46.5832198" lon="12.6093849"><ele>1252.0</ele><time>2026-04-30T09:43:30.387Z</time></trkpt><trkpt lat="46.5832563" lon="12.6092905"><ele>1252.0</ele><time>2026-04-30T09:43:32.387Z</time></trkpt><trkpt lat="46.5832978" lon="12.6091823"><ele>1252.0</ele><time>2026-04-30T09:43:35.387Z</time></trkpt><trkpt lat="46.5833386" lon="12.6090972"><ele>1252.0</ele><time>2026-04-30T09:43:39.387Z</time></trkpt><trkpt lat="46.5833649" lon="12.6089982"><ele>1252.0</ele><time>2026-04-30T09:43:41.387Z</time></trkpt><trkpt lat="46.5833728" lon="12.6088669"><ele>1252.0</ele><time>2026-04-30T09:43:44.387Z</time></trkpt><trkpt lat="46.5834343" lon="12.6087674"><ele>1252.0</ele><time>2026-04-30T09:43:47.387Z</time></trkpt><trkpt lat="46.583493" lon="12.6086678"><ele>1252.0</ele><time>2026-04-30T09:43:50.387Z</time></trkpt><trkpt lat="46.5835417" lon="12.6085744"><ele>1252.0</ele><time>2026-04-30T09:43:52.387Z</time></trkpt><trkpt lat="46.5835662" lon="12.6084552"><ele>1252.0</ele><time>2026-04-30T09:43:55.387Z</time></trkpt><trkpt lat="46.5836198" lon="12.6083612"><ele>1252.0</ele><time>2026-04-30T09:43:58.387Z</time></trkpt><trkpt lat="46.583673" lon="12.6082964"><ele>1252.0</ele><time>2026-04-30T09:44:01.387Z</time></trkpt><trkpt lat="46.5837057" lon="12.6081833"><ele>1256.3333333333333</ele><time>2026-04-30T09:44:04.387Z</time></trkpt><trkpt lat="46.5837194" lon="12.6080875"><ele>1260.6666666666665</ele><time>2026-04-30T09:44:09.387Z</time></trkpt><trkpt lat="46.5837532" lon="12.6079695"><ele>1265.0</ele><time>2026-04-30T09:44:14.387Z</time></trkpt><trkpt lat="46.5837503" lon="12.6078308"><ele>1269.3333333333333</ele><time>2026-04-30T09:44:16.387Z</time></trkpt><trkpt lat="46.5837848" lon="12.6077237"><ele>1273.6666666666667</ele><time>2026-04-30T09:44:18.387Z</time></trkpt><trkpt lat="46.5837913" lon="12.6076215"><ele>1278.0</ele><time>2026-04-30T09:44:21.387Z</time></trkpt><trkpt lat="46.5837953" lon="12.6075292"><ele>1278.0</ele><time>2026-04-30T09:44:23.387Z</time></trkpt><trkpt lat="46.5837994" lon="12.60739"><ele>1278.0</ele><time>2026-04-30T09:44:27.387Z</time></trkpt><trkpt lat="46.5838101" lon="12.6072472"><ele>1278.0</ele><time>2026-04-30T09:44:29.387Z</time></trkpt><trkpt lat="46.5838323" lon="12.6071438"><ele>1278.0</ele><time>2026-04-30T09:44:31.387Z</time></trkpt><trkpt lat="46.5838557" lon="12.6070457"><ele>1278.0</ele><time>2026-04-30T09:44:33.387Z</time></trkpt><trkpt lat="46.5839314" lon="12.6069963"><ele>1278.0</ele><time>2026-04-30T09:44:36.387Z</time></trkpt><trkpt lat="46.5839751" lon="12.6069077"><ele>1276.5</ele><time>2026-04-30T09:44:38.387Z</time></trkpt><trkpt lat="46.584011" lon="12.6067939"><ele>1275.0</ele><time>2026-04-30T09:44:40.387Z</time></trkpt><trkpt lat="46.5840443" lon="12.6067039"><ele>1273.5</ele><time>2026-04-30T09:44:42.387Z</time></trkpt><trkpt lat="46.5840956" lon="12.6066374"><ele>1272.0</ele><time>2026-04-30T09:44:44.387Z</time></trkpt><trkpt lat="46.584143" lon="12.6065771"><ele>1270.5</ele><time>2026-04-30T09:44:46.387Z</time></trkpt><trkpt lat="46.584213" lon="12.606491"><ele>1269.0</ele><time>2026-04-30T09:44:49.387Z</time></trkpt><trkpt lat="46.5842964" lon="12.6065016"><ele>1269.0</ele><time>2026-04-30T09:44:52.387Z</time></trkpt><trkpt lat="46.584329" lon="12.6066076"><ele>1269.0</ele><time>2026-04-30T09:44:54.387Z</time></trkpt><trkpt lat="46.5843547" lon="12.6067023"><ele>1269.0</ele><time>2026-04-30T09:44:56.387Z</time></trkpt><trkpt lat="46.5844546" lon="12.606784"><ele>1269.0</ele><time>2026-04-30T09:44:58.387Z</time></trkpt><trkpt lat="46.5845297" lon="12.6068265"><ele>1269.0</ele><time>2026-04-30T09:45:00.386Z</time></trkpt><trkpt lat="46.5845319" lon="12.6069183"><ele>1269.0</ele><time>2026-04-30T09:45:07.387Z</time></trkpt><trkpt lat="46.5844755" lon="12.6069665"><ele>1270.8</ele><time>2026-04-30T09:45:12.387Z</time></trkpt><trkpt lat="46.5845007" lon="12.6070686"><ele>1272.6000000000001</ele><time>2026-04-30T09:45:25.387Z</time></trkpt><trkpt lat="46.584575" lon="12.6070742"><ele>1274.4</ele><time>2026-04-30T09:45:28.387Z</time></trkpt><trkpt lat="46.5846647" lon="12.6070261"><ele>1276.2</ele><time>2026-04-30T09:45:31.387Z</time></trkpt><trkpt lat="46.5847269" lon="12.6068317"><ele>1278.0</ele><time>2026-04-30T09:45:34.387Z</time></trkpt><trkpt lat="46.5847565" lon="12.6067329"><ele>1280.8</ele><time>2026-04-30T09:45:35.388Z</time></trkpt><trkpt lat="46.5847879" lon="12.6066241"><ele>1283.6</ele><time>2026-04-30T09:45:36.387Z</time></trkpt><trkpt lat="46.5848036" lon="12.6065003"><ele>1286.3999999999999</ele><time>2026-04-30T09:45:37.386Z</time></trkpt><trkpt lat="46.5848002" lon="12.6063599"><ele>1289.1999999999998</ele><time>2026-04-30T09:45:38.387Z</time></trkpt><trkpt lat="46.5848114" lon="12.6062047"><ele>1292.0</ele><time>2026-04-30T09:45:39.388Z</time></trkpt><trkpt lat="46.5848293" lon="12.6060651"><ele>1292.0</ele><time>2026-04-30T09:45:40.387Z</time></trkpt><trkpt lat="46.5848469" lon="12.6059461"><ele>1292.0</ele><time>2026-04-30T09:45:41.387Z</time></trkpt><trkpt lat="46.5848563" lon="12.6058289"><ele>1292.0</ele><time>2026-04-30T09:45:42.387Z</time></trkpt><trkpt lat="46.5848636" lon="12.6057078"><ele>1292.0</ele><time>2026-04-30T09:45:43.387Z</time></trkpt><trkpt lat="46.584868" lon="12.6056039"><ele>1292.0</ele><time>2026-04-30T09:45:44.387Z</time></trkpt><trkpt lat="46.5848789" lon="12.6055133"><ele>1292.0</ele><time>2026-04-30T09:45:45.387Z</time></trkpt><trkpt lat="46.5848912" lon="12.6054064"><ele>1290.1666666666667</ele><time>2026-04-30T09:45:46.387Z</time></trkpt><trkpt lat="46.5849056" lon="12.6052919"><ele>1288.3333333333335</ele><time>2026-04-30T09:45:47.387Z</time></trkpt><trkpt lat="46.5849184" lon="12.6051816"><ele>1286.5</ele><time>2026-04-30T09:45:48.387Z</time></trkpt><trkpt lat="46.5849364" lon="12.6050763"><ele>1284.6666666666667</ele><time>2026-04-30T09:45:49.387Z</time></trkpt><trkpt lat="46.5849652" lon="12.6049862"><ele>1282.8333333333333</ele><time>2026-04-30T09:45:50.387Z</time></trkpt><trkpt lat="46.5849874" lon="12.6048947"><ele>1281.0</ele><time>2026-04-30T09:45:51.388Z</time></trkpt><trkpt lat="46.5850126" lon="12.604748"><ele>1281.0</ele><time>2026-04-30T09:45:53.387Z</time></trkpt><trkpt lat="46.5849575" lon="12.6046865"><ele>1281.0</ele><time>2026-04-30T09:45:55.387Z</time></trkpt><trkpt lat="46.5848584" lon="12.6046919"><ele>1281.0</ele><time>2026-04-30T09:45:58.387Z</time></trkpt><trkpt lat="46.58479" lon="12.6046747"><ele>1281.0</ele><time>2026-04-30T09:46:00.387Z</time></trkpt><trkpt lat="46.5847196" lon="12.6046865"><ele>1281.0</ele><time>2026-04-30T09:46:02.386Z</time></trkpt><trkpt lat="46.5846168" lon="12.6047077"><ele>1281.0</ele><time>2026-04-30T09:46:05.387Z</time></trkpt><trkpt lat="46.5845532" lon="12.6047153"><ele>1273.2</ele><time>2026-04-30T09:46:08.387Z</time></trkpt><trkpt lat="46.5844601" lon="12.6047461"><ele>1265.3999999999999</ele><time>2026-04-30T09:46:10.387Z</time></trkpt><trkpt lat="46.5843654" lon="12.6047893"><ele>1257.6</ele><time>2026-04-30T09:46:12.387Z</time></trkpt><trkpt lat="46.5842911" lon="12.6047292"><ele>1249.8</ele><time>2026-04-30T09:46:15.387Z</time></trkpt><trkpt lat="46.584246" lon="12.6046195"><ele>1242.0</ele><time>2026-04-30T09:46:17.388Z</time></trkpt><trkpt lat="46.5841748" lon="12.6045112"><ele>1240.6</ele><time>2026-04-30T09:46:19.387Z</time></trkpt><trkpt lat="46.584102" lon="12.6044536"><ele>1239.2</ele><time>2026-04-30T09:46:21.387Z</time></trkpt><trkpt lat="46.5840385" lon="12.604357"><ele>1237.8</ele><time>2026-04-30T09:46:23.387Z</time></trkpt><trkpt lat="46.5839708" lon="12.6042293"><ele>1236.4</ele><time>2026-04-30T09:46:25.387Z</time></trkpt><trkpt lat="46.5839217" lon="12.6040705"><ele>1235.0</ele><time>2026-04-30T09:46:27.387Z</time></trkpt><trkpt lat="46.5838925" lon="12.6039821"><ele>1235.0</ele><time>2026-04-30T09:46:28.388Z</time></trkpt><trkpt lat="46.5838182" lon="12.6038452"><ele>1235.0</ele><time>2026-04-30T09:46:30.387Z</time></trkpt><trkpt lat="46.583715" lon="12.6037147"><ele>1235.0</ele><time>2026-04-30T09:46:32.387Z</time></trkpt><trkpt lat="46.5836547" lon="12.6036432"><ele>1235.0</ele><time>2026-04-30T09:46:33.387Z</time></trkpt><trkpt lat="46.5835807" lon="12.6035499"><ele>1235.0</ele><time>2026-04-30T09:46:34.387Z</time></trkpt><trkpt lat="46.583528" lon="12.6034808"><ele>1227.3333333333335</ele><time>2026-04-30T09:46:35.387Z</time></trkpt><trkpt lat="46.5834735" lon="12.6034229"><ele>1219.6666666666667</ele><time>2026-04-30T09:46:36.387Z</time></trkpt><trkpt lat="46.5834291" lon="12.6033556"><ele>1212.0</ele><time>2026-04-30T09:46:37.387Z</time></trkpt><trkpt lat="46.5833868" lon="12.6032805"><ele>1204.3333333333333</ele><time>2026-04-30T09:46:38.387Z</time></trkpt><trkpt lat="46.5833613" lon="12.6031895"><ele>1196.6666666666665</ele><time>2026-04-30T09:46:39.387Z</time></trkpt><trkpt lat="46.5833212" lon="12.603024"><ele>1189.0</ele><time>2026-04-30T09:46:41.387Z</time></trkpt><trkpt lat="46.5833287" lon="12.6028784"><ele>1187.1666666666665</ele><time>2026-04-30T09:46:43.387Z</time></trkpt><trkpt lat="46.5833838" lon="12.602782"><ele>1185.3333333333333</ele><time>2026-04-30T09:46:45.387Z</time></trkpt><trkpt lat="46.583442" lon="12.6026988"><ele>1183.5</ele><time>2026-04-30T09:46:47.387Z</time></trkpt><trkpt lat="46.5834819" lon="12.6025867"><ele>1181.6666666666667</ele><time>2026-04-30T09:46:49.387Z</time></trkpt><trkpt lat="46.5835063" lon="12.6024143"><ele>1179.8333333333335</ele><time>2026-04-30T09:46:51.387Z</time></trkpt><trkpt lat="46.583512" lon="12.6023126"><ele>1178.0</ele><time>2026-04-30T09:46:52.387Z</time></trkpt><trkpt lat="46.5835098" lon="12.6021995"><ele>1178.0</ele><time>2026-04-30T09:46:53.386Z</time></trkpt><trkpt lat="46.5835056" lon="12.6020874"><ele>1178.0</ele><time>2026-04-30T09:46:54.387Z</time></trkpt><trkpt lat="46.5834964" lon="12.6019756"><ele>1178.0</ele><time>2026-04-30T09:46:55.387Z</time></trkpt><trkpt lat="46.5834884" lon="12.6018765"><ele>1178.0</ele><time>2026-04-30T09:46:56.387Z</time></trkpt><trkpt lat="46.5834734" lon="12.6016966"><ele>1178.0</ele><time>2026-04-30T09:46:58.387Z</time></trkpt><trkpt lat="46.5834826" lon="12.6015368"><ele>1175.6666666666667</ele><time>2026-04-30T09:47:00.387Z</time></trkpt><trkpt lat="46.5834735" lon="12.6013757"><ele>1173.3333333333335</ele><time>2026-04-30T09:47:02.387Z</time></trkpt><trkpt lat="46.5834344" lon="12.601303"><ele>1171.0</ele><time>2026-04-30T09:47:03.387Z</time></trkpt><trkpt lat="46.583415" lon="12.6012076"><ele>1168.6666666666667</ele><time>2026-04-30T09:47:04.387Z</time></trkpt><trkpt lat="46.5834191" lon="12.6011099"><ele>1166.3333333333333</ele><time>2026-04-30T09:47:05.388Z</time></trkpt><trkpt lat="46.583423" lon="12.6010064"><ele>1164.0</ele><time>2026-04-30T09:47:06.387Z</time></trkpt><trkpt lat="46.5834384" lon="12.6008894"><ele>1161.8333333333333</ele><time>2026-04-30T09:47:07.387Z</time></trkpt><trkpt lat="46.5834433" lon="12.6007818"><ele>1159.6666666666667</ele><time>2026-04-30T09:47:08.388Z</time></trkpt><trkpt lat="46.5834572" lon="12.6006687"><ele>1157.5</ele><time>2026-04-30T09:47:09.388Z</time></trkpt><trkpt lat="46.5834725" lon="12.6005629"><ele>1155.3333333333335</ele><time>2026-04-30T09:47:10.388Z</time></trkpt><trkpt lat="46.5835458" lon="12.6004376"><ele>1153.1666666666667</ele><time>2026-04-30T09:47:11.388Z</time></trkpt><trkpt lat="46.5835501" lon="12.6003317"><ele>1151.0</ele><time>2026-04-30T09:47:12.388Z</time></trkpt><trkpt lat="46.5835422" lon="12.6002098"><ele>1147.5</ele><time>2026-04-30T09:47:13.388Z</time></trkpt><trkpt lat="46.5835396" lon="12.6001087"><ele>1144.0</ele><time>2026-04-30T09:47:14.388Z</time></trkpt><trkpt lat="46.5835394" lon="12.5999884"><ele>1140.5</ele><time>2026-04-30T09:47:15.388Z</time></trkpt><trkpt lat="46.5835389" lon="12.5998771"><ele>1137.0</ele><time>2026-04-30T09:47:16.389Z</time></trkpt><trkpt lat="46.5835056" lon="12.5997154"><ele>1133.5</ele><time>2026-04-30T09:47:18.388Z</time></trkpt><trkpt lat="46.5835493" lon="12.5996133"><ele>1130.0</ele><time>2026-04-30T09:47:19.388Z</time></trkpt><trkpt lat="46.5835766" lon="12.5995222"><ele>1128.8333333333335</ele><time>2026-04-30T09:47:20.388Z</time></trkpt><trkpt lat="46.5836272" lon="12.5994399"><ele>1127.6666666666667</ele><time>2026-04-30T09:47:21.388Z</time></trkpt><trkpt lat="46.5836674" lon="12.5993495"><ele>1126.5</ele><time>2026-04-30T09:47:22.388Z</time></trkpt><trkpt lat="46.5837057" lon="12.5992558"><ele>1125.3333333333333</ele><time>2026-04-30T09:47:23.388Z</time></trkpt><trkpt lat="46.5837555" lon="12.5991663"><ele>1124.1666666666665</ele><time>2026-04-30T09:47:24.388Z</time></trkpt><trkpt lat="46.5838113" lon="12.5990769"><ele>1123.0</ele><time>2026-04-30T09:47:25.388Z</time></trkpt><trkpt lat="46.5838546" lon="12.5989888"><ele>1125.0</ele><time>2026-04-30T09:47:26.388Z</time></trkpt><trkpt lat="46.5838926" lon="12.5988237"><ele>1127.0</ele><time>2026-04-30T09:47:28.388Z</time></trkpt><trkpt lat="46.5839444" lon="12.5987534"><ele>1129.0</ele><time>2026-04-30T09:47:29.389Z</time></trkpt><trkpt lat="46.583989" lon="12.5986855"><ele>1131.0</ele><time>2026-04-30T09:47:30.388Z</time></trkpt><trkpt lat="46.5840587" lon="12.59865"><ele>1133.0</ele><time>2026-04-30T09:47:31.389Z</time></trkpt><trkpt lat="46.5841122" lon="12.5985974"><ele>1135.0</ele><time>2026-04-30T09:47:32.388Z</time></trkpt><trkpt lat="46.5841722" lon="12.5985399"><ele>1135.0</ele><time>2026-04-30T09:47:34.388Z</time></trkpt><trkpt lat="46.5841332" lon="12.5984679"><ele>1135.0</ele><time>2026-04-30T09:47:37.388Z</time></trkpt><trkpt lat="46.5839974" lon="12.5984725"><ele>1135.0</ele><time>2026-04-30T09:47:39.388Z</time></trkpt><trkpt lat="46.5839343" lon="12.598471"><ele>1135.0</ele><time>2026-04-30T09:47:40.389Z</time></trkpt><trkpt lat="46.58387" lon="12.5984841"><ele>1135.0</ele><time>2026-04-30T09:47:41.388Z</time></trkpt><trkpt lat="46.5837984" lon="12.5984917"><ele>1135.0</ele><time>2026-04-30T09:47:42.388Z</time></trkpt><trkpt lat="46.5837284" lon="12.5984984"><ele>1135.3333333333333</ele><time>2026-04-30T09:47:43.389Z</time></trkpt><trkpt lat="46.5836606" lon="12.5985205"><ele>1135.6666666666665</ele><time>2026-04-30T09:47:44.388Z</time></trkpt><trkpt lat="46.5835907" lon="12.5985553"><ele>1136.0</ele><time>2026-04-30T09:47:45.389Z</time></trkpt><trkpt lat="46.5835096" lon="12.5985929"><ele>1136.3333333333333</ele><time>2026-04-30T09:47:46.388Z</time></trkpt><trkpt lat="46.5834333" lon="12.598618"><ele>1136.6666666666667</ele><time>2026-04-30T09:47:47.388Z</time></trkpt><trkpt lat="46.583348" lon="12.5986166"><ele>1137.0</ele><time>2026-04-30T09:47:48.388Z</time></trkpt><trkpt lat="46.5832633" lon="12.5986129"><ele>1137.0</ele><time>2026-04-30T09:47:49.388Z</time></trkpt><trkpt lat="46.5831762" lon="12.5985831"><ele>1137.0</ele><time>2026-04-30T09:47:50.389Z</time></trkpt><trkpt lat="46.5830931" lon="12.598518"><ele>1137.0</ele><time>2026-04-30T09:47:51.388Z</time></trkpt><trkpt lat="46.5830471" lon="12.5984328"><ele>1137.0</ele><time>2026-04-30T09:47:52.388Z</time></trkpt><trkpt lat="46.5829734" lon="12.5983861"><ele>1137.0</ele><time>2026-04-30T09:47:53.388Z</time></trkpt><trkpt lat="46.5829014" lon="12.5983454"><ele>1137.0</ele><time>2026-04-30T09:47:54.388Z</time></trkpt><trkpt lat="46.582846" lon="12.5982658"><ele>1138.5</ele><time>2026-04-30T09:47:55.388Z</time></trkpt><trkpt lat="46.5827938" lon="12.5981813"><ele>1140.0</ele><time>2026-04-30T09:47:56.388Z</time></trkpt><trkpt lat="46.5827414" lon="12.5981087"><ele>1141.5</ele><time>2026-04-30T09:47:57.388Z</time></trkpt><trkpt lat="46.5826567" lon="12.5980757"><ele>1143.0</ele><time>2026-04-30T09:47:59.388Z</time></trkpt><trkpt lat="46.5826197" lon="12.5982126"><ele>1144.5</ele><time>2026-04-30T09:48:01.388Z</time></trkpt><trkpt lat="46.5825555" lon="12.5982902"><ele>1146.0</ele><time>2026-04-30T09:48:03.387Z</time></trkpt><trkpt lat="46.5824787" lon="12.5982319"><ele>1146.0</ele><time>2026-04-30T09:48:05.388Z</time></trkpt><trkpt lat="46.5824705" lon="12.5980492"><ele>1146.0</ele><time>2026-04-30T09:48:07.388Z</time></trkpt><trkpt lat="46.5823848" lon="12.597918"><ele>1146.0</ele><time>2026-04-30T09:48:09.388Z</time></trkpt><trkpt lat="46.5823162" lon="12.5979123"><ele>1146.0</ele><time>2026-04-30T09:48:10.388Z</time></trkpt><trkpt lat="46.5822344" lon="12.5979171"><ele>1146.0</ele><time>2026-04-30T09:48:11.388Z</time></trkpt><trkpt lat="46.5821426" lon="12.5979247"><ele>1146.0</ele><time>2026-04-30T09:48:12.388Z</time></trkpt><trkpt lat="46.5820451" lon="12.5979216"><ele>1146.0</ele><time>2026-04-30T09:48:13.388Z</time></trkpt><trkpt lat="46.5819351" lon="12.5979322"><ele>1146.0</ele><time>2026-04-30T09:48:14.388Z</time></trkpt><trkpt lat="46.5818262" lon="12.5979352"><ele>1146.0</ele><time>2026-04-30T09:48:15.388Z</time></trkpt><trkpt lat="46.5816421" lon="12.5979913"><ele>1148.8</ele><time>2026-04-30T09:48:17.388Z</time></trkpt><trkpt lat="46.58155" lon="12.5979929"><ele>1151.6</ele><time>2026-04-30T09:48:18.388Z</time></trkpt><trkpt lat="46.5814632" lon="12.5979963"><ele>1154.4</ele><time>2026-04-30T09:48:19.388Z</time></trkpt><trkpt lat="46.5813655" lon="12.5979943"><ele>1157.2</ele><time>2026-04-30T09:48:20.388Z</time></trkpt><trkpt lat="46.5812554" lon="12.5979759"><ele>1160.0</ele><time>2026-04-30T09:48:21.388Z</time></trkpt><trkpt lat="46.5811552" lon="12.5979472"><ele>1163.75</ele><time>2026-04-30T09:48:22.388Z</time></trkpt><trkpt lat="46.5810474" lon="12.5979154"><ele>1167.5</ele><time>2026-04-30T09:48:23.388Z</time></trkpt><trkpt lat="46.580933" lon="12.5979009"><ele>1171.25</ele><time>2026-04-30T09:48:24.388Z</time></trkpt><trkpt lat="46.5808178" lon="12.5978916"><ele>1175.0</ele><time>2026-04-30T09:48:25.389Z</time></trkpt><trkpt lat="46.5806981" lon="12.5978554"><ele>1179.25</ele><time>2026-04-30T09:48:26.388Z</time></trkpt><trkpt lat="46.580589" lon="12.5977955"><ele>1183.5</ele><time>2026-04-30T09:48:27.388Z</time></trkpt><trkpt lat="46.5804685" lon="12.5977251"><ele>1187.75</ele><time>2026-04-30T09:48:28.388Z</time></trkpt><trkpt lat="46.5803579" lon="12.5976685"><ele>1192.0</ele><time>2026-04-30T09:48:29.388Z</time></trkpt><trkpt lat="46.5802451" lon="12.5975938"><ele>1192.5</ele><time>2026-04-30T09:48:30.388Z</time></trkpt><trkpt lat="46.5801398" lon="12.5974901"><ele>1193.0</ele><time>2026-04-30T09:48:31.388Z</time></trkpt><trkpt lat="46.5800443" lon="12.5973758"><ele>1193.5</ele><time>2026-04-30T09:48:32.388Z</time></trkpt><trkpt lat="46.5799582" lon="12.5972701"><ele>1194.0</ele><time>2026-04-30T09:48:33.388Z</time></trkpt><trkpt lat="46.5798773" lon="12.5971696"><ele>1194.0</ele><time>2026-04-30T09:48:34.388Z</time></trkpt><trkpt lat="46.5798016" lon="12.5970755"><ele>1194.0</ele><time>2026-04-30T09:48:35.388Z</time></trkpt><trkpt lat="46.5797281" lon="12.5969775"><ele>1194.0</ele><time>2026-04-30T09:48:36.388Z</time></trkpt><trkpt lat="46.5796545" lon="12.5968814"><ele>1194.0</ele><time>2026-04-30T09:48:37.388Z</time></trkpt><trkpt lat="46.5795788" lon="12.5967971"><ele>1194.0</ele><time>2026-04-30T09:48:38.388Z</time></trkpt><trkpt lat="46.5794938" lon="12.5967128"><ele>1193.2</ele><time>2026-04-30T09:48:39.388Z</time></trkpt><trkpt lat="46.5793979" lon="12.5966423"><ele>1192.4</ele><time>2026-04-30T09:48:40.388Z</time></trkpt><trkpt lat="46.5792952" lon="12.5965914"><ele>1191.6</ele><time>2026-04-30T09:48:41.388Z</time></trkpt><trkpt lat="46.5791896" lon="12.5965424"><ele>1190.8</ele><time>2026-04-30T09:48:42.387Z</time></trkpt><trkpt lat="46.5790931" lon="12.5964854"><ele>1190.0</ele><time>2026-04-30T09:48:43.388Z</time></trkpt><trkpt lat="46.579007" lon="12.5964289"><ele>1190.0</ele><time>2026-04-30T09:48:44.388Z</time></trkpt><trkpt lat="46.5789275" lon="12.5963766"><ele>1190.0</ele><time>2026-04-30T09:48:45.388Z</time></trkpt><trkpt lat="46.5787729" lon="12.5962805"><ele>1190.0</ele><time>2026-04-30T09:48:47.388Z</time></trkpt><trkpt lat="46.5786975" lon="12.5962295"><ele>1190.0</ele><time>2026-04-30T09:48:48.388Z</time></trkpt><trkpt lat="46.5786304" lon="12.5961696"><ele>1190.0</ele><time>2026-04-30T09:48:49.389Z</time></trkpt><trkpt lat="46.5785844" lon="12.5961049"><ele>1189.8</ele><time>2026-04-30T09:48:50.388Z</time></trkpt><trkpt lat="46.5785341" lon="12.5960108"><ele>1189.6</ele><time>2026-04-30T09:48:52.388Z</time></trkpt><trkpt lat="46.5786466" lon="12.5960075"><ele>1189.4</ele><time>2026-04-30T09:48:57.388Z</time></trkpt><trkpt lat="46.5787965" lon="12.5960668"><ele>1189.2</ele><time>2026-04-30T09:48:59.388Z</time></trkpt><trkpt lat="46.5788819" lon="12.5960853"><ele>1189.0</ele><time>2026-04-30T09:49:00.388Z</time></trkpt><trkpt lat="46.5789723" lon="12.5960989"><ele>1193.0</ele><time>2026-04-30T09:49:01.388Z</time></trkpt><trkpt lat="46.5790705" lon="12.5961019"><ele>1197.0</ele><time>2026-04-30T09:49:02.388Z</time></trkpt><trkpt lat="46.5791738" lon="12.596096"><ele>1201.0</ele><time>2026-04-30T09:49:03.388Z</time></trkpt><trkpt lat="46.5792762" lon="12.5960882"><ele>1205.0</ele><time>2026-04-30T09:49:04.388Z</time></trkpt><trkpt lat="46.5793777" lon="12.5960826"><ele>1209.0</ele><time>2026-04-30T09:49:05.389Z</time></trkpt><trkpt lat="46.5794726" lon="12.5960777"><ele>1210.8</ele><time>2026-04-30T09:49:06.388Z</time></trkpt><trkpt lat="46.5795682" lon="12.5960613"><ele>1212.6000000000001</ele><time>2026-04-30T09:49:07.388Z</time></trkpt><trkpt lat="46.5796638" lon="12.5960396"><ele>1214.4</ele><time>2026-04-30T09:49:08.388Z</time></trkpt><trkpt lat="46.5797582" lon="12.5960175"><ele>1216.2</ele><time>2026-04-30T09:49:09.388Z</time></trkpt><trkpt lat="46.5798542" lon="12.5959995"><ele>1218.0</ele><time>2026-04-30T09:49:10.388Z</time></trkpt><trkpt lat="46.5799492" lon="12.5959847"><ele>1218.0</ele><time>2026-04-30T09:49:11.388Z</time></trkpt><trkpt lat="46.5800443" lon="12.5959703"><ele>1218.0</ele><time>2026-04-30T09:49:12.388Z</time></trkpt><trkpt lat="46.5801376" lon="12.5959566"><ele>1218.0</ele><time>2026-04-30T09:49:13.388Z</time></trkpt><trkpt lat="46.5802292" lon="12.5959317"><ele>1218.0</ele><time>2026-04-30T09:49:14.388Z</time></trkpt><trkpt lat="46.5803169" lon="12.5959037"><ele>1218.0</ele><time>2026-04-30T09:49:15.388Z</time></trkpt><trkpt lat="46.5804061" lon="12.5958665"><ele>1219.8</ele><time>2026-04-30T09:49:16.388Z</time></trkpt><trkpt lat="46.5804903" lon="12.5958103"><ele>1221.6</ele><time>2026-04-30T09:49:17.388Z</time></trkpt><trkpt lat="46.5805945" lon="12.59575"><ele>1223.4</ele><time>2026-04-30T09:49:18.388Z</time></trkpt><trkpt lat="46.5806969" lon="12.5956925"><ele>1225.2</ele><time>2026-04-30T09:49:19.389Z</time></trkpt><trkpt lat="46.58081" lon="12.5956552"><ele>1227.0</ele><time>2026-04-30T09:49:20.388Z</time></trkpt><trkpt lat="46.580933" lon="12.5956386"><ele>1227.0</ele><time>2026-04-30T09:49:21.388Z</time></trkpt><trkpt lat="46.5810542" lon="12.5956454"><ele>1227.0</ele><time>2026-04-30T09:49:22.387Z</time></trkpt><trkpt lat="46.5811579" lon="12.5956593"><ele>1227.0</ele><time>2026-04-30T09:49:23.388Z</time></trkpt><trkpt lat="46.5812677" lon="12.5956804"><ele>1227.0</ele><time>2026-04-30T09:49:24.388Z</time></trkpt><trkpt lat="46.5813819" lon="12.5957028"><ele>1229.0</ele><time>2026-04-30T09:49:25.388Z</time></trkpt><trkpt lat="46.5814967" lon="12.5957226"><ele>1231.0</ele><time>2026-04-30T09:49:26.388Z</time></trkpt><trkpt lat="46.5816075" lon="12.5957373"><ele>1233.0</ele><time>2026-04-30T09:49:27.388Z</time></trkpt><trkpt lat="46.5817114" lon="12.5957253"><ele>1235.0</ele><time>2026-04-30T09:49:28.388Z</time></trkpt><trkpt lat="46.5818166" lon="12.5956845"><ele>1237.0</ele><time>2026-04-30T09:49:29.387Z</time></trkpt><trkpt lat="46.5819234" lon="12.5956401"><ele>1238.2</ele><time>2026-04-30T09:49:30.388Z</time></trkpt><trkpt lat="46.582033" lon="12.5956077"><ele>1239.4</ele><time>2026-04-30T09:49:31.388Z</time></trkpt><trkpt lat="46.5821473" lon="12.5955752"><ele>1240.6</ele><time>2026-04-30T09:49:32.388Z</time></trkpt><trkpt lat="46.5822558" lon="12.5955411"><ele>1241.8</ele><time>2026-04-30T09:49:33.387Z</time></trkpt><trkpt lat="46.5823419" lon="12.5955016"><ele>1243.0</ele><time>2026-04-30T09:49:34.388Z</time></trkpt><trkpt lat="46.5824098" lon="12.5954629"><ele>1243.0</ele><time>2026-04-30T09:49:35.388Z</time></trkpt><trkpt lat="46.5824848" lon="12.5953951"><ele>1243.0</ele><time>2026-04-30T09:49:37.388Z</time></trkpt><trkpt lat="46.5824633" lon="12.5952493"><ele>1243.0</ele><time>2026-04-30T09:49:40.387Z</time></trkpt><trkpt lat="46.5823913" lon="12.5951025"><ele>1243.0</ele><time>2026-04-30T09:49:42.388Z</time></trkpt><trkpt lat="46.5823584" lon="12.5950201"><ele>1243.0</ele><time>2026-04-30T09:49:43.389Z</time></trkpt><trkpt lat="46.5823225" lon="12.5949375"><ele>1243.0</ele><time>2026-04-30T09:49:44.388Z</time></trkpt><trkpt lat="46.5822815" lon="12.5948516"><ele>1247.8333333333333</ele><time>2026-04-30T09:49:45.388Z</time></trkpt><trkpt lat="46.5822335" lon="12.5947652"><ele>1252.6666666666665</ele><time>2026-04-30T09:49:46.388Z</time></trkpt><trkpt lat="46.5821735" lon="12.594611"><ele>1257.5</ele><time>2026-04-30T09:49:48.388Z</time></trkpt><trkpt lat="46.5821564" lon="12.5945218"><ele>1262.3333333333333</ele><time>2026-04-30T09:49:49.388Z</time></trkpt><trkpt lat="46.5821394" lon="12.5944315"><ele>1267.1666666666667</ele><time>2026-04-30T09:49:50.388Z</time></trkpt><trkpt lat="46.5821343" lon="12.5942842"><ele>1272.0</ele><time>2026-04-30T09:49:52.388Z</time></trkpt><trkpt lat="46.5821974" lon="12.5941722"><ele>1276.2</ele><time>2026-04-30T09:49:54.388Z</time></trkpt><trkpt lat="46.5823172" lon="12.5941542"><ele>1280.4</ele><time>2026-04-30T09:49:56.388Z</time></trkpt><trkpt lat="46.5824265" lon="12.5941202"><ele>1284.6000000000001</ele><time>2026-04-30T09:49:58.388Z</time></trkpt><trkpt lat="46.5824807" lon="12.5939895"><ele>1288.8000000000002</ele><time>2026-04-30T09:50:00.388Z</time></trkpt><trkpt lat="46.5824685" lon="12.5938645"><ele>1293.0</ele><time>2026-04-30T09:50:02.388Z</time></trkpt><trkpt lat="46.5824421" lon="12.5937128"><ele>1296.8000000000002</ele><time>2026-04-30T09:50:04.388Z</time></trkpt><trkpt lat="46.5824113" lon="12.5935289"><ele>1300.6</ele><time>2026-04-30T09:50:06.388Z</time></trkpt><trkpt lat="46.5823936" lon="12.5934257"><ele>1304.4</ele><time>2026-04-30T09:50:07.388Z</time></trkpt><trkpt lat="46.5823838" lon="12.5933058"><ele>1308.1999999999998</ele><time>2026-04-30T09:50:08.388Z</time></trkpt><trkpt lat="46.5823704" lon="12.593171"><ele>1312.0</ele><time>2026-04-30T09:50:09.388Z</time></trkpt><trkpt lat="46.58236" lon="12.5930278"><ele>1312.0</ele><time>2026-04-30T09:50:10.388Z</time></trkpt><trkpt lat="46.5823567" lon="12.5929334"><ele>1312.0</ele><time>2026-04-30T09:50:11.387Z</time></trkpt><trkpt lat="46.5824176" lon="12.5928014"><ele>1312.0</ele><time>2026-04-30T09:50:13.388Z</time></trkpt><trkpt lat="46.5825354" lon="12.592736"><ele>1312.0</ele><time>2026-04-30T09:50:15.388Z</time></trkpt><trkpt lat="46.5826122" lon="12.5926983"><ele>1312.0</ele><time>2026-04-30T09:50:16.388Z</time></trkpt><trkpt lat="46.5826789" lon="12.5926741"><ele>1316.6</ele><time>2026-04-30T09:50:17.388Z</time></trkpt><trkpt lat="46.5827418" lon="12.592643"><ele>1321.1999999999998</ele><time>2026-04-30T09:50:18.388Z</time></trkpt><trkpt lat="46.5828716" lon="12.5925463"><ele>1325.8</ele><time>2026-04-30T09:50:20.388Z</time></trkpt><trkpt lat="46.5829388" lon="12.5924946"><ele>1330.4</ele><time>2026-04-30T09:50:21.389Z</time></trkpt><trkpt lat="46.5829668" lon="12.5923998"><ele>1335.0</ele><time>2026-04-30T09:50:22.388Z</time></trkpt><trkpt lat="46.5829709" lon="12.5922512"><ele>1335.0</ele><time>2026-04-30T09:50:24.388Z</time></trkpt><trkpt lat="46.5828485" lon="12.5921999"><ele>1335.0</ele><time>2026-04-30T09:50:26.388Z</time></trkpt><trkpt lat="46.5827848" lon="12.5921641"><ele>1335.0</ele><time>2026-04-30T09:50:27.388Z</time></trkpt><trkpt lat="46.5826593" lon="12.5920987"><ele>1335.0</ele><time>2026-04-30T09:50:29.388Z</time></trkpt><trkpt lat="46.5825945" lon="12.592064"><ele>1335.0</ele><time>2026-04-30T09:50:30.388Z</time></trkpt><trkpt lat="46.5825278" lon="12.592012"><ele>1340.0</ele><time>2026-04-30T09:50:31.388Z</time></trkpt><trkpt lat="46.5824449" lon="12.5918913"><ele>1345.0</ele><time>2026-04-30T09:50:33.388Z</time></trkpt><trkpt lat="46.5824381" lon="12.5917716"><ele>1350.0</ele><time>2026-04-30T09:50:35.388Z</time></trkpt><trkpt lat="46.5825154" lon="12.5917098"><ele>1355.0</ele><time>2026-04-30T09:50:37.387Z</time></trkpt><trkpt lat="46.5826181" lon="12.5916658"><ele>1360.0</ele><time>2026-04-30T09:50:39.388Z</time></trkpt><trkpt lat="46.5827315" lon="12.5916117"><ele>1360.0</ele><time>2026-04-30T09:50:41.388Z</time></trkpt><trkpt lat="46.5828175" lon="12.5915643"><ele>1360.0</ele><time>2026-04-30T09:50:42.388Z</time></trkpt><trkpt lat="46.5829007" lon="12.5915056"><ele>1360.0</ele><time>2026-04-30T09:50:43.388Z</time></trkpt><trkpt lat="46.5829936" lon="12.5914313"><ele>1360.0</ele><time>2026-04-30T09:50:44.388Z</time></trkpt><trkpt lat="46.5830913" lon="12.5913629"><ele>1360.0</ele><time>2026-04-30T09:50:45.388Z</time></trkpt><trkpt lat="46.5831523" lon="12.5913063"><ele>1361.6</ele><time>2026-04-30T09:50:46.388Z</time></trkpt><trkpt lat="46.5832274" lon="12.5912356"><ele>1363.2</ele><time>2026-04-30T09:50:47.388Z</time></trkpt><trkpt lat="46.5833097" lon="12.5911659"><ele>1364.8000000000002</ele><time>2026-04-30T09:50:48.388Z</time></trkpt><trkpt lat="46.5833883" lon="12.5910892"><ele>1366.4</ele><time>2026-04-30T09:50:49.388Z</time></trkpt><trkpt lat="46.5834735" lon="12.5910179"><ele>1368.0</ele><time>2026-04-30T09:50:50.387Z</time></trkpt><trkpt lat="46.5835555" lon="12.5909548"><ele>1372.6000000000001</ele><time>2026-04-30T09:50:51.388Z</time></trkpt><trkpt lat="46.5836312" lon="12.5909061"><ele>1377.2</ele><time>2026-04-30T09:50:52.388Z</time></trkpt><trkpt lat="46.5837093" lon="12.5908562"><ele>1381.8</ele><time>2026-04-30T09:50:53.388Z</time></trkpt><trkpt lat="46.5838094" lon="12.590817"><ele>1386.4</ele><time>2026-04-30T09:50:54.387Z</time></trkpt><trkpt lat="46.583912" lon="12.5907716"><ele>1391.0</ele><time>2026-04-30T09:50:55.387Z</time></trkpt><trkpt lat="46.5840011" lon="12.5907326"><ele>1391.6</ele><time>2026-04-30T09:50:56.387Z</time></trkpt><trkpt lat="46.5840862" lon="12.5906848"><ele>1392.1999999999998</ele><time>2026-04-30T09:50:57.388Z</time></trkpt><trkpt lat="46.5841724" lon="12.5906309"><ele>1392.8000000000002</ele><time>2026-04-30T09:50:58.388Z</time></trkpt><trkpt lat="46.5842504" lon="12.5905691"><ele>1393.4</ele><time>2026-04-30T09:50:59.388Z</time></trkpt><trkpt lat="46.584337" lon="12.5905287"><ele>1394.0</ele><time>2026-04-30T09:51:00.388Z</time></trkpt><trkpt lat="46.5844297" lon="12.5904957"><ele>1395.8333333333335</ele><time>2026-04-30T09:51:01.388Z</time></trkpt><trkpt lat="46.5845183" lon="12.590462"><ele>1397.6666666666667</ele><time>2026-04-30T09:51:02.388Z</time></trkpt><trkpt lat="46.5845969" lon="12.5904221"><ele>1399.5</ele><time>2026-04-30T09:51:03.388Z</time></trkpt><trkpt lat="46.5846792" lon="12.5903796"><ele>1401.3333333333333</ele><time>2026-04-30T09:51:04.388Z</time></trkpt><trkpt lat="46.5847603" lon="12.5903154"><ele>1403.1666666666665</ele><time>2026-04-30T09:51:05.388Z</time></trkpt><trkpt lat="46.5848453" lon="12.5902658"><ele>1405.0</ele><time>2026-04-30T09:51:06.388Z</time></trkpt><trkpt lat="46.5849339" lon="12.5902198"><ele>1405.0</ele><time>2026-04-30T09:51:07.388Z</time></trkpt><trkpt lat="46.5850119" lon="12.5901926"><ele>1405.0</ele><time>2026-04-30T09:51:08.388Z</time></trkpt><trkpt lat="46.585081" lon="12.5901793"><ele>1405.0</ele><time>2026-04-30T09:51:09.389Z</time></trkpt><trkpt lat="46.585156" lon="12.5902132"><ele>1405.0</ele><time>2026-04-30T09:51:10.388Z</time></trkpt><trkpt lat="46.5852163" lon="12.5902405"><ele>1405.0</ele><time>2026-04-30T09:51:11.388Z</time></trkpt><trkpt lat="46.5852872" lon="12.5903058"><ele>1405.0</ele><time>2026-04-30T09:51:14.388Z</time></trkpt><trkpt lat="46.5853418" lon="12.5903714"><ele>1405.0</ele><time>2026-04-30T09:51:16.388Z</time></trkpt><trkpt lat="46.5854031" lon="12.5904167"><ele>1408.1666666666665</ele><time>2026-04-30T09:51:18.388Z</time></trkpt><trkpt lat="46.5854637" lon="12.590473"><ele>1411.3333333333333</ele><time>2026-04-30T09:51:21.387Z</time></trkpt><trkpt lat="46.5855325" lon="12.5905796"><ele>1414.5</ele><time>2026-04-30T09:51:24.388Z</time></trkpt><trkpt lat="46.5856188" lon="12.590625"><ele>1417.6666666666667</ele><time>2026-04-30T09:51:26.388Z</time></trkpt><trkpt lat="46.585685" lon="12.5906332"><ele>1420.8333333333335</ele><time>2026-04-30T09:51:27.388Z</time></trkpt><trkpt lat="46.5857567" lon="12.5906123"><ele>1424.0</ele><time>2026-04-30T09:51:28.388Z</time></trkpt><trkpt lat="46.5858163" lon="12.5905731"><ele>1424.0</ele><time>2026-04-30T09:51:29.388Z</time></trkpt><trkpt lat="46.5858979" lon="12.5904887"><ele>1424.0</ele><time>2026-04-30T09:51:31.388Z</time></trkpt><trkpt lat="46.5859424" lon="12.5903781"><ele>1424.0</ele><time>2026-04-30T09:51:33.388Z</time></trkpt><trkpt lat="46.5860158" lon="12.5902674"><ele>1424.0</ele><time>2026-04-30T09:51:35.388Z</time></trkpt><trkpt lat="46.5860728" lon="12.5902074"><ele>1424.0</ele><time>2026-04-30T09:51:36.388Z</time></trkpt><trkpt lat="46.5861344" lon="12.5901513"><ele>1424.0</ele><time>2026-04-30T09:51:37.388Z</time></trkpt><trkpt lat="46.5862081" lon="12.5901021"><ele>1426.0</ele><time>2026-04-30T09:51:38.388Z</time></trkpt><trkpt lat="46.5862811" lon="12.590079"><ele>1428.0</ele><time>2026-04-30T09:51:39.388Z</time></trkpt><trkpt lat="46.5863503" lon="12.5900722"><ele>1430.0</ele><time>2026-04-30T09:51:40.389Z</time></trkpt><trkpt lat="46.586425" lon="12.5900616"><ele>1432.0</ele><time>2026-04-30T09:51:41.388Z</time></trkpt><trkpt lat="46.5864993" lon="12.5900622"><ele>1434.0</ele><time>2026-04-30T09:51:42.388Z</time></trkpt><trkpt lat="46.5865802" lon="12.5900441"><ele>1436.0</ele><time>2026-04-30T09:51:43.388Z</time></trkpt><trkpt lat="46.5866644" lon="12.5900597"><ele>1436.0</ele><time>2026-04-30T09:51:44.388Z</time></trkpt><trkpt lat="46.5867343" lon="12.5900795"><ele>1436.0</ele><time>2026-04-30T09:51:45.388Z</time></trkpt><trkpt lat="46.5868103" lon="12.590098"><ele>1436.0</ele><time>2026-04-30T09:51:46.388Z</time></trkpt><trkpt lat="46.5868819" lon="12.5901223"><ele>1436.0</ele><time>2026-04-30T09:51:47.389Z</time></trkpt><trkpt lat="46.5870066" lon="12.5901475"><ele>1436.0</ele><time>2026-04-30T09:51:49.388Z</time></trkpt><trkpt lat="46.5870994" lon="12.5900663"><ele>1437.6666666666667</ele><time>2026-04-30T09:51:51.388Z</time></trkpt><trkpt lat="46.5871687" lon="12.5899903"><ele>1439.3333333333335</ele><time>2026-04-30T09:51:52.388Z</time></trkpt><trkpt lat="46.587245" lon="12.5898962"><ele>1441.0</ele><time>2026-04-30T09:51:53.388Z</time></trkpt><trkpt lat="46.5873085" lon="12.5898181"><ele>1442.6666666666667</ele><time>2026-04-30T09:51:54.388Z</time></trkpt><trkpt lat="46.5873748" lon="12.5897359"><ele>1444.3333333333333</ele><time>2026-04-30T09:51:55.388Z</time></trkpt><trkpt lat="46.5874418" lon="12.5896521"><ele>1446.0</ele><time>2026-04-30T09:51:56.388Z</time></trkpt><trkpt lat="46.5874994" lon="12.5895753"><ele>1446.0</ele><time>2026-04-30T09:51:57.388Z</time></trkpt><trkpt lat="46.5875684" lon="12.5895118"><ele>1446.0</ele><time>2026-04-30T09:51:58.388Z</time></trkpt><trkpt lat="46.5876334" lon="12.5894626"><ele>1446.0</ele><time>2026-04-30T09:51:59.388Z</time></trkpt><trkpt lat="46.587705" lon="12.5894256"><ele>1446.0</ele><time>2026-04-30T09:52:00.387Z</time></trkpt><trkpt lat="46.5878278" lon="12.5893781"><ele>1446.0</ele><time>2026-04-30T09:52:02.388Z</time></trkpt><trkpt lat="46.5879239" lon="12.589375"><ele>1447.0</ele><time>2026-04-30T09:52:04.388Z</time></trkpt><trkpt lat="46.5880551" lon="12.5893717"><ele>1448.0</ele><time>2026-04-30T09:52:06.388Z</time></trkpt><trkpt lat="46.5881612" lon="12.5893846"><ele>1449.0</ele><time>2026-04-30T09:52:07.388Z</time></trkpt><trkpt lat="46.5882734" lon="12.5893668"><ele>1450.0</ele><time>2026-04-30T09:52:08.388Z</time></trkpt><trkpt lat="46.5883865" lon="12.5893343"><ele>1450.0</ele><time>2026-04-30T09:52:09.389Z</time></trkpt><trkpt lat="46.5884961" lon="12.5893015"><ele>1450.0</ele><time>2026-04-30T09:52:10.388Z</time></trkpt><trkpt lat="46.588614" lon="12.5892637"><ele>1450.0</ele><time>2026-04-30T09:52:11.388Z</time></trkpt><trkpt lat="46.5887177" lon="12.5892195"><ele>1450.0</ele><time>2026-04-30T09:52:12.388Z</time></trkpt><trkpt lat="46.5888145" lon="12.5891742"><ele>1450.0</ele><time>2026-04-30T09:52:13.388Z</time></trkpt><trkpt lat="46.5889091" lon="12.5891517"><ele>1451.2</ele><time>2026-04-30T09:52:14.388Z</time></trkpt><trkpt lat="46.5890017" lon="12.5891211"><ele>1452.4</ele><time>2026-04-30T09:52:15.388Z</time></trkpt><trkpt lat="46.589094" lon="12.5890621"><ele>1453.6</ele><time>2026-04-30T09:52:16.388Z</time></trkpt><trkpt lat="46.5891807" lon="12.5890102"><ele>1454.8</ele><time>2026-04-30T09:52:17.388Z</time></trkpt><trkpt lat="46.5892791" lon="12.5889587"><ele>1456.0</ele><time>2026-04-30T09:52:18.388Z</time></trkpt><trkpt lat="46.5893801" lon="12.5889008"><ele>1456.0</ele><time>2026-04-30T09:52:19.388Z</time></trkpt><trkpt lat="46.5894742" lon="12.5888358"><ele>1456.0</ele><time>2026-04-30T09:52:20.388Z</time></trkpt><trkpt lat="46.5895764" lon="12.5887707"><ele>1456.0</ele><time>2026-04-30T09:52:21.388Z</time></trkpt><trkpt lat="46.5896799" lon="12.5887328"><ele>1456.0</ele><time>2026-04-30T09:52:22.388Z</time></trkpt><trkpt lat="46.5897689" lon="12.5886534"><ele>1456.0</ele><time>2026-04-30T09:52:23.388Z</time></trkpt><trkpt lat="46.5898541" lon="12.5885982"><ele>1457.6</ele><time>2026-04-30T09:52:24.388Z</time></trkpt><trkpt lat="46.5899463" lon="12.5885554"><ele>1459.1999999999998</ele><time>2026-04-30T09:52:25.388Z</time></trkpt><trkpt lat="46.590041" lon="12.5885113"><ele>1460.8000000000002</ele><time>2026-04-30T09:52:26.388Z</time></trkpt><trkpt lat="46.5901429" lon="12.588486"><ele>1462.4</ele><time>2026-04-30T09:52:27.388Z</time></trkpt><trkpt lat="46.5902243" lon="12.5884541"><ele>1464.0</ele><time>2026-04-30T09:52:28.388Z</time></trkpt><trkpt lat="46.5903201" lon="12.5884417"><ele>1466.2</ele><time>2026-04-30T09:52:29.388Z</time></trkpt><trkpt lat="46.5904072" lon="12.5884351"><ele>1468.4</ele><time>2026-04-30T09:52:30.388Z</time></trkpt><trkpt lat="46.5905064" lon="12.5884244"><ele>1470.6</ele><time>2026-04-30T09:52:31.388Z</time></trkpt><trkpt lat="46.5906035" lon="12.5884269"><ele>1472.8</ele><time>2026-04-30T09:52:32.388Z</time></trkpt><trkpt lat="46.5907022" lon="12.5884384"><ele>1475.0</ele><time>2026-04-30T09:52:33.388Z</time></trkpt><trkpt lat="46.5907783" lon="12.5884498"><ele>1475.0</ele><time>2026-04-30T09:52:34.389Z</time></trkpt><trkpt lat="46.5908473" lon="12.5884606"><ele>1475.0</ele><time>2026-04-30T09:52:35.388Z</time></trkpt><trkpt lat="46.5909152" lon="12.5884785"><ele>1475.0</ele><time>2026-04-30T09:52:36.388Z</time></trkpt><trkpt lat="46.5909829" lon="12.5884886"><ele>1475.0</ele><time>2026-04-30T09:52:37.387Z</time></trkpt><trkpt lat="46.5910581" lon="12.5885052"><ele>1475.0</ele><time>2026-04-30T09:52:38.388Z</time></trkpt><trkpt lat="46.5911285" lon="12.5885465"><ele>1475.0</ele><time>2026-04-30T09:52:39.389Z</time></trkpt><trkpt lat="46.5911914" lon="12.5886025"><ele>1475.0</ele><time>2026-04-30T09:52:40.388Z</time></trkpt><trkpt lat="46.5912505" lon="12.5886776"><ele>1479.1666666666667</ele><time>2026-04-30T09:52:41.388Z</time></trkpt><trkpt lat="46.5913045" lon="12.5887674"><ele>1483.3333333333335</ele><time>2026-04-30T09:52:42.388Z</time></trkpt><trkpt lat="46.5913483" lon="12.5888424"><ele>1487.5</ele><time>2026-04-30T09:52:43.388Z</time></trkpt><trkpt lat="46.5914123" lon="12.5889261"><ele>1491.6666666666667</ele><time>2026-04-30T09:52:45.388Z</time></trkpt><trkpt lat="46.5914972" lon="12.5889556"><ele>1495.8333333333333</ele><time>2026-04-30T09:52:47.388Z</time></trkpt><trkpt lat="46.5915615" lon="12.5889462"><ele>1500.0</ele><time>2026-04-30T09:52:48.388Z</time></trkpt><trkpt lat="46.5916346" lon="12.588913"><ele>1500.0</ele><time>2026-04-30T09:52:49.388Z</time></trkpt><trkpt lat="46.5917132" lon="12.5888676"><ele>1500.0</ele><time>2026-04-30T09:52:50.388Z</time></trkpt><trkpt lat="46.5918018" lon="12.5888178"><ele>1500.0</ele><time>2026-04-30T09:52:51.388Z</time></trkpt><trkpt lat="46.5918901" lon="12.5887752"><ele>1500.0</ele><time>2026-04-30T09:52:52.388Z</time></trkpt><trkpt lat="46.5919922" lon="12.5887471"><ele>1500.0</ele><time>2026-04-30T09:52:53.388Z</time></trkpt><trkpt lat="46.5920736" lon="12.5886988"><ele>1502.8</ele><time>2026-04-30T09:52:54.388Z</time></trkpt><trkpt lat="46.5921595" lon="12.5886438"><ele>1505.6</ele><time>2026-04-30T09:52:55.387Z</time></trkpt><trkpt lat="46.5922614" lon="12.5886058"><ele>1508.4</ele><time>2026-04-30T09:52:56.388Z</time></trkpt><trkpt lat="46.5923684" lon="12.5885836"><ele>1511.2</ele><time>2026-04-30T09:52:57.389Z</time></trkpt><trkpt lat="46.5924797" lon="12.5885788"><ele>1514.0</ele><time>2026-04-30T09:52:58.388Z</time></trkpt><trkpt lat="46.592585" lon="12.5885915"><ele>1514.0</ele><time>2026-04-30T09:52:59.388Z</time></trkpt><trkpt lat="46.5926924" lon="12.5885963"><ele>1514.0</ele><time>2026-04-30T09:53:00.387Z</time></trkpt><trkpt lat="46.5927989" lon="12.5885837"><ele>1514.0</ele><time>2026-04-30T09:53:01.388Z</time></trkpt><trkpt lat="46.5929128" lon="12.5885695"><ele>1514.0</ele><time>2026-04-30T09:53:02.388Z</time></trkpt><trkpt lat="46.5930341" lon="12.5885573"><ele>1518.75</ele><time>2026-04-30T09:53:03.388Z</time></trkpt><trkpt lat="46.5931549" lon="12.5885273"><ele>1523.5</ele><time>2026-04-30T09:53:04.388Z</time></trkpt><trkpt lat="46.5932862" lon="12.5884791"><ele>1528.25</ele><time>2026-04-30T09:53:05.387Z</time></trkpt><trkpt lat="46.5934115" lon="12.5884459"><ele>1533.0</ele><time>2026-04-30T09:53:06.388Z</time></trkpt><trkpt lat="46.5935362" lon="12.5884003"><ele>1533.0</ele><time>2026-04-30T09:53:07.388Z</time></trkpt><trkpt lat="46.5936546" lon="12.5883725"><ele>1533.0</ele><time>2026-04-30T09:53:08.388Z</time></trkpt><trkpt lat="46.5937406" lon="12.5883801"><ele>1533.0</ele><time>2026-04-30T09:53:09.388Z</time></trkpt><trkpt lat="46.5938174" lon="12.5883615"><ele>1533.0</ele><time>2026-04-30T09:53:10.388Z</time></trkpt><trkpt lat="46.5939116" lon="12.5883586"><ele>1533.0</ele><time>2026-04-30T09:53:11.387Z</time></trkpt><trkpt lat="46.5939974" lon="12.5883486"><ele>1536.4</ele><time>2026-04-30T09:53:12.388Z</time></trkpt><trkpt lat="46.5940801" lon="12.5883477"><ele>1539.8000000000002</ele><time>2026-04-30T09:53:13.388Z</time></trkpt><trkpt lat="46.594153" lon="12.5883336"><ele>1543.2</ele><time>2026-04-30T09:53:14.388Z</time></trkpt><trkpt lat="46.5942652" lon="12.5883397"><ele>1546.6</ele><time>2026-04-30T09:53:16.388Z</time></trkpt><trkpt lat="46.5943988" lon="12.5883492"><ele>1550.0</ele><time>2026-04-30T09:53:18.388Z</time></trkpt><trkpt lat="46.5944749" lon="12.5883419"><ele>1551.0</ele><time>2026-04-30T09:53:19.388Z</time></trkpt><trkpt lat="46.594559" lon="12.588317"><ele>1552.0</ele><time>2026-04-30T09:53:20.388Z</time></trkpt><trkpt lat="46.5946474" lon="12.5882881"><ele>1553.0</ele><time>2026-04-30T09:53:21.388Z</time></trkpt><trkpt lat="46.5947444" lon="12.588258"><ele>1554.0</ele><time>2026-04-30T09:53:22.388Z</time></trkpt><trkpt lat="46.5948486" lon="12.5882251"><ele>1555.0</ele><time>2026-04-30T09:53:23.388Z</time></trkpt><trkpt lat="46.5949546" lon="12.588213"><ele>1555.0</ele><time>2026-04-30T09:53:24.388Z</time></trkpt><trkpt lat="46.5950708" lon="12.5882211"><ele>1555.0</ele><time>2026-04-30T09:53:25.388Z</time></trkpt><trkpt lat="46.5951942" lon="12.5882407"><ele>1555.0</ele><time>2026-04-30T09:53:26.388Z</time></trkpt><trkpt lat="46.5953185" lon="12.5882624"><ele>1555.0</ele><time>2026-04-30T09:53:27.388Z</time></trkpt><trkpt lat="46.5954496" lon="12.5882904"><ele>1555.0</ele><time>2026-04-30T09:53:28.389Z</time></trkpt><trkpt lat="46.5955754" lon="12.5883255"><ele>1555.0</ele><time>2026-04-30T09:53:29.388Z</time></trkpt><trkpt lat="46.5956952" lon="12.5883477"><ele>1555.0</ele><time>2026-04-30T09:53:30.388Z</time></trkpt><trkpt lat="46.5958203" lon="12.5883543"><ele>1555.0</ele><time>2026-04-30T09:53:31.388Z</time></trkpt><trkpt lat="46.5959518" lon="12.5883539"><ele>1555.0</ele><time>2026-04-30T09:53:32.388Z</time></trkpt><trkpt lat="46.5960919" lon="12.5883521"><ele>1555.0</ele><time>2026-04-30T09:53:33.388Z</time></trkpt><trkpt lat="46.5962349" lon="12.5883444"><ele>1555.0</ele><time>2026-04-30T09:53:34.388Z</time></trkpt><trkpt lat="46.5963674" lon="12.5883517"><ele>1555.0</ele><time>2026-04-30T09:53:35.388Z</time></trkpt><trkpt lat="46.5964927" lon="12.588363"><ele>1555.5</ele><time>2026-04-30T09:53:36.388Z</time></trkpt><trkpt lat="46.5966115" lon="12.5883597"><ele>1556.0</ele><time>2026-04-30T09:53:37.388Z</time></trkpt><trkpt lat="46.5967309" lon="12.5883525"><ele>1556.5</ele><time>2026-04-30T09:53:38.388Z</time></trkpt><trkpt lat="46.5968502" lon="12.5883362"><ele>1557.0</ele><time>2026-04-30T09:53:39.388Z</time></trkpt><trkpt lat="46.5969623" lon="12.5883001"><ele>1557.75</ele><time>2026-04-30T09:53:40.388Z</time></trkpt><trkpt lat="46.5970754" lon="12.5882639"><ele>1558.5</ele><time>2026-04-30T09:53:41.389Z</time></trkpt><trkpt lat="46.5971965" lon="12.5882461"><ele>1559.25</ele><time>2026-04-30T09:53:42.388Z</time></trkpt><trkpt lat="46.5973183" lon="12.5882475"><ele>1560.0</ele><time>2026-04-30T09:53:43.388Z</time></trkpt><trkpt lat="46.5974383" lon="12.5882605"><ele>1560.0</ele><time>2026-04-30T09:53:44.388Z</time></trkpt><trkpt lat="46.5975531" lon="12.5882729"><ele>1560.0</ele><time>2026-04-30T09:53:45.388Z</time></trkpt><trkpt lat="46.5976626" lon="12.5882942"><ele>1560.0</ele><time>2026-04-30T09:53:46.388Z</time></trkpt><trkpt lat="46.5977736" lon="12.5883313"><ele>1560.0</ele><time>2026-04-30T09:53:47.388Z</time></trkpt><trkpt lat="46.5978844" lon="12.5883806"><ele>1557.25</ele><time>2026-04-30T09:53:48.388Z</time></trkpt><trkpt lat="46.5979951" lon="12.5884323"><ele>1554.5</ele><time>2026-04-30T09:53:49.388Z</time></trkpt><trkpt lat="46.5981063" lon="12.5884936"><ele>1551.75</ele><time>2026-04-30T09:53:50.389Z</time></trkpt><trkpt lat="46.5982193" lon="12.5885604"><ele>1549.0</ele><time>2026-04-30T09:53:51.389Z</time></trkpt><trkpt lat="46.5983259" lon="12.5886415"><ele>1550.5</ele><time>2026-04-30T09:53:52.388Z</time></trkpt><trkpt lat="46.5984193" lon="12.588737"><ele>1552.0</ele><time>2026-04-30T09:53:53.388Z</time></trkpt><trkpt lat="46.5985014" lon="12.5888432"><ele>1553.5</ele><time>2026-04-30T09:53:54.388Z</time></trkpt><trkpt lat="46.5985841" lon="12.5889562"><ele>1555.0</ele><time>2026-04-30T09:53:55.388Z</time></trkpt><trkpt lat="46.5986419" lon="12.5890995"><ele>1552.8</ele><time>2026-04-30T09:53:56.388Z</time></trkpt><trkpt lat="46.598691" lon="12.5892378"><ele>1550.6</ele><time>2026-04-30T09:53:57.388Z</time></trkpt><trkpt lat="46.5987332" lon="12.5893797"><ele>1548.4</ele><time>2026-04-30T09:53:58.388Z</time></trkpt><trkpt lat="46.5987707" lon="12.5895069"><ele>1546.2</ele><time>2026-04-30T09:53:59.388Z</time></trkpt><trkpt lat="46.5988057" lon="12.5896208"><ele>1544.0</ele><time>2026-04-30T09:54:00.389Z</time></trkpt><trkpt lat="46.5988359" lon="12.5897059"><ele>1543.9999999999998</ele><time>2026-04-30T09:54:01.388Z</time></trkpt><trkpt lat="46.5989229" lon="12.5898068"><ele>1544.0</ele><time>2026-04-30T09:54:03.388Z</time></trkpt><trkpt lat="46.5989844" lon="12.5898307"><ele>1544.0</ele><time>2026-04-30T09:54:04.388Z</time></trkpt><trkpt lat="46.5990493" lon="12.5898811"><ele>1544.0</ele><time>2026-04-30T09:54:05.388Z</time></trkpt><trkpt lat="46.5991151" lon="12.5899825"><ele>1543.9999999999998</ele><time>2026-04-30T09:54:06.388Z</time></trkpt><trkpt lat="46.5991716" lon="12.5900836"><ele>1544.0</ele><time>2026-04-30T09:54:07.388Z</time></trkpt><trkpt lat="46.5992043" lon="12.5902262"><ele>1544.2</ele><time>2026-04-30T09:54:08.388Z</time></trkpt><trkpt lat="46.5992304" lon="12.5903761"><ele>1544.4</ele><time>2026-04-30T09:54:09.388Z</time></trkpt><trkpt lat="46.5992477" lon="12.5905273"><ele>1544.6</ele><time>2026-04-30T09:54:10.388Z</time></trkpt><trkpt lat="46.5992728" lon="12.5906457"><ele>1544.8</ele><time>2026-04-30T09:54:11.388Z</time></trkpt><trkpt lat="46.5993053" lon="12.5907484"><ele>1545.0</ele><time>2026-04-30T09:54:12.388Z</time></trkpt><trkpt lat="46.5993654" lon="12.5908429"><ele>1545.0</ele><time>2026-04-30T09:54:13.388Z</time></trkpt><trkpt lat="46.5994449" lon="12.5909361"><ele>1545.0</ele><time>2026-04-30T09:54:14.388Z</time></trkpt><trkpt lat="46.5995354" lon="12.5910349"><ele>1545.0</ele><time>2026-04-30T09:54:15.388Z</time></trkpt><trkpt lat="46.59962" lon="12.5911578"><ele>1545.0</ele><time>2026-04-30T09:54:16.388Z</time></trkpt><trkpt lat="46.5996861" lon="12.5913126"><ele>1548.5</ele><time>2026-04-30T09:54:17.388Z</time></trkpt><trkpt lat="46.5997327" lon="12.591478"><ele>1552.0</ele><time>2026-04-30T09:54:18.387Z</time></trkpt><trkpt lat="46.5997583" lon="12.5916459"><ele>1555.5</ele><time>2026-04-30T09:54:19.388Z</time></trkpt><trkpt lat="46.5997694" lon="12.5918262"><ele>1559.0</ele><time>2026-04-30T09:54:20.388Z</time></trkpt><trkpt lat="46.5997946" lon="12.5919989"><ele>1558.5</ele><time>2026-04-30T09:54:21.388Z</time></trkpt><trkpt lat="46.5998225" lon="12.5921755"><ele>1558.0</ele><time>2026-04-30T09:54:22.388Z</time></trkpt><trkpt lat="46.5998472" lon="12.5923405"><ele>1557.5</ele><time>2026-04-30T09:54:23.388Z</time></trkpt><trkpt lat="46.5998699" lon="12.5924828"><ele>1557.0</ele><time>2026-04-30T09:54:24.388Z</time></trkpt><trkpt lat="46.5999147" lon="12.5926291"><ele>1557.0</ele><time>2026-04-30T09:54:25.388Z</time></trkpt><trkpt lat="46.5999416" lon="12.5927764"><ele>1557.0</ele><time>2026-04-30T09:54:26.388Z</time></trkpt><trkpt lat="46.599937" lon="12.5929302"><ele>1557.0</ele><time>2026-04-30T09:54:27.388Z</time></trkpt><trkpt lat="46.5999202" lon="12.5931078"><ele>1557.0</ele><time>2026-04-30T09:54:28.388Z</time></trkpt><trkpt lat="46.5999102" lon="12.593306"><ele>1558.0</ele><time>2026-04-30T09:54:29.388Z</time></trkpt><trkpt lat="46.5998926" lon="12.5935159"><ele>1559.0</ele><time>2026-04-30T09:54:30.387Z</time></trkpt><trkpt lat="46.5998711" lon="12.593701"><ele>1560.0</ele><time>2026-04-30T09:54:31.389Z</time></trkpt><trkpt lat="46.5998438" lon="12.5938632"><ele>1561.0</ele><time>2026-04-30T09:54:32.389Z</time></trkpt><trkpt lat="46.5998289" lon="12.594011"><ele>1562.5</ele><time>2026-04-30T09:54:33.39Z</time></trkpt><trkpt lat="46.5998235" lon="12.594178"><ele>1564.0</ele><time>2026-04-30T09:54:34.388Z</time></trkpt><trkpt lat="46.5998353" lon="12.5943537"><ele>1565.5</ele><time>2026-04-30T09:54:35.389Z</time></trkpt><trkpt lat="46.5998326" lon="12.5945143"><ele>1567.0</ele><time>2026-04-30T09:54:36.389Z</time></trkpt><trkpt lat="46.599807" lon="12.594664"><ele>1568.3999999999999</ele><time>2026-04-30T09:54:37.389Z</time></trkpt><trkpt lat="46.5997484" lon="12.5948116"><ele>1569.8</ele><time>2026-04-30T09:54:38.389Z</time></trkpt><trkpt lat="46.5996904" lon="12.5949563"><ele>1571.2</ele><time>2026-04-30T09:54:39.389Z</time></trkpt><trkpt lat="46.599605" lon="12.5950465"><ele>1572.6</ele><time>2026-04-30T09:54:40.389Z</time></trkpt><trkpt lat="46.5995345" lon="12.5951445"><ele>1574.0</ele><time>2026-04-30T09:54:41.388Z</time></trkpt><trkpt lat="46.59947" lon="12.595273"><ele>1571.8000000000002</ele><time>2026-04-30T09:54:42.389Z</time></trkpt><trkpt lat="46.5993961" lon="12.5954025"><ele>1569.6000000000001</ele><time>2026-04-30T09:54:43.389Z</time></trkpt><trkpt lat="46.5993217" lon="12.5954939"><ele>1567.4</ele><time>2026-04-30T09:54:44.389Z</time></trkpt><trkpt lat="46.5992438" lon="12.5955973"><ele>1565.2</ele><time>2026-04-30T09:54:45.389Z</time></trkpt><trkpt lat="46.5991898" lon="12.5957408"><ele>1563.0</ele><time>2026-04-30T09:54:46.389Z</time></trkpt><trkpt lat="46.599143" lon="12.5958743"><ele>1563.0</ele><time>2026-04-30T09:54:47.389Z</time></trkpt><trkpt lat="46.5991121" lon="12.5960184"><ele>1563.0</ele><time>2026-04-30T09:54:48.389Z</time></trkpt><trkpt lat="46.5990906" lon="12.5961714"><ele>1563.0</ele><time>2026-04-30T09:54:49.389Z</time></trkpt><trkpt lat="46.5990722" lon="12.5963347"><ele>1563.0</ele><time>2026-04-30T09:54:50.389Z</time></trkpt><trkpt lat="46.5990363" lon="12.5964917"><ele>1563.0</ele><time>2026-04-30T09:54:51.389Z</time></trkpt><trkpt lat="46.5990018" lon="12.5966349"><ele>1561.0</ele><time>2026-04-30T09:54:52.389Z</time></trkpt><trkpt lat="46.5989497" lon="12.5967512"><ele>1559.0</ele><time>2026-04-30T09:54:53.389Z</time></trkpt><trkpt lat="46.5988761" lon="12.5968545"><ele>1557.0</ele><time>2026-04-30T09:54:54.389Z</time></trkpt><trkpt lat="46.5987825" lon="12.5969357"><ele>1555.0</ele><time>2026-04-30T09:54:55.389Z</time></trkpt><trkpt lat="46.5986881" lon="12.5969906"><ele>1553.0</ele><time>2026-04-30T09:54:56.389Z</time></trkpt><trkpt lat="46.5986205" lon="12.597039"><ele>1553.0</ele><time>2026-04-30T09:54:57.389Z</time></trkpt><trkpt lat="46.5985646" lon="12.5970833"><ele>1553.0</ele><time>2026-04-30T09:54:58.389Z</time></trkpt><trkpt lat="46.5985455" lon="12.5972025"><ele>1553.0</ele><time>2026-04-30T09:55:00.389Z</time></trkpt><trkpt lat="46.5985862" lon="12.5973559"><ele>1553.0</ele><time>2026-04-30T09:55:02.389Z</time></trkpt><trkpt lat="46.5986653" lon="12.5974503"><ele>1553.0</ele><time>2026-04-30T09:55:03.389Z</time></trkpt><trkpt lat="46.5987145" lon="12.5975794"><ele>1560.4</ele><time>2026-04-30T09:55:04.39Z</time></trkpt><trkpt lat="46.5987751" lon="12.5977183"><ele>1567.8000000000002</ele><time>2026-04-30T09:55:05.39Z</time></trkpt><trkpt lat="46.5988407" lon="12.5978759"><ele>1575.2</ele><time>2026-04-30T09:55:06.389Z</time></trkpt><trkpt lat="46.5988805" lon="12.5980189"><ele>1582.6</ele><time>2026-04-30T09:55:07.389Z</time></trkpt><trkpt lat="46.5989026" lon="12.5981575"><ele>1590.0</ele><time>2026-04-30T09:55:08.388Z</time></trkpt><trkpt lat="46.5989424" lon="12.5982968"><ele>1590.0</ele><time>2026-04-30T09:55:09.389Z</time></trkpt><trkpt lat="46.5989961" lon="12.5984271"><ele>1590.0</ele><time>2026-04-30T09:55:10.389Z</time></trkpt><trkpt lat="46.5990653" lon="12.5985495"><ele>1590.0</ele><time>2026-04-30T09:55:11.389Z</time></trkpt><trkpt lat="46.5991322" lon="12.5986903"><ele>1590.0</ele><time>2026-04-30T09:55:12.389Z</time></trkpt><trkpt lat="46.5991944" lon="12.5988164"><ele>1590.0</ele><time>2026-04-30T09:55:13.389Z</time></trkpt><trkpt lat="46.5992464" lon="12.5989466"><ele>1591.5</ele><time>2026-04-30T09:55:14.388Z</time></trkpt><trkpt lat="46.5993598" lon="12.5991945"><ele>1593.0</ele><time>2026-04-30T09:55:16.389Z</time></trkpt><trkpt lat="46.599434" lon="12.599319"><ele>1594.5</ele><time>2026-04-30T09:55:17.39Z</time></trkpt><trkpt lat="46.599503" lon="12.5994282"><ele>1596.0</ele><time>2026-04-30T09:55:18.389Z</time></trkpt><trkpt lat="46.5995679" lon="12.5995458"><ele>1596.0</ele><time>2026-04-30T09:55:19.389Z</time></trkpt><trkpt lat="46.5996193" lon="12.5996707"><ele>1596.0</ele><time>2026-04-30T09:55:20.389Z</time></trkpt><trkpt lat="46.59965" lon="12.599793"><ele>1596.0</ele><time>2026-04-30T09:55:21.389Z</time></trkpt><trkpt lat="46.5996865" lon="12.5998916"><ele>1596.0</ele><time>2026-04-30T09:55:22.389Z</time></trkpt><trkpt lat="46.5997482" lon="12.5999833"><ele>1596.0</ele><time>2026-04-30T09:55:23.389Z</time></trkpt><trkpt lat="46.5998075" lon="12.600063"><ele>1596.0</ele><time>2026-04-30T09:55:24.389Z</time></trkpt><trkpt lat="46.5998435" lon="12.6001692"><ele>1596.0</ele><time>2026-04-30T09:55:25.389Z</time></trkpt><trkpt lat="46.5998386" lon="12.6002821"><ele>1596.0</ele><time>2026-04-30T09:55:26.389Z</time></trkpt><trkpt lat="46.5998257" lon="12.6003878"><ele>1596.0</ele><time>2026-04-30T09:55:27.389Z</time></trkpt><trkpt lat="46.5997786" lon="12.6005475"><ele>1596.0</ele><time>2026-04-30T09:55:29.389Z</time></trkpt><trkpt lat="46.5997204" lon="12.6005928"><ele>1596.0</ele><time>2026-04-30T09:55:30.389Z</time></trkpt><trkpt lat="46.5996839" lon="12.6007363"><ele>1596.0</ele><time>2026-04-30T09:55:32.389Z</time></trkpt><trkpt lat="46.5997558" lon="12.6007962"><ele>1592.3333333333333</ele><time>2026-04-30T09:55:33.389Z</time></trkpt><trkpt lat="46.5997956" lon="12.6008725"><ele>1588.6666666666665</ele><time>2026-04-30T09:55:34.389Z</time></trkpt><trkpt lat="46.5998657" lon="12.6009345"><ele>1585.0</ele><time>2026-04-30T09:55:35.389Z</time></trkpt><trkpt lat="46.5998953" lon="12.6010253"><ele>1581.3333333333333</ele><time>2026-04-30T09:55:36.389Z</time></trkpt><trkpt lat="46.5999043" lon="12.6011279"><ele>1577.6666666666665</ele><time>2026-04-30T09:55:37.389Z</time></trkpt><trkpt lat="46.5999049" lon="12.6012435"><ele>1574.0</ele><time>2026-04-30T09:55:38.389Z</time></trkpt><trkpt lat="46.5999012" lon="12.6013675"><ele>1571.8000000000002</ele><time>2026-04-30T09:55:39.389Z</time></trkpt><trkpt lat="46.599899" lon="12.6015039"><ele>1569.6000000000001</ele><time>2026-04-30T09:55:40.389Z</time></trkpt><trkpt lat="46.599888" lon="12.6016459"><ele>1567.4</ele><time>2026-04-30T09:55:41.389Z</time></trkpt><trkpt lat="46.5998624" lon="12.6017916"><ele>1565.2</ele><time>2026-04-30T09:55:42.39Z</time></trkpt><trkpt lat="46.5998389" lon="12.6019465"><ele>1563.0</ele><time>2026-04-30T09:55:43.389Z</time></trkpt><trkpt lat="46.5998248" lon="12.6021022"><ele>1562.2</ele><time>2026-04-30T09:55:44.389Z</time></trkpt><trkpt lat="46.5998113" lon="12.6022591"><ele>1561.4</ele><time>2026-04-30T09:55:45.389Z</time></trkpt><trkpt lat="46.5997997" lon="12.6024139"><ele>1560.6000000000001</ele><time>2026-04-30T09:55:46.389Z</time></trkpt><trkpt lat="46.5997858" lon="12.6025582"><ele>1559.8000000000002</ele><time>2026-04-30T09:55:47.389Z</time></trkpt><trkpt lat="46.5997697" lon="12.6026837"><ele>1559.0</ele><time>2026-04-30T09:55:48.389Z</time></trkpt><trkpt lat="46.599748" lon="12.6028066"><ele>1558.4</ele><time>2026-04-30T09:55:49.389Z</time></trkpt><trkpt lat="46.5997201" lon="12.6029362"><ele>1557.8000000000002</ele><time>2026-04-30T09:55:50.389Z</time></trkpt><trkpt lat="46.5996363" lon="12.603179"><ele>1557.1999999999998</ele><time>2026-04-30T09:55:52.389Z</time></trkpt><trkpt lat="46.5995858" lon="12.6032677"><ele>1556.6</ele><time>2026-04-30T09:55:53.389Z</time></trkpt><trkpt lat="46.5995295" lon="12.6033244"><ele>1556.0</ele><time>2026-04-30T09:55:54.389Z</time></trkpt><trkpt lat="46.5994644" lon="12.6033519"><ele>1559.2857142857144</ele><time>2026-04-30T09:55:55.389Z</time></trkpt><trkpt lat="46.5993895" lon="12.6033631"><ele>1562.5714285714284</ele><time>2026-04-30T09:55:57.389Z</time></trkpt><trkpt lat="46.5993286" lon="12.6033893"><ele>1565.857142857143</ele><time>2026-04-30T09:56:29.389Z</time></trkpt><trkpt lat="46.5992441" lon="12.6034047"><ele>1569.1428571428573</ele><time>2026-04-30T09:56:31.389Z</time></trkpt><trkpt lat="46.599175" lon="12.6034373"><ele>1572.4285714285716</ele><time>2026-04-30T09:56:33.389Z</time></trkpt><trkpt lat="46.5991209" lon="12.6034939"><ele>1575.7142857142858</ele><time>2026-04-30T09:56:35.389Z</time></trkpt><trkpt lat="46.5990653" lon="12.6035651"><ele>1579.0</ele><time>2026-04-30T09:56:37.39Z</time></trkpt><trkpt lat="46.5990106" lon="12.6036199"><ele>1582.8333333333335</ele><time>2026-04-30T09:56:39.389Z</time></trkpt><trkpt lat="46.5990608" lon="12.6037388"><ele>1586.6666666666667</ele><time>2026-04-30T09:56:42.388Z</time></trkpt><trkpt lat="46.5991208" lon="12.6038178"><ele>1590.5</ele><time>2026-04-30T09:56:44.39Z</time></trkpt><trkpt lat="46.5991654" lon="12.6039161"><ele>1594.3333333333335</ele><time>2026-04-30T09:56:46.389Z</time></trkpt><trkpt lat="46.5991167" lon="12.6040042"><ele>1598.1666666666667</ele><time>2026-04-30T09:56:50.389Z</time></trkpt><trkpt lat="46.5990465" lon="12.6040098"><ele>1602.0</ele><time>2026-04-30T09:56:52.389Z</time></trkpt><trkpt lat="46.5989515" lon="12.6040338"><ele>1602.0</ele><time>2026-04-30T09:56:55.389Z</time></trkpt><trkpt lat="46.5988738" lon="12.6040981"><ele>1602.0</ele><time>2026-04-30T09:56:58.389Z</time></trkpt><trkpt lat="46.5988211" lon="12.6041648"><ele>1602.0</ele><time>2026-04-30T09:57:00.389Z</time></trkpt><trkpt lat="46.5987552" lon="12.6042427"><ele>1602.0</ele><time>2026-04-30T09:57:02.389Z</time></trkpt><trkpt lat="46.5986963" lon="12.6043157"><ele>1602.0</ele><time>2026-04-30T09:57:04.39Z</time></trkpt><trkpt lat="46.5986365" lon="12.6044004"><ele>1602.0</ele><time>2026-04-30T09:57:06.389Z</time></trkpt><trkpt lat="46.5986183" lon="12.60449"><ele>1613.3999999999999</ele><time>2026-04-30T09:57:08.389Z</time></trkpt><trkpt lat="46.5986596" lon="12.6045742"><ele>1624.8</ele><time>2026-04-30T09:57:12.388Z</time></trkpt><trkpt lat="46.5985907" lon="12.6046641"><ele>1636.2</ele><time>2026-04-30T09:57:17.389Z</time></trkpt><trkpt lat="46.5984961" lon="12.604745"><ele>1647.6</ele><time>2026-04-30T09:57:19.389Z</time></trkpt><trkpt lat="46.5984123" lon="12.6048445"><ele>1659.0</ele><time>2026-04-30T09:57:21.389Z</time></trkpt><trkpt lat="46.5983156" lon="12.6048933"><ele>1659.0</ele><time>2026-04-30T09:57:23.39Z</time></trkpt><trkpt lat="46.5982097" lon="12.6049322"><ele>1659.0</ele><time>2026-04-30T09:57:25.389Z</time></trkpt><trkpt lat="46.5980963" lon="12.6049789"><ele>1659.0</ele><time>2026-04-30T09:57:27.389Z</time></trkpt><trkpt lat="46.5980174" lon="12.6050278"><ele>1659.0</ele><time>2026-04-30T09:57:29.389Z</time></trkpt><trkpt lat="46.5979747" lon="12.6051107"><ele>1659.0</ele><time>2026-04-30T09:57:33.389Z</time></trkpt><trkpt lat="46.5980384" lon="12.6051782"><ele>1659.0</ele><time>2026-04-30T09:57:36.388Z</time></trkpt><trkpt lat="46.5980234" lon="12.605277"><ele>1659.0</ele><time>2026-04-30T09:57:40.389Z</time></trkpt><trkpt lat="46.5979584" lon="12.6053101"><ele>1659.0</ele><time>2026-04-30T09:57:42.389Z</time></trkpt><trkpt lat="46.5978655" lon="12.6052959"><ele>1659.0</ele><time>2026-04-30T10:02:12.39Z</time></trkpt><trkpt lat="46.5978004" lon="12.6052806"><ele>1659.0</ele><time>2026-04-30T10:03:47.39Z</time></trkpt><trkpt lat="46.5977364" lon="12.6052843"><ele>1659.0</ele><time>2026-04-30T10:03:50.39Z</time></trkpt><trkpt lat="46.5976727" lon="12.6052804"><ele>1659.0</ele><time>2026-04-30T10:04:04.39Z</time></trkpt><trkpt lat="46.5976008" lon="12.6052812"><ele>1667.1666666666667</ele><time>2026-04-30T10:04:13.394Z</time></trkpt><trkpt lat="46.5975342" lon="12.6053452"><ele>1675.3333333333335</ele><time>2026-04-30T10:04:16.39Z</time></trkpt><trkpt lat="46.5975181" lon="12.6054485"><ele>1683.5</ele><time>2026-04-30T10:04:18.344Z</time></trkpt><trkpt lat="46.5975172" lon="12.6055586"><ele>1691.6666666666667</ele><time>2026-04-30T10:04:20.284Z</time></trkpt><trkpt lat="46.5974894" lon="12.6056679"><ele>1699.8333333333335</ele><time>2026-04-30T10:04:22.393Z</time></trkpt><trkpt lat="46.5975283" lon="12.6057544"><ele>1708.0</ele><time>2026-04-30T10:04:29.388Z</time></trkpt><trkpt lat="46.5975972" lon="12.605793"><ele>1708.0000000000002</ele><time>2026-04-30T10:04:33.543Z</time></trkpt><trkpt lat="46.5976835" lon="12.6056356"><ele>1708.0</ele><time>2026-04-30T10:04:34.718Z</time></trkpt><trkpt lat="46.5976638" lon="12.6057402"><ele>1708.0</ele><time>2026-04-30T10:05:21.39Z</time></trkpt><trkpt lat="46.5976728" lon="12.6058454"><ele>1708.0</ele><time>2026-04-30T10:05:24.399Z</time></trkpt><trkpt lat="46.5976691" lon="12.6057273"><ele>1708.0000000000002</ele><time>2026-04-30T10:05:45.394Z</time></trkpt><trkpt lat="46.5977035" lon="12.6056286"><ele>1708.0</ele><time>2026-04-30T10:05:48.39Z</time></trkpt><trkpt lat="46.5976598" lon="12.6057166"><ele>1708.0</ele><time>2026-04-30T10:06:25.367Z</time></trkpt><trkpt lat="46.5976746" lon="12.6058239"><ele>1708.0</ele><time>2026-04-30T10:06:28.39Z</time></trkpt><trkpt lat="46.597705" lon="12.6057061"><ele>1708.0</ele><time>2026-04-30T10:06:48.387Z</time></trkpt><trkpt lat="46.5976456" lon="12.6057571"><ele>1708.0</ele><time>2026-04-30T10:08:17.39Z</time></trkpt><trkpt lat="46.5976179" lon="12.6058455"><ele>1708.0</ele><time>2026-04-30T10:08:20.39Z</time></trkpt><trkpt lat="46.5976619" lon="12.6057598"><ele>1708.0</ele><time>2026-04-30T10:11:21.391Z</time></trkpt><trkpt lat="46.5976909" lon="12.605672"><ele>1708.0</ele><time>2026-04-30T10:11:24.391Z</time></trkpt><trkpt lat="46.5976412" lon="12.6057864"><ele>1708.0</ele><time>2026-04-30T10:12:21.391Z</time></trkpt><trkpt lat="46.5976372" lon="12.6058859"><ele>1708.0</ele><time>2026-04-30T10:12:24.391Z</time></trkpt><trkpt lat="46.5976788" lon="12.6058057"><ele>1708.0</ele><time>2026-04-30T10:13:05.391Z</time></trkpt><trkpt lat="46.5976555" lon="12.6058944"><ele>1708.0</ele><time>2026-04-30T10:15:00.391Z</time></trkpt><trkpt lat="46.5975999" lon="12.6059379"><ele>1708.0</ele><time>2026-04-30T10:17:15.392Z</time></trkpt><trkpt lat="46.5975388" lon="12.6059617"><ele>1708.0</ele><time>2026-04-30T10:22:43.392Z</time></trkpt><trkpt lat="46.5975825" lon="12.6058955"><ele>1708.0</ele><time>2026-04-30T10:27:12.393Z</time></trkpt><trkpt lat="46.5975324" lon="12.6059521"><ele>1708.0</ele><time>2026-04-30T10:31:14.393Z</time></trkpt><trkpt lat="46.5975533" lon="12.6058587"><ele>1708.0</ele><time>2026-04-30T10:34:04.393Z</time></trkpt><trkpt lat="46.5975753" lon="12.6059451"><ele>1708.0</ele><time>2026-04-30T10:35:10.393Z</time></trkpt><trkpt lat="46.5975886" lon="12.6058529"><ele>1708.0</ele><time>2026-04-30T10:37:14.394Z</time></trkpt><trkpt lat="46.5976378" lon="12.6057946"><ele>1708.0</ele><time>2026-04-30T10:37:47.394Z</time></trkpt><trkpt lat="46.5976789" lon="12.6057209"><ele>1708.0</ele><time>2026-04-30T10:37:51.394Z</time></trkpt><trkpt lat="46.5977145" lon="12.60563"><ele>1708.0</ele><time>2026-04-30T10:37:55.394Z</time></trkpt><trkpt lat="46.5976819" lon="12.6057147"><ele>1708.0000000000002</ele><time>2026-04-30T10:38:58.394Z</time></trkpt><trkpt lat="46.5976306" lon="12.6058074"><ele>1708.0</ele><time>2026-04-30T10:39:01.394Z</time></trkpt><trkpt lat="46.5976464" lon="12.6057125"><ele>1708.0</ele><time>2026-04-30T10:42:07.394Z</time></trkpt><trkpt lat="46.5976765" lon="12.6056245"><ele>1708.0</ele><time>2026-04-30T10:43:03.394Z</time></trkpt><trkpt lat="46.5976286" lon="12.6057928"><ele>1708.0000000000002</ele><time>2026-04-30T10:43:08.395Z</time></trkpt><trkpt lat="46.5976861" lon="12.6058305"><ele>1708.0</ele><time>2026-04-30T10:43:14.395Z</time></trkpt><trkpt lat="46.5976002" lon="12.6058075"><ele>1708.0000000000002</ele><time>2026-04-30T10:45:12.394Z</time></trkpt><trkpt lat="46.5976624" lon="12.6057311"><ele>1708.0</ele><time>2026-04-30T10:45:37.394Z</time></trkpt><trkpt lat="46.5976457" lon="12.6058581"><ele>1708.0</ele><time>2026-04-30T10:45:51.394Z</time></trkpt><trkpt lat="46.5975841" lon="12.6058829"><ele>1708.0</ele><time>2026-04-30T10:46:02.394Z</time></trkpt><trkpt lat="46.5976256" lon="12.6057771"><ele>1708.0000000000002</ele><time>2026-04-30T10:48:56.395Z</time></trkpt><trkpt lat="46.597668" lon="12.6056862"><ele>1708.0</ele><time>2026-04-30T10:49:02.396Z</time></trkpt><trkpt lat="46.597716" lon="12.6056228"><ele>1708.0000000000002</ele><time>2026-04-30T10:49:06.406Z</time></trkpt><trkpt lat="46.597652" lon="12.6055746"><ele>1708.0</ele><time>2026-04-30T10:49:21.395Z</time></trkpt><trkpt lat="46.5975867" lon="12.6055849"><ele>1708.0</ele><time>2026-04-30T10:49:24.395Z</time></trkpt><trkpt lat="46.5975171" lon="12.6055424"><ele>1708.0</ele><time>2026-04-30T10:49:28.395Z</time></trkpt><trkpt lat="46.5975453" lon="12.6054544"><ele>1708.0000000000002</ele><time>2026-04-30T10:49:33.395Z</time></trkpt><trkpt lat="46.5976067" lon="12.6053336"><ele>1708.0</ele><time>2026-04-30T10:49:38.395Z</time></trkpt><trkpt lat="46.5976819" lon="12.605304"><ele>1702.142857142857</ele><time>2026-04-30T10:49:42.395Z</time></trkpt><trkpt lat="46.5977566" lon="12.6053191"><ele>1696.2857142857142</ele><time>2026-04-30T10:49:46.394Z</time></trkpt><trkpt lat="46.5978287" lon="12.6052915"><ele>1690.4285714285716</ele><time>2026-04-30T10:49:58.395Z</time></trkpt><trkpt lat="46.5979179" lon="12.6052472"><ele>1684.5714285714284</ele><time>2026-04-30T10:51:29.395Z</time></trkpt><trkpt lat="46.5979848" lon="12.6052124"><ele>1678.7142857142858</ele><time>2026-04-30T10:51:36.395Z</time></trkpt><trkpt lat="46.5980302" lon="12.6051443"><ele>1672.857142857143</ele><time>2026-04-30T10:51:42.394Z</time></trkpt><trkpt lat="46.5979994" lon="12.6050551"><ele>1667.0</ele><time>2026-04-30T10:51:49.395Z</time></trkpt><trkpt lat="46.5980594" lon="12.60498"><ele>1665.6666666666665</ele><time>2026-04-30T10:52:06.395Z</time></trkpt><trkpt lat="46.5981376" lon="12.6049493"><ele>1664.3333333333333</ele><time>2026-04-30T10:52:09.395Z</time></trkpt><trkpt lat="46.5982142" lon="12.6049073"><ele>1663.0</ele><time>2026-04-30T10:52:12.395Z</time></trkpt><trkpt lat="46.5982856" lon="12.6048334"><ele>1661.6666666666665</ele><time>2026-04-30T10:52:15.395Z</time></trkpt><trkpt lat="46.598355" lon="12.6047859"><ele>1660.3333333333333</ele><time>2026-04-30T10:52:18.395Z</time></trkpt><trkpt lat="46.59842" lon="12.6047579"><ele>1659.0</ele><time>2026-04-30T10:52:20.395Z</time></trkpt><trkpt lat="46.5984883" lon="12.6047029"><ele>1659.0</ele><time>2026-04-30T10:52:23.395Z</time></trkpt><trkpt lat="46.5985555" lon="12.604655"><ele>1659.0</ele><time>2026-04-30T10:52:25.395Z</time></trkpt><trkpt lat="46.598639" lon="12.6046074"><ele>1659.0</ele><time>2026-04-30T10:52:28.395Z</time></trkpt><trkpt lat="46.5986048" lon="12.6045062"><ele>1659.0</ele><time>2026-04-30T10:52:35.396Z</time></trkpt><trkpt lat="46.5985897" lon="12.6044097"><ele>1659.0</ele><time>2026-04-30T10:52:40.395Z</time></trkpt><trkpt lat="46.5986318" lon="12.604312"><ele>1659.0</ele><time>2026-04-30T10:52:43.395Z</time></trkpt><trkpt lat="46.5986783" lon="12.6042337"><ele>1649.5</ele><time>2026-04-30T10:52:46.395Z</time></trkpt><trkpt lat="46.5987477" lon="12.6041826"><ele>1640.0</ele><time>2026-04-30T10:52:49.395Z</time></trkpt><trkpt lat="46.5988184" lon="12.6041175"><ele>1630.5</ele><time>2026-04-30T10:52:52.395Z</time></trkpt><trkpt lat="46.5988919" lon="12.6040445"><ele>1621.0</ele><time>2026-04-30T10:52:55.395Z</time></trkpt><trkpt lat="46.5989459" lon="12.6039961"><ele>1611.5</ele><time>2026-04-30T10:52:59.395Z</time></trkpt><trkpt lat="46.599022" lon="12.6039789"><ele>1602.0</ele><time>2026-04-30T10:53:02.395Z</time></trkpt><trkpt lat="46.5990942" lon="12.6039675"><ele>1602.0</ele><time>2026-04-30T10:53:05.395Z</time></trkpt><trkpt lat="46.5991666" lon="12.6039673"><ele>1602.0</ele><time>2026-04-30T10:53:08.395Z</time></trkpt><trkpt lat="46.5991855" lon="12.6038625"><ele>1602.0</ele><time>2026-04-30T10:53:12.395Z</time></trkpt><trkpt lat="46.5991309" lon="12.6037776"><ele>1602.0</ele><time>2026-04-30T10:53:15.396Z</time></trkpt><trkpt lat="46.5990579" lon="12.6037439"><ele>1602.0</ele><time>2026-04-30T10:53:23.395Z</time></trkpt><trkpt lat="46.5990443" lon="12.603622"><ele>1602.0</ele><time>2026-04-30T10:53:27.395Z</time></trkpt><trkpt lat="46.5990789" lon="12.6035231"><ele>1598.1666666666667</ele><time>2026-04-30T10:53:31.395Z</time></trkpt><trkpt lat="46.5991313" lon="12.6034583"><ele>1594.3333333333335</ele><time>2026-04-30T10:53:33.395Z</time></trkpt><trkpt lat="46.5992111" lon="12.6033726"><ele>1590.5</ele><time>2026-04-30T10:53:35.395Z</time></trkpt><trkpt lat="46.5993004" lon="12.6033216"><ele>1586.6666666666667</ele><time>2026-04-30T10:53:37.395Z</time></trkpt><trkpt lat="46.5993671" lon="12.6033402"><ele>1582.8333333333335</ele><time>2026-04-30T10:53:39.395Z</time></trkpt><trkpt lat="46.599316" lon="12.6032849"><ele>1579.0</ele><time>2026-04-30T10:54:06.395Z</time></trkpt><trkpt lat="46.5993782" lon="12.6033682"><ele>1579.0000000000002</ele><time>2026-04-30T10:55:48.396Z</time></trkpt><trkpt lat="46.5994686" lon="12.6033612"><ele>1579.0</ele><time>2026-04-30T10:55:51.395Z</time></trkpt><trkpt lat="46.599529" lon="12.6033165"><ele>1579.0</ele><time>2026-04-30T10:55:54.395Z</time></trkpt><trkpt lat="46.5996092" lon="12.6032408"><ele>1579.0</ele><time>2026-04-30T10:55:57.395Z</time></trkpt><trkpt lat="46.5996513" lon="12.6031424"><ele>1579.0000000000002</ele><time>2026-04-30T10:55:59.395Z</time></trkpt><trkpt lat="46.599687" lon="12.6030252"><ele>1579.0</ele><time>2026-04-30T10:56:01.395Z</time></trkpt><trkpt lat="46.5997174" lon="12.6029061"><ele>1575.0</ele><time>2026-04-30T10:56:03.395Z</time></trkpt><trkpt lat="46.5997479" lon="12.6027774"><ele>1571.0</ele><time>2026-04-30T10:56:05.395Z</time></trkpt><trkpt lat="46.5997724" lon="12.6026382"><ele>1567.0</ele><time>2026-04-30T10:56:07.395Z</time></trkpt><trkpt lat="46.5997825" lon="12.6024943"><ele>1563.0</ele><time>2026-04-30T10:56:09.395Z</time></trkpt><trkpt lat="46.5997926" lon="12.6023622"><ele>1559.0</ele><time>2026-04-30T10:56:11.395Z</time></trkpt><trkpt lat="46.5997974" lon="12.6022243"><ele>1559.0</ele><time>2026-04-30T10:56:13.395Z</time></trkpt><trkpt lat="46.5998132" lon="12.6020794"><ele>1559.0</ele><time>2026-04-30T10:56:15.395Z</time></trkpt><trkpt lat="46.5998378" lon="12.6019258"><ele>1559.0</ele><time>2026-04-30T10:56:17.394Z</time></trkpt><trkpt lat="46.5998677" lon="12.6017682"><ele>1559.0</ele><time>2026-04-30T10:56:19.395Z</time></trkpt><trkpt lat="46.599898" lon="12.60161"><ele>1559.0</ele><time>2026-04-30T10:56:21.395Z</time></trkpt><trkpt lat="46.5998955" lon="12.6014453"><ele>1559.8000000000002</ele><time>2026-04-30T10:56:23.396Z</time></trkpt><trkpt lat="46.5998965" lon="12.6012882"><ele>1560.6000000000001</ele><time>2026-04-30T10:56:25.395Z</time></trkpt><trkpt lat="46.5998963" lon="12.6011364"><ele>1561.4</ele><time>2026-04-30T10:56:27.395Z</time></trkpt><trkpt lat="46.5998913" lon="12.6009962"><ele>1562.2</ele><time>2026-04-30T10:56:29.395Z</time></trkpt><trkpt lat="46.5998209" lon="12.6008724"><ele>1563.0</ele><time>2026-04-30T10:56:31.395Z</time></trkpt><trkpt lat="46.5997378" lon="12.6007767"><ele>1565.2</ele><time>2026-04-30T10:56:33.396Z</time></trkpt><trkpt lat="46.5996918" lon="12.6006445"><ele>1567.4</ele><time>2026-04-30T10:56:35.395Z</time></trkpt><trkpt lat="46.5997382" lon="12.6005178"><ele>1569.6000000000001</ele><time>2026-04-30T10:56:37.395Z</time></trkpt><trkpt lat="46.5998129" lon="12.6003784"><ele>1571.8000000000002</ele><time>2026-04-30T10:56:39.395Z</time></trkpt><trkpt lat="46.599843" lon="12.6002122"><ele>1574.0</ele><time>2026-04-30T10:56:41.395Z</time></trkpt><trkpt lat="46.5997914" lon="12.6000594"><ele>1574.3333333333333</ele><time>2026-04-30T10:56:43.395Z</time></trkpt><trkpt lat="46.5997442" lon="12.5999957"><ele>1574.6666666666665</ele><time>2026-04-30T10:56:44.395Z</time></trkpt><trkpt lat="46.5996972" lon="12.599932"><ele>1575.0</ele><time>2026-04-30T10:56:45.395Z</time></trkpt><trkpt lat="46.5996357" lon="12.5997794"><ele>1575.3333333333335</ele><time>2026-04-30T10:56:47.395Z</time></trkpt><trkpt lat="46.5995908" lon="12.599611"><ele>1575.6666666666667</ele><time>2026-04-30T10:56:49.394Z</time></trkpt><trkpt lat="46.5995523" lon="12.5995375"><ele>1576.0</ele><time>2026-04-30T10:56:50.395Z</time></trkpt><trkpt lat="46.5994799" lon="12.5994021"><ele>1576.0</ele><time>2026-04-30T10:56:52.395Z</time></trkpt><trkpt lat="46.5993979" lon="12.5992705"><ele>1576.0</ele><time>2026-04-30T10:56:54.395Z</time></trkpt><trkpt lat="46.599355" lon="12.5991989"><ele>1576.0</ele><time>2026-04-30T10:56:55.395Z</time></trkpt><trkpt lat="46.599317" lon="12.5991236"><ele>1576.0</ele><time>2026-04-30T10:56:56.395Z</time></trkpt><trkpt lat="46.5992637" lon="12.5989694"><ele>1576.0</ele><time>2026-04-30T10:56:58.395Z</time></trkpt><trkpt lat="46.5991983" lon="12.5988085"><ele>1576.0</ele><time>2026-04-30T10:57:00.395Z</time></trkpt><trkpt lat="46.5991614" lon="12.5987297"><ele>1576.0</ele><time>2026-04-30T10:57:01.394Z</time></trkpt><trkpt lat="46.5991178" lon="12.598653"><ele>1576.0</ele><time>2026-04-30T10:57:02.395Z</time></trkpt><trkpt lat="46.5990768" lon="12.5985731"><ele>1576.0</ele><time>2026-04-30T10:57:03.395Z</time></trkpt><trkpt lat="46.5990384" lon="12.5984905"><ele>1576.0</ele><time>2026-04-30T10:57:04.395Z</time></trkpt><trkpt lat="46.5990001" lon="12.5984166"><ele>1576.0</ele><time>2026-04-30T10:57:05.395Z</time></trkpt><trkpt lat="46.5989364" lon="12.5982874"><ele>1576.0</ele><time>2026-04-30T10:57:07.395Z</time></trkpt><trkpt lat="46.5988943" lon="12.5981386"><ele>1578.0</ele><time>2026-04-30T10:57:09.395Z</time></trkpt><trkpt lat="46.59887" lon="12.5979663"><ele>1580.0</ele><time>2026-04-30T10:57:11.395Z</time></trkpt><trkpt lat="46.5988461" lon="12.597879"><ele>1582.0</ele><time>2026-04-30T10:57:12.395Z</time></trkpt><trkpt lat="46.5988107" lon="12.5977969"><ele>1584.0</ele><time>2026-04-30T10:57:13.395Z</time></trkpt><trkpt lat="46.5987757" lon="12.5977154"><ele>1586.0</ele><time>2026-04-30T10:57:14.395Z</time></trkpt><trkpt lat="46.5987427" lon="12.5976366"><ele>1588.0</ele><time>2026-04-30T10:57:15.394Z</time></trkpt><trkpt lat="46.5987117" lon="12.597556"><ele>1590.0</ele><time>2026-04-30T10:57:16.395Z</time></trkpt><trkpt lat="46.5986533" lon="12.5974079"><ele>1587.4</ele><time>2026-04-30T10:57:18.395Z</time></trkpt><trkpt lat="46.5985924" lon="12.5972776"><ele>1584.8</ele><time>2026-04-30T10:57:20.395Z</time></trkpt><trkpt lat="46.5985322" lon="12.5971477"><ele>1582.1999999999998</ele><time>2026-04-30T10:57:22.395Z</time></trkpt><trkpt lat="46.598553" lon="12.5970346"><ele>1579.6</ele><time>2026-04-30T10:57:24.395Z</time></trkpt><trkpt lat="46.5986196" lon="12.5969357"><ele>1577.0</ele><time>2026-04-30T10:57:26.395Z</time></trkpt><trkpt lat="46.598727" lon="12.5968968"><ele>1577.0</ele><time>2026-04-30T10:57:28.395Z</time></trkpt><trkpt lat="46.5987897" lon="12.5968725"><ele>1577.0</ele><time>2026-04-30T10:57:29.395Z</time></trkpt><trkpt lat="46.5988458" lon="12.5968298"><ele>1577.0</ele><time>2026-04-30T10:57:30.395Z</time></trkpt><trkpt lat="46.5989433" lon="12.5967176"><ele>1577.0</ele><time>2026-04-30T10:57:32.395Z</time></trkpt><trkpt lat="46.5990056" lon="12.5965686"><ele>1577.0</ele><time>2026-04-30T10:57:34.395Z</time></trkpt><trkpt lat="46.5990405" lon="12.5964271"><ele>1577.0</ele><time>2026-04-30T10:57:36.395Z</time></trkpt><trkpt lat="46.5990563" lon="12.5962794"><ele>1577.0</ele><time>2026-04-30T10:57:38.394Z</time></trkpt><trkpt lat="46.5990809" lon="12.5961298"><ele>1577.0</ele><time>2026-04-30T10:57:40.395Z</time></trkpt><trkpt lat="46.5990967" lon="12.5959781"><ele>1577.0</ele><time>2026-04-30T10:57:42.394Z</time></trkpt><trkpt lat="46.5991299" lon="12.5958275"><ele>1577.0</ele><time>2026-04-30T10:57:44.395Z</time></trkpt><trkpt lat="46.5991852" lon="12.5956838"><ele>1576.3999999999999</ele><time>2026-04-30T10:57:46.395Z</time></trkpt><trkpt lat="46.5992472" lon="12.5955606"><ele>1575.8</ele><time>2026-04-30T10:57:48.395Z</time></trkpt><trkpt lat="46.5993153" lon="12.5954549"><ele>1575.2</ele><time>2026-04-30T10:57:50.395Z</time></trkpt><trkpt lat="46.5993949" lon="12.5953671"><ele>1574.6</ele><time>2026-04-30T10:57:52.395Z</time></trkpt><trkpt lat="46.5994544" lon="12.5952348"><ele>1574.0</ele><time>2026-04-30T10:57:54.395Z</time></trkpt><trkpt lat="46.5995129" lon="12.5951098"><ele>1573.9999999999998</ele><time>2026-04-30T10:57:56.396Z</time></trkpt><trkpt lat="46.5995871" lon="12.5949985"><ele>1574.0</ele><time>2026-04-30T10:57:58.395Z</time></trkpt><trkpt lat="46.5996539" lon="12.5949014"><ele>1574.0</ele><time>2026-04-30T10:58:00.395Z</time></trkpt><trkpt lat="46.5997012" lon="12.5948125"><ele>1574.0</ele><time>2026-04-30T10:58:02.395Z</time></trkpt><trkpt lat="46.5997412" lon="12.5947196"><ele>1573.9999999999998</ele><time>2026-04-30T10:58:04.395Z</time></trkpt><trkpt lat="46.5997823" lon="12.5946117"><ele>1574.0</ele><time>2026-04-30T10:58:06.395Z</time></trkpt><trkpt lat="46.5998061" lon="12.5945096"><ele>1572.8333333333333</ele><time>2026-04-30T10:58:08.395Z</time></trkpt><trkpt lat="46.5998115" lon="12.594378"><ele>1571.6666666666665</ele><time>2026-04-30T10:58:11.395Z</time></trkpt><trkpt lat="46.5998125" lon="12.5942588"><ele>1570.5</ele><time>2026-04-30T10:58:14.396Z</time></trkpt><trkpt lat="46.5998026" lon="12.5941293"><ele>1569.3333333333335</ele><time>2026-04-30T10:58:17.395Z</time></trkpt><trkpt lat="46.5997974" lon="12.5940157"><ele>1568.1666666666667</ele><time>2026-04-30T10:58:19.394Z</time></trkpt><trkpt lat="46.5998053" lon="12.5939123"><ele>1567.0</ele><time>2026-04-30T10:58:21.394Z</time></trkpt><trkpt lat="46.5998327" lon="12.5938088"><ele>1567.0</ele><time>2026-04-30T10:58:24.395Z</time></trkpt><trkpt lat="46.5998945" lon="12.593734"><ele>1567.0</ele><time>2026-04-30T10:58:34.395Z</time></trkpt><trkpt lat="46.5999603" lon="12.5937009"><ele>1567.0</ele><time>2026-04-30T10:58:36.396Z</time></trkpt><trkpt lat="46.6000003" lon="12.5936266"><ele>1567.0</ele><time>2026-04-30T10:58:39.394Z</time></trkpt><trkpt lat="46.6000288" lon="12.5935364"><ele>1567.0</ele><time>2026-04-30T10:58:43.395Z</time></trkpt><trkpt lat="46.6001127" lon="12.5935502"><ele>1567.0</ele><time>2026-04-30T10:58:46.395Z</time></trkpt><trkpt lat="46.6001794" lon="12.5936113"><ele>1567.0</ele><time>2026-04-30T10:58:50.395Z</time></trkpt><trkpt lat="46.6002278" lon="12.5935448"><ele>1566.142857142857</ele><time>2026-04-30T11:00:00.396Z</time></trkpt><trkpt lat="46.6002709" lon="12.593472"><ele>1565.2857142857142</ele><time>2026-04-30T11:00:03.395Z</time></trkpt><trkpt lat="46.6003161" lon="12.5933956"><ele>1564.4285714285716</ele><time>2026-04-30T11:00:11.396Z</time></trkpt><trkpt lat="46.6003629" lon="12.5933134"><ele>1563.5714285714284</ele><time>2026-04-30T11:00:20.396Z</time></trkpt><trkpt lat="46.6004451" lon="12.5932891"><ele>1562.7142857142858</ele><time>2026-04-30T11:00:25.396Z</time></trkpt><trkpt lat="46.6004949" lon="12.5933562"><ele>1561.857142857143</ele><time>2026-04-30T11:00:43.396Z</time></trkpt><trkpt lat="46.6004927" lon="12.5934667"><ele>1561.0</ele><time>2026-04-30T11:00:48.396Z</time></trkpt><trkpt lat="46.6004909" lon="12.593574"><ele>1566.5000000000002</ele><time>2026-04-30T11:00:51.396Z</time></trkpt><trkpt lat="46.6005651" lon="12.5935927"><ele>1572.0</ele><time>2026-04-30T11:01:25.396Z</time></trkpt><trkpt lat="46.6005655" lon="12.5937024"><ele>1577.5</ele><time>2026-04-30T11:01:42.396Z</time></trkpt><trkpt lat="46.6005536" lon="12.5938308"><ele>1583.0</ele><time>2026-04-30T11:02:19.396Z</time></trkpt><trkpt lat="46.6005897" lon="12.5939096"><ele>1588.5000000000002</ele><time>2026-04-30T11:02:30.396Z</time></trkpt><trkpt lat="46.6006519" lon="12.5939337"><ele>1594.0</ele><time>2026-04-30T11:02:35.372Z</time></trkpt><trkpt lat="46.6006946" lon="12.5940653"><ele>1595.0</ele><time>2026-04-30T11:03:14.396Z</time></trkpt><trkpt lat="46.600764" lon="12.5940499"><ele>1596.0</ele><time>2026-04-30T11:03:46.391Z</time></trkpt><trkpt lat="46.6008139" lon="12.5939897"><ele>1597.0</ele><time>2026-04-30T11:04:10.396Z</time></trkpt><trkpt lat="46.6008787" lon="12.5940341"><ele>1598.0</ele><time>2026-04-30T11:05:13.381Z</time></trkpt><trkpt lat="46.600943" lon="12.5940057"><ele>1599.0</ele><time>2026-04-30T11:05:16.396Z</time></trkpt><trkpt lat="46.6008543" lon="12.5940268"><ele>1600.0</ele><time>2026-04-30T11:06:19.396Z</time></trkpt><trkpt lat="46.6007863" lon="12.5940067"><ele>1601.0</ele><time>2026-04-30T11:06:22.396Z</time></trkpt><trkpt lat="46.6008552" lon="12.5940361"><ele>1600.9999999999998</ele><time>2026-04-30T11:06:47.396Z</time></trkpt><trkpt lat="46.6009231" lon="12.5940253"><ele>1601.0</ele><time>2026-04-30T11:06:49.396Z</time></trkpt><trkpt lat="46.6008383" lon="12.5940227"><ele>1601.0</ele><time>2026-04-30T11:07:12.395Z</time></trkpt><trkpt lat="46.6009101" lon="12.5940052"><ele>1601.0</ele><time>2026-04-30T11:07:58.396Z</time></trkpt><trkpt lat="46.6008393" lon="12.594048"><ele>1600.9999999999998</ele><time>2026-04-30T11:08:39.396Z</time></trkpt><trkpt lat="46.600818" lon="12.5939565"><ele>1601.0</ele><time>2026-04-30T11:08:48.397Z</time></trkpt><trkpt lat="46.600896" lon="12.5940213"><ele>1601.0</ele><time>2026-04-30T11:09:14.396Z</time></trkpt><trkpt lat="46.6008232" lon="12.5940549"><ele>1601.0</ele><time>2026-04-30T11:09:38.396Z</time></trkpt><trkpt lat="46.6007604" lon="12.5940703"><ele>1601.0</ele><time>2026-04-30T11:09:45.396Z</time></trkpt><trkpt lat="46.6006997" lon="12.5940994"><ele>1601.0</ele><time>2026-04-30T11:09:50.396Z</time></trkpt><trkpt lat="46.6006343" lon="12.5941351"><ele>1601.0</ele><time>2026-04-30T11:09:55.396Z</time></trkpt><trkpt lat="46.6006047" lon="12.5942329"><ele>1601.0</ele><time>2026-04-30T11:10:04.396Z</time></trkpt><trkpt lat="46.6005351" lon="12.5942754"><ele>1601.0</ele><time>2026-04-30T11:10:09.397Z</time></trkpt><trkpt lat="46.6004845" lon="12.5943465"><ele>1601.0</ele><time>2026-04-30T11:10:13.397Z</time></trkpt><trkpt lat="46.6004308" lon="12.5944229"><ele>1601.0</ele><time>2026-04-30T11:10:16.397Z</time></trkpt><trkpt lat="46.6003598" lon="12.5944142"><ele>1601.0</ele><time>2026-04-30T11:10:20.397Z</time></trkpt><trkpt lat="46.6002889" lon="12.5943808"><ele>1601.0</ele><time>2026-04-30T11:10:26.397Z</time></trkpt><trkpt lat="46.6002436" lon="12.5943156"><ele>1601.0</ele><time>2026-04-30T11:10:39.397Z</time></trkpt><trkpt lat="46.6001816" lon="12.5943329"><ele>1601.0</ele><time>2026-04-30T11:10:49.397Z</time></trkpt><trkpt lat="46.6001103" lon="12.5943651"><ele>1601.0</ele><time>2026-04-30T11:10:53.397Z</time></trkpt><trkpt lat="46.6000486" lon="12.5942916"><ele>1596.142857142857</ele><time>2026-04-30T11:11:05.397Z</time></trkpt><trkpt lat="46.599978" lon="12.5943265"><ele>1591.2857142857144</ele><time>2026-04-30T11:11:15.397Z</time></trkpt><trkpt lat="46.5999182" lon="12.5943649"><ele>1586.4285714285716</ele><time>2026-04-30T11:11:20.397Z</time></trkpt><trkpt lat="46.5998785" lon="12.5944394"><ele>1581.5714285714284</ele><time>2026-04-30T11:11:24.397Z</time></trkpt><trkpt lat="46.5998059" lon="12.5944077"><ele>1576.7142857142858</ele><time>2026-04-30T11:11:28.397Z</time></trkpt><trkpt lat="46.5997993" lon="12.5942907"><ele>1571.857142857143</ele><time>2026-04-30T11:11:31.397Z</time></trkpt><trkpt lat="46.5997983" lon="12.5941734"><ele>1567.0</ele><time>2026-04-30T11:11:33.377Z</time></trkpt><trkpt lat="46.5997965" lon="12.5940762"><ele>1567.0</ele><time>2026-04-30T11:11:34.397Z</time></trkpt><trkpt lat="46.5998128" lon="12.5939281"><ele>1567.0</ele><time>2026-04-30T11:11:36.397Z</time></trkpt><trkpt lat="46.5998439" lon="12.5937902"><ele>1567.0</ele><time>2026-04-30T11:11:38.396Z</time></trkpt><trkpt lat="46.5998729" lon="12.5936402"><ele>1567.0</ele><time>2026-04-30T11:11:40.397Z</time></trkpt><trkpt lat="46.5998902" lon="12.5934858"><ele>1567.0</ele><time>2026-04-30T11:11:42.397Z</time></trkpt><trkpt lat="46.5999069" lon="12.5933323"><ele>1565.8</ele><time>2026-04-30T11:11:44.397Z</time></trkpt><trkpt lat="46.5999032" lon="12.5931826"><ele>1564.6</ele><time>2026-04-30T11:11:46.397Z</time></trkpt><trkpt lat="46.5999081" lon="12.59303"><ele>1563.3999999999999</ele><time>2026-04-30T11:11:48.397Z</time></trkpt><trkpt lat="46.5999289" lon="12.5928736"><ele>1562.1999999999998</ele><time>2026-04-30T11:11:50.397Z</time></trkpt><trkpt lat="46.5999192" lon="12.5927064"><ele>1561.0</ele><time>2026-04-30T11:11:52.397Z</time></trkpt><trkpt lat="46.5998889" lon="12.5926239"><ele>1560.6</ele><time>2026-04-30T11:11:53.397Z</time></trkpt><trkpt lat="46.5998452" lon="12.5924953"><ele>1560.1999999999998</ele><time>2026-04-30T11:11:55.397Z</time></trkpt><trkpt lat="46.5998373" lon="12.592328"><ele>1559.8000000000002</ele><time>2026-04-30T11:11:57.397Z</time></trkpt><trkpt lat="46.5998136" lon="12.5921661"><ele>1559.4</ele><time>2026-04-30T11:11:59.397Z</time></trkpt><trkpt lat="46.5997923" lon="12.5920072"><ele>1559.0</ele><time>2026-04-30T11:12:01.397Z</time></trkpt><trkpt lat="46.5997758" lon="12.5918727"><ele>1559.0</ele><time>2026-04-30T11:12:03.397Z</time></trkpt><trkpt lat="46.5997698" lon="12.5917354"><ele>1559.0</ele><time>2026-04-30T11:12:05.397Z</time></trkpt><trkpt lat="46.5997612" lon="12.5915864"><ele>1559.0</ele><time>2026-04-30T11:12:07.397Z</time></trkpt><trkpt lat="46.5997366" lon="12.5914267"><ele>1559.0</ele><time>2026-04-30T11:12:09.397Z</time></trkpt><trkpt lat="46.5996882" lon="12.59128"><ele>1559.0</ele><time>2026-04-30T11:12:11.397Z</time></trkpt><trkpt lat="46.5996269" lon="12.5911407"><ele>1559.8000000000002</ele><time>2026-04-30T11:12:13.396Z</time></trkpt><trkpt lat="46.5995406" lon="12.5910261"><ele>1560.6000000000001</ele><time>2026-04-30T11:12:15.397Z</time></trkpt><trkpt lat="46.5994453" lon="12.5909393"><ele>1561.4</ele><time>2026-04-30T11:12:17.397Z</time></trkpt><trkpt lat="46.5993626" lon="12.5908435"><ele>1562.2</ele><time>2026-04-30T11:12:19.396Z</time></trkpt><trkpt lat="46.599289" lon="12.5907244"><ele>1563.0</ele><time>2026-04-30T11:12:21.397Z</time></trkpt><trkpt lat="46.5992531" lon="12.5905986"><ele>1559.4</ele><time>2026-04-30T11:12:23.397Z</time></trkpt><trkpt lat="46.5992283" lon="12.5904374"><ele>1555.8000000000002</ele><time>2026-04-30T11:12:26.397Z</time></trkpt><trkpt lat="46.5992515" lon="12.5903216"><ele>1552.2</ele><time>2026-04-30T11:12:29.397Z</time></trkpt><trkpt lat="46.5993111" lon="12.5903565"><ele>1548.6</ele><time>2026-04-30T11:12:35.397Z</time></trkpt><trkpt lat="46.5993486" lon="12.5904786"><ele>1545.0</ele><time>2026-04-30T11:12:37.396Z</time></trkpt><trkpt lat="46.5994134" lon="12.5905909"><ele>1545.0</ele><time>2026-04-30T11:12:39.397Z</time></trkpt><trkpt lat="46.599486" lon="12.5906939"><ele>1545.0</ele><time>2026-04-30T11:12:41.397Z</time></trkpt><trkpt lat="46.5995841" lon="12.590765"><ele>1545.0</ele><time>2026-04-30T11:12:43.396Z</time></trkpt><trkpt lat="46.5997027" lon="12.5908136"><ele>1545.0</ele><time>2026-04-30T11:12:45.397Z</time></trkpt><trkpt lat="46.5997683" lon="12.5908356"><ele>1545.0</ele><time>2026-04-30T11:12:46.397Z</time></trkpt><trkpt lat="46.5998359" lon="12.5908457"><ele>1548.0</ele><time>2026-04-30T11:12:47.397Z</time></trkpt><trkpt lat="46.5998981" lon="12.5908613"><ele>1551.0</ele><time>2026-04-30T11:12:48.397Z</time></trkpt><trkpt lat="46.5999632" lon="12.5908745"><ele>1554.0</ele><time>2026-04-30T11:12:49.397Z</time></trkpt><trkpt lat="46.600028" lon="12.5908968"><ele>1557.0</ele><time>2026-04-30T11:12:50.397Z</time></trkpt><trkpt lat="46.6000951" lon="12.5909249"><ele>1560.0</ele><time>2026-04-30T11:12:51.396Z</time></trkpt><trkpt lat="46.6001581" lon="12.590962"><ele>1563.0</ele><time>2026-04-30T11:12:52.397Z</time></trkpt><trkpt lat="46.6002681" lon="12.5910393"><ele>1563.0</ele><time>2026-04-30T11:12:54.397Z</time></trkpt><trkpt lat="46.6003274" lon="12.5910787"><ele>1563.0</ele><time>2026-04-30T11:12:55.396Z</time></trkpt><trkpt lat="46.6003845" lon="12.5911338"><ele>1563.0</ele><time>2026-04-30T11:12:56.397Z</time></trkpt><trkpt lat="46.6004391" lon="12.5911974"><ele>1563.0</ele><time>2026-04-30T11:12:57.397Z</time></trkpt><trkpt lat="46.6004901" lon="12.5912597"><ele>1563.0</ele><time>2026-04-30T11:12:58.398Z</time></trkpt><trkpt lat="46.6005442" lon="12.5913269"><ele>1563.0</ele><time>2026-04-30T11:12:59.397Z</time></trkpt><trkpt lat="46.6006015" lon="12.5913952"><ele>1563.0</ele><time>2026-04-30T11:13:00.397Z</time></trkpt><trkpt lat="46.6006482" lon="12.5914641"><ele>1564.7142857142858</ele><time>2026-04-30T11:13:01.397Z</time></trkpt><trkpt lat="46.6006919" lon="12.591544"><ele>1566.4285714285713</ele><time>2026-04-30T11:13:02.397Z</time></trkpt><trkpt lat="46.6007368" lon="12.5916173"><ele>1568.142857142857</ele><time>2026-04-30T11:13:03.398Z</time></trkpt><trkpt lat="46.600787" lon="12.5916782"><ele>1569.857142857143</ele><time>2026-04-30T11:13:04.397Z</time></trkpt><trkpt lat="46.6008432" lon="12.5917363"><ele>1571.5714285714284</ele><time>2026-04-30T11:13:05.397Z</time></trkpt><trkpt lat="46.6008939" lon="12.5917973"><ele>1573.2857142857142</ele><time>2026-04-30T11:13:06.397Z</time></trkpt><trkpt lat="46.6009836" lon="12.5918531"><ele>1575.0</ele><time>2026-04-30T11:13:07.396Z</time></trkpt><trkpt lat="46.6010662" lon="12.5918841"><ele>1576.8</ele><time>2026-04-30T11:13:08.397Z</time></trkpt><trkpt lat="46.6011696" lon="12.5918867"><ele>1578.6</ele><time>2026-04-30T11:13:09.397Z</time></trkpt><trkpt lat="46.6012558" lon="12.5918961"><ele>1580.4</ele><time>2026-04-30T11:13:10.397Z</time></trkpt><trkpt lat="46.6013407" lon="12.5918805"><ele>1582.2</ele><time>2026-04-30T11:13:11.397Z</time></trkpt><trkpt lat="46.6014321" lon="12.5918496"><ele>1584.0</ele><time>2026-04-30T11:13:12.397Z</time></trkpt><trkpt lat="46.6015315" lon="12.5917956"><ele>1584.0</ele><time>2026-04-30T11:13:13.397Z</time></trkpt><trkpt lat="46.6016101" lon="12.5917551"><ele>1584.0</ele><time>2026-04-30T11:13:14.397Z</time></trkpt><trkpt lat="46.6016875" lon="12.5917129"><ele>1584.0</ele><time>2026-04-30T11:13:15.397Z</time></trkpt><trkpt lat="46.601762" lon="12.5916682"><ele>1584.0</ele><time>2026-04-30T11:13:16.397Z</time></trkpt><trkpt lat="46.6018365" lon="12.5916171"><ele>1584.0</ele><time>2026-04-30T11:13:17.397Z</time></trkpt><trkpt lat="46.6019105" lon="12.5915702"><ele>1584.0</ele><time>2026-04-30T11:13:18.396Z</time></trkpt><trkpt lat="46.6019794" lon="12.5915283"><ele>1586.7142857142858</ele><time>2026-04-30T11:13:19.397Z</time></trkpt><trkpt lat="46.6020512" lon="12.5914869"><ele>1589.4285714285713</ele><time>2026-04-30T11:13:20.397Z</time></trkpt><trkpt lat="46.6021217" lon="12.5914411"><ele>1592.142857142857</ele><time>2026-04-30T11:13:21.397Z</time></trkpt><trkpt lat="46.6021869" lon="12.5913976"><ele>1594.857142857143</ele><time>2026-04-30T11:13:22.397Z</time></trkpt><trkpt lat="46.6022496" lon="12.5913746"><ele>1597.5714285714284</ele><time>2026-04-30T11:13:23.397Z</time></trkpt><trkpt lat="46.6023177" lon="12.591372"><ele>1600.2857142857142</ele><time>2026-04-30T11:13:24.396Z</time></trkpt><trkpt lat="46.6023859" lon="12.5913548"><ele>1603.0</ele><time>2026-04-30T11:13:25.397Z</time></trkpt><trkpt lat="46.602451" lon="12.5912985"><ele>1603.0000000000002</ele><time>2026-04-30T11:13:26.397Z</time></trkpt><trkpt lat="46.6024936" lon="12.5912025"><ele>1603.0</ele><time>2026-04-30T11:13:27.397Z</time></trkpt><trkpt lat="46.6025198" lon="12.5911144"><ele>1603.0</ele><time>2026-04-30T11:13:28.397Z</time></trkpt><trkpt lat="46.6025848" lon="12.5910064"><ele>1603.0</ele><time>2026-04-30T11:13:30.396Z</time></trkpt><trkpt lat="46.602656" lon="12.5909771"><ele>1603.0000000000002</ele><time>2026-04-30T11:13:32.397Z</time></trkpt><trkpt lat="46.6027209" lon="12.5909921"><ele>1603.0</ele><time>2026-04-30T11:13:34.397Z</time></trkpt><trkpt lat="46.6027859" lon="12.5908799"><ele>1601.1666666666667</ele><time>2026-04-30T11:13:37.397Z</time></trkpt><trkpt lat="46.602812" lon="12.5907552"><ele>1599.3333333333335</ele><time>2026-04-30T11:13:39.397Z</time></trkpt><trkpt lat="46.6028633" lon="12.5906995"><ele>1597.5</ele><time>2026-04-30T11:13:41.397Z</time></trkpt><trkpt lat="46.6029326" lon="12.5906586"><ele>1595.6666666666665</ele><time>2026-04-30T11:13:43.397Z</time></trkpt><trkpt lat="46.6029674" lon="12.590741"><ele>1593.8333333333333</ele><time>2026-04-30T11:13:47.397Z</time></trkpt><trkpt lat="46.6028824" lon="12.5907827"><ele>1592.0</ele><time>2026-04-30T11:13:50.397Z</time></trkpt><trkpt lat="46.6028139" lon="12.590832"><ele>1591.9999999999998</ele><time>2026-04-30T11:13:52.397Z</time></trkpt><trkpt lat="46.6027874" lon="12.5909595"><ele>1592.0</ele><time>2026-04-30T11:13:54.397Z</time></trkpt><trkpt lat="46.6027425" lon="12.5910393"><ele>1592.0</ele><time>2026-04-30T11:13:56.397Z</time></trkpt><trkpt lat="46.6026499" lon="12.5910099"><ele>1592.0</ele><time>2026-04-30T11:13:59.397Z</time></trkpt><trkpt lat="46.6025802" lon="12.5910405"><ele>1591.9999999999998</ele><time>2026-04-30T11:14:01.397Z</time></trkpt><trkpt lat="46.6025264" lon="12.5911609"><ele>1592.0</ele><time>2026-04-30T11:14:03.397Z</time></trkpt><trkpt lat="46.6024915" lon="12.5912938"><ele>1594.1999999999998</ele><time>2026-04-30T11:14:05.397Z</time></trkpt><trkpt lat="46.602407" lon="12.5913858"><ele>1596.4</ele><time>2026-04-30T11:14:07.397Z</time></trkpt><trkpt lat="46.602291" lon="12.5913976"><ele>1598.6</ele><time>2026-04-30T11:14:09.397Z</time></trkpt><trkpt lat="46.602228" lon="12.5913995"><ele>1600.8000000000002</ele><time>2026-04-30T11:14:10.397Z</time></trkpt><trkpt lat="46.6021103" lon="12.59147"><ele>1603.0</ele><time>2026-04-30T11:14:12.397Z</time></trkpt><trkpt lat="46.6020474" lon="12.5915195"><ele>1600.2857142857142</ele><time>2026-04-30T11:14:13.397Z</time></trkpt><trkpt lat="46.6019824" lon="12.5915634"><ele>1597.5714285714284</ele><time>2026-04-30T11:14:14.397Z</time></trkpt><trkpt lat="46.6019116" lon="12.5916038"><ele>1594.857142857143</ele><time>2026-04-30T11:14:15.397Z</time></trkpt><trkpt lat="46.6018405" lon="12.5916405"><ele>1592.142857142857</ele><time>2026-04-30T11:14:16.397Z</time></trkpt><trkpt lat="46.6017724" lon="12.5916821"><ele>1589.4285714285713</ele><time>2026-04-30T11:14:17.397Z</time></trkpt><trkpt lat="46.6017029" lon="12.5917205"><ele>1586.7142857142858</ele><time>2026-04-30T11:14:18.397Z</time></trkpt><trkpt lat="46.6016326" lon="12.5917538"><ele>1584.0</ele><time>2026-04-30T11:14:19.397Z</time></trkpt><trkpt lat="46.6015643" lon="12.5917812"><ele>1584.0</ele><time>2026-04-30T11:14:20.397Z</time></trkpt><trkpt lat="46.6014984" lon="12.5918183"><ele>1584.0</ele><time>2026-04-30T11:14:21.397Z</time></trkpt><trkpt lat="46.6014315" lon="12.5918508"><ele>1584.0</ele><time>2026-04-30T11:14:22.397Z</time></trkpt><trkpt lat="46.6013629" lon="12.5918816"><ele>1584.0</ele><time>2026-04-30T11:14:23.398Z</time></trkpt><trkpt lat="46.6012933" lon="12.5919017"><ele>1584.0</ele><time>2026-04-30T11:14:24.397Z</time></trkpt><trkpt lat="46.6012202" lon="12.5918855"><ele>1584.0</ele><time>2026-04-30T11:14:25.397Z</time></trkpt><trkpt lat="46.6011447" lon="12.591872"><ele>1584.0</ele><time>2026-04-30T11:14:26.397Z</time></trkpt><trkpt lat="46.6010665" lon="12.5918492"><ele>1582.5</ele><time>2026-04-30T11:14:27.397Z</time></trkpt><trkpt lat="46.6009966" lon="12.5918297"><ele>1581.0</ele><time>2026-04-30T11:14:28.397Z</time></trkpt><trkpt lat="46.6009312" lon="12.5917939"><ele>1579.5</ele><time>2026-04-30T11:14:29.397Z</time></trkpt><trkpt lat="46.6008658" lon="12.5917639"><ele>1578.0</ele><time>2026-04-30T11:14:30.397Z</time></trkpt><trkpt lat="46.6007796" lon="12.591682"><ele>1576.5</ele><time>2026-04-30T11:14:32.397Z</time></trkpt><trkpt lat="46.6007068" lon="12.5915963"><ele>1575.0</ele><time>2026-04-30T11:14:34.397Z</time></trkpt><trkpt lat="46.6006493" lon="12.5914739"><ele>1575.0</ele><time>2026-04-30T11:14:36.396Z</time></trkpt><trkpt lat="46.6005696" lon="12.591352"><ele>1575.0</ele><time>2026-04-30T11:14:38.397Z</time></trkpt><trkpt lat="46.6004635" lon="12.5912455"><ele>1575.0</ele><time>2026-04-30T11:14:40.397Z</time></trkpt><trkpt lat="46.6004032" lon="12.5911744"><ele>1575.0</ele><time>2026-04-30T11:14:41.397Z</time></trkpt><trkpt lat="46.6003366" lon="12.5911052"><ele>1575.0</ele><time>2026-04-30T11:14:42.397Z</time></trkpt><trkpt lat="46.600279" lon="12.5910556"><ele>1573.0</ele><time>2026-04-30T11:14:43.397Z</time></trkpt><trkpt lat="46.6002113" lon="12.5909984"><ele>1571.0</ele><time>2026-04-30T11:14:44.397Z</time></trkpt><trkpt lat="46.6001425" lon="12.5909521"><ele>1569.0</ele><time>2026-04-30T11:14:45.397Z</time></trkpt><trkpt lat="46.6000673" lon="12.5909108"><ele>1567.0</ele><time>2026-04-30T11:14:46.398Z</time></trkpt><trkpt lat="46.5999884" lon="12.5908743"><ele>1565.0</ele><time>2026-04-30T11:14:47.397Z</time></trkpt><trkpt lat="46.5999114" lon="12.5908591"><ele>1563.0</ele><time>2026-04-30T11:14:48.397Z</time></trkpt><trkpt lat="46.5998341" lon="12.5908468"><ele>1563.0</ele><time>2026-04-30T11:14:49.397Z</time></trkpt><trkpt lat="46.5997551" lon="12.590832"><ele>1563.0</ele><time>2026-04-30T11:14:50.397Z</time></trkpt><trkpt lat="46.5996761" lon="12.590814"><ele>1563.0</ele><time>2026-04-30T11:14:51.397Z</time></trkpt><trkpt lat="46.5996071" lon="12.5907786"><ele>1563.0</ele><time>2026-04-30T11:14:52.397Z</time></trkpt><trkpt lat="46.5995446" lon="12.5907306"><ele>1563.0</ele><time>2026-04-30T11:14:53.398Z</time></trkpt><trkpt lat="46.5994897" lon="12.59067"><ele>1563.0</ele><time>2026-04-30T11:14:54.397Z</time></trkpt><trkpt lat="46.5994367" lon="12.5906021"><ele>1563.0</ele><time>2026-04-30T11:14:55.397Z</time></trkpt><trkpt lat="46.5993861" lon="12.5905214"><ele>1560.0</ele><time>2026-04-30T11:14:56.397Z</time></trkpt><trkpt lat="46.5993383" lon="12.5904306"><ele>1557.0</ele><time>2026-04-30T11:14:57.397Z</time></trkpt><trkpt lat="46.5992934" lon="12.5903285"><ele>1554.0</ele><time>2026-04-30T11:14:58.397Z</time></trkpt><trkpt lat="46.5992546" lon="12.5902171"><ele>1551.0</ele><time>2026-04-30T11:14:59.397Z</time></trkpt><trkpt lat="46.5992115" lon="12.5901122"><ele>1548.0</ele><time>2026-04-30T11:15:00.397Z</time></trkpt><trkpt lat="46.5991657" lon="12.5900175"><ele>1545.0</ele><time>2026-04-30T11:15:01.397Z</time></trkpt><trkpt lat="46.5991144" lon="12.5899435"><ele>1544.8333333333333</ele><time>2026-04-30T11:15:02.397Z</time></trkpt><trkpt lat="46.5990619" lon="12.5898786"><ele>1544.6666666666665</ele><time>2026-04-30T11:15:03.397Z</time></trkpt><trkpt lat="46.5989856" lon="12.5898528"><ele>1544.5</ele><time>2026-04-30T11:15:04.397Z</time></trkpt><trkpt lat="46.5989205" lon="12.5898288"><ele>1544.3333333333333</ele><time>2026-04-30T11:15:05.397Z</time></trkpt><trkpt lat="46.5988266" lon="12.5897417"><ele>1544.1666666666665</ele><time>2026-04-30T11:15:07.397Z</time></trkpt><trkpt lat="46.5987725" lon="12.5896414"><ele>1544.0</ele><time>2026-04-30T11:15:09.398Z</time></trkpt><trkpt lat="46.5987275" lon="12.5894756"><ele>1543.4999999999998</ele><time>2026-04-30T11:15:11.396Z</time></trkpt><trkpt lat="46.5987009" lon="12.5893764"><ele>1543.0</ele><time>2026-04-30T11:15:12.397Z</time></trkpt><trkpt lat="46.5986687" lon="12.5892631"><ele>1542.5</ele><time>2026-04-30T11:15:13.397Z</time></trkpt><trkpt lat="46.5986308" lon="12.589153"><ele>1542.0</ele><time>2026-04-30T11:15:14.397Z</time></trkpt><trkpt lat="46.5985954" lon="12.5890522"><ele>1541.4999999999998</ele><time>2026-04-30T11:15:15.397Z</time></trkpt><trkpt lat="46.5985408" lon="12.5889613"><ele>1541.0</ele><time>2026-04-30T11:15:16.397Z</time></trkpt><trkpt lat="46.5984368" lon="12.5887747"><ele>1542.3333333333333</ele><time>2026-04-30T11:15:18.397Z</time></trkpt><trkpt lat="46.5983786" lon="12.588697"><ele>1543.6666666666665</ele><time>2026-04-30T11:15:19.397Z</time></trkpt><trkpt lat="46.5983041" lon="12.5886615"><ele>1545.0</ele><time>2026-04-30T11:15:20.397Z</time></trkpt><trkpt lat="46.5982258" lon="12.5886209"><ele>1546.3333333333335</ele><time>2026-04-30T11:15:21.397Z</time></trkpt><trkpt lat="46.5981493" lon="12.5885658"><ele>1547.6666666666667</ele><time>2026-04-30T11:15:22.396Z</time></trkpt><trkpt lat="46.5980763" lon="12.5885121"><ele>1549.0</ele><time>2026-04-30T11:15:23.397Z</time></trkpt><trkpt lat="46.5980013" lon="12.5884723"><ele>1549.0000000000002</ele><time>2026-04-30T11:15:24.397Z</time></trkpt><trkpt lat="46.5979201" lon="12.5884313"><ele>1549.0</ele><time>2026-04-30T11:15:25.397Z</time></trkpt><trkpt lat="46.5978392" lon="12.5883949"><ele>1549.0</ele><time>2026-04-30T11:15:26.397Z</time></trkpt><trkpt lat="46.5977509" lon="12.5883648"><ele>1549.0</ele><time>2026-04-30T11:15:27.397Z</time></trkpt><trkpt lat="46.5976679" lon="12.5883341"><ele>1549.0000000000002</ele><time>2026-04-30T11:15:28.397Z</time></trkpt><trkpt lat="46.5975842" lon="12.5883177"><ele>1549.0</ele><time>2026-04-30T11:15:29.397Z</time></trkpt><trkpt lat="46.5974978" lon="12.5882946"><ele>1550.8333333333335</ele><time>2026-04-30T11:15:30.397Z</time></trkpt><trkpt lat="46.5974104" lon="12.588277"><ele>1552.6666666666667</ele><time>2026-04-30T11:15:31.397Z</time></trkpt><trkpt lat="46.5973243" lon="12.5882663"><ele>1554.5</ele><time>2026-04-30T11:15:32.397Z</time></trkpt><trkpt lat="46.5972418" lon="12.5882656"><ele>1556.3333333333335</ele><time>2026-04-30T11:15:33.397Z</time></trkpt><trkpt lat="46.5971625" lon="12.5882736"><ele>1558.1666666666667</ele><time>2026-04-30T11:15:34.397Z</time></trkpt><trkpt lat="46.5970864" lon="12.5882901"><ele>1560.0</ele><time>2026-04-30T11:15:35.397Z</time></trkpt><trkpt lat="46.5970096" lon="12.5883179"><ele>1559.5714285714284</ele><time>2026-04-30T11:15:36.398Z</time></trkpt><trkpt lat="46.596931" lon="12.5883467"><ele>1559.142857142857</ele><time>2026-04-30T11:15:37.397Z</time></trkpt><trkpt lat="46.5968517" lon="12.5883771"><ele>1558.7142857142858</ele><time>2026-04-30T11:15:38.397Z</time></trkpt><trkpt lat="46.5967753" lon="12.5883933"><ele>1558.2857142857142</ele><time>2026-04-30T11:15:39.397Z</time></trkpt><trkpt lat="46.5967101" lon="12.5884"><ele>1557.857142857143</ele><time>2026-04-30T11:15:40.397Z</time></trkpt><trkpt lat="46.5966448" lon="12.5884033"><ele>1557.4285714285713</ele><time>2026-04-30T11:15:41.397Z</time></trkpt><trkpt lat="46.5965782" lon="12.5884004"><ele>1557.0</ele><time>2026-04-30T11:15:42.397Z</time></trkpt><trkpt lat="46.5965063" lon="12.5883893"><ele>1557.0</ele><time>2026-04-30T11:15:43.397Z</time></trkpt><trkpt lat="46.5964289" lon="12.5883815"><ele>1557.0</ele><time>2026-04-30T11:15:44.397Z</time></trkpt><trkpt lat="46.5963479" lon="12.5883778"><ele>1557.0</ele><time>2026-04-30T11:15:45.397Z</time></trkpt><trkpt lat="46.5962634" lon="12.5883808"><ele>1557.0</ele><time>2026-04-30T11:15:46.397Z</time></trkpt><trkpt lat="46.5961775" lon="12.5883823"><ele>1557.0</ele><time>2026-04-30T11:15:47.397Z</time></trkpt><trkpt lat="46.5960923" lon="12.5883899"><ele>1557.0</ele><time>2026-04-30T11:15:48.397Z</time></trkpt><trkpt lat="46.5960061" lon="12.588395"><ele>1556.6666666666667</ele><time>2026-04-30T11:15:49.397Z</time></trkpt><trkpt lat="46.5959229" lon="12.5883966"><ele>1556.3333333333335</ele><time>2026-04-30T11:15:50.397Z</time></trkpt><trkpt lat="46.5958397" lon="12.5883955"><ele>1556.0</ele><time>2026-04-30T11:15:51.397Z</time></trkpt><trkpt lat="46.5957626" lon="12.5883886"><ele>1555.6666666666667</ele><time>2026-04-30T11:15:52.397Z</time></trkpt><trkpt lat="46.5956874" lon="12.5883845"><ele>1555.3333333333335</ele><time>2026-04-30T11:15:53.397Z</time></trkpt><trkpt lat="46.5956119" lon="12.5883724"><ele>1555.0</ele><time>2026-04-30T11:15:54.397Z</time></trkpt><trkpt lat="46.5955375" lon="12.5883477"><ele>1555.0000000000002</ele><time>2026-04-30T11:15:55.396Z</time></trkpt><trkpt lat="46.5954628" lon="12.5883188"><ele>1555.0</ele><time>2026-04-30T11:15:56.397Z</time></trkpt><trkpt lat="46.5953856" lon="12.5883008"><ele>1555.0</ele><time>2026-04-30T11:15:57.397Z</time></trkpt><trkpt lat="46.5953065" lon="12.5882923"><ele>1555.0</ele><time>2026-04-30T11:15:58.397Z</time></trkpt><trkpt lat="46.5952264" lon="12.5882849"><ele>1555.0000000000002</ele><time>2026-04-30T11:15:59.397Z</time></trkpt><trkpt lat="46.5951447" lon="12.5882741"><ele>1555.0</ele><time>2026-04-30T11:16:00.397Z</time></trkpt><trkpt lat="46.5950627" lon="12.588267"><ele>1555.0000000000002</ele><time>2026-04-30T11:16:01.397Z</time></trkpt><trkpt lat="46.5949831" lon="12.588256"><ele>1555.0</ele><time>2026-04-30T11:16:02.397Z</time></trkpt><trkpt lat="46.5949031" lon="12.5882593"><ele>1555.0</ele><time>2026-04-30T11:16:03.397Z</time></trkpt><trkpt lat="46.5948225" lon="12.5882801"><ele>1555.0</ele><time>2026-04-30T11:16:04.397Z</time></trkpt><trkpt lat="46.5947449" lon="12.5883098"><ele>1555.0000000000002</ele><time>2026-04-30T11:16:05.397Z</time></trkpt><trkpt lat="46.59467" lon="12.5883367"><ele>1555.0</ele><time>2026-04-30T11:16:06.397Z</time></trkpt><trkpt lat="46.5945906" lon="12.5883589"><ele>1555.0</ele><time>2026-04-30T11:16:07.397Z</time></trkpt><trkpt lat="46.5945202" lon="12.5883728"><ele>1555.0</ele><time>2026-04-30T11:16:08.397Z</time></trkpt><trkpt lat="46.5944523" lon="12.588391"><ele>1555.0</ele><time>2026-04-30T11:16:09.397Z</time></trkpt><trkpt lat="46.5943407" lon="12.5883884"><ele>1555.0</ele><time>2026-04-30T11:16:11.397Z</time></trkpt><trkpt lat="46.5942323" lon="12.5883978"><ele>1555.0</ele><time>2026-04-30T11:16:13.397Z</time></trkpt><trkpt lat="46.5941179" lon="12.5883885"><ele>1554.0</ele><time>2026-04-30T11:16:15.397Z</time></trkpt><trkpt lat="46.5940551" lon="12.5883787"><ele>1553.0</ele><time>2026-04-30T11:16:16.397Z</time></trkpt><trkpt lat="46.5939354" lon="12.5883733"><ele>1552.0</ele><time>2026-04-30T11:16:18.397Z</time></trkpt><trkpt lat="46.5938184" lon="12.5883807"><ele>1551.0</ele><time>2026-04-30T11:16:20.397Z</time></trkpt><trkpt lat="46.5937031" lon="12.5883815"><ele>1550.0</ele><time>2026-04-30T11:16:22.397Z</time></trkpt><trkpt lat="46.593583" lon="12.5884051"><ele>1547.5714285714284</ele><time>2026-04-30T11:16:24.397Z</time></trkpt><trkpt lat="46.5935155" lon="12.5884197"><ele>1545.142857142857</ele><time>2026-04-30T11:16:25.397Z</time></trkpt><trkpt lat="46.5934515" lon="12.5884378"><ele>1542.7142857142858</ele><time>2026-04-30T11:16:26.397Z</time></trkpt><trkpt lat="46.5933877" lon="12.5884644"><ele>1540.2857142857142</ele><time>2026-04-30T11:16:27.397Z</time></trkpt><trkpt lat="46.5933171" lon="12.5884925"><ele>1537.857142857143</ele><time>2026-04-30T11:16:28.397Z</time></trkpt><trkpt lat="46.5932443" lon="12.5885247"><ele>1535.4285714285713</ele><time>2026-04-30T11:16:29.397Z</time></trkpt><trkpt lat="46.5931664" lon="12.5885509"><ele>1533.0</ele><time>2026-04-30T11:16:30.397Z</time></trkpt><trkpt lat="46.5930788" lon="12.5885772"><ele>1533.0</ele><time>2026-04-30T11:16:31.397Z</time></trkpt><trkpt lat="46.5929974" lon="12.5885855"><ele>1533.0</ele><time>2026-04-30T11:16:32.396Z</time></trkpt><trkpt lat="46.5929111" lon="12.5885893"><ele>1533.0</ele><time>2026-04-30T11:16:33.397Z</time></trkpt><trkpt lat="46.5928264" lon="12.5886064"><ele>1533.0</ele><time>2026-04-30T11:16:34.397Z</time></trkpt><trkpt lat="46.5927347" lon="12.5886162"><ele>1533.0</ele><time>2026-04-30T11:16:35.397Z</time></trkpt><trkpt lat="46.5926407" lon="12.5886093"><ele>1533.0</ele><time>2026-04-30T11:16:36.397Z</time></trkpt><trkpt lat="46.5925434" lon="12.5885854"><ele>1533.0</ele><time>2026-04-30T11:16:37.397Z</time></trkpt><trkpt lat="46.5924454" lon="12.5885697"><ele>1533.0</ele><time>2026-04-30T11:16:38.397Z</time></trkpt><trkpt lat="46.5923454" lon="12.5885744"><ele>1533.0</ele><time>2026-04-30T11:16:39.397Z</time></trkpt><trkpt lat="46.592251" lon="12.5886073"><ele>1533.0</ele><time>2026-04-30T11:16:40.397Z</time></trkpt><trkpt lat="46.5921603" lon="12.5886485"><ele>1533.0</ele><time>2026-04-30T11:16:41.397Z</time></trkpt><trkpt lat="46.592077" lon="12.5886975"><ele>1526.4</ele><time>2026-04-30T11:16:42.397Z</time></trkpt><trkpt lat="46.591993" lon="12.5887361"><ele>1519.8000000000002</ele><time>2026-04-30T11:16:43.397Z</time></trkpt><trkpt lat="46.5919024" lon="12.5887746"><ele>1513.2</ele><time>2026-04-30T11:16:44.397Z</time></trkpt><trkpt lat="46.5918213" lon="12.5888264"><ele>1506.6</ele><time>2026-04-30T11:16:45.397Z</time></trkpt><trkpt lat="46.5917169" lon="12.5888906"><ele>1500.0</ele><time>2026-04-30T11:16:46.397Z</time></trkpt><trkpt lat="46.5916366" lon="12.5889436"><ele>1500.0</ele><time>2026-04-30T11:16:47.397Z</time></trkpt><trkpt lat="46.5915603" lon="12.5889813"><ele>1500.0</ele><time>2026-04-30T11:16:48.397Z</time></trkpt><trkpt lat="46.591495" lon="12.5889996"><ele>1500.0</ele><time>2026-04-30T11:16:49.397Z</time></trkpt><trkpt lat="46.5914294" lon="12.5889859"><ele>1500.0</ele><time>2026-04-30T11:16:50.397Z</time></trkpt><trkpt lat="46.5913736" lon="12.5889412"><ele>1500.0</ele><time>2026-04-30T11:16:51.397Z</time></trkpt><trkpt lat="46.5913289" lon="12.5888663"><ele>1500.0</ele><time>2026-04-30T11:16:52.397Z</time></trkpt><trkpt lat="46.5912841" lon="12.5887792"><ele>1500.0</ele><time>2026-04-30T11:16:53.397Z</time></trkpt><trkpt lat="46.5912364" lon="12.588694"><ele>1498.8333333333333</ele><time>2026-04-30T11:16:54.397Z</time></trkpt><trkpt lat="46.5911772" lon="12.5886264"><ele>1497.6666666666667</ele><time>2026-04-30T11:16:55.397Z</time></trkpt><trkpt lat="46.5911151" lon="12.5885766"><ele>1496.5</ele><time>2026-04-30T11:16:56.397Z</time></trkpt><trkpt lat="46.5910548" lon="12.5885431"><ele>1495.3333333333335</ele><time>2026-04-30T11:16:57.397Z</time></trkpt><trkpt lat="46.5909444" lon="12.5885246"><ele>1494.1666666666667</ele><time>2026-04-30T11:16:59.397Z</time></trkpt><trkpt lat="46.5908449" lon="12.5885023"><ele>1493.0</ele><time>2026-04-30T11:17:01.397Z</time></trkpt><trkpt lat="46.5907174" lon="12.5884761"><ele>1490.0</ele><time>2026-04-30T11:17:03.397Z</time></trkpt><trkpt lat="46.5906462" lon="12.5884648"><ele>1487.0</ele><time>2026-04-30T11:17:04.397Z</time></trkpt><trkpt lat="46.5905041" lon="12.588462"><ele>1484.0</ele><time>2026-04-30T11:17:06.397Z</time></trkpt><trkpt lat="46.5904333" lon="12.5884592"><ele>1481.0</ele><time>2026-04-30T11:17:07.397Z</time></trkpt><trkpt lat="46.5903558" lon="12.5884628"><ele>1478.0</ele><time>2026-04-30T11:17:08.397Z</time></trkpt><trkpt lat="46.5902775" lon="12.5884637"><ele>1475.0</ele><time>2026-04-30T11:17:09.397Z</time></trkpt><trkpt lat="46.5901964" lon="12.5884853"><ele>1472.8</ele><time>2026-04-30T11:17:10.397Z</time></trkpt><trkpt lat="46.590113" lon="12.5884872"><ele>1470.6</ele><time>2026-04-30T11:17:11.397Z</time></trkpt><trkpt lat="46.590034" lon="12.5885059"><ele>1468.4</ele><time>2026-04-30T11:17:12.397Z</time></trkpt><trkpt lat="46.5899418" lon="12.5885344"><ele>1466.2</ele><time>2026-04-30T11:17:13.397Z</time></trkpt><trkpt lat="46.5898474" lon="12.588558"><ele>1464.0</ele><time>2026-04-30T11:17:14.397Z</time></trkpt><trkpt lat="46.5897608" lon="12.588658"><ele>1463.5</ele><time>2026-04-30T11:17:15.397Z</time></trkpt><trkpt lat="46.5896822" lon="12.5887135"><ele>1463.0</ele><time>2026-04-30T11:17:16.397Z</time></trkpt><trkpt lat="46.5895981" lon="12.5887428"><ele>1462.5</ele><time>2026-04-30T11:17:17.397Z</time></trkpt><trkpt lat="46.5895043" lon="12.5887834"><ele>1462.0</ele><time>2026-04-30T11:17:18.397Z</time></trkpt><trkpt lat="46.589425" lon="12.5888272"><ele>1461.5</ele><time>2026-04-30T11:17:19.397Z</time></trkpt><trkpt lat="46.5893471" lon="12.5888931"><ele>1461.0</ele><time>2026-04-30T11:17:20.397Z</time></trkpt><trkpt lat="46.5892558" lon="12.5889509"><ele>1460.0</ele><time>2026-04-30T11:17:21.397Z</time></trkpt><trkpt lat="46.5891638" lon="12.5890265"><ele>1459.0</ele><time>2026-04-30T11:17:22.397Z</time></trkpt><trkpt lat="46.5890939" lon="12.5891197"><ele>1458.0</ele><time>2026-04-30T11:17:23.397Z</time></trkpt><trkpt lat="46.5890111" lon="12.5891691"><ele>1457.0</ele><time>2026-04-30T11:17:24.397Z</time></trkpt><trkpt lat="46.5889085" lon="12.5891937"><ele>1456.0</ele><time>2026-04-30T11:17:25.397Z</time></trkpt><trkpt lat="46.5888182" lon="12.5892102"><ele>1456.0</ele><time>2026-04-30T11:17:26.397Z</time></trkpt><trkpt lat="46.5887206" lon="12.5892549"><ele>1456.0</ele><time>2026-04-30T11:17:27.397Z</time></trkpt><trkpt lat="46.5886295" lon="12.5892952"><ele>1456.0</ele><time>2026-04-30T11:17:28.397Z</time></trkpt><trkpt lat="46.5885416" lon="12.589341"><ele>1456.0</ele><time>2026-04-30T11:17:29.397Z</time></trkpt><trkpt lat="46.5884489" lon="12.5893605"><ele>1456.0</ele><time>2026-04-30T11:17:30.397Z</time></trkpt><trkpt lat="46.5883587" lon="12.5893866"><ele>1455.0</ele><time>2026-04-30T11:17:31.397Z</time></trkpt><trkpt lat="46.5882722" lon="12.589394"><ele>1454.0</ele><time>2026-04-30T11:17:32.397Z</time></trkpt><trkpt lat="46.5881858" lon="12.5894127"><ele>1453.0</ele><time>2026-04-30T11:17:33.397Z</time></trkpt><trkpt lat="46.5881014" lon="12.5894322"><ele>1452.0</ele><time>2026-04-30T11:17:34.397Z</time></trkpt><trkpt lat="46.5880203" lon="12.5894456"><ele>1451.0</ele><time>2026-04-30T11:17:35.397Z</time></trkpt><trkpt lat="46.5879513" lon="12.58941"><ele>1450.0</ele><time>2026-04-30T11:17:36.397Z</time></trkpt><trkpt lat="46.5878848" lon="12.5894254"><ele>1449.6666666666665</ele><time>2026-04-30T11:17:37.397Z</time></trkpt><trkpt lat="46.5878196" lon="12.5894391"><ele>1449.3333333333333</ele><time>2026-04-30T11:17:38.397Z</time></trkpt><trkpt lat="46.5877391" lon="12.5894619"><ele>1449.0</ele><time>2026-04-30T11:17:39.397Z</time></trkpt><trkpt lat="46.5876666" lon="12.5894879"><ele>1448.6666666666667</ele><time>2026-04-30T11:17:40.397Z</time></trkpt><trkpt lat="46.5875815" lon="12.589551"><ele>1448.3333333333335</ele><time>2026-04-30T11:17:41.397Z</time></trkpt><trkpt lat="46.5875075" lon="12.589609"><ele>1448.0</ele><time>2026-04-30T11:17:42.397Z</time></trkpt><trkpt lat="46.5874539" lon="12.5896836"><ele>1447.6000000000001</ele><time>2026-04-30T11:17:43.396Z</time></trkpt><trkpt lat="46.5873994" lon="12.5897664"><ele>1447.2</ele><time>2026-04-30T11:17:44.397Z</time></trkpt><trkpt lat="46.5873385" lon="12.58985"><ele>1446.8</ele><time>2026-04-30T11:17:45.396Z</time></trkpt><trkpt lat="46.5872664" lon="12.58992"><ele>1446.4</ele><time>2026-04-30T11:17:46.397Z</time></trkpt><trkpt lat="46.5872008" lon="12.5899955"><ele>1446.0</ele><time>2026-04-30T11:17:47.397Z</time></trkpt><trkpt lat="46.5871018" lon="12.5901194"><ele>1444.3333333333333</ele><time>2026-04-30T11:17:49.398Z</time></trkpt><trkpt lat="46.5869777" lon="12.5901743"><ele>1442.6666666666667</ele><time>2026-04-30T11:17:51.397Z</time></trkpt><trkpt lat="46.5869059" lon="12.5901958"><ele>1441.0</ele><time>2026-04-30T11:17:52.397Z</time></trkpt><trkpt lat="46.5868244" lon="12.5902296"><ele>1439.3333333333335</ele><time>2026-04-30T11:17:53.397Z</time></trkpt><trkpt lat="46.5867488" lon="12.5902032"><ele>1437.6666666666667</ele><time>2026-04-30T11:17:54.397Z</time></trkpt><trkpt lat="46.5866713" lon="12.5901586"><ele>1436.0</ele><time>2026-04-30T11:17:55.397Z</time></trkpt><trkpt lat="46.5865567" lon="12.590102"><ele>1436.0</ele><time>2026-04-30T11:17:57.397Z</time></trkpt><trkpt lat="46.5864799" lon="12.5901282"><ele>1436.0</ele><time>2026-04-30T11:17:58.397Z</time></trkpt><trkpt lat="46.5863393" lon="12.5901238"><ele>1436.0</ele><time>2026-04-30T11:18:00.397Z</time></trkpt><trkpt lat="46.5862617" lon="12.5901364"><ele>1436.0</ele><time>2026-04-30T11:18:01.397Z</time></trkpt><trkpt lat="46.5861866" lon="12.5901718"><ele>1436.0</ele><time>2026-04-30T11:18:02.397Z</time></trkpt><trkpt lat="46.5861153" lon="12.5902249"><ele>1434.8</ele><time>2026-04-30T11:18:03.397Z</time></trkpt><trkpt lat="46.5860461" lon="12.5902819"><ele>1433.6</ele><time>2026-04-30T11:18:04.397Z</time></trkpt><trkpt lat="46.5859828" lon="12.5903583"><ele>1432.4</ele><time>2026-04-30T11:18:05.397Z</time></trkpt><trkpt lat="46.5859024" lon="12.5904849"><ele>1431.2</ele><time>2026-04-30T11:18:07.397Z</time></trkpt><trkpt lat="46.5858626" lon="12.5905673"><ele>1430.0</ele><time>2026-04-30T11:18:09.397Z</time></trkpt><trkpt lat="46.5857429" lon="12.5906595"><ele>1428.8</ele><time>2026-04-30T11:18:11.397Z</time></trkpt><trkpt lat="46.5856666" lon="12.5906865"><ele>1427.6</ele><time>2026-04-30T11:18:12.397Z</time></trkpt><trkpt lat="46.5855684" lon="12.590664"><ele>1426.4</ele><time>2026-04-30T11:18:14.397Z</time></trkpt><trkpt lat="46.5854996" lon="12.5906104"><ele>1425.2</ele><time>2026-04-30T11:18:16.397Z</time></trkpt><trkpt lat="46.5854344" lon="12.5905118"><ele>1424.0</ele><time>2026-04-30T11:18:19.397Z</time></trkpt><trkpt lat="46.5853547" lon="12.5904199"><ele>1421.5</ele><time>2026-04-30T11:18:21.397Z</time></trkpt><trkpt lat="46.5852934" lon="12.5903756"><ele>1419.0</ele><time>2026-04-30T11:18:23.397Z</time></trkpt><trkpt lat="46.5851975" lon="12.5903069"><ele>1416.5</ele><time>2026-04-30T11:18:26.397Z</time></trkpt><trkpt lat="46.5851393" lon="12.5902589"><ele>1414.0</ele><time>2026-04-30T11:18:27.397Z</time></trkpt><trkpt lat="46.5850657" lon="12.5902388"><ele>1411.5</ele><time>2026-04-30T11:18:28.397Z</time></trkpt><trkpt lat="46.5849911" lon="12.5902027"><ele>1409.0</ele><time>2026-04-30T11:18:29.397Z</time></trkpt><trkpt lat="46.5849091" lon="12.5901665"><ele>1409.0</ele><time>2026-04-30T11:18:30.397Z</time></trkpt><trkpt lat="46.5848214" lon="12.5901448"><ele>1409.0</ele><time>2026-04-30T11:18:31.397Z</time></trkpt><trkpt lat="46.5847401" lon="12.5901086"><ele>1409.0</ele><time>2026-04-30T11:18:32.397Z</time></trkpt><trkpt lat="46.5846478" lon="12.5900848"><ele>1409.0</ele><time>2026-04-30T11:18:33.396Z</time></trkpt><trkpt lat="46.5845722" lon="12.590051"><ele>1409.0</ele><time>2026-04-30T11:18:34.397Z</time></trkpt><trkpt lat="46.584486" lon="12.5900187"><ele>1409.0</ele><time>2026-04-30T11:18:35.397Z</time></trkpt><trkpt lat="46.5844015" lon="12.5899893"><ele>1408.1666666666667</ele><time>2026-04-30T11:18:36.397Z</time></trkpt><trkpt lat="46.5843253" lon="12.589969"><ele>1407.3333333333335</ele><time>2026-04-30T11:18:37.397Z</time></trkpt><trkpt lat="46.5842452" lon="12.5899567"><ele>1406.5</ele><time>2026-04-30T11:18:38.397Z</time></trkpt><trkpt lat="46.5841617" lon="12.5899481"><ele>1405.6666666666667</ele><time>2026-04-30T11:18:39.397Z</time></trkpt><trkpt lat="46.584085" lon="12.5899396"><ele>1404.8333333333333</ele><time>2026-04-30T11:18:40.397Z</time></trkpt><trkpt lat="46.5840071" lon="12.5899375"><ele>1404.0</ele><time>2026-04-30T11:18:41.397Z</time></trkpt><trkpt lat="46.5839358" lon="12.5899265"><ele>1404.0000000000002</ele><time>2026-04-30T11:18:42.397Z</time></trkpt><trkpt lat="46.5838656" lon="12.5899274"><ele>1404.0</ele><time>2026-04-30T11:18:43.396Z</time></trkpt><trkpt lat="46.5837854" lon="12.5899016"><ele>1404.0</ele><time>2026-04-30T11:18:44.397Z</time></trkpt><trkpt lat="46.5837211" lon="12.5898847"><ele>1404.0</ele><time>2026-04-30T11:18:45.397Z</time></trkpt><trkpt lat="46.5836571" lon="12.5898614"><ele>1404.0</ele><time>2026-04-30T11:18:46.397Z</time></trkpt><trkpt lat="46.5835945" lon="12.5898202"><ele>1404.0000000000002</ele><time>2026-04-30T11:18:47.397Z</time></trkpt><trkpt lat="46.5835364" lon="12.5897844"><ele>1404.0</ele><time>2026-04-30T11:18:48.397Z</time></trkpt><trkpt lat="46.5834241" lon="12.5897505"><ele>1404.8333333333333</ele><time>2026-04-30T11:18:50.397Z</time></trkpt><trkpt lat="46.5833561" lon="12.5897371"><ele>1405.6666666666667</ele><time>2026-04-30T11:18:51.397Z</time></trkpt><trkpt lat="46.5832911" lon="12.589712"><ele>1406.5</ele><time>2026-04-30T11:18:52.396Z</time></trkpt><trkpt lat="46.5832223" lon="12.5896839"><ele>1407.3333333333335</ele><time>2026-04-30T11:18:53.397Z</time></trkpt><trkpt lat="46.5831557" lon="12.5896852"><ele>1408.1666666666667</ele><time>2026-04-30T11:18:54.397Z</time></trkpt><trkpt lat="46.5830376" lon="12.5897311"><ele>1409.0</ele><time>2026-04-30T11:18:56.397Z</time></trkpt><trkpt lat="46.5829756" lon="12.5898041"><ele>1409.0</ele><time>2026-04-30T11:18:57.397Z</time></trkpt><trkpt lat="46.5829069" lon="12.5898358"><ele>1409.0</ele><time>2026-04-30T11:18:58.397Z</time></trkpt><trkpt lat="46.5828345" lon="12.5898628"><ele>1409.0</ele><time>2026-04-30T11:18:59.396Z</time></trkpt><trkpt lat="46.5827625" lon="12.5898667"><ele>1409.0</ele><time>2026-04-30T11:19:00.397Z</time></trkpt><trkpt lat="46.5826966" lon="12.5898613"><ele>1409.0</ele><time>2026-04-30T11:19:01.397Z</time></trkpt><trkpt lat="46.58258" lon="12.5898117"><ele>1409.0</ele><time>2026-04-30T11:19:03.396Z</time></trkpt><trkpt lat="46.5824782" lon="12.5897077"><ele>1408.4</ele><time>2026-04-30T11:19:05.397Z</time></trkpt><trkpt lat="46.5824086" lon="12.589578"><ele>1407.8000000000002</ele><time>2026-04-30T11:19:07.397Z</time></trkpt><trkpt lat="46.5823745" lon="12.5894588"><ele>1407.1999999999998</ele><time>2026-04-30T11:19:09.397Z</time></trkpt><trkpt lat="46.5823212" lon="12.5893561"><ele>1406.6</ele><time>2026-04-30T11:19:11.397Z</time></trkpt><trkpt lat="46.582222" lon="12.5893238"><ele>1406.0</ele><time>2026-04-30T11:19:13.398Z</time></trkpt><trkpt lat="46.5821563" lon="12.5893401"><ele>1406.0</ele><time>2026-04-30T11:19:14.397Z</time></trkpt><trkpt lat="46.5820884" lon="12.5893496"><ele>1406.0</ele><time>2026-04-30T11:19:15.397Z</time></trkpt><trkpt lat="46.5820245" lon="12.5893601"><ele>1406.0</ele><time>2026-04-30T11:19:16.397Z</time></trkpt><trkpt lat="46.5819602" lon="12.5893746"><ele>1406.0</ele><time>2026-04-30T11:19:17.397Z</time></trkpt><trkpt lat="46.5818923" lon="12.5893559"><ele>1406.0</ele><time>2026-04-30T11:19:18.397Z</time></trkpt><trkpt lat="46.5818218" lon="12.5893267"><ele>1406.0</ele><time>2026-04-30T11:19:19.397Z</time></trkpt><trkpt lat="46.581745" lon="12.5893039"><ele>1406.0</ele><time>2026-04-30T11:19:20.397Z</time></trkpt><trkpt lat="46.5816702" lon="12.5892896"><ele>1403.6666666666667</ele><time>2026-04-30T11:19:21.397Z</time></trkpt><trkpt lat="46.5815927" lon="12.5892799"><ele>1401.3333333333335</ele><time>2026-04-30T11:19:22.397Z</time></trkpt><trkpt lat="46.5815174" lon="12.5892628"><ele>1399.0</ele><time>2026-04-30T11:19:23.397Z</time></trkpt><trkpt lat="46.5814452" lon="12.5892454"><ele>1396.6666666666667</ele><time>2026-04-30T11:19:24.397Z</time></trkpt><trkpt lat="46.5813716" lon="12.589219"><ele>1394.3333333333333</ele><time>2026-04-30T11:19:25.397Z</time></trkpt><trkpt lat="46.5812952" lon="12.5891861"><ele>1392.0</ele><time>2026-04-30T11:19:26.397Z</time></trkpt><trkpt lat="46.5812173" lon="12.5891492"><ele>1392.0</ele><time>2026-04-30T11:19:27.397Z</time></trkpt><trkpt lat="46.5811452" lon="12.5891012"><ele>1392.0</ele><time>2026-04-30T11:19:28.397Z</time></trkpt><trkpt lat="46.581077" lon="12.5890489"><ele>1392.0</ele><time>2026-04-30T11:19:29.396Z</time></trkpt><trkpt lat="46.5810121" lon="12.5889912"><ele>1392.0</ele><time>2026-04-30T11:19:30.396Z</time></trkpt><trkpt lat="46.5809529" lon="12.5889338"><ele>1392.0</ele><time>2026-04-30T11:19:31.397Z</time></trkpt><trkpt lat="46.5808888" lon="12.588894"><ele>1392.0</ele><time>2026-04-30T11:19:32.397Z</time></trkpt><trkpt lat="46.5808234" lon="12.5888577"><ele>1392.0</ele><time>2026-04-30T11:19:33.397Z</time></trkpt><trkpt lat="46.5807641" lon="12.5888171"><ele>1392.0</ele><time>2026-04-30T11:19:34.396Z</time></trkpt><trkpt lat="46.5807071" lon="12.5887704"><ele>1392.0</ele><time>2026-04-30T11:19:35.397Z</time></trkpt><trkpt lat="46.5806294" lon="12.5886429"><ele>1392.0</ele><time>2026-04-30T11:19:37.397Z</time></trkpt><trkpt lat="46.5806038" lon="12.588495"><ele>1392.0</ele><time>2026-04-30T11:19:39.397Z</time></trkpt><trkpt lat="46.5805818" lon="12.5883617"><ele>1392.0</ele><time>2026-04-30T11:19:41.396Z</time></trkpt><trkpt lat="46.58055" lon="12.5882437"><ele>1391.1999999999998</ele><time>2026-04-30T11:19:43.397Z</time></trkpt><trkpt lat="46.580509" lon="12.5881479"><ele>1390.4</ele><time>2026-04-30T11:19:45.397Z</time></trkpt><trkpt lat="46.5804462" lon="12.5880653"><ele>1389.6</ele><time>2026-04-30T11:19:47.397Z</time></trkpt><trkpt lat="46.5803576" lon="12.5879982"><ele>1388.8000000000002</ele><time>2026-04-30T11:19:49.397Z</time></trkpt><trkpt lat="46.5802611" lon="12.5879971"><ele>1388.0</ele><time>2026-04-30T11:19:51.397Z</time></trkpt><trkpt lat="46.5801742" lon="12.5880424"><ele>1384.3333333333335</ele><time>2026-04-30T11:19:53.397Z</time></trkpt><trkpt lat="46.5800911" lon="12.5881278"><ele>1380.6666666666667</ele><time>2026-04-30T11:19:55.397Z</time></trkpt><trkpt lat="46.5800196" lon="12.5882753"><ele>1377.0</ele><time>2026-04-30T11:19:57.397Z</time></trkpt><trkpt lat="46.579976" lon="12.5883564"><ele>1373.3333333333333</ele><time>2026-04-30T11:19:58.398Z</time></trkpt><trkpt lat="46.5799391" lon="12.5884452"><ele>1369.6666666666665</ele><time>2026-04-30T11:19:59.398Z</time></trkpt><trkpt lat="46.5799018" lon="12.5885465"><ele>1366.0</ele><time>2026-04-30T11:20:00.398Z</time></trkpt><trkpt lat="46.5798653" lon="12.5886479"><ele>1366.1666666666665</ele><time>2026-04-30T11:20:01.398Z</time></trkpt><trkpt lat="46.5798325" lon="12.5887517"><ele>1366.3333333333333</ele><time>2026-04-30T11:20:02.398Z</time></trkpt><trkpt lat="46.5798005" lon="12.5888369"><ele>1366.5</ele><time>2026-04-30T11:20:03.398Z</time></trkpt><trkpt lat="46.5797634" lon="12.5889147"><ele>1366.6666666666667</ele><time>2026-04-30T11:20:04.398Z</time></trkpt><trkpt lat="46.5796667" lon="12.5890029"><ele>1366.8333333333335</ele><time>2026-04-30T11:20:06.398Z</time></trkpt><trkpt lat="46.5795771" lon="12.5889483"><ele>1367.0</ele><time>2026-04-30T11:20:08.398Z</time></trkpt><trkpt lat="46.5795092" lon="12.5888569"><ele>1359.8</ele><time>2026-04-30T11:20:10.398Z</time></trkpt><trkpt lat="46.5794145" lon="12.588778"><ele>1352.6</ele><time>2026-04-30T11:20:12.398Z</time></trkpt><trkpt lat="46.5793089" lon="12.588746"><ele>1345.3999999999999</ele><time>2026-04-30T11:20:14.398Z</time></trkpt><trkpt lat="46.5792186" lon="12.5886997"><ele>1338.1999999999998</ele><time>2026-04-30T11:20:16.398Z</time></trkpt><trkpt lat="46.5791029" lon="12.5886512"><ele>1331.0</ele><time>2026-04-30T11:20:18.398Z</time></trkpt><trkpt lat="46.5789947" lon="12.5885876"><ele>1331.0</ele><time>2026-04-30T11:20:20.398Z</time></trkpt><trkpt lat="46.5789195" lon="12.5884977"><ele>1331.0</ele><time>2026-04-30T11:20:22.398Z</time></trkpt><trkpt lat="46.5788388" lon="12.5884122"><ele>1331.0</ele><time>2026-04-30T11:20:24.398Z</time></trkpt><trkpt lat="46.57875" lon="12.5882959"><ele>1331.0</ele><time>2026-04-30T11:20:26.398Z</time></trkpt><trkpt lat="46.5787043" lon="12.5882211"><ele>1331.0</ele><time>2026-04-30T11:20:27.397Z</time></trkpt><trkpt lat="46.5786725" lon="12.5881204"><ele>1325.0</ele><time>2026-04-30T11:20:28.398Z</time></trkpt><trkpt lat="46.5786431" lon="12.58801"><ele>1319.0</ele><time>2026-04-30T11:20:29.398Z</time></trkpt><trkpt lat="46.5786201" lon="12.5878933"><ele>1313.0</ele><time>2026-04-30T11:20:30.398Z</time></trkpt><trkpt lat="46.5785936" lon="12.5877816"><ele>1307.0</ele><time>2026-04-30T11:20:31.398Z</time></trkpt><trkpt lat="46.5785611" lon="12.5876711"><ele>1301.0</ele><time>2026-04-30T11:20:32.398Z</time></trkpt><trkpt lat="46.578537" lon="12.5875675"><ele>1295.0</ele><time>2026-04-30T11:20:33.398Z</time></trkpt><trkpt lat="46.578521" lon="12.5874543"><ele>1295.0</ele><time>2026-04-30T11:20:34.398Z</time></trkpt><trkpt lat="46.5785123" lon="12.5873458"><ele>1295.0</ele><time>2026-04-30T11:20:35.398Z</time></trkpt><trkpt lat="46.5784955" lon="12.5872361"><ele>1295.0</ele><time>2026-04-30T11:20:36.398Z</time></trkpt><trkpt lat="46.5784703" lon="12.5871175"><ele>1295.0</ele><time>2026-04-30T11:20:37.398Z</time></trkpt><trkpt lat="46.5784415" lon="12.5870075"><ele>1295.0</ele><time>2026-04-30T11:20:38.398Z</time></trkpt><trkpt lat="46.5784062" lon="12.5868944"><ele>1295.0</ele><time>2026-04-30T11:20:39.398Z</time></trkpt><trkpt lat="46.5783699" lon="12.5867765"><ele>1294.8</ele><time>2026-04-30T11:20:40.399Z</time></trkpt><trkpt lat="46.5783059" lon="12.5865593"><ele>1294.6</ele><time>2026-04-30T11:20:42.398Z</time></trkpt><trkpt lat="46.578249" lon="12.5864129"><ele>1294.4</ele><time>2026-04-30T11:20:44.398Z</time></trkpt><trkpt lat="46.5782077" lon="12.5863345"><ele>1294.2</ele><time>2026-04-30T11:20:45.398Z</time></trkpt><trkpt lat="46.578166" lon="12.5862577"><ele>1294.0</ele><time>2026-04-30T11:20:46.398Z</time></trkpt><trkpt lat="46.5781195" lon="12.5861844"><ele>1292.0</ele><time>2026-04-30T11:20:47.398Z</time></trkpt><trkpt lat="46.5780701" lon="12.5861131"><ele>1290.0</ele><time>2026-04-30T11:20:48.398Z</time></trkpt><trkpt lat="46.5780099" lon="12.5860303"><ele>1288.0</ele><time>2026-04-30T11:20:49.398Z</time></trkpt><trkpt lat="46.5779398" lon="12.5859268"><ele>1286.0</ele><time>2026-04-30T11:20:50.398Z</time></trkpt><trkpt lat="46.5778749" lon="12.5858373"><ele>1284.0</ele><time>2026-04-30T11:20:51.398Z</time></trkpt><trkpt lat="46.5778055" lon="12.5857557"><ele>1282.0</ele><time>2026-04-30T11:20:52.398Z</time></trkpt><trkpt lat="46.5777322" lon="12.5856811"><ele>1279.1666666666665</ele><time>2026-04-30T11:20:53.398Z</time></trkpt><trkpt lat="46.5776552" lon="12.5856054"><ele>1276.3333333333333</ele><time>2026-04-30T11:20:54.398Z</time></trkpt><trkpt lat="46.577572" lon="12.5855375"><ele>1273.5</ele><time>2026-04-30T11:20:55.398Z</time></trkpt><trkpt lat="46.5774938" lon="12.5854811"><ele>1270.6666666666667</ele><time>2026-04-30T11:20:56.398Z</time></trkpt><trkpt lat="46.5774165" lon="12.5854376"><ele>1267.8333333333335</ele><time>2026-04-30T11:20:57.398Z</time></trkpt><trkpt lat="46.5773373" lon="12.5854045"><ele>1265.0</ele><time>2026-04-30T11:20:58.398Z</time></trkpt><trkpt lat="46.5772547" lon="12.5853836"><ele>1265.0</ele><time>2026-04-30T11:20:59.398Z</time></trkpt><trkpt lat="46.5771672" lon="12.5853676"><ele>1265.0</ele><time>2026-04-30T11:21:00.398Z</time></trkpt><trkpt lat="46.5770868" lon="12.5853544"><ele>1265.0</ele><time>2026-04-30T11:21:01.398Z</time></trkpt><trkpt lat="46.577" lon="12.5853606"><ele>1265.0</ele><time>2026-04-30T11:21:02.398Z</time></trkpt><trkpt lat="46.576916" lon="12.5853843"><ele>1265.0</ele><time>2026-04-30T11:21:03.398Z</time></trkpt><trkpt lat="46.5768287" lon="12.5854084"><ele>1265.0</ele><time>2026-04-30T11:21:04.398Z</time></trkpt><trkpt lat="46.5767396" lon="12.5854167"><ele>1260.3333333333335</ele><time>2026-04-30T11:21:05.398Z</time></trkpt><trkpt lat="46.5766481" lon="12.5854132"><ele>1255.6666666666667</ele><time>2026-04-30T11:21:06.398Z</time></trkpt><trkpt lat="46.576573" lon="12.585412"><ele>1251.0</ele><time>2026-04-30T11:21:07.397Z</time></trkpt><trkpt lat="46.5764928" lon="12.5854083"><ele>1246.3333333333333</ele><time>2026-04-30T11:21:08.399Z</time></trkpt><trkpt lat="46.5764126" lon="12.5854032"><ele>1241.6666666666665</ele><time>2026-04-30T11:21:09.398Z</time></trkpt><trkpt lat="46.5763289" lon="12.5853931"><ele>1237.0</ele><time>2026-04-30T11:21:10.398Z</time></trkpt><trkpt lat="46.5762578" lon="12.5853785"><ele>1232.3333333333333</ele><time>2026-04-30T11:21:11.398Z</time></trkpt><trkpt lat="46.5761586" lon="12.5853621"><ele>1227.6666666666665</ele><time>2026-04-30T11:21:13.398Z</time></trkpt><trkpt lat="46.5760851" lon="12.5853571"><ele>1223.0</ele><time>2026-04-30T11:21:16.398Z</time></trkpt><trkpt lat="46.5759619" lon="12.5853455"><ele>1218.3333333333333</ele><time>2026-04-30T11:21:19.398Z</time></trkpt><trkpt lat="46.5758915" lon="12.5853484"><ele>1213.6666666666667</ele><time>2026-04-30T11:21:20.398Z</time></trkpt><trkpt lat="46.5758141" lon="12.5853546"><ele>1209.0</ele><time>2026-04-30T11:21:21.398Z</time></trkpt><trkpt lat="46.5757325" lon="12.5853684"><ele>1209.0</ele><time>2026-04-30T11:21:22.398Z</time></trkpt><trkpt lat="46.5756447" lon="12.5853907"><ele>1209.0</ele><time>2026-04-30T11:21:23.398Z</time></trkpt><trkpt lat="46.5755598" lon="12.5854146"><ele>1209.0</ele><time>2026-04-30T11:21:24.398Z</time></trkpt><trkpt lat="46.5754802" lon="12.5854397"><ele>1209.0</ele><time>2026-04-30T11:21:25.398Z</time></trkpt><trkpt lat="46.5754061" lon="12.5854752"><ele>1209.0</ele><time>2026-04-30T11:21:26.398Z</time></trkpt><trkpt lat="46.5753471" lon="12.5855374"><ele>1209.0</ele><time>2026-04-30T11:21:27.398Z</time></trkpt><trkpt lat="46.5752911" lon="12.5856114"><ele>1203.8333333333333</ele><time>2026-04-30T11:21:28.398Z</time></trkpt><trkpt lat="46.5752457" lon="12.5856958"><ele>1198.6666666666667</ele><time>2026-04-30T11:21:29.398Z</time></trkpt><trkpt lat="46.5752054" lon="12.5857896"><ele>1193.5</ele><time>2026-04-30T11:21:30.398Z</time></trkpt><trkpt lat="46.5751644" lon="12.5858938"><ele>1188.3333333333335</ele><time>2026-04-30T11:21:31.398Z</time></trkpt><trkpt lat="46.5751261" lon="12.5860049"><ele>1183.1666666666667</ele><time>2026-04-30T11:21:32.398Z</time></trkpt><trkpt lat="46.5750996" lon="12.5861233"><ele>1178.0</ele><time>2026-04-30T11:21:33.398Z</time></trkpt><trkpt lat="46.5750741" lon="12.5862574"><ele>1176.6666666666667</ele><time>2026-04-30T11:21:34.398Z</time></trkpt><trkpt lat="46.5750531" lon="12.5863917"><ele>1175.3333333333335</ele><time>2026-04-30T11:21:35.398Z</time></trkpt><trkpt lat="46.5750478" lon="12.5865139"><ele>1174.0</ele><time>2026-04-30T11:21:36.398Z</time></trkpt><trkpt lat="46.5750613" lon="12.5866281"><ele>1172.6666666666667</ele><time>2026-04-30T11:21:37.398Z</time></trkpt><trkpt lat="46.5750891" lon="12.5867524"><ele>1171.3333333333333</ele><time>2026-04-30T11:21:38.398Z</time></trkpt><trkpt lat="46.5751283" lon="12.5868828"><ele>1170.0</ele><time>2026-04-30T11:21:39.398Z</time></trkpt><trkpt lat="46.575172" lon="12.5870183"><ele>1167.8333333333333</ele><time>2026-04-30T11:21:40.398Z</time></trkpt><trkpt lat="46.5752121" lon="12.5871631"><ele>1165.6666666666667</ele><time>2026-04-30T11:21:41.399Z</time></trkpt><trkpt lat="46.5752358" lon="12.5872991"><ele>1163.5</ele><time>2026-04-30T11:21:42.398Z</time></trkpt><trkpt lat="46.5752457" lon="12.5874248"><ele>1161.3333333333335</ele><time>2026-04-30T11:21:43.398Z</time></trkpt><trkpt lat="46.5752329" lon="12.5875364"><ele>1159.1666666666667</ele><time>2026-04-30T11:21:44.398Z</time></trkpt><trkpt lat="46.57521" lon="12.5876221"><ele>1157.0</ele><time>2026-04-30T11:21:45.398Z</time></trkpt><trkpt lat="46.5751672" lon="12.5877481"><ele>1155.4</ele><time>2026-04-30T11:21:47.398Z</time></trkpt><trkpt lat="46.5751743" lon="12.5878586"><ele>1153.8000000000002</ele><time>2026-04-30T11:21:49.398Z</time></trkpt><trkpt lat="46.5751992" lon="12.5880432"><ele>1152.2</ele><time>2026-04-30T11:21:51.398Z</time></trkpt><trkpt lat="46.575223" lon="12.5881702"><ele>1150.6000000000001</ele><time>2026-04-30T11:21:52.398Z</time></trkpt><trkpt lat="46.5752509" lon="12.5883116"><ele>1149.0</ele><time>2026-04-30T11:21:53.398Z</time></trkpt><trkpt lat="46.5752792" lon="12.5884581"><ele>1149.0</ele><time>2026-04-30T11:21:54.398Z</time></trkpt><trkpt lat="46.5753042" lon="12.5886213"><ele>1149.0</ele><time>2026-04-30T11:21:55.398Z</time></trkpt><trkpt lat="46.575331" lon="12.5887816"><ele>1149.0</ele><time>2026-04-30T11:21:56.398Z</time></trkpt><trkpt lat="46.575357" lon="12.5889431"><ele>1149.0</ele><time>2026-04-30T11:21:57.398Z</time></trkpt><trkpt lat="46.5753885" lon="12.589109"><ele>1154.2</ele><time>2026-04-30T11:21:58.398Z</time></trkpt><trkpt lat="46.5754188" lon="12.5892683"><ele>1159.4</ele><time>2026-04-30T11:21:59.397Z</time></trkpt><trkpt lat="46.5754419" lon="12.5894119"><ele>1164.6</ele><time>2026-04-30T11:22:00.398Z</time></trkpt><trkpt lat="46.5754673" lon="12.5895484"><ele>1169.8</ele><time>2026-04-30T11:22:01.398Z</time></trkpt><trkpt lat="46.5754968" lon="12.5896795"><ele>1175.0</ele><time>2026-04-30T11:22:02.398Z</time></trkpt><trkpt lat="46.5755393" lon="12.589817"><ele>1175.0</ele><time>2026-04-30T11:22:03.398Z</time></trkpt><trkpt lat="46.5755896" lon="12.5899498"><ele>1175.0</ele><time>2026-04-30T11:22:04.398Z</time></trkpt><trkpt lat="46.5756545" lon="12.5900774"><ele>1175.0</ele><time>2026-04-30T11:22:05.398Z</time></trkpt><trkpt lat="46.5757129" lon="12.5902049"><ele>1175.0</ele><time>2026-04-30T11:22:06.399Z</time></trkpt><trkpt lat="46.5757745" lon="12.5903325"><ele>1175.0</ele><time>2026-04-30T11:22:07.398Z</time></trkpt><trkpt lat="46.5758205" lon="12.5904568"><ele>1172.4</ele><time>2026-04-30T11:22:08.398Z</time></trkpt><trkpt lat="46.5758464" lon="12.5905902"><ele>1169.8</ele><time>2026-04-30T11:22:09.398Z</time></trkpt><trkpt lat="46.5758546" lon="12.5907372"><ele>1167.2</ele><time>2026-04-30T11:22:10.398Z</time></trkpt><trkpt lat="46.5758602" lon="12.5908862"><ele>1164.6</ele><time>2026-04-30T11:22:11.398Z</time></trkpt><trkpt lat="46.5758798" lon="12.5910236"><ele>1162.0</ele><time>2026-04-30T11:22:12.398Z</time></trkpt><trkpt lat="46.5759193" lon="12.5911481"><ele>1160.4</ele><time>2026-04-30T11:22:13.398Z</time></trkpt><trkpt lat="46.5759721" lon="12.5912606"><ele>1158.8000000000002</ele><time>2026-04-30T11:22:14.398Z</time></trkpt><trkpt lat="46.5760406" lon="12.5913571"><ele>1157.2</ele><time>2026-04-30T11:22:15.399Z</time></trkpt><trkpt lat="46.5761069" lon="12.5914417"><ele>1155.6000000000001</ele><time>2026-04-30T11:22:16.398Z</time></trkpt><trkpt lat="46.5761808" lon="12.5915227"><ele>1154.0</ele><time>2026-04-30T11:22:17.398Z</time></trkpt><trkpt lat="46.5762529" lon="12.5916089"><ele>1157.8333333333335</ele><time>2026-04-30T11:22:18.398Z</time></trkpt><trkpt lat="46.5763224" lon="12.5916837"><ele>1161.6666666666667</ele><time>2026-04-30T11:22:19.398Z</time></trkpt><trkpt lat="46.576379" lon="12.5917527"><ele>1165.5</ele><time>2026-04-30T11:22:20.398Z</time></trkpt><trkpt lat="46.5764338" lon="12.5918159"><ele>1169.3333333333333</ele><time>2026-04-30T11:22:21.398Z</time></trkpt><trkpt lat="46.5765138" lon="12.5919182"><ele>1173.1666666666665</ele><time>2026-04-30T11:22:23.397Z</time></trkpt><trkpt lat="46.5764388" lon="12.5919777"><ele>1177.0</ele><time>2026-04-30T11:22:26.398Z</time></trkpt><trkpt lat="46.5763787" lon="12.5919256"><ele>1177.0</ele><time>2026-04-30T11:22:27.398Z</time></trkpt><trkpt lat="46.5763075" lon="12.5918723"><ele>1177.0</ele><time>2026-04-30T11:22:28.398Z</time></trkpt><trkpt lat="46.5762248" lon="12.5918124"><ele>1177.0</ele><time>2026-04-30T11:22:29.398Z</time></trkpt><trkpt lat="46.5761351" lon="12.591751"><ele>1177.0</ele><time>2026-04-30T11:22:30.398Z</time></trkpt><trkpt lat="46.5760411" lon="12.5916928"><ele>1177.0</ele><time>2026-04-30T11:22:31.398Z</time></trkpt><trkpt lat="46.5759454" lon="12.5916335"><ele>1172.4</ele><time>2026-04-30T11:22:32.398Z</time></trkpt><trkpt lat="46.5758499" lon="12.5915978"><ele>1167.8000000000002</ele><time>2026-04-30T11:22:33.398Z</time></trkpt><trkpt lat="46.5757478" lon="12.5915536"><ele>1163.2</ele><time>2026-04-30T11:22:34.398Z</time></trkpt><trkpt lat="46.5756677" lon="12.5914755"><ele>1158.6000000000001</ele><time>2026-04-30T11:22:35.398Z</time></trkpt><trkpt lat="46.5756047" lon="12.591383"><ele>1154.0</ele><time>2026-04-30T11:22:36.398Z</time></trkpt><trkpt lat="46.5755675" lon="12.5912598"><ele>1155.6000000000001</ele><time>2026-04-30T11:22:37.398Z</time></trkpt><trkpt lat="46.5755484" lon="12.591112"><ele>1157.2</ele><time>2026-04-30T11:22:38.398Z</time></trkpt><trkpt lat="46.5755124" lon="12.590969"><ele>1158.8000000000002</ele><time>2026-04-30T11:22:39.398Z</time></trkpt><trkpt lat="46.5754681" lon="12.5908409"><ele>1160.4</ele><time>2026-04-30T11:22:40.398Z</time></trkpt><trkpt lat="46.5754029" lon="12.5907317"><ele>1162.0</ele><time>2026-04-30T11:22:41.398Z</time></trkpt><trkpt lat="46.5753176" lon="12.5906485"><ele>1157.8</ele><time>2026-04-30T11:22:42.398Z</time></trkpt><trkpt lat="46.5752248" lon="12.590577"><ele>1153.6</ele><time>2026-04-30T11:22:43.398Z</time></trkpt><trkpt lat="46.5751424" lon="12.5904817"><ele>1149.3999999999999</ele><time>2026-04-30T11:22:44.398Z</time></trkpt><trkpt lat="46.5750721" lon="12.5903633"><ele>1145.2</ele><time>2026-04-30T11:22:45.398Z</time></trkpt><trkpt lat="46.5750077" lon="12.5902308"><ele>1141.0</ele><time>2026-04-30T11:22:46.398Z</time></trkpt><trkpt lat="46.5749419" lon="12.590096"><ele>1141.0</ele><time>2026-04-30T11:22:47.398Z</time></trkpt><trkpt lat="46.5748769" lon="12.5899677"><ele>1141.0</ele><time>2026-04-30T11:22:48.398Z</time></trkpt><trkpt lat="46.5748155" lon="12.5898232"><ele>1141.0</ele><time>2026-04-30T11:22:49.398Z</time></trkpt><trkpt lat="46.5747623" lon="12.5896738"><ele>1141.0</ele><time>2026-04-30T11:22:50.398Z</time></trkpt><trkpt lat="46.5746649" lon="12.5893883"><ele>1142.1666666666665</ele><time>2026-04-30T11:22:52.398Z</time></trkpt><trkpt lat="46.5746295" lon="12.5892757"><ele>1143.3333333333333</ele><time>2026-04-30T11:22:53.398Z</time></trkpt><trkpt lat="46.5745914" lon="12.5891803"><ele>1144.5</ele><time>2026-04-30T11:22:54.398Z</time></trkpt><trkpt lat="46.5745502" lon="12.5890882"><ele>1145.6666666666667</ele><time>2026-04-30T11:22:55.398Z</time></trkpt><trkpt lat="46.5744858" lon="12.5889982"><ele>1146.8333333333335</ele><time>2026-04-30T11:22:56.398Z</time></trkpt><trkpt lat="46.5744159" lon="12.5888999"><ele>1148.0</ele><time>2026-04-30T11:22:57.398Z</time></trkpt><trkpt lat="46.5743394" lon="12.5887873"><ele>1142.2</ele><time>2026-04-30T11:22:58.398Z</time></trkpt><trkpt lat="46.5742569" lon="12.5886846"><ele>1136.4</ele><time>2026-04-30T11:22:59.398Z</time></trkpt><trkpt lat="46.5741801" lon="12.5885901"><ele>1130.6000000000001</ele><time>2026-04-30T11:23:00.399Z</time></trkpt><trkpt lat="46.5741146" lon="12.5884768"><ele>1124.8</ele><time>2026-04-30T11:23:01.398Z</time></trkpt><trkpt lat="46.5740478" lon="12.5883678"><ele>1119.0</ele><time>2026-04-30T11:23:02.398Z</time></trkpt><trkpt lat="46.5739867" lon="12.5882597"><ele>1119.0</ele><time>2026-04-30T11:23:03.398Z</time></trkpt><trkpt lat="46.573922" lon="12.5881598"><ele>1119.0</ele><time>2026-04-30T11:23:04.398Z</time></trkpt><trkpt lat="46.5738512" lon="12.5880736"><ele>1119.0</ele><time>2026-04-30T11:23:05.398Z</time></trkpt><trkpt lat="46.5737846" lon="12.5879875"><ele>1119.0</ele><time>2026-04-30T11:23:06.397Z</time></trkpt><trkpt lat="46.573728" lon="12.587898"><ele>1119.0</ele><time>2026-04-30T11:23:07.398Z</time></trkpt><trkpt lat="46.5736689" lon="12.5878122"><ele>1119.0</ele><time>2026-04-30T11:23:08.398Z</time></trkpt><trkpt lat="46.5736129" lon="12.5877197"><ele>1115.2</ele><time>2026-04-30T11:23:09.398Z</time></trkpt><trkpt lat="46.5735609" lon="12.5876118"><ele>1111.4</ele><time>2026-04-30T11:23:10.398Z</time></trkpt><trkpt lat="46.573517" lon="12.5874971"><ele>1107.6</ele><time>2026-04-30T11:23:11.398Z</time></trkpt><trkpt lat="46.5734726" lon="12.5873827"><ele>1103.8</ele><time>2026-04-30T11:23:12.398Z</time></trkpt><trkpt lat="46.5734291" lon="12.587265"><ele>1100.0</ele><time>2026-04-30T11:23:13.397Z</time></trkpt><trkpt lat="46.5733888" lon="12.5871425"><ele>1100.0</ele><time>2026-04-30T11:23:14.398Z</time></trkpt><trkpt lat="46.5733494" lon="12.5870211"><ele>1100.0</ele><time>2026-04-30T11:23:15.398Z</time></trkpt><trkpt lat="46.5733081" lon="12.5868946"><ele>1100.0</ele><time>2026-04-30T11:23:16.398Z</time></trkpt><trkpt lat="46.5732665" lon="12.5867659"><ele>1100.0</ele><time>2026-04-30T11:23:17.399Z</time></trkpt><trkpt lat="46.5732229" lon="12.5866353"><ele>1100.0</ele><time>2026-04-30T11:23:18.398Z</time></trkpt><trkpt lat="46.5731771" lon="12.5865066"><ele>1099.8</ele><time>2026-04-30T11:23:19.398Z</time></trkpt><trkpt lat="46.5731349" lon="12.5863823"><ele>1099.6</ele><time>2026-04-30T11:23:20.398Z</time></trkpt><trkpt lat="46.5730932" lon="12.5862582"><ele>1099.4</ele><time>2026-04-30T11:23:21.398Z</time></trkpt><trkpt lat="46.573054" lon="12.5861343"><ele>1099.2</ele><time>2026-04-30T11:23:22.398Z</time></trkpt><trkpt lat="46.5730235" lon="12.5860087"><ele>1099.0</ele><time>2026-04-30T11:23:23.398Z</time></trkpt><trkpt lat="46.5729932" lon="12.5858801"><ele>1099.0</ele><time>2026-04-30T11:23:24.397Z</time></trkpt><trkpt lat="46.5729676" lon="12.5857518"><ele>1099.0</ele><time>2026-04-30T11:23:25.397Z</time></trkpt><trkpt lat="46.5729477" lon="12.5856171"><ele>1099.0</ele><time>2026-04-30T11:23:26.397Z</time></trkpt><trkpt lat="46.5729362" lon="12.5854845"><ele>1099.0</ele><time>2026-04-30T11:23:27.398Z</time></trkpt><trkpt lat="46.5729259" lon="12.5853688"><ele>1099.0</ele><time>2026-04-30T11:23:28.398Z</time></trkpt><trkpt lat="46.5728934" lon="12.5852847"><ele>1099.0</ele><time>2026-04-30T11:23:29.397Z</time></trkpt><trkpt lat="46.5728369" lon="12.5852373"><ele>1094.6666666666665</ele><time>2026-04-30T11:23:30.398Z</time></trkpt><trkpt lat="46.5727449" lon="12.585249"><ele>1090.3333333333333</ele><time>2026-04-30T11:23:32.398Z</time></trkpt><trkpt lat="46.572699" lon="12.5851527"><ele>1086.0</ele><time>2026-04-30T11:23:34.398Z</time></trkpt><trkpt lat="46.5726406" lon="12.5851028"><ele>1081.6666666666667</ele><time>2026-04-30T11:23:36.398Z</time></trkpt><trkpt lat="46.5725549" lon="12.5851734"><ele>1077.3333333333335</ele><time>2026-04-30T11:23:38.398Z</time></trkpt><trkpt lat="46.5724995" lon="12.5852429"><ele>1073.0</ele><time>2026-04-30T11:23:39.398Z</time></trkpt><trkpt lat="46.5724341" lon="12.5853058"><ele>1073.3333333333335</ele><time>2026-04-30T11:23:40.398Z</time></trkpt><trkpt lat="46.5723732" lon="12.5854236"><ele>1073.6666666666667</ele><time>2026-04-30T11:23:41.397Z</time></trkpt><trkpt lat="46.5723159" lon="12.5855198"><ele>1074.0</ele><time>2026-04-30T11:23:42.398Z</time></trkpt><trkpt lat="46.5722493" lon="12.5855858"><ele>1074.3333333333333</ele><time>2026-04-30T11:23:43.398Z</time></trkpt><trkpt lat="46.572177" lon="12.5856462"><ele>1074.6666666666665</ele><time>2026-04-30T11:23:44.398Z</time></trkpt><trkpt lat="46.572089" lon="12.58568"><ele>1075.0</ele><time>2026-04-30T11:23:45.398Z</time></trkpt><trkpt lat="46.5719993" lon="12.5857221"><ele>1070.2</ele><time>2026-04-30T11:23:46.398Z</time></trkpt><trkpt lat="46.5719124" lon="12.5857606"><ele>1065.4</ele><time>2026-04-30T11:23:47.398Z</time></trkpt><trkpt lat="46.5718415" lon="12.585795"><ele>1060.6</ele><time>2026-04-30T11:23:48.398Z</time></trkpt><trkpt lat="46.5717706" lon="12.5858321"><ele>1055.8</ele><time>2026-04-30T11:23:49.398Z</time></trkpt><trkpt lat="46.5716746" lon="12.5859042"><ele>1051.0</ele><time>2026-04-30T11:23:51.398Z</time></trkpt><trkpt lat="46.5715669" lon="12.5860059"><ele>1051.0</ele><time>2026-04-30T11:23:53.398Z</time></trkpt><trkpt lat="46.571476" lon="12.5860196"><ele>1051.0</ele><time>2026-04-30T11:23:54.399Z</time></trkpt><trkpt lat="46.5713989" lon="12.5860815"><ele>1051.0</ele><time>2026-04-30T11:23:57.398Z</time></trkpt><trkpt lat="46.5712639" lon="12.5861436"><ele>1051.0</ele><time>2026-04-30T11:23:59.398Z</time></trkpt><trkpt lat="46.5711863" lon="12.5861738"><ele>1051.0</ele><time>2026-04-30T11:24:00.398Z</time></trkpt><trkpt lat="46.5711196" lon="12.5862112"><ele>1049.142857142857</ele><time>2026-04-30T11:24:01.398Z</time></trkpt><trkpt lat="46.5710383" lon="12.5862419"><ele>1047.2857142857142</ele><time>2026-04-30T11:24:02.398Z</time></trkpt><trkpt lat="46.5709582" lon="12.5862496"><ele>1045.4285714285713</ele><time>2026-04-30T11:24:03.398Z</time></trkpt><trkpt lat="46.5708945" lon="12.5862398"><ele>1043.5714285714284</ele><time>2026-04-30T11:24:04.398Z</time></trkpt><trkpt lat="46.570836" lon="12.5862011"><ele>1041.7142857142856</ele><time>2026-04-30T11:24:05.398Z</time></trkpt><trkpt lat="46.5707796" lon="12.5861419"><ele>1039.857142857143</ele><time>2026-04-30T11:24:06.398Z</time></trkpt><trkpt lat="46.5707081" lon="12.5861062"><ele>1038.0</ele><time>2026-04-30T11:24:07.398Z</time></trkpt><trkpt lat="46.5706385" lon="12.5860744"><ele>1038.0</ele><time>2026-04-30T11:24:08.398Z</time></trkpt><trkpt lat="46.57056" lon="12.5860509"><ele>1038.0</ele><time>2026-04-30T11:24:09.398Z</time></trkpt><trkpt lat="46.570499" lon="12.5860234"><ele>1038.0</ele><time>2026-04-30T11:24:10.398Z</time></trkpt><trkpt lat="46.5705023" lon="12.5858668"><ele>1038.0</ele><time>2026-04-30T11:24:12.398Z</time></trkpt><trkpt lat="46.5705693" lon="12.5857873"><ele>1038.0</ele><time>2026-04-30T11:24:13.398Z</time></trkpt><trkpt lat="46.5706514" lon="12.5856997"><ele>1038.0</ele><time>2026-04-30T11:24:14.398Z</time></trkpt><trkpt lat="46.5707277" lon="12.585612"><ele>1038.0</ele><time>2026-04-30T11:24:15.398Z</time></trkpt><trkpt lat="46.5708101" lon="12.5855169"><ele>1038.0</ele><time>2026-04-30T11:24:16.398Z</time></trkpt><trkpt lat="46.570896" lon="12.585418"><ele>1038.0</ele><time>2026-04-30T11:24:17.398Z</time></trkpt><trkpt lat="46.570986" lon="12.5853244"><ele>1038.0</ele><time>2026-04-30T11:24:18.399Z</time></trkpt><trkpt lat="46.5710714" lon="12.5852345"><ele>1038.0</ele><time>2026-04-30T11:24:19.398Z</time></trkpt><trkpt lat="46.5711532" lon="12.5851394"><ele>1038.4</ele><time>2026-04-30T11:24:20.398Z</time></trkpt><trkpt lat="46.5712229" lon="12.5850299"><ele>1038.8</ele><time>2026-04-30T11:24:21.398Z</time></trkpt><trkpt lat="46.571281" lon="12.5849051"><ele>1039.2</ele><time>2026-04-30T11:24:22.398Z</time></trkpt><trkpt lat="46.5713271" lon="12.584762"><ele>1039.6</ele><time>2026-04-30T11:24:23.398Z</time></trkpt><trkpt lat="46.5713555" lon="12.5846057"><ele>1040.0</ele><time>2026-04-30T11:24:24.397Z</time></trkpt><trkpt lat="46.5713777" lon="12.5844492"><ele>1037.8</ele><time>2026-04-30T11:24:25.398Z</time></trkpt><trkpt lat="46.5713959" lon="12.5842983"><ele>1035.6</ele><time>2026-04-30T11:24:26.398Z</time></trkpt><trkpt lat="46.5714135" lon="12.5841439"><ele>1033.4</ele><time>2026-04-30T11:24:27.398Z</time></trkpt><trkpt lat="46.5714421" lon="12.5839956"><ele>1031.2</ele><time>2026-04-30T11:24:28.398Z</time></trkpt><trkpt lat="46.571489" lon="12.583855"><ele>1029.0</ele><time>2026-04-30T11:24:29.398Z</time></trkpt><trkpt lat="46.5715554" lon="12.5837337"><ele>1026.8</ele><time>2026-04-30T11:24:30.398Z</time></trkpt><trkpt lat="46.5716374" lon="12.5836372"><ele>1024.6000000000001</ele><time>2026-04-30T11:24:31.398Z</time></trkpt><trkpt lat="46.5717286" lon="12.5835636"><ele>1022.4</ele><time>2026-04-30T11:24:32.398Z</time></trkpt><trkpt lat="46.5718066" lon="12.5834966"><ele>1020.2</ele><time>2026-04-30T11:24:33.398Z</time></trkpt><trkpt lat="46.5718672" lon="12.5834053"><ele>1018.0</ele><time>2026-04-30T11:24:34.398Z</time></trkpt><trkpt lat="46.5719089" lon="12.5832903"><ele>1018.0</ele><time>2026-04-30T11:24:35.397Z</time></trkpt><trkpt lat="46.5719481" lon="12.5831968"><ele>1018.0</ele><time>2026-04-30T11:24:36.398Z</time></trkpt><trkpt lat="46.5720017" lon="12.5830508"><ele>1018.0</ele><time>2026-04-30T11:24:38.398Z</time></trkpt><trkpt lat="46.5719282" lon="12.582852"><ele>1018.0</ele><time>2026-04-30T11:24:40.398Z</time></trkpt><trkpt lat="46.5718521" lon="12.5827934"><ele>1018.0</ele><time>2026-04-30T11:24:41.398Z</time></trkpt><trkpt lat="46.5717476" lon="12.5828262"><ele>1021.3333333333333</ele><time>2026-04-30T11:24:42.398Z</time></trkpt><trkpt lat="46.571688" lon="12.5827745"><ele>1024.6666666666665</ele><time>2026-04-30T11:24:43.398Z</time></trkpt><trkpt lat="46.5716175" lon="12.5827595"><ele>1028.0</ele><time>2026-04-30T11:24:44.398Z</time></trkpt><trkpt lat="46.5715476" lon="12.5827307"><ele>1031.3333333333333</ele><time>2026-04-30T11:24:45.398Z</time></trkpt><trkpt lat="46.5714629" lon="12.5827969"><ele>1034.6666666666667</ele><time>2026-04-30T11:24:46.398Z</time></trkpt><trkpt lat="46.5713745" lon="12.5828042"><ele>1038.0</ele><time>2026-04-30T11:24:47.398Z</time></trkpt><trkpt lat="46.5712774" lon="12.5828122"><ele>1038.0</ele><time>2026-04-30T11:24:48.398Z</time></trkpt><trkpt lat="46.5711927" lon="12.5827874"><ele>1038.0</ele><time>2026-04-30T11:24:49.398Z</time></trkpt><trkpt lat="46.5710924" lon="12.5827038"><ele>1038.0</ele><time>2026-04-30T11:24:50.398Z</time></trkpt><trkpt lat="46.5709766" lon="12.5826915"><ele>1038.0</ele><time>2026-04-30T11:24:51.399Z</time></trkpt><trkpt lat="46.5708479" lon="12.5826734"><ele>1038.0</ele><time>2026-04-30T11:24:52.397Z</time></trkpt><trkpt lat="46.5707095" lon="12.5826892"><ele>1041.4</ele><time>2026-04-30T11:24:53.398Z</time></trkpt><trkpt lat="46.570618" lon="12.582658"><ele>1044.8</ele><time>2026-04-30T11:24:54.398Z</time></trkpt><trkpt lat="46.5705126" lon="12.5826358"><ele>1048.2</ele><time>2026-04-30T11:24:55.397Z</time></trkpt><trkpt lat="46.5704213" lon="12.5825923"><ele>1051.6</ele><time>2026-04-30T11:24:56.398Z</time></trkpt><trkpt lat="46.5703133" lon="12.5825625"><ele>1055.0</ele><time>2026-04-30T11:24:57.398Z</time></trkpt><trkpt lat="46.5702243" lon="12.5825493"><ele>1055.0</ele><time>2026-04-30T11:24:58.398Z</time></trkpt><trkpt lat="46.5701207" lon="12.5825461"><ele>1055.0</ele><time>2026-04-30T11:24:59.398Z</time></trkpt><trkpt lat="46.5700195" lon="12.5825377"><ele>1055.0</ele><time>2026-04-30T11:25:00.398Z</time></trkpt><trkpt lat="46.5699309" lon="12.5824955"><ele>1055.0</ele><time>2026-04-30T11:25:01.398Z</time></trkpt><trkpt lat="46.5698415" lon="12.582493"><ele>1055.0</ele><time>2026-04-30T11:25:02.398Z</time></trkpt><trkpt lat="46.56976" lon="12.582513"><ele>1055.0</ele><time>2026-04-30T11:25:03.398Z</time></trkpt><trkpt lat="46.5696904" lon="12.5825477"><ele>1055.0</ele><time>2026-04-30T11:25:04.398Z</time></trkpt><trkpt lat="46.5695902" lon="12.5826024"><ele>1055.0</ele><time>2026-04-30T11:25:06.398Z</time></trkpt><trkpt lat="46.5695058" lon="12.5825869"><ele>1055.0</ele><time>2026-04-30T11:25:08.398Z</time></trkpt><trkpt lat="46.5694618" lon="12.5824992"><ele>1055.0</ele><time>2026-04-30T11:25:10.398Z</time></trkpt><trkpt lat="46.5694279" lon="12.5824188"><ele>1055.0</ele><time>2026-04-30T11:25:12.398Z</time></trkpt><trkpt lat="46.5693525" lon="12.5823238"><ele>1055.0</ele><time>2026-04-30T11:25:14.399Z</time></trkpt><trkpt lat="46.5692507" lon="12.5822422"><ele>1055.0</ele><time>2026-04-30T11:25:16.399Z</time></trkpt><trkpt lat="46.5691952" lon="12.582193"><ele>1055.0</ele><time>2026-04-30T11:25:17.398Z</time></trkpt><trkpt lat="46.5690804" lon="12.5820879"><ele>1055.0</ele><time>2026-04-30T11:25:19.398Z</time></trkpt><trkpt lat="46.5690191" lon="12.5820367"><ele>1055.0</ele><time>2026-04-30T11:25:20.398Z</time></trkpt><trkpt lat="46.5689553" lon="12.5819852"><ele>1055.1666666666667</ele><time>2026-04-30T11:25:21.398Z</time></trkpt><trkpt lat="46.5688879" lon="12.5819292"><ele>1055.3333333333335</ele><time>2026-04-30T11:25:22.398Z</time></trkpt><trkpt lat="46.5688243" lon="12.5818617"><ele>1055.5</ele><time>2026-04-30T11:25:23.398Z</time></trkpt><trkpt lat="46.5687654" lon="12.5818005"><ele>1055.6666666666667</ele><time>2026-04-30T11:25:24.398Z</time></trkpt><trkpt lat="46.5687005" lon="12.5817464"><ele>1055.8333333333333</ele><time>2026-04-30T11:25:25.398Z</time></trkpt><trkpt lat="46.5686336" lon="12.5817007"><ele>1056.0</ele><time>2026-04-30T11:25:26.398Z</time></trkpt><trkpt lat="46.5685669" lon="12.5816502"><ele>1052.3999999999999</ele><time>2026-04-30T11:25:27.398Z</time></trkpt><trkpt lat="46.5685069" lon="12.5816022"><ele>1048.8</ele><time>2026-04-30T11:25:28.398Z</time></trkpt><trkpt lat="46.5684509" lon="12.5815584"><ele>1045.1999999999998</ele><time>2026-04-30T11:25:29.398Z</time></trkpt><trkpt lat="46.5683529" lon="12.5814989"><ele>1041.6</ele><time>2026-04-30T11:25:31.398Z</time></trkpt><trkpt lat="46.5682397" lon="12.5815325"><ele>1038.0</ele><time>2026-04-30T11:25:33.398Z</time></trkpt><trkpt lat="46.5681155" lon="12.5815667"><ele>1038.0</ele><time>2026-04-30T11:25:35.398Z</time></trkpt><trkpt lat="46.568047" lon="12.5815614"><ele>1038.0</ele><time>2026-04-30T11:25:36.397Z</time></trkpt><trkpt lat="46.5679789" lon="12.5815512"><ele>1038.0</ele><time>2026-04-30T11:25:37.398Z</time></trkpt><trkpt lat="46.5679119" lon="12.5815388"><ele>1038.0</ele><time>2026-04-30T11:25:38.398Z</time></trkpt><trkpt lat="46.5678412" lon="12.5815331"><ele>1038.0</ele><time>2026-04-30T11:25:39.398Z</time></trkpt><trkpt lat="46.567771" lon="12.5815315"><ele>1038.0</ele><time>2026-04-30T11:25:40.397Z</time></trkpt><trkpt lat="46.5676991" lon="12.5815166"><ele>1038.0</ele><time>2026-04-30T11:25:41.397Z</time></trkpt><trkpt lat="46.5676294" lon="12.5815087"><ele>1033.6666666666667</ele><time>2026-04-30T11:25:42.398Z</time></trkpt><trkpt lat="46.5675628" lon="12.581495"><ele>1029.3333333333333</ele><time>2026-04-30T11:25:43.398Z</time></trkpt><trkpt lat="46.5674445" lon="12.5814677"><ele>1025.0</ele><time>2026-04-30T11:25:45.398Z</time></trkpt><trkpt lat="46.5673239" lon="12.5814514"><ele>1020.6666666666666</ele><time>2026-04-30T11:25:47.398Z</time></trkpt><trkpt lat="46.5672602" lon="12.5814366"><ele>1016.3333333333333</ele><time>2026-04-30T11:25:48.398Z</time></trkpt><trkpt lat="46.5671951" lon="12.581431"><ele>1012.0</ele><time>2026-04-30T11:25:49.398Z</time></trkpt><trkpt lat="46.5670704" lon="12.5814375"><ele>1003.5</ele><time>2026-04-30T11:25:51.399Z</time></trkpt><trkpt lat="46.5669481" lon="12.5814469"><ele>995.0</ele><time>2026-04-30T11:25:53.398Z</time></trkpt><trkpt lat="46.5668361" lon="12.5814789"><ele>986.5</ele><time>2026-04-30T11:25:55.398Z</time></trkpt><trkpt lat="46.5667178" lon="12.5815224"><ele>978.0</ele><time>2026-04-30T11:25:57.399Z</time></trkpt><trkpt lat="46.5666031" lon="12.5815934"><ele>978.0</ele><time>2026-04-30T11:25:59.398Z</time></trkpt><trkpt lat="46.5665445" lon="12.5816321"><ele>978.0</ele><time>2026-04-30T11:26:00.398Z</time></trkpt><trkpt lat="46.5664491" lon="12.5816895"><ele>978.0</ele><time>2026-04-30T11:26:02.398Z</time></trkpt><trkpt lat="46.5663578" lon="12.5817061"><ele>978.0</ele><time>2026-04-30T11:26:04.398Z</time></trkpt><trkpt lat="46.5662539" lon="12.5817183"><ele>978.0</ele><time>2026-04-30T11:26:06.398Z</time></trkpt><trkpt lat="46.5661536" lon="12.5817118"><ele>973.8333333333334</ele><time>2026-04-30T11:26:08.398Z</time></trkpt><trkpt lat="46.5660873" lon="12.581714"><ele>969.6666666666667</ele><time>2026-04-30T11:26:10.398Z</time></trkpt><trkpt lat="46.5660312" lon="12.5818069"><ele>965.5</ele><time>2026-04-30T11:26:13.398Z</time></trkpt><trkpt lat="46.5660052" lon="12.5818951"><ele>961.3333333333334</ele><time>2026-04-30T11:26:16.398Z</time></trkpt><trkpt lat="46.5659362" lon="12.5818099"><ele>957.1666666666667</ele><time>2026-04-30T11:26:18.398Z</time></trkpt><trkpt lat="46.5658624" lon="12.5816843"><ele>953.0</ele><time>2026-04-30T11:26:20.398Z</time></trkpt><trkpt lat="46.5658059" lon="12.5815296"><ele>953.0000000000001</ele><time>2026-04-30T11:26:22.398Z</time></trkpt><trkpt lat="46.5657533" lon="12.5813903"><ele>953.0</ele><time>2026-04-30T11:26:24.398Z</time></trkpt><trkpt lat="46.565663" lon="12.5813129"><ele>953.0</ele><time>2026-04-30T11:26:26.397Z</time></trkpt><trkpt lat="46.5655647" lon="12.5812969"><ele>953.0</ele><time>2026-04-30T11:26:28.398Z</time></trkpt><trkpt lat="46.565495" lon="12.5812985"><ele>953.0000000000001</ele><time>2026-04-30T11:26:34.397Z</time></trkpt><trkpt lat="46.5654317" lon="12.5812926"><ele>953.0</ele><time>2026-04-30T11:26:37.398Z</time></trkpt><trkpt lat="46.5653599" lon="12.5813126"><ele>950.8</ele><time>2026-04-30T11:26:41.398Z</time></trkpt><trkpt lat="46.5652527" lon="12.5812822"><ele>948.5999999999999</ele><time>2026-04-30T11:26:43.398Z</time></trkpt><trkpt lat="46.5651349" lon="12.5812682"><ele>946.4000000000001</ele><time>2026-04-30T11:26:45.398Z</time></trkpt><trkpt lat="46.5650203" lon="12.5812574"><ele>944.2</ele><time>2026-04-30T11:26:47.398Z</time></trkpt><trkpt lat="46.5649507" lon="12.5812572"><ele>942.0</ele><time>2026-04-30T11:26:51.398Z</time></trkpt><trkpt lat="46.564879" lon="12.581263"><ele>942.0</ele><time>2026-04-30T11:26:53.397Z</time></trkpt><trkpt lat="46.5647945" lon="12.5812833"><ele>942.0</ele><time>2026-04-30T11:26:55.398Z</time></trkpt><trkpt lat="46.564696" lon="12.5813164"><ele>942.0</ele><time>2026-04-30T11:26:57.398Z</time></trkpt><trkpt lat="46.5646174" lon="12.5813126"><ele>942.0</ele><time>2026-04-30T11:26:59.398Z</time></trkpt><trkpt lat="46.5645317" lon="12.5813118"><ele>942.0</ele><time>2026-04-30T11:27:02.398Z</time></trkpt><trkpt lat="46.5644642" lon="12.5813087"><ele>942.0</ele><time>2026-04-30T11:27:06.398Z</time></trkpt><trkpt lat="46.5643601" lon="12.5813149"><ele>941.4000000000001</ele><time>2026-04-30T11:27:13.399Z</time></trkpt><trkpt lat="46.5642412" lon="12.5813404"><ele>940.8000000000001</ele><time>2026-04-30T11:27:15.397Z</time></trkpt><trkpt lat="46.5641224" lon="12.5814104"><ele>940.2</ele><time>2026-04-30T11:27:17.398Z</time></trkpt><trkpt lat="46.5640606" lon="12.5814471"><ele>939.6</ele><time>2026-04-30T11:27:18.398Z</time></trkpt><trkpt lat="46.5639937" lon="12.5814816"><ele>939.0</ele><time>2026-04-30T11:27:19.397Z</time></trkpt><trkpt lat="46.5639316" lon="12.5815087"><ele>939.0</ele><time>2026-04-30T11:27:20.397Z</time></trkpt><trkpt lat="46.5638219" lon="12.5815143"><ele>939.0000000000001</ele><time>2026-04-30T11:27:22.398Z</time></trkpt><trkpt lat="46.5637425" lon="12.5813685"><ele>939.0000000000001</ele><time>2026-04-30T11:27:24.398Z</time></trkpt><trkpt lat="46.5636986" lon="12.5812818"><ele>939.0</ele><time>2026-04-30T11:27:25.398Z</time></trkpt><trkpt lat="46.5636507" lon="12.5811954"><ele>939.0</ele><time>2026-04-30T11:27:26.398Z</time></trkpt><trkpt lat="46.5636098" lon="12.5810993"><ele>939.1666666666666</ele><time>2026-04-30T11:27:27.398Z</time></trkpt><trkpt lat="46.5635853" lon="12.5809828"><ele>939.3333333333333</ele><time>2026-04-30T11:27:28.398Z</time></trkpt><trkpt lat="46.5635789" lon="12.5808623"><ele>939.5</ele><time>2026-04-30T11:27:29.398Z</time></trkpt><trkpt lat="46.563585" lon="12.5807563"><ele>939.6666666666666</ele><time>2026-04-30T11:27:30.398Z</time></trkpt><trkpt lat="46.5636009" lon="12.5806586"><ele>939.8333333333333</ele><time>2026-04-30T11:27:31.398Z</time></trkpt><trkpt lat="46.5636645" lon="12.5805085"><ele>940.0</ele><time>2026-04-30T11:27:33.399Z</time></trkpt><trkpt lat="46.5637797" lon="12.5804451"><ele>939.4</ele><time>2026-04-30T11:27:35.398Z</time></trkpt><trkpt lat="46.5638745" lon="12.5804169"><ele>938.8</ele><time>2026-04-30T11:27:36.398Z</time></trkpt><trkpt lat="46.5639284" lon="12.5802463"><ele>938.2</ele><time>2026-04-30T11:27:38.398Z</time></trkpt><trkpt lat="46.5639319" lon="12.5801321"><ele>937.6</ele><time>2026-04-30T11:27:39.398Z</time></trkpt><trkpt lat="46.5639065" lon="12.5800103"><ele>937.0</ele><time>2026-04-30T11:27:40.397Z</time></trkpt><trkpt lat="46.5638765" lon="12.5798835"><ele>937.0</ele><time>2026-04-30T11:27:41.398Z</time></trkpt><trkpt lat="46.5638381" lon="12.5797558"><ele>937.0</ele><time>2026-04-30T11:27:42.398Z</time></trkpt><trkpt lat="46.5637957" lon="12.5796225"><ele>937.0</ele><time>2026-04-30T11:27:43.398Z</time></trkpt><trkpt lat="46.5637504" lon="12.5794832"><ele>937.0</ele><time>2026-04-30T11:27:44.398Z</time></trkpt><trkpt lat="46.5637095" lon="12.5793472"><ele>937.0</ele><time>2026-04-30T11:27:45.398Z</time></trkpt><trkpt lat="46.5636659" lon="12.5792112"><ele>937.4000000000001</ele><time>2026-04-30T11:27:46.398Z</time></trkpt><trkpt lat="46.5636183" lon="12.5790762"><ele>937.8000000000001</ele><time>2026-04-30T11:27:47.398Z</time></trkpt><trkpt lat="46.5635696" lon="12.5789383"><ele>938.2</ele><time>2026-04-30T11:27:48.398Z</time></trkpt><trkpt lat="46.5635199" lon="12.5787963"><ele>938.6</ele><time>2026-04-30T11:27:49.398Z</time></trkpt><trkpt lat="46.5634676" lon="12.5786558"><ele>939.0</ele><time>2026-04-30T11:27:50.398Z</time></trkpt><trkpt lat="46.5634121" lon="12.5785138"><ele>937.3333333333333</ele><time>2026-04-30T11:27:51.398Z</time></trkpt><trkpt lat="46.5632961" lon="12.5782224"><ele>935.6666666666666</ele><time>2026-04-30T11:27:53.398Z</time></trkpt><trkpt lat="46.5632346" lon="12.5780733"><ele>934.0</ele><time>2026-04-30T11:27:54.398Z</time></trkpt><trkpt lat="46.5631733" lon="12.5779279"><ele>934.2</ele><time>2026-04-30T11:27:55.398Z</time></trkpt><trkpt lat="46.5631132" lon="12.5777839"><ele>934.4000000000001</ele><time>2026-04-30T11:27:56.398Z</time></trkpt><trkpt lat="46.563052" lon="12.5776509"><ele>934.6</ele><time>2026-04-30T11:27:57.398Z</time></trkpt><trkpt lat="46.5630016" lon="12.5775272"><ele>934.8</ele><time>2026-04-30T11:27:58.398Z</time></trkpt><trkpt lat="46.5629724" lon="12.5774106"><ele>935.0</ele><time>2026-04-30T11:27:59.398Z</time></trkpt><trkpt lat="46.5629663" lon="12.5772977"><ele>935.0000000000001</ele><time>2026-04-30T11:28:00.398Z</time></trkpt><trkpt lat="46.5629727" lon="12.5772036"><ele>935.0</ele><time>2026-04-30T11:28:01.398Z</time></trkpt><trkpt lat="46.5630031" lon="12.5770615"><ele>935.0</ele><time>2026-04-30T11:28:03.398Z</time></trkpt><trkpt lat="46.5630638" lon="12.57693"><ele>935.0</ele><time>2026-04-30T11:28:05.398Z</time></trkpt><trkpt lat="46.563128" lon="12.5768898"><ele>935.0000000000001</ele><time>2026-04-30T11:28:06.398Z</time></trkpt><trkpt lat="46.563193" lon="12.5768545"><ele>935.0</ele><time>2026-04-30T11:28:07.398Z</time></trkpt><trkpt lat="46.5632583" lon="12.5768128"><ele>936.4285714285716</ele><time>2026-04-30T11:28:08.398Z</time></trkpt><trkpt lat="46.5633207" lon="12.5767542"><ele>937.8571428571429</ele><time>2026-04-30T11:28:09.398Z</time></trkpt><trkpt lat="46.5633751" lon="12.5766801"><ele>939.2857142857143</ele><time>2026-04-30T11:28:10.398Z</time></trkpt><trkpt lat="46.5634231" lon="12.5766114"><ele>940.7142857142858</ele><time>2026-04-30T11:28:11.398Z</time></trkpt><trkpt lat="46.5634567" lon="12.5765146"><ele>942.1428571428571</ele><time>2026-04-30T11:28:12.398Z</time></trkpt><trkpt lat="46.5634799" lon="12.5764234"><ele>943.5714285714286</ele><time>2026-04-30T11:28:13.398Z</time></trkpt><trkpt lat="46.5635065" lon="12.5763266"><ele>945.0</ele><time>2026-04-30T11:28:14.398Z</time></trkpt><trkpt lat="46.5635229" lon="12.5762096"><ele>946.0</ele><time>2026-04-30T11:28:15.398Z</time></trkpt><trkpt lat="46.5635082" lon="12.5761045"><ele>947.0</ele><time>2026-04-30T11:28:16.398Z</time></trkpt><trkpt lat="46.5634954" lon="12.5759958"><ele>948.0</ele><time>2026-04-30T11:28:17.397Z</time></trkpt><trkpt lat="46.5634715" lon="12.5758848"><ele>949.0</ele><time>2026-04-30T11:28:18.398Z</time></trkpt><trkpt lat="46.5634302" lon="12.5757724"><ele>950.0</ele><time>2026-04-30T11:28:19.398Z</time></trkpt><trkpt lat="46.5633915" lon="12.5756609"><ele>951.0</ele><time>2026-04-30T11:28:20.398Z</time></trkpt><trkpt lat="46.5633501" lon="12.5755517"><ele>951.0</ele><time>2026-04-30T11:28:21.398Z</time></trkpt><trkpt lat="46.5632999" lon="12.5754476"><ele>950.9999999999999</ele><time>2026-04-30T11:28:22.397Z</time></trkpt><trkpt lat="46.5632454" lon="12.5753339"><ele>950.9999999999999</ele><time>2026-04-30T11:28:23.398Z</time></trkpt><trkpt lat="46.5631882" lon="12.5752229"><ele>951.0</ele><time>2026-04-30T11:28:24.398Z</time></trkpt><trkpt lat="46.5631237" lon="12.5751085"><ele>951.0</ele><time>2026-04-30T11:28:25.398Z</time></trkpt><trkpt lat="46.5630664" lon="12.5749973"><ele>951.0</ele><time>2026-04-30T11:28:26.398Z</time></trkpt><trkpt lat="46.5630045" lon="12.5748895"><ele>950.9999999999999</ele><time>2026-04-30T11:28:27.398Z</time></trkpt><trkpt lat="46.5629398" lon="12.574789"><ele>950.9999999999999</ele><time>2026-04-30T11:28:28.399Z</time></trkpt><trkpt lat="46.562884" lon="12.574679"><ele>951.0</ele><time>2026-04-30T11:28:29.398Z</time></trkpt><trkpt lat="46.5628229" lon="12.5745579"><ele>951.0</ele><time>2026-04-30T11:28:30.398Z</time></trkpt><trkpt lat="46.5627587" lon="12.5744439"><ele>951.0</ele><time>2026-04-30T11:28:31.398Z</time></trkpt><trkpt lat="46.5627034" lon="12.5743309"><ele>950.9999999999999</ele><time>2026-04-30T11:28:32.398Z</time></trkpt><trkpt lat="46.562648" lon="12.5742222"><ele>950.9999999999999</ele><time>2026-04-30T11:28:33.398Z</time></trkpt><trkpt lat="46.5625859" lon="12.5741231"><ele>951.0</ele><time>2026-04-30T11:28:34.399Z</time></trkpt><trkpt lat="46.5625304" lon="12.5740244"><ele>951.0</ele><time>2026-04-30T11:28:35.399Z</time></trkpt><trkpt lat="46.5624733" lon="12.5739134"><ele>951.0</ele><time>2026-04-30T11:28:36.399Z</time></trkpt><trkpt lat="46.5624141" lon="12.5737989"><ele>950.9999999999999</ele><time>2026-04-30T11:28:37.398Z</time></trkpt><trkpt lat="46.5623498" lon="12.5736777"><ele>950.9999999999999</ele><time>2026-04-30T11:28:38.399Z</time></trkpt><trkpt lat="46.562292" lon="12.5735559"><ele>951.0</ele><time>2026-04-30T11:28:39.399Z</time></trkpt><trkpt lat="46.5622375" lon="12.5734304"><ele>951.0</ele><time>2026-04-30T11:28:40.399Z</time></trkpt><trkpt lat="46.5621843" lon="12.5733162"><ele>950.5999999999999</ele><time>2026-04-30T11:28:41.399Z</time></trkpt><trkpt lat="46.5621273" lon="12.5732105"><ele>950.1999999999999</ele><time>2026-04-30T11:28:42.399Z</time></trkpt><trkpt lat="46.5620612" lon="12.5731139"><ele>949.8000000000001</ele><time>2026-04-30T11:28:43.399Z</time></trkpt><trkpt lat="46.5619959" lon="12.5730143"><ele>949.4000000000001</ele><time>2026-04-30T11:28:44.399Z</time></trkpt><trkpt lat="46.5619301" lon="12.5729152"><ele>949.0</ele><time>2026-04-30T11:28:45.399Z</time></trkpt><trkpt lat="46.5619003" lon="12.5728069"><ele>949.0</ele><time>2026-04-30T11:28:46.399Z</time></trkpt><trkpt lat="46.5618649" lon="12.5726747"><ele>949.0000000000001</ele><time>2026-04-30T11:28:48.399Z</time></trkpt><trkpt lat="46.5618475" lon="12.5725247"><ele>949.0000000000001</ele><time>2026-04-30T11:28:50.399Z</time></trkpt><trkpt lat="46.5617998" lon="12.5724355"><ele>949.0</ele><time>2026-04-30T11:28:51.399Z</time></trkpt><trkpt lat="46.5617455" lon="12.5723393"><ele>949.0</ele><time>2026-04-30T11:28:52.399Z</time></trkpt><trkpt lat="46.5616983" lon="12.5722293"><ele>949.0</ele><time>2026-04-30T11:28:53.399Z</time></trkpt><trkpt lat="46.5616423" lon="12.5721186"><ele>949.0000000000001</ele><time>2026-04-30T11:28:54.399Z</time></trkpt><trkpt lat="46.5615808" lon="12.5720123"><ele>949.0000000000001</ele><time>2026-04-30T11:28:55.399Z</time></trkpt><trkpt lat="46.561514" lon="12.5719026"><ele>949.0</ele><time>2026-04-30T11:28:56.399Z</time></trkpt><trkpt lat="46.5614424" lon="12.5717874"><ele>949.0</ele><time>2026-04-30T11:28:57.399Z</time></trkpt><trkpt lat="46.5613693" lon="12.5716688"><ele>949.8000000000001</ele><time>2026-04-30T11:28:58.399Z</time></trkpt><trkpt lat="46.561295" lon="12.5715595"><ele>950.6000000000001</ele><time>2026-04-30T11:28:59.399Z</time></trkpt><trkpt lat="46.5612229" lon="12.571449"><ele>951.4</ele><time>2026-04-30T11:29:00.399Z</time></trkpt><trkpt lat="46.5611552" lon="12.5713422"><ele>952.2</ele><time>2026-04-30T11:29:01.399Z</time></trkpt><trkpt lat="46.5610931" lon="12.5712337"><ele>953.0</ele><time>2026-04-30T11:29:02.399Z</time></trkpt><trkpt lat="46.5610332" lon="12.5711192"><ele>953.0</ele><time>2026-04-30T11:29:03.399Z</time></trkpt><trkpt lat="46.5609742" lon="12.5710075"><ele>953.0</ele><time>2026-04-30T11:29:04.399Z</time></trkpt><trkpt lat="46.5609157" lon="12.5709147"><ele>953.0</ele><time>2026-04-30T11:29:05.399Z</time></trkpt><trkpt lat="46.5608662" lon="12.5708298"><ele>953.0</ele><time>2026-04-30T11:29:06.399Z</time></trkpt><trkpt lat="46.5608312" lon="12.5707532"><ele>953.0</ele><time>2026-04-30T11:29:07.398Z</time></trkpt><trkpt lat="46.5607716" lon="12.5705833"><ele>953.0</ele><time>2026-04-30T11:29:09.399Z</time></trkpt><trkpt lat="46.5607199" lon="12.5704998"><ele>953.0</ele><time>2026-04-30T11:29:10.399Z</time></trkpt><trkpt lat="46.5606626" lon="12.5704566"><ele>953.0</ele><time>2026-04-30T11:29:11.4Z</time></trkpt><trkpt lat="46.5605746" lon="12.570358"><ele>953.0</ele><time>2026-04-30T11:29:13.399Z</time></trkpt><trkpt lat="46.5605317" lon="12.5701878"><ele>953.0</ele><time>2026-04-30T11:29:15.399Z</time></trkpt><trkpt lat="46.5604864" lon="12.5700835"><ele>954.3333333333334</ele><time>2026-04-30T11:29:16.399Z</time></trkpt><trkpt lat="46.5604464" lon="12.5699799"><ele>955.6666666666667</ele><time>2026-04-30T11:29:17.399Z</time></trkpt><trkpt lat="46.5603994" lon="12.5698708"><ele>957.0</ele><time>2026-04-30T11:29:18.399Z</time></trkpt><trkpt lat="46.5603537" lon="12.5697674"><ele>958.3333333333333</ele><time>2026-04-30T11:29:19.399Z</time></trkpt><trkpt lat="46.5603106" lon="12.5696601"><ele>959.6666666666666</ele><time>2026-04-30T11:29:20.399Z</time></trkpt><trkpt lat="46.5602674" lon="12.5695449"><ele>961.0</ele><time>2026-04-30T11:29:21.399Z</time></trkpt><trkpt lat="46.5602213" lon="12.5694328"><ele>961.0</ele><time>2026-04-30T11:29:22.398Z</time></trkpt><trkpt lat="46.5601753" lon="12.5693202"><ele>960.9999999999999</ele><time>2026-04-30T11:29:23.4Z</time></trkpt><trkpt lat="46.5601245" lon="12.5692086"><ele>960.9999999999999</ele><time>2026-04-30T11:29:24.399Z</time></trkpt><trkpt lat="46.560058" lon="12.5690857"><ele>961.0</ele><time>2026-04-30T11:29:25.399Z</time></trkpt><trkpt lat="46.5600023" lon="12.5689748"><ele>961.0</ele><time>2026-04-30T11:29:26.4Z</time></trkpt><trkpt lat="46.5599689" lon="12.5688736"><ele>961.0</ele><time>2026-04-30T11:29:27.399Z</time></trkpt><trkpt lat="46.5599461" lon="12.5687784"><ele>960.9999999999999</ele><time>2026-04-30T11:29:28.4Z</time></trkpt><trkpt lat="46.559932" lon="12.5686859"><ele>961.0</ele><time>2026-04-30T11:29:29.399Z</time></trkpt><trkpt lat="46.5599252" lon="12.5685942"><ele>961.0</ele><time>2026-04-30T11:29:30.399Z</time></trkpt><trkpt lat="46.5599306" lon="12.5684904"><ele>960.9999999999999</ele><time>2026-04-30T11:29:31.399Z</time></trkpt><trkpt lat="46.5599544" lon="12.5683733"><ele>961.0</ele><time>2026-04-30T11:29:32.399Z</time></trkpt><trkpt lat="46.5599798" lon="12.5682465"><ele>961.0</ele><time>2026-04-30T11:29:33.399Z</time></trkpt><trkpt lat="46.5600194" lon="12.5681124"><ele>959.5999999999999</ele><time>2026-04-30T11:29:34.399Z</time></trkpt><trkpt lat="46.5600254" lon="12.56797"><ele>958.1999999999999</ele><time>2026-04-30T11:29:35.399Z</time></trkpt><trkpt lat="46.5600298" lon="12.567827"><ele>956.8000000000001</ele><time>2026-04-30T11:29:36.399Z</time></trkpt><trkpt lat="46.5600222" lon="12.5676901"><ele>955.4000000000001</ele><time>2026-04-30T11:29:37.398Z</time></trkpt><trkpt lat="46.5600123" lon="12.5675508"><ele>954.0</ele><time>2026-04-30T11:29:38.399Z</time></trkpt><trkpt lat="46.5600175" lon="12.5674179"><ele>953.0</ele><time>2026-04-30T11:29:39.399Z</time></trkpt><trkpt lat="46.5600305" lon="12.5673184"><ele>952.0</ele><time>2026-04-30T11:29:40.399Z</time></trkpt><trkpt lat="46.5600249" lon="12.5671697"><ele>951.0</ele><time>2026-04-30T11:29:42.399Z</time></trkpt><trkpt lat="46.559978" lon="12.5670991"><ele>950.0</ele><time>2026-04-30T11:29:43.399Z</time></trkpt><trkpt lat="46.5599204" lon="12.5669473"><ele>949.0</ele><time>2026-04-30T11:29:45.399Z</time></trkpt><trkpt lat="46.5598995" lon="12.5668535"><ele>948.0</ele><time>2026-04-30T11:29:46.399Z</time></trkpt><trkpt lat="46.5598939" lon="12.5667479"><ele>945.5</ele><time>2026-04-30T11:29:47.399Z</time></trkpt><trkpt lat="46.5598919" lon="12.5666325"><ele>943.0</ele><time>2026-04-30T11:29:48.399Z</time></trkpt><trkpt lat="46.559882" lon="12.5665187"><ele>940.5</ele><time>2026-04-30T11:29:49.399Z</time></trkpt><trkpt lat="46.5598524" lon="12.5664093"><ele>938.0</ele><time>2026-04-30T11:29:50.398Z</time></trkpt><trkpt lat="46.5598226" lon="12.5663"><ele>935.5</ele><time>2026-04-30T11:29:51.399Z</time></trkpt><trkpt lat="46.5597899" lon="12.5661937"><ele>933.0</ele><time>2026-04-30T11:29:52.399Z</time></trkpt><trkpt lat="46.559762" lon="12.5660944"><ele>931.8333333333334</ele><time>2026-04-30T11:29:53.399Z</time></trkpt><trkpt lat="46.5597307" lon="12.5660131"><ele>930.6666666666667</ele><time>2026-04-30T11:29:54.399Z</time></trkpt><trkpt lat="46.5596922" lon="12.5659144"><ele>929.5</ele><time>2026-04-30T11:29:55.399Z</time></trkpt><trkpt lat="46.5596475" lon="12.5658317"><ele>928.3333333333334</ele><time>2026-04-30T11:29:56.399Z</time></trkpt><trkpt lat="46.5595407" lon="12.5657593"><ele>927.1666666666667</ele><time>2026-04-30T11:29:58.399Z</time></trkpt><trkpt lat="46.5594808" lon="12.5657299"><ele>926.0</ele><time>2026-04-30T11:29:59.399Z</time></trkpt><trkpt lat="46.5594048" lon="12.5656582"><ele>928.0000000000001</ele><time>2026-04-30T11:30:01.399Z</time></trkpt><trkpt lat="46.5593881" lon="12.5655521"><ele>930.0</ele><time>2026-04-30T11:30:02.399Z</time></trkpt><trkpt lat="46.5593734" lon="12.5654279"><ele>932.0</ele><time>2026-04-30T11:30:03.399Z</time></trkpt><trkpt lat="46.5593523" lon="12.56531"><ele>934.0</ele><time>2026-04-30T11:30:04.399Z</time></trkpt><trkpt lat="46.5593184" lon="12.5652117"><ele>936.0000000000001</ele><time>2026-04-30T11:30:05.399Z</time></trkpt><trkpt lat="46.5592808" lon="12.5651067"><ele>938.0</ele><time>2026-04-30T11:30:06.398Z</time></trkpt><trkpt lat="46.5592698" lon="12.5650149"><ele>938.0000000000001</ele><time>2026-04-30T11:30:07.399Z</time></trkpt><trkpt lat="46.5592507" lon="12.5649169"><ele>938.0</ele><time>2026-04-30T11:30:08.399Z</time></trkpt><trkpt lat="46.5592078" lon="12.5648269"><ele>938.0</ele><time>2026-04-30T11:30:09.399Z</time></trkpt><trkpt lat="46.5591783" lon="12.5647184"><ele>938.0</ele><time>2026-04-30T11:30:10.399Z</time></trkpt><trkpt lat="46.5591431" lon="12.5645871"><ele>938.0000000000001</ele><time>2026-04-30T11:30:11.398Z</time></trkpt><trkpt lat="46.559108" lon="12.5644367"><ele>938.0</ele><time>2026-04-30T11:30:12.399Z</time></trkpt><trkpt lat="46.559074" lon="12.5642923"><ele>936.75</ele><time>2026-04-30T11:30:13.4Z</time></trkpt><trkpt lat="46.5590328" lon="12.5641531"><ele>935.5</ele><time>2026-04-30T11:30:14.399Z</time></trkpt><trkpt lat="46.5589421" lon="12.5639186"><ele>934.25</ele><time>2026-04-30T11:30:16.399Z</time></trkpt><trkpt lat="46.5588822" lon="12.5638178"><ele>933.0</ele><time>2026-04-30T11:30:17.398Z</time></trkpt><trkpt lat="46.55883" lon="12.5637099"><ele>931.8</ele><time>2026-04-30T11:30:18.4Z</time></trkpt><trkpt lat="46.558773" lon="12.5635902"><ele>930.5999999999999</ele><time>2026-04-30T11:30:19.399Z</time></trkpt><trkpt lat="46.5587241" lon="12.5634558"><ele>929.4000000000001</ele><time>2026-04-30T11:30:20.399Z</time></trkpt><trkpt lat="46.5586866" lon="12.5632951"><ele>928.2</ele><time>2026-04-30T11:30:21.399Z</time></trkpt><trkpt lat="46.5586394" lon="12.5631597"><ele>927.0</ele><time>2026-04-30T11:30:22.399Z</time></trkpt><trkpt lat="46.5585848" lon="12.5630266"><ele>931.8</ele><time>2026-04-30T11:30:23.399Z</time></trkpt><trkpt lat="46.5585323" lon="12.5628943"><ele>936.6</ele><time>2026-04-30T11:30:24.399Z</time></trkpt><trkpt lat="46.558499" lon="12.5627732"><ele>941.3999999999999</ele><time>2026-04-30T11:30:25.399Z</time></trkpt><trkpt lat="46.558461" lon="12.5626442"><ele>946.1999999999999</ele><time>2026-04-30T11:30:26.399Z</time></trkpt><trkpt lat="46.5584531" lon="12.5625183"><ele>951.0</ele><time>2026-04-30T11:30:27.399Z</time></trkpt><trkpt lat="46.5584312" lon="12.5624191"><ele>951.0</ele><time>2026-04-30T11:30:28.399Z</time></trkpt><trkpt lat="46.5583507" lon="12.5622946"><ele>951.0</ele><time>2026-04-30T11:30:30.399Z</time></trkpt><trkpt lat="46.5582627" lon="12.5622595"><ele>951.0</ele><time>2026-04-30T11:30:32.399Z</time></trkpt><trkpt lat="46.558212" lon="12.5621741"><ele>951.0</ele><time>2026-04-30T11:30:35.399Z</time></trkpt><trkpt lat="46.5582323" lon="12.5620679"><ele>951.0</ele><time>2026-04-30T11:30:37.398Z</time></trkpt><trkpt lat="46.5583099" lon="12.5620513"><ele>951.0</ele><time>2026-04-30T11:30:38.399Z</time></trkpt><trkpt lat="46.5584064" lon="12.5619518"><ele>949.4</ele><time>2026-04-30T11:30:40.399Z</time></trkpt><trkpt lat="46.5584652" lon="12.5617855"><ele>947.8</ele><time>2026-04-30T11:30:42.399Z</time></trkpt><trkpt lat="46.5584949" lon="12.5616852"><ele>946.1999999999999</ele><time>2026-04-30T11:30:43.399Z</time></trkpt><trkpt lat="46.5585231" lon="12.5615716"><ele>944.5999999999999</ele><time>2026-04-30T11:30:44.398Z</time></trkpt><trkpt lat="46.5585432" lon="12.5614522"><ele>943.0</ele><time>2026-04-30T11:30:45.399Z</time></trkpt><trkpt lat="46.5585628" lon="12.5613315"><ele>942.6666666666666</ele><time>2026-04-30T11:30:46.399Z</time></trkpt><trkpt lat="46.5585745" lon="12.5611948"><ele>942.3333333333333</ele><time>2026-04-30T11:30:47.399Z</time></trkpt><trkpt lat="46.5585809" lon="12.5610625"><ele>942.0</ele><time>2026-04-30T11:30:48.399Z</time></trkpt><trkpt lat="46.5585821" lon="12.5609375"><ele>941.6666666666667</ele><time>2026-04-30T11:30:49.399Z</time></trkpt><trkpt lat="46.5585817" lon="12.5608166"><ele>941.3333333333334</ele><time>2026-04-30T11:30:50.399Z</time></trkpt><trkpt lat="46.5585897" lon="12.5607054"><ele>941.0</ele><time>2026-04-30T11:30:51.399Z</time></trkpt><trkpt lat="46.5586059" lon="12.5605948"><ele>941.0000000000001</ele><time>2026-04-30T11:30:52.399Z</time></trkpt><trkpt lat="46.5586034" lon="12.560482"><ele>941.0</ele><time>2026-04-30T11:30:53.399Z</time></trkpt><trkpt lat="46.5585885" lon="12.5603682"><ele>941.0</ele><time>2026-04-30T11:30:54.399Z</time></trkpt><trkpt lat="46.5585567" lon="12.5602531"><ele>941.0</ele><time>2026-04-30T11:30:55.399Z</time></trkpt><trkpt lat="46.5585201" lon="12.5601359"><ele>941.0000000000001</ele><time>2026-04-30T11:30:56.399Z</time></trkpt><trkpt lat="46.5584772" lon="12.5600174"><ele>941.0</ele><time>2026-04-30T11:30:57.399Z</time></trkpt><trkpt lat="46.5584312" lon="12.5598966"><ele>939.8333333333334</ele><time>2026-04-30T11:30:58.4Z</time></trkpt><trkpt lat="46.5583865" lon="12.5597797"><ele>938.6666666666667</ele><time>2026-04-30T11:30:59.399Z</time></trkpt><trkpt lat="46.5583434" lon="12.5596735"><ele>937.5</ele><time>2026-04-30T11:31:00.399Z</time></trkpt><trkpt lat="46.558301" lon="12.5595737"><ele>936.3333333333333</ele><time>2026-04-30T11:31:01.399Z</time></trkpt><trkpt lat="46.5582619" lon="12.5594796"><ele>935.1666666666666</ele><time>2026-04-30T11:31:02.399Z</time></trkpt><trkpt lat="46.5582329" lon="12.5593981"><ele>934.0</ele><time>2026-04-30T11:31:03.399Z</time></trkpt><trkpt lat="46.5582429" lon="12.5592835"><ele>931.4000000000001</ele><time>2026-04-30T11:31:05.399Z</time></trkpt><trkpt lat="46.5583234" lon="12.5592313"><ele>928.8000000000001</ele><time>2026-04-30T11:31:07.399Z</time></trkpt><trkpt lat="46.558413" lon="12.5591572"><ele>926.1999999999999</ele><time>2026-04-30T11:31:09.398Z</time></trkpt><trkpt lat="46.5584926" lon="12.5590408"><ele>923.5999999999999</ele><time>2026-04-30T11:31:11.399Z</time></trkpt><trkpt lat="46.5585216" lon="12.5589582"><ele>921.0</ele><time>2026-04-30T11:31:12.399Z</time></trkpt><trkpt lat="46.5585382" lon="12.5587964"><ele>920.5714285714287</ele><time>2026-04-30T11:31:14.399Z</time></trkpt><trkpt lat="46.5585096" lon="12.5586669"><ele>920.1428571428571</ele><time>2026-04-30T11:31:16.399Z</time></trkpt><trkpt lat="46.5584894" lon="12.55857"><ele>919.7142857142858</ele><time>2026-04-30T11:31:18.399Z</time></trkpt><trkpt lat="46.5584933" lon="12.5584777"><ele>919.2857142857143</ele><time>2026-04-30T11:31:21.399Z</time></trkpt><trkpt lat="46.5584294" lon="12.5584502"><ele>918.8571428571429</ele><time>2026-04-30T11:31:35.399Z</time></trkpt><trkpt lat="46.5583671" lon="12.5584022"><ele>918.4285714285714</ele><time>2026-04-30T11:31:41.399Z</time></trkpt><trkpt lat="46.5583962" lon="12.5583182"><ele>918.0</ele><time>2026-04-30T11:31:59.397Z</time></trkpt><trkpt lat="46.5583069" lon="12.5583916"><ele>918.0</ele><time>2026-04-30T11:33:25.396Z</time></trkpt><trkpt lat="46.558368" lon="12.558367"><ele>918.0</ele><time>2026-04-30T11:36:04.396Z</time></trkpt><trkpt lat="46.5583549" lon="12.5582587"><ele>918.0</ele><time>2026-04-30T11:53:16.396Z</time></trkpt><trkpt lat="46.5583446" lon="12.55835"><ele>918.0</ele><time>2026-04-30T12:09:22.396Z</time></trkpt><trkpt lat="46.5584528" lon="12.5583685"><ele>918.0</ele><time>2026-04-30T12:09:31.396Z</time></trkpt><trkpt lat="46.5583859" lon="12.5583756"><ele>918.0</ele><time>2026-04-30T12:09:56.396Z</time></trkpt><trkpt lat="46.5583736" lon="12.5584669"><ele>918.0</ele><time>2026-04-30T12:10:13.397Z</time></trkpt><trkpt lat="46.5584399" lon="12.5584909"><ele>918.0</ele><time>2026-04-30T12:10:18.403Z</time></trkpt><trkpt lat="46.5585048" lon="12.5585287"><ele>918.0</ele><time>2026-04-30T12:14:58.425Z</time></trkpt><trkpt lat="46.5585196" lon="12.5586404"><ele>918.0</ele><time>2026-04-30T12:14:59.399Z</time></trkpt><trkpt lat="46.5585416" lon="12.5587335"><ele>918.0</ele><time>2026-04-30T12:15:00.342Z</time></trkpt><trkpt lat="46.5585824" lon="12.5588653"><ele>918.0</ele><time>2026-04-30T12:15:01.396Z</time></trkpt><trkpt lat="46.5586058" lon="12.5589665"><ele>918.0</ele><time>2026-04-30T12:15:02.396Z</time></trkpt><trkpt lat="46.5586502" lon="12.559099"><ele>917.2</ele><time>2026-04-30T12:15:04.396Z</time></trkpt><trkpt lat="46.5587117" lon="12.5591859"><ele>916.4</ele><time>2026-04-30T12:15:10.396Z</time></trkpt><trkpt lat="46.5587546" lon="12.5590457"><ele>915.6000000000001</ele><time>2026-04-30T12:15:12.396Z</time></trkpt><trkpt lat="46.5587448" lon="12.5589231"><ele>914.8000000000001</ele><time>2026-04-30T12:15:13.396Z</time></trkpt><trkpt lat="46.5587426" lon="12.5587908"><ele>914.0</ele><time>2026-04-30T12:15:14.396Z</time></trkpt><trkpt lat="46.5587386" lon="12.5586667"><ele>913.6666666666667</ele><time>2026-04-30T12:15:15.396Z</time></trkpt><trkpt lat="46.5587319" lon="12.5585571"><ele>913.3333333333334</ele><time>2026-04-30T12:15:16.396Z</time></trkpt><trkpt lat="46.5587258" lon="12.5584488"><ele>913.0</ele><time>2026-04-30T12:15:17.396Z</time></trkpt><trkpt lat="46.5587205" lon="12.5583425"><ele>912.6666666666667</ele><time>2026-04-30T12:15:18.397Z</time></trkpt><trkpt lat="46.5587178" lon="12.5582346"><ele>912.3333333333334</ele><time>2026-04-30T12:15:19.396Z</time></trkpt><trkpt lat="46.5587119" lon="12.5581197"><ele>912.0</ele><time>2026-04-30T12:15:20.396Z</time></trkpt><trkpt lat="46.5586987" lon="12.5580035"><ele>913.2</ele><time>2026-04-30T12:15:21.396Z</time></trkpt><trkpt lat="46.5586871" lon="12.5578871"><ele>914.4000000000001</ele><time>2026-04-30T12:15:22.396Z</time></trkpt><trkpt lat="46.5586769" lon="12.5577691"><ele>915.5999999999999</ele><time>2026-04-30T12:15:23.396Z</time></trkpt><trkpt lat="46.5586702" lon="12.55765"><ele>916.8</ele><time>2026-04-30T12:15:24.396Z</time></trkpt><trkpt lat="46.5586627" lon="12.5575366"><ele>918.0</ele><time>2026-04-30T12:15:25.396Z</time></trkpt><trkpt lat="46.5586509" lon="12.5573487"><ele>918.2</ele><time>2026-04-30T12:15:27.396Z</time></trkpt><trkpt lat="46.558643" lon="12.5572319"><ele>918.4</ele><time>2026-04-30T12:15:29.396Z</time></trkpt><trkpt lat="46.5587878" lon="12.5571316"><ele>918.6000000000001</ele><time>2026-04-30T12:15:32.396Z</time></trkpt><trkpt lat="46.5588581" lon="12.5570865"><ele>918.8000000000001</ele><time>2026-04-30T12:15:33.396Z</time></trkpt><trkpt lat="46.5589231" lon="12.5570597"><ele>919.0</ele><time>2026-04-30T12:15:34.396Z</time></trkpt><trkpt lat="46.5589889" lon="12.5570396"><ele>917.2</ele><time>2026-04-30T12:15:35.396Z</time></trkpt><trkpt lat="46.5590547" lon="12.5570414"><ele>915.4000000000001</ele><time>2026-04-30T12:15:36.396Z</time></trkpt><trkpt lat="46.5591385" lon="12.5570452"><ele>913.6</ele><time>2026-04-30T12:15:38.396Z</time></trkpt><trkpt lat="46.5592028" lon="12.5569487"><ele>911.8</ele><time>2026-04-30T12:15:41.396Z</time></trkpt><trkpt lat="46.5591762" lon="12.5567616"><ele>910.0</ele><time>2026-04-30T12:15:43.396Z</time></trkpt><trkpt lat="46.5591588" lon="12.5566415"><ele>910.0</ele><time>2026-04-30T12:15:44.396Z</time></trkpt><trkpt lat="46.5591424" lon="12.5565127"><ele>910.0</ele><time>2026-04-30T12:15:45.396Z</time></trkpt><trkpt lat="46.5591433" lon="12.556381"><ele>910.0</ele><time>2026-04-30T12:15:46.396Z</time></trkpt><trkpt lat="46.5591526" lon="12.5562482"><ele>910.0</ele><time>2026-04-30T12:15:47.396Z</time></trkpt><trkpt lat="46.5591578" lon="12.5561137"><ele>910.0</ele><time>2026-04-30T12:15:48.396Z</time></trkpt><trkpt lat="46.5591553" lon="12.5559727"><ele>910.6</ele><time>2026-04-30T12:15:49.396Z</time></trkpt><trkpt lat="46.5591538" lon="12.5558378"><ele>911.2</ele><time>2026-04-30T12:15:50.396Z</time></trkpt><trkpt lat="46.559151" lon="12.5557023"><ele>911.8</ele><time>2026-04-30T12:15:51.396Z</time></trkpt><trkpt lat="46.5591478" lon="12.5555668"><ele>912.4</ele><time>2026-04-30T12:15:52.396Z</time></trkpt><trkpt lat="46.559149" lon="12.5554301"><ele>913.0</ele><time>2026-04-30T12:15:53.396Z</time></trkpt><trkpt lat="46.5591467" lon="12.5552924"><ele>913.2</ele><time>2026-04-30T12:15:54.396Z</time></trkpt><trkpt lat="46.5591634" lon="12.5551525"><ele>913.4</ele><time>2026-04-30T12:15:55.396Z</time></trkpt><trkpt lat="46.5591889" lon="12.5549987"><ele>913.6000000000001</ele><time>2026-04-30T12:15:56.396Z</time></trkpt><trkpt lat="46.5592174" lon="12.5548466"><ele>913.8000000000001</ele><time>2026-04-30T12:15:57.396Z</time></trkpt><trkpt lat="46.5592381" lon="12.5546897"><ele>914.0</ele><time>2026-04-30T12:15:58.396Z</time></trkpt><trkpt lat="46.5592509" lon="12.5545275"><ele>914.25</ele><time>2026-04-30T12:15:59.396Z</time></trkpt><trkpt lat="46.559259" lon="12.5543615"><ele>914.5</ele><time>2026-04-30T12:16:00.396Z</time></trkpt><trkpt lat="46.5592672" lon="12.5541955"><ele>914.75</ele><time>2026-04-30T12:16:01.396Z</time></trkpt><trkpt lat="46.5592698" lon="12.5540263"><ele>915.0</ele><time>2026-04-30T12:16:02.396Z</time></trkpt><trkpt lat="46.5592679" lon="12.553851"><ele>915.5</ele><time>2026-04-30T12:16:03.397Z</time></trkpt><trkpt lat="46.559268" lon="12.5536867"><ele>916.0</ele><time>2026-04-30T12:16:04.396Z</time></trkpt><trkpt lat="46.5592618" lon="12.553523"><ele>916.5</ele><time>2026-04-30T12:16:05.396Z</time></trkpt><trkpt lat="46.5592601" lon="12.5533564"><ele>917.0</ele><time>2026-04-30T12:16:06.396Z</time></trkpt><trkpt lat="46.5592611" lon="12.553189"><ele>917.0</ele><time>2026-04-30T12:16:07.396Z</time></trkpt><trkpt lat="46.5592627" lon="12.5530143"><ele>917.0</ele><time>2026-04-30T12:16:08.396Z</time></trkpt><trkpt lat="46.5592618" lon="12.5528345"><ele>917.0</ele><time>2026-04-30T12:16:09.396Z</time></trkpt><trkpt lat="46.5592578" lon="12.5526518"><ele>917.0</ele><time>2026-04-30T12:16:10.396Z</time></trkpt><trkpt lat="46.5592557" lon="12.5524725"><ele>917.25</ele><time>2026-04-30T12:16:11.396Z</time></trkpt><trkpt lat="46.5592549" lon="12.5522996"><ele>917.5</ele><time>2026-04-30T12:16:12.396Z</time></trkpt><trkpt lat="46.5592567" lon="12.5521339"><ele>917.75</ele><time>2026-04-30T12:16:13.396Z</time></trkpt><trkpt lat="46.5592564" lon="12.551972"><ele>918.0</ele><time>2026-04-30T12:16:14.396Z</time></trkpt><trkpt lat="46.5592574" lon="12.5518167"><ele>918.0</ele><time>2026-04-30T12:16:15.396Z</time></trkpt><trkpt lat="46.5592565" lon="12.5516556"><ele>918.0</ele><time>2026-04-30T12:16:16.396Z</time></trkpt><trkpt lat="46.5592589" lon="12.5514971"><ele>918.0</ele><time>2026-04-30T12:16:17.396Z</time></trkpt><trkpt lat="46.5592642" lon="12.5513471"><ele>918.0</ele><time>2026-04-30T12:16:18.397Z</time></trkpt><trkpt lat="46.559276" lon="12.5512187"><ele>918.0</ele><time>2026-04-30T12:16:19.396Z</time></trkpt><trkpt lat="46.5592907" lon="12.5511085"><ele>918.0</ele><time>2026-04-30T12:16:20.396Z</time></trkpt><trkpt lat="46.5592988" lon="12.5510055"><ele>918.0</ele><time>2026-04-30T12:16:21.396Z</time></trkpt><trkpt lat="46.5593068" lon="12.5508967"><ele>918.0</ele><time>2026-04-30T12:16:22.396Z</time></trkpt><trkpt lat="46.5593112" lon="12.5507878"><ele>918.0</ele><time>2026-04-30T12:16:23.396Z</time></trkpt><trkpt lat="46.5593117" lon="12.5506766"><ele>918.0</ele><time>2026-04-30T12:16:24.396Z</time></trkpt><trkpt lat="46.5593228" lon="12.5505621"><ele>918.0</ele><time>2026-04-30T12:16:25.396Z</time></trkpt><trkpt lat="46.5593372" lon="12.5504466"><ele>918.3333333333334</ele><time>2026-04-30T12:16:26.396Z</time></trkpt><trkpt lat="46.5593547" lon="12.5503351"><ele>918.6666666666667</ele><time>2026-04-30T12:16:27.396Z</time></trkpt><trkpt lat="46.5593672" lon="12.5502243"><ele>919.0</ele><time>2026-04-30T12:16:28.396Z</time></trkpt><trkpt lat="46.5593809" lon="12.5501144"><ele>919.3333333333334</ele><time>2026-04-30T12:16:29.396Z</time></trkpt><trkpt lat="46.5593936" lon="12.5500052"><ele>919.6666666666667</ele><time>2026-04-30T12:16:30.396Z</time></trkpt><trkpt lat="46.5594073" lon="12.5498975"><ele>920.0</ele><time>2026-04-30T12:16:31.396Z</time></trkpt><trkpt lat="46.5594244" lon="12.5497919"><ele>920.0000000000001</ele><time>2026-04-30T12:16:32.396Z</time></trkpt><trkpt lat="46.5594481" lon="12.5496931"><ele>920.0</ele><time>2026-04-30T12:16:33.396Z</time></trkpt><trkpt lat="46.5594772" lon="12.5495932"><ele>920.0</ele><time>2026-04-30T12:16:34.396Z</time></trkpt><trkpt lat="46.5595105" lon="12.5494957"><ele>920.0</ele><time>2026-04-30T12:16:35.396Z</time></trkpt><trkpt lat="46.5595507" lon="12.5493968"><ele>920.0000000000001</ele><time>2026-04-30T12:16:36.396Z</time></trkpt><trkpt lat="46.5595999" lon="12.5492951"><ele>920.0</ele><time>2026-04-30T12:16:37.396Z</time></trkpt><trkpt lat="46.5596567" lon="12.5491924"><ele>919.5000000000001</ele><time>2026-04-30T12:16:38.396Z</time></trkpt><trkpt lat="46.559717" lon="12.5490927"><ele>919.0</ele><time>2026-04-30T12:16:39.396Z</time></trkpt><trkpt lat="46.5597781" lon="12.5489902"><ele>918.5</ele><time>2026-04-30T12:16:40.396Z</time></trkpt><trkpt lat="46.5598365" lon="12.5488884"><ele>918.0</ele><time>2026-04-30T12:16:41.396Z</time></trkpt><trkpt lat="46.5598832" lon="12.5487833"><ele>917.5000000000001</ele><time>2026-04-30T12:16:42.397Z</time></trkpt><trkpt lat="46.5599128" lon="12.5486757"><ele>917.0</ele><time>2026-04-30T12:16:43.396Z</time></trkpt><trkpt lat="46.5599261" lon="12.5485765"><ele>917.0</ele><time>2026-04-30T12:16:44.396Z</time></trkpt><trkpt lat="46.5599338" lon="12.5484667"><ele>917.0</ele><time>2026-04-30T12:16:46.396Z</time></trkpt><trkpt lat="46.5599208" lon="12.548317"><ele>917.0</ele><time>2026-04-30T12:16:49.396Z</time></trkpt><trkpt lat="46.5598778" lon="12.5481692"><ele>917.0</ele><time>2026-04-30T12:16:51.396Z</time></trkpt><trkpt lat="46.5597785" lon="12.5481228"><ele>917.0</ele><time>2026-04-30T12:16:53.396Z</time></trkpt><trkpt lat="46.5596366" lon="12.5481155"><ele>917.0000000000001</ele><time>2026-04-30T12:16:55.396Z</time></trkpt><trkpt lat="46.5595496" lon="12.548142"><ele>917.0</ele><time>2026-04-30T12:16:56.397Z</time></trkpt><trkpt lat="46.5594656" lon="12.5481578"><ele>917.0</ele><time>2026-04-30T12:16:57.396Z</time></trkpt><trkpt lat="46.5593999" lon="12.5481919"><ele>917.0</ele><time>2026-04-30T12:16:58.396Z</time></trkpt><trkpt lat="46.5593306" lon="12.548216"><ele>917.0000000000001</ele><time>2026-04-30T12:16:59.396Z</time></trkpt><trkpt lat="46.5592186" lon="12.5481923"><ele>917.0</ele><time>2026-04-30T12:17:01.396Z</time></trkpt><trkpt lat="46.559166" lon="12.5481198"><ele>916.3333333333334</ele><time>2026-04-30T12:17:02.396Z</time></trkpt><trkpt lat="46.5591152" lon="12.5480497"><ele>915.6666666666667</ele><time>2026-04-30T12:17:03.397Z</time></trkpt><trkpt lat="46.5590916" lon="12.5479535"><ele>915.0</ele><time>2026-04-30T12:17:04.396Z</time></trkpt><trkpt lat="46.5590692" lon="12.5478457"><ele>914.3333333333333</ele><time>2026-04-30T12:17:05.396Z</time></trkpt><trkpt lat="46.5590606" lon="12.5477342"><ele>913.6666666666666</ele><time>2026-04-30T12:17:06.396Z</time></trkpt><trkpt lat="46.5590588" lon="12.5476353"><ele>913.0</ele><time>2026-04-30T12:17:07.396Z</time></trkpt><trkpt lat="46.5590356" lon="12.5474651"><ele>912.6666666666666</ele><time>2026-04-30T12:17:09.396Z</time></trkpt><trkpt lat="46.5589458" lon="12.5473529"><ele>912.3333333333333</ele><time>2026-04-30T12:17:11.396Z</time></trkpt><trkpt lat="46.55887" lon="12.5473251"><ele>912.0</ele><time>2026-04-30T12:17:12.396Z</time></trkpt><trkpt lat="46.5588056" lon="12.5472567"><ele>911.6666666666667</ele><time>2026-04-30T12:17:13.396Z</time></trkpt><trkpt lat="46.55874" lon="12.5471701"><ele>911.3333333333334</ele><time>2026-04-30T12:17:14.397Z</time></trkpt><trkpt lat="46.5586671" lon="12.5471112"><ele>911.0</ele><time>2026-04-30T12:17:15.396Z</time></trkpt><trkpt lat="46.5585827" lon="12.5470726"><ele>910.6666666666667</ele><time>2026-04-30T12:17:16.396Z</time></trkpt><trkpt lat="46.558495" lon="12.5470516"><ele>910.3333333333334</ele><time>2026-04-30T12:17:17.396Z</time></trkpt><trkpt lat="46.5584047" lon="12.5470449"><ele>910.0</ele><time>2026-04-30T12:17:18.396Z</time></trkpt><trkpt lat="46.5583169" lon="12.5470428"><ele>909.6666666666667</ele><time>2026-04-30T12:17:19.396Z</time></trkpt><trkpt lat="46.5582285" lon="12.5470392"><ele>909.3333333333334</ele><time>2026-04-30T12:17:20.396Z</time></trkpt><trkpt lat="46.5581407" lon="12.54703"><ele>909.0</ele><time>2026-04-30T12:17:21.396Z</time></trkpt><trkpt lat="46.5580546" lon="12.5470141"><ele>910.2</ele><time>2026-04-30T12:17:22.396Z</time></trkpt><trkpt lat="46.5579764" lon="12.5469884"><ele>911.4000000000001</ele><time>2026-04-30T12:17:23.396Z</time></trkpt><trkpt lat="46.5579027" lon="12.5469445"><ele>912.6</ele><time>2026-04-30T12:17:24.397Z</time></trkpt><trkpt lat="46.5578315" lon="12.546874"><ele>913.8</ele><time>2026-04-30T12:17:25.396Z</time></trkpt><trkpt lat="46.557757" lon="12.5467812"><ele>915.0</ele><time>2026-04-30T12:17:26.396Z</time></trkpt><trkpt lat="46.5576821" lon="12.5466689"><ele>915.0</ele><time>2026-04-30T12:17:27.396Z</time></trkpt><trkpt lat="46.5576111" lon="12.5465276"><ele>915.0</ele><time>2026-04-30T12:17:28.396Z</time></trkpt><trkpt lat="46.5575345" lon="12.5463717"><ele>915.0</ele><time>2026-04-30T12:17:29.396Z</time></trkpt><trkpt lat="46.5574571" lon="12.5462543"><ele>915.0</ele><time>2026-04-30T12:17:30.396Z</time></trkpt><trkpt lat="46.5573761" lon="12.5461428"><ele>919.25</ele><time>2026-04-30T12:17:31.397Z</time></trkpt><trkpt lat="46.5572951" lon="12.5460431"><ele>923.5</ele><time>2026-04-30T12:17:32.396Z</time></trkpt><trkpt lat="46.5572013" lon="12.5459485"><ele>927.75</ele><time>2026-04-30T12:17:33.396Z</time></trkpt><trkpt lat="46.5571029" lon="12.545866"><ele>932.0</ele><time>2026-04-30T12:17:34.396Z</time></trkpt><trkpt lat="46.5569877" lon="12.545769"><ele>932.0</ele><time>2026-04-30T12:17:35.396Z</time></trkpt><trkpt lat="46.5568535" lon="12.5456892"><ele>932.0</ele><time>2026-04-30T12:17:36.396Z</time></trkpt><trkpt lat="46.5567291" lon="12.5455995"><ele>932.0</ele><time>2026-04-30T12:17:37.396Z</time></trkpt><trkpt lat="46.5567182" lon="12.5454691"><ele>932.0</ele><time>2026-04-30T12:17:38.396Z</time></trkpt><trkpt lat="46.5566407" lon="12.5453456"><ele>941.0</ele><time>2026-04-30T12:17:39.396Z</time></trkpt><trkpt lat="46.5565583" lon="12.5452296"><ele>950.0</ele><time>2026-04-30T12:17:40.396Z</time></trkpt><trkpt lat="46.5564647" lon="12.5451294"><ele>959.0</ele><time>2026-04-30T12:17:41.396Z</time></trkpt><trkpt lat="46.5563645" lon="12.545034"><ele>968.0</ele><time>2026-04-30T12:17:42.396Z</time></trkpt><trkpt lat="46.5562757" lon="12.5449177"><ele>967.75</ele><time>2026-04-30T12:17:43.396Z</time></trkpt><trkpt lat="46.5561735" lon="12.5448103"><ele>967.5</ele><time>2026-04-30T12:17:44.396Z</time></trkpt><trkpt lat="46.5560885" lon="12.5446753"><ele>967.25</ele><time>2026-04-30T12:17:45.396Z</time></trkpt><trkpt lat="46.5560124" lon="12.5445598"><ele>967.0</ele><time>2026-04-30T12:17:46.396Z</time></trkpt><trkpt lat="46.5559367" lon="12.5444433"><ele>967.0</ele><time>2026-04-30T12:17:47.396Z</time></trkpt><trkpt lat="46.5558819" lon="12.5443094"><ele>967.0</ele><time>2026-04-30T12:17:48.396Z</time></trkpt><trkpt lat="46.5558186" lon="12.5441499"><ele>967.0</ele><time>2026-04-30T12:17:49.396Z</time></trkpt><trkpt lat="46.5557463" lon="12.543994"><ele>967.0</ele><time>2026-04-30T12:17:50.396Z</time></trkpt><trkpt lat="46.5556914" lon="12.5438542"><ele>971.2</ele><time>2026-04-30T12:17:51.396Z</time></trkpt><trkpt lat="46.5556354" lon="12.5437129"><ele>975.4000000000001</ele><time>2026-04-30T12:17:52.396Z</time></trkpt><trkpt lat="46.5555772" lon="12.5435892"><ele>979.5999999999999</ele><time>2026-04-30T12:17:53.396Z</time></trkpt><trkpt lat="46.5555404" lon="12.5434561"><ele>983.8</ele><time>2026-04-30T12:17:54.397Z</time></trkpt><trkpt lat="46.5555398" lon="12.5433136"><ele>988.0</ele><time>2026-04-30T12:17:55.396Z</time></trkpt><trkpt lat="46.5555375" lon="12.5431744"><ele>988.0</ele><time>2026-04-30T12:17:56.396Z</time></trkpt><trkpt lat="46.5555093" lon="12.5430236"><ele>988.0</ele><time>2026-04-30T12:17:57.396Z</time></trkpt><trkpt lat="46.5554819" lon="12.5428773"><ele>988.0</ele><time>2026-04-30T12:17:58.396Z</time></trkpt><trkpt lat="46.555446" lon="12.5427589"><ele>988.0</ele><time>2026-04-30T12:17:59.396Z</time></trkpt><trkpt lat="46.5553882" lon="12.5426178"><ele>988.0</ele><time>2026-04-30T12:18:00.397Z</time></trkpt><trkpt lat="46.5553366" lon="12.5425054"><ele>988.4</ele><time>2026-04-30T12:18:01.397Z</time></trkpt><trkpt lat="46.5552919" lon="12.5423824"><ele>988.8</ele><time>2026-04-30T12:18:02.396Z</time></trkpt><trkpt lat="46.5552472" lon="12.5422624"><ele>989.2</ele><time>2026-04-30T12:18:03.397Z</time></trkpt><trkpt lat="46.5552039" lon="12.5421338"><ele>989.6</ele><time>2026-04-30T12:18:04.396Z</time></trkpt><trkpt lat="46.5551726" lon="12.5419984"><ele>990.0</ele><time>2026-04-30T12:18:05.396Z</time></trkpt><trkpt lat="46.5551544" lon="12.5418601"><ele>990.0</ele><time>2026-04-30T12:18:06.397Z</time></trkpt><trkpt lat="46.555148" lon="12.5417321"><ele>990.0</ele><time>2026-04-30T12:18:07.396Z</time></trkpt><trkpt lat="46.5551594" lon="12.5416296"><ele>990.0</ele><time>2026-04-30T12:18:08.396Z</time></trkpt><trkpt lat="46.5552147" lon="12.5414992"><ele>990.0</ele><time>2026-04-30T12:18:10.396Z</time></trkpt><trkpt lat="46.5552996" lon="12.5415118"><ele>990.0</ele><time>2026-04-30T12:18:12.396Z</time></trkpt><trkpt lat="46.5553452" lon="12.5416452"><ele>996.0</ele><time>2026-04-30T12:18:14.396Z</time></trkpt><trkpt lat="46.555467" lon="12.5417642"><ele>1002.0</ele><time>2026-04-30T12:18:16.396Z</time></trkpt><trkpt lat="46.5555361" lon="12.5418073"><ele>1008.0</ele><time>2026-04-30T12:18:17.396Z</time></trkpt><trkpt lat="46.5555986" lon="12.5417804"><ele>1014.0</ele><time>2026-04-30T12:18:18.396Z</time></trkpt><trkpt lat="46.5557077" lon="12.5416772"><ele>1020.0</ele><time>2026-04-30T12:18:20.396Z</time></trkpt><trkpt lat="46.555733" lon="12.5415824"><ele>1020.0</ele><time>2026-04-30T12:18:21.396Z</time></trkpt><trkpt lat="46.5557339" lon="12.5414688"><ele>1020.0</ele><time>2026-04-30T12:18:22.396Z</time></trkpt><trkpt lat="46.5557325" lon="12.5413446"><ele>1020.0</ele><time>2026-04-30T12:18:23.396Z</time></trkpt><trkpt lat="46.5557473" lon="12.5412288"><ele>1020.0</ele><time>2026-04-30T12:18:24.396Z</time></trkpt><trkpt lat="46.5557621" lon="12.5411353"><ele>1020.0</ele><time>2026-04-30T12:18:25.396Z</time></trkpt><trkpt lat="46.5557977" lon="12.5410214"><ele>1020.0</ele><time>2026-04-30T12:18:27.396Z</time></trkpt><trkpt lat="46.55586" lon="12.5410878"><ele>1020.0</ele><time>2026-04-30T12:18:30.396Z</time></trkpt><trkpt lat="46.555912" lon="12.5412043"><ele>1020.0</ele><time>2026-04-30T12:18:32.396Z</time></trkpt><trkpt lat="46.5560138" lon="12.5412266"><ele>1020.0</ele><time>2026-04-30T12:18:34.396Z</time></trkpt><trkpt lat="46.5561148" lon="12.5412857"><ele>1020.0</ele><time>2026-04-30T12:18:36.396Z</time></trkpt><trkpt lat="46.5562047" lon="12.5413473"><ele>1020.0</ele><time>2026-04-30T12:18:38.396Z</time></trkpt><trkpt lat="46.5562601" lon="12.5412769"><ele>1029.8</ele><time>2026-04-30T12:18:40.396Z</time></trkpt><trkpt lat="46.5562652" lon="12.5411492"><ele>1039.6</ele><time>2026-04-30T12:18:42.396Z</time></trkpt><trkpt lat="46.5563265" lon="12.5410225"><ele>1049.4</ele><time>2026-04-30T12:18:44.396Z</time></trkpt><trkpt lat="46.5564138" lon="12.5410016"><ele>1059.2</ele><time>2026-04-30T12:18:46.396Z</time></trkpt><trkpt lat="46.5564918" lon="12.5411051"><ele>1069.0</ele><time>2026-04-30T12:18:48.397Z</time></trkpt><trkpt lat="46.5565411" lon="12.5411786"><ele>1067.5</ele><time>2026-04-30T12:18:49.396Z</time></trkpt><trkpt lat="46.5566045" lon="12.5412694"><ele>1066.0</ele><time>2026-04-30T12:18:50.396Z</time></trkpt><trkpt lat="46.5566567" lon="12.5413472"><ele>1064.5</ele><time>2026-04-30T12:18:51.396Z</time></trkpt><trkpt lat="46.556715" lon="12.5414495"><ele>1063.0</ele><time>2026-04-30T12:18:52.396Z</time></trkpt><trkpt lat="46.5567742" lon="12.5415644"><ele>1061.5</ele><time>2026-04-30T12:18:53.396Z</time></trkpt><trkpt lat="46.5568249" lon="12.541663"><ele>1060.0</ele><time>2026-04-30T12:18:54.396Z</time></trkpt><trkpt lat="46.556881" lon="12.5417596"><ele>1060.0</ele><time>2026-04-30T12:18:55.396Z</time></trkpt><trkpt lat="46.5569418" lon="12.5418409"><ele>1060.0</ele><time>2026-04-30T12:18:56.396Z</time></trkpt><trkpt lat="46.5570075" lon="12.5419077"><ele>1060.0</ele><time>2026-04-30T12:18:57.396Z</time></trkpt><trkpt lat="46.5570794" lon="12.5419535"><ele>1060.0</ele><time>2026-04-30T12:18:58.396Z</time></trkpt><trkpt lat="46.5571519" lon="12.5419748"><ele>1060.0</ele><time>2026-04-30T12:18:59.396Z</time></trkpt><trkpt lat="46.5572261" lon="12.5419988"><ele>1060.0</ele><time>2026-04-30T12:19:00.396Z</time></trkpt><trkpt lat="46.5573033" lon="12.5420083"><ele>1066.0</ele><time>2026-04-30T12:19:01.396Z</time></trkpt><trkpt lat="46.5574525" lon="12.5419988"><ele>1072.0</ele><time>2026-04-30T12:19:03.397Z</time></trkpt><trkpt lat="46.5575264" lon="12.5419863"><ele>1078.0</ele><time>2026-04-30T12:19:04.396Z</time></trkpt><trkpt lat="46.5575928" lon="12.5419584"><ele>1084.0</ele><time>2026-04-30T12:19:05.396Z</time></trkpt><trkpt lat="46.5577208" lon="12.5419099"><ele>1090.0</ele><time>2026-04-30T12:19:07.396Z</time></trkpt><trkpt lat="46.5577855" lon="12.5418647"><ele>1094.0</ele><time>2026-04-30T12:19:08.396Z</time></trkpt><trkpt lat="46.5578695" lon="12.5418176"><ele>1098.0</ele><time>2026-04-30T12:19:09.396Z</time></trkpt><trkpt lat="46.5579388" lon="12.5417899"><ele>1102.0</ele><time>2026-04-30T12:19:10.396Z</time></trkpt><trkpt lat="46.5580317" lon="12.5417758"><ele>1106.0</ele><time>2026-04-30T12:19:11.396Z</time></trkpt><trkpt lat="46.5581111" lon="12.5417449"><ele>1110.0</ele><time>2026-04-30T12:19:12.396Z</time></trkpt><trkpt lat="46.5581784" lon="12.54175"><ele>1114.0</ele><time>2026-04-30T12:19:13.396Z</time></trkpt><trkpt lat="46.5582179" lon="12.5416686"><ele>1114.0</ele><time>2026-04-30T12:19:14.397Z</time></trkpt><trkpt lat="46.5582711" lon="12.541613"><ele>1114.0</ele><time>2026-04-30T12:19:15.396Z</time></trkpt><trkpt lat="46.5582253" lon="12.5414212"><ele>1114.0</ele><time>2026-04-30T12:19:17.396Z</time></trkpt><trkpt lat="46.5581563" lon="12.5413452"><ele>1114.0</ele><time>2026-04-30T12:19:18.396Z</time></trkpt><trkpt lat="46.558068" lon="12.5412578"><ele>1114.0</ele><time>2026-04-30T12:19:19.396Z</time></trkpt><trkpt lat="46.557987" lon="12.541186"><ele>1113.8333333333333</ele><time>2026-04-30T12:19:20.396Z</time></trkpt><trkpt lat="46.5579395" lon="12.5411132"><ele>1113.6666666666665</ele><time>2026-04-30T12:19:21.396Z</time></trkpt><trkpt lat="46.5578895" lon="12.5410447"><ele>1113.5</ele><time>2026-04-30T12:19:22.396Z</time></trkpt><trkpt lat="46.5578684" lon="12.5409479"><ele>1113.3333333333333</ele><time>2026-04-30T12:19:23.396Z</time></trkpt><trkpt lat="46.5578318" lon="12.5408714"><ele>1113.1666666666667</ele><time>2026-04-30T12:19:24.396Z</time></trkpt><trkpt lat="46.5578437" lon="12.5407142"><ele>1113.0</ele><time>2026-04-30T12:19:26.396Z</time></trkpt><trkpt lat="46.5579334" lon="12.5406005"><ele>1118.8333333333333</ele><time>2026-04-30T12:19:28.396Z</time></trkpt><trkpt lat="46.5579849" lon="12.5405469"><ele>1124.6666666666667</ele><time>2026-04-30T12:19:29.396Z</time></trkpt><trkpt lat="46.5581248" lon="12.5405601"><ele>1130.5</ele><time>2026-04-30T12:19:31.396Z</time></trkpt><trkpt lat="46.5582007" lon="12.5405821"><ele>1136.3333333333335</ele><time>2026-04-30T12:19:32.396Z</time></trkpt><trkpt lat="46.5582772" lon="12.5406013"><ele>1142.1666666666667</ele><time>2026-04-30T12:19:33.396Z</time></trkpt><trkpt lat="46.5583541" lon="12.5406055"><ele>1148.0</ele><time>2026-04-30T12:19:34.396Z</time></trkpt><trkpt lat="46.558431" lon="12.5406074"><ele>1148.0</ele><time>2026-04-30T12:19:35.396Z</time></trkpt><trkpt lat="46.5585159" lon="12.5405808"><ele>1148.0</ele><time>2026-04-30T12:19:36.396Z</time></trkpt><trkpt lat="46.5586324" lon="12.5405413"><ele>1148.0</ele><time>2026-04-30T12:19:38.396Z</time></trkpt><trkpt lat="46.5587124" lon="12.5405224"><ele>1148.0</ele><time>2026-04-30T12:19:39.396Z</time></trkpt><trkpt lat="46.5587996" lon="12.5404805"><ele>1148.0</ele><time>2026-04-30T12:19:40.396Z</time></trkpt><trkpt lat="46.5589054" lon="12.5404201"><ele>1153.0</ele><time>2026-04-30T12:19:41.397Z</time></trkpt><trkpt lat="46.5589836" lon="12.5403577"><ele>1158.0</ele><time>2026-04-30T12:19:42.396Z</time></trkpt><trkpt lat="46.5590384" lon="12.5402996"><ele>1163.0</ele><time>2026-04-30T12:19:43.396Z</time></trkpt><trkpt lat="46.5591127" lon="12.5401422"><ele>1168.0</ele><time>2026-04-30T12:19:45.396Z</time></trkpt><trkpt lat="46.5591353" lon="12.5400259"><ele>1173.0</ele><time>2026-04-30T12:19:46.396Z</time></trkpt><trkpt lat="46.5590766" lon="12.5398807"><ele>1173.0</ele><time>2026-04-30T12:19:47.396Z</time></trkpt><trkpt lat="46.5590734" lon="12.5397416"><ele>1173.0</ele><time>2026-04-30T12:19:48.396Z</time></trkpt><trkpt lat="46.5590866" lon="12.5395884"><ele>1173.0</ele><time>2026-04-30T12:19:49.396Z</time></trkpt><trkpt lat="46.559087" lon="12.5394273"><ele>1173.0</ele><time>2026-04-30T12:19:50.396Z</time></trkpt><trkpt lat="46.5590981" lon="12.5392716"><ele>1173.0</ele><time>2026-04-30T12:19:51.396Z</time></trkpt><trkpt lat="46.5590917" lon="12.5391141"><ele>1174.6</ele><time>2026-04-30T12:19:52.396Z</time></trkpt><trkpt lat="46.5590885" lon="12.5389403"><ele>1176.1999999999998</ele><time>2026-04-30T12:19:53.396Z</time></trkpt><trkpt lat="46.5591011" lon="12.5387753"><ele>1177.8</ele><time>2026-04-30T12:19:54.396Z</time></trkpt><trkpt lat="46.5591204" lon="12.5386202"><ele>1179.3999999999999</ele><time>2026-04-30T12:19:55.397Z</time></trkpt><trkpt lat="46.5591473" lon="12.538469"><ele>1181.0</ele><time>2026-04-30T12:19:56.396Z</time></trkpt><trkpt lat="46.5591698" lon="12.5383281"><ele>1183.2</ele><time>2026-04-30T12:19:57.396Z</time></trkpt><trkpt lat="46.5592093" lon="12.5381922"><ele>1185.3999999999999</ele><time>2026-04-30T12:19:58.396Z</time></trkpt><trkpt lat="46.5592698" lon="12.5380664"><ele>1187.6</ele><time>2026-04-30T12:19:59.396Z</time></trkpt><trkpt lat="46.5593314" lon="12.537967"><ele>1189.8</ele><time>2026-04-30T12:20:00.396Z</time></trkpt><trkpt lat="46.5594076" lon="12.5378898"><ele>1192.0</ele><time>2026-04-30T12:20:01.396Z</time></trkpt><trkpt lat="46.5594941" lon="12.5378099"><ele>1194.6</ele><time>2026-04-30T12:20:02.396Z</time></trkpt><trkpt lat="46.5595805" lon="12.5377172"><ele>1197.2</ele><time>2026-04-30T12:20:03.396Z</time></trkpt><trkpt lat="46.5596638" lon="12.5376251"><ele>1199.8</ele><time>2026-04-30T12:20:04.396Z</time></trkpt><trkpt lat="46.5597449" lon="12.5375273"><ele>1202.4</ele><time>2026-04-30T12:20:05.396Z</time></trkpt><trkpt lat="46.5598233" lon="12.5374218"><ele>1205.0</ele><time>2026-04-30T12:20:06.396Z</time></trkpt><trkpt lat="46.5599052" lon="12.537292"><ele>1205.0</ele><time>2026-04-30T12:20:07.396Z</time></trkpt><trkpt lat="46.5599707" lon="12.537152"><ele>1205.0</ele><time>2026-04-30T12:20:08.396Z</time></trkpt><trkpt lat="46.5600294" lon="12.5370176"><ele>1205.0</ele><time>2026-04-30T12:20:09.396Z</time></trkpt><trkpt lat="46.5600803" lon="12.536876"><ele>1205.0</ele><time>2026-04-30T12:20:10.396Z</time></trkpt><trkpt lat="46.5600896" lon="12.5367258"><ele>1205.0</ele><time>2026-04-30T12:20:11.396Z</time></trkpt><trkpt lat="46.560083" lon="12.5365804"><ele>1207.8</ele><time>2026-04-30T12:20:12.396Z</time></trkpt><trkpt lat="46.5600912" lon="12.5364248"><ele>1210.6</ele><time>2026-04-30T12:20:13.396Z</time></trkpt><trkpt lat="46.5601111" lon="12.5362621"><ele>1213.4</ele><time>2026-04-30T12:20:14.396Z</time></trkpt><trkpt lat="46.5601311" lon="12.5360943"><ele>1216.2</ele><time>2026-04-30T12:20:15.396Z</time></trkpt><trkpt lat="46.5601324" lon="12.5359441"><ele>1219.0</ele><time>2026-04-30T12:20:16.396Z</time></trkpt><trkpt lat="46.5601329" lon="12.535813"><ele>1220.0</ele><time>2026-04-30T12:20:17.396Z</time></trkpt><trkpt lat="46.5601684" lon="12.5356948"><ele>1221.0</ele><time>2026-04-30T12:20:18.396Z</time></trkpt><trkpt lat="46.5602103" lon="12.5355592"><ele>1222.0</ele><time>2026-04-30T12:20:19.396Z</time></trkpt><trkpt lat="46.5602467" lon="12.5354115"><ele>1223.0</ele><time>2026-04-30T12:20:20.396Z</time></trkpt><trkpt lat="46.5602964" lon="12.5352741"><ele>1224.0</ele><time>2026-04-30T12:20:21.396Z</time></trkpt><trkpt lat="46.5603653" lon="12.5351649"><ele>1227.6000000000001</ele><time>2026-04-30T12:20:22.396Z</time></trkpt><trkpt lat="46.5604399" lon="12.535102"><ele>1231.2</ele><time>2026-04-30T12:20:23.396Z</time></trkpt><trkpt lat="46.5605192" lon="12.5350244"><ele>1234.8000000000002</ele><time>2026-04-30T12:20:24.396Z</time></trkpt><trkpt lat="46.5605903" lon="12.5349263"><ele>1238.4</ele><time>2026-04-30T12:20:25.396Z</time></trkpt><trkpt lat="46.5606655" lon="12.5348337"><ele>1242.0</ele><time>2026-04-30T12:20:26.396Z</time></trkpt><trkpt lat="46.5607425" lon="12.534748"><ele>1242.0</ele><time>2026-04-30T12:20:27.396Z</time></trkpt><trkpt lat="46.5607738" lon="12.5346364"><ele>1242.0</ele><time>2026-04-30T12:20:28.396Z</time></trkpt><trkpt lat="46.5607812" lon="12.534533"><ele>1242.0</ele><time>2026-04-30T12:20:29.396Z</time></trkpt><trkpt lat="46.5608056" lon="12.534429"><ele>1242.0</ele><time>2026-04-30T12:20:30.396Z</time></trkpt><trkpt lat="46.5608039" lon="12.5343285"><ele>1242.0</ele><time>2026-04-30T12:20:31.397Z</time></trkpt><trkpt lat="46.5608034" lon="12.5342298"><ele>1242.0</ele><time>2026-04-30T12:20:32.396Z</time></trkpt><trkpt lat="46.56082" lon="12.534106"><ele>1242.6</ele><time>2026-04-30T12:20:33.396Z</time></trkpt><trkpt lat="46.5608371" lon="12.533976"><ele>1243.2</ele><time>2026-04-30T12:20:34.396Z</time></trkpt><trkpt lat="46.5608647" lon="12.5338501"><ele>1243.8</ele><time>2026-04-30T12:20:35.396Z</time></trkpt><trkpt lat="46.5608804" lon="12.5336948"><ele>1244.4</ele><time>2026-04-30T12:20:36.396Z</time></trkpt><trkpt lat="46.5609092" lon="12.5335166"><ele>1245.0</ele><time>2026-04-30T12:20:37.396Z</time></trkpt><trkpt lat="46.5609486" lon="12.5333549"><ele>1245.0</ele><time>2026-04-30T12:20:38.396Z</time></trkpt><trkpt lat="46.5609903" lon="12.5332074"><ele>1245.0</ele><time>2026-04-30T12:20:39.396Z</time></trkpt><trkpt lat="46.5610626" lon="12.5330711"><ele>1245.0</ele><time>2026-04-30T12:20:40.396Z</time></trkpt><trkpt lat="46.5611347" lon="12.5329247"><ele>1245.0</ele><time>2026-04-30T12:20:41.396Z</time></trkpt><trkpt lat="46.5612059" lon="12.5327764"><ele>1249.6666666666667</ele><time>2026-04-30T12:20:42.396Z</time></trkpt><trkpt lat="46.5612763" lon="12.5326258"><ele>1254.3333333333335</ele><time>2026-04-30T12:20:43.396Z</time></trkpt><trkpt lat="46.5614176" lon="12.5323084"><ele>1259.0</ele><time>2026-04-30T12:20:45.396Z</time></trkpt><trkpt lat="46.5615136" lon="12.5321763"><ele>1259.0</ele><time>2026-04-30T12:20:46.396Z</time></trkpt><trkpt lat="46.5616249" lon="12.5320691"><ele>1259.0</ele><time>2026-04-30T12:20:47.396Z</time></trkpt><trkpt lat="46.5617264" lon="12.5319772"><ele>1259.0</ele><time>2026-04-30T12:20:48.396Z</time></trkpt><trkpt lat="46.5618255" lon="12.5319079"><ele>1259.0</ele><time>2026-04-30T12:20:49.396Z</time></trkpt><trkpt lat="46.5619124" lon="12.5318402"><ele>1258.0</ele><time>2026-04-30T12:20:50.396Z</time></trkpt><trkpt lat="46.5619899" lon="12.5317895"><ele>1257.0</ele><time>2026-04-30T12:20:51.396Z</time></trkpt><trkpt lat="46.5620771" lon="12.5317244"><ele>1256.0</ele><time>2026-04-30T12:20:52.396Z</time></trkpt><trkpt lat="46.5621714" lon="12.5316556"><ele>1255.0</ele><time>2026-04-30T12:20:53.396Z</time></trkpt><trkpt lat="46.5622604" lon="12.5315567"><ele>1254.0</ele><time>2026-04-30T12:20:54.396Z</time></trkpt><trkpt lat="46.5623424" lon="12.5314849"><ele>1254.0</ele><time>2026-04-30T12:20:55.396Z</time></trkpt><trkpt lat="46.5624114" lon="12.5313642"><ele>1254.0</ele><time>2026-04-30T12:20:56.396Z</time></trkpt><trkpt lat="46.5624698" lon="12.5312253"><ele>1254.0</ele><time>2026-04-30T12:20:57.396Z</time></trkpt><trkpt lat="46.562527" lon="12.531101"><ele>1254.0</ele><time>2026-04-30T12:20:58.396Z</time></trkpt><trkpt lat="46.5626071" lon="12.5309997"><ele>1254.0</ele><time>2026-04-30T12:20:59.396Z</time></trkpt><trkpt lat="46.5626929" lon="12.5309058"><ele>1254.4</ele><time>2026-04-30T12:21:00.396Z</time></trkpt><trkpt lat="46.5627625" lon="12.5308256"><ele>1254.8000000000002</ele><time>2026-04-30T12:21:01.396Z</time></trkpt><trkpt lat="46.5628093" lon="12.5307572"><ele>1255.1999999999998</ele><time>2026-04-30T12:21:02.396Z</time></trkpt><trkpt lat="46.5628522" lon="12.5306302"><ele>1255.6</ele><time>2026-04-30T12:21:04.396Z</time></trkpt><trkpt lat="46.5628697" lon="12.5305095"><ele>1256.0</ele><time>2026-04-30T12:21:07.396Z</time></trkpt><trkpt lat="46.5629261" lon="12.5303591"><ele>1256.3999999999999</ele><time>2026-04-30T12:21:09.396Z</time></trkpt><trkpt lat="46.5629755" lon="12.5302582"><ele>1256.8</ele><time>2026-04-30T12:21:10.396Z</time></trkpt><trkpt lat="46.5630296" lon="12.530159"><ele>1257.1999999999998</ele><time>2026-04-30T12:21:11.396Z</time></trkpt><trkpt lat="46.5631042" lon="12.5300556"><ele>1257.6</ele><time>2026-04-30T12:21:12.396Z</time></trkpt><trkpt lat="46.5631909" lon="12.529924"><ele>1258.0</ele><time>2026-04-30T12:21:13.396Z</time></trkpt><trkpt lat="46.5632503" lon="12.5298005"><ele>1258.0</ele><time>2026-04-30T12:21:14.396Z</time></trkpt><trkpt lat="46.563321" lon="12.5296686"><ele>1258.0</ele><time>2026-04-30T12:21:15.396Z</time></trkpt><trkpt lat="46.5633989" lon="12.5295347"><ele>1258.0</ele><time>2026-04-30T12:21:16.396Z</time></trkpt><trkpt lat="46.5634487" lon="12.5294153"><ele>1258.0</ele><time>2026-04-30T12:21:17.396Z</time></trkpt><trkpt lat="46.5635049" lon="12.5292932"><ele>1258.0</ele><time>2026-04-30T12:21:18.396Z</time></trkpt><trkpt lat="46.5635185" lon="12.529147"><ele>1260.0</ele><time>2026-04-30T12:21:19.396Z</time></trkpt><trkpt lat="46.5635147" lon="12.5290017"><ele>1262.0</ele><time>2026-04-30T12:21:20.396Z</time></trkpt><trkpt lat="46.5635525" lon="12.5288375"><ele>1264.0</ele><time>2026-04-30T12:21:21.396Z</time></trkpt><trkpt lat="46.5635837" lon="12.5286572"><ele>1266.0</ele><time>2026-04-30T12:21:22.396Z</time></trkpt><trkpt lat="46.5635986" lon="12.5284751"><ele>1267.6666666666667</ele><time>2026-04-30T12:21:23.396Z</time></trkpt><trkpt lat="46.5636067" lon="12.5283401"><ele>1269.3333333333333</ele><time>2026-04-30T12:21:24.396Z</time></trkpt><trkpt lat="46.563637" lon="12.5282236"><ele>1271.0</ele><time>2026-04-30T12:21:25.396Z</time></trkpt><trkpt lat="46.5636931" lon="12.5281221"><ele>1272.6666666666665</ele><time>2026-04-30T12:21:26.396Z</time></trkpt><trkpt lat="46.5637582" lon="12.5280462"><ele>1274.3333333333333</ele><time>2026-04-30T12:21:27.396Z</time></trkpt><trkpt lat="46.5638474" lon="12.5280052"><ele>1276.0</ele><time>2026-04-30T12:21:28.396Z</time></trkpt><trkpt lat="46.56392" lon="12.5279597"><ele>1277.0</ele><time>2026-04-30T12:21:29.397Z</time></trkpt><trkpt lat="46.5639926" lon="12.5278941"><ele>1278.0</ele><time>2026-04-30T12:21:30.396Z</time></trkpt><trkpt lat="46.5640516" lon="12.5278187"><ele>1279.0</ele><time>2026-04-30T12:21:31.396Z</time></trkpt><trkpt lat="46.5641016" lon="12.5277323"><ele>1280.0</ele><time>2026-04-30T12:21:32.396Z</time></trkpt><trkpt lat="46.5641038" lon="12.5275927"><ele>1281.0</ele><time>2026-04-30T12:21:33.396Z</time></trkpt><trkpt lat="46.5640863" lon="12.5274401"><ele>1282.0</ele><time>2026-04-30T12:21:34.396Z</time></trkpt><trkpt lat="46.5640966" lon="12.5272832"><ele>1285.25</ele><time>2026-04-30T12:21:35.396Z</time></trkpt><trkpt lat="46.5641284" lon="12.5271199"><ele>1288.5</ele><time>2026-04-30T12:21:36.396Z</time></trkpt><trkpt lat="46.5641869" lon="12.5269853"><ele>1291.75</ele><time>2026-04-30T12:21:37.396Z</time></trkpt><trkpt lat="46.564247" lon="12.5268273"><ele>1295.0</ele><time>2026-04-30T12:21:38.396Z</time></trkpt><trkpt lat="46.5643693" lon="12.5265114"><ele>1298.25</ele><time>2026-04-30T12:21:40.396Z</time></trkpt><trkpt lat="46.5644558" lon="12.5263481"><ele>1301.5</ele><time>2026-04-30T12:21:41.396Z</time></trkpt><trkpt lat="46.5645609" lon="12.5261931"><ele>1304.75</ele><time>2026-04-30T12:21:42.396Z</time></trkpt><trkpt lat="46.5646392" lon="12.5260572"><ele>1308.0</ele><time>2026-04-30T12:21:43.396Z</time></trkpt><trkpt lat="46.5647145" lon="12.5259489"><ele>1311.4</ele><time>2026-04-30T12:21:44.396Z</time></trkpt><trkpt lat="46.5648096" lon="12.5258696"><ele>1314.8000000000002</ele><time>2026-04-30T12:21:45.396Z</time></trkpt><trkpt lat="46.5649214" lon="12.5257967"><ele>1318.2</ele><time>2026-04-30T12:21:46.396Z</time></trkpt><trkpt lat="46.5650238" lon="12.5257068"><ele>1321.6</ele><time>2026-04-30T12:21:47.396Z</time></trkpt><trkpt lat="46.565094" lon="12.5256325"><ele>1325.0</ele><time>2026-04-30T12:21:48.396Z</time></trkpt><trkpt lat="46.5651429" lon="12.5255626"><ele>1325.0</ele><time>2026-04-30T12:21:49.396Z</time></trkpt><trkpt lat="46.5652148" lon="12.5254618"><ele>1325.0</ele><time>2026-04-30T12:21:51.396Z</time></trkpt><trkpt lat="46.5652525" lon="12.5253794"><ele>1325.0</ele><time>2026-04-30T12:21:52.396Z</time></trkpt><trkpt lat="46.5653072" lon="12.5252867"><ele>1325.0</ele><time>2026-04-30T12:21:53.396Z</time></trkpt><trkpt lat="46.5653604" lon="12.5251889"><ele>1325.0</ele><time>2026-04-30T12:21:54.396Z</time></trkpt><trkpt lat="46.565411" lon="12.525087"><ele>1325.0</ele><time>2026-04-30T12:21:55.396Z</time></trkpt><trkpt lat="46.5654673" lon="12.5249904"><ele>1328.5</ele><time>2026-04-30T12:21:56.396Z</time></trkpt><trkpt lat="46.5655348" lon="12.5249076"><ele>1332.0</ele><time>2026-04-30T12:21:57.396Z</time></trkpt><trkpt lat="46.5656066" lon="12.5248302"><ele>1335.5</ele><time>2026-04-30T12:21:58.396Z</time></trkpt><trkpt lat="46.5656789" lon="12.5247536"><ele>1339.0</ele><time>2026-04-30T12:21:59.396Z</time></trkpt><trkpt lat="46.565754" lon="12.5246822"><ele>1342.5</ele><time>2026-04-30T12:22:00.396Z</time></trkpt><trkpt lat="46.5658293" lon="12.5246097"><ele>1346.0</ele><time>2026-04-30T12:22:01.396Z</time></trkpt><trkpt lat="46.5659058" lon="12.524538"><ele>1346.0</ele><time>2026-04-30T12:22:02.396Z</time></trkpt><trkpt lat="46.5659794" lon="12.5244674"><ele>1346.0</ele><time>2026-04-30T12:22:03.396Z</time></trkpt><trkpt lat="46.5660485" lon="12.5243858"><ele>1346.0</ele><time>2026-04-30T12:22:04.396Z</time></trkpt><trkpt lat="46.5661174" lon="12.5243052"><ele>1346.0</ele><time>2026-04-30T12:22:05.396Z</time></trkpt><trkpt lat="46.5661903" lon="12.5242278"><ele>1346.0</ele><time>2026-04-30T12:22:06.396Z</time></trkpt><trkpt lat="46.5662639" lon="12.5241535"><ele>1346.0</ele><time>2026-04-30T12:22:07.396Z</time></trkpt><trkpt lat="46.5663366" lon="12.5240851"><ele>1346.0</ele><time>2026-04-30T12:22:08.396Z</time></trkpt><trkpt lat="46.5664017" lon="12.5240226"><ele>1346.0</ele><time>2026-04-30T12:22:09.396Z</time></trkpt><trkpt lat="46.5664529" lon="12.5239614"><ele>1346.0</ele><time>2026-04-30T12:22:10.396Z</time></trkpt><trkpt lat="46.5664802" lon="12.5237965"><ele>1346.0</ele><time>2026-04-30T12:22:12.396Z</time></trkpt><trkpt lat="46.566436" lon="12.5237125"><ele>1346.0</ele><time>2026-04-30T12:22:13.396Z</time></trkpt><trkpt lat="46.566374" lon="12.5236468"><ele>1346.0</ele><time>2026-04-30T12:22:14.396Z</time></trkpt><trkpt lat="46.5662946" lon="12.5235942"><ele>1348.3333333333335</ele><time>2026-04-30T12:22:15.396Z</time></trkpt><trkpt lat="46.5662089" lon="12.523545"><ele>1350.6666666666667</ele><time>2026-04-30T12:22:16.396Z</time></trkpt><trkpt lat="46.5661259" lon="12.5234945"><ele>1353.0</ele><time>2026-04-30T12:22:17.396Z</time></trkpt><trkpt lat="46.566044" lon="12.5234462"><ele>1355.3333333333333</ele><time>2026-04-30T12:22:18.396Z</time></trkpt><trkpt lat="46.5659679" lon="12.5234024"><ele>1357.6666666666665</ele><time>2026-04-30T12:22:19.396Z</time></trkpt><trkpt lat="46.5659004" lon="12.523357"><ele>1360.0</ele><time>2026-04-30T12:22:20.396Z</time></trkpt><trkpt lat="46.5657924" lon="12.5232775"><ele>1360.4</ele><time>2026-04-30T12:22:22.396Z</time></trkpt><trkpt lat="46.5657134" lon="12.5231443"><ele>1360.8</ele><time>2026-04-30T12:22:24.397Z</time></trkpt><trkpt lat="46.5656792" lon="12.5229927"><ele>1361.1999999999998</ele><time>2026-04-30T12:22:26.396Z</time></trkpt><trkpt lat="46.5657086" lon="12.522818"><ele>1361.6</ele><time>2026-04-30T12:22:28.396Z</time></trkpt><trkpt lat="46.5657703" lon="12.5227466"><ele>1362.0</ele><time>2026-04-30T12:22:29.396Z</time></trkpt><trkpt lat="46.5658354" lon="12.5226736"><ele>1364.0</ele><time>2026-04-30T12:22:30.396Z</time></trkpt><trkpt lat="46.5659031" lon="12.5226153"><ele>1366.0</ele><time>2026-04-30T12:22:31.396Z</time></trkpt><trkpt lat="46.5659753" lon="12.5225645"><ele>1368.0</ele><time>2026-04-30T12:22:32.396Z</time></trkpt><trkpt lat="46.5660539" lon="12.5225317"><ele>1370.0</ele><time>2026-04-30T12:22:33.396Z</time></trkpt><trkpt lat="46.5661874" lon="12.5224372"><ele>1372.0</ele><time>2026-04-30T12:22:35.397Z</time></trkpt><trkpt lat="46.566258" lon="12.5223705"><ele>1372.6</ele><time>2026-04-30T12:22:36.396Z</time></trkpt><trkpt lat="46.5663282" lon="12.5222788"><ele>1373.1999999999998</ele><time>2026-04-30T12:22:37.396Z</time></trkpt><trkpt lat="46.5663987" lon="12.5221841"><ele>1373.8</ele><time>2026-04-30T12:22:38.396Z</time></trkpt><trkpt lat="46.5664689" lon="12.5220817"><ele>1374.4</ele><time>2026-04-30T12:22:39.396Z</time></trkpt><trkpt lat="46.5665377" lon="12.5219703"><ele>1375.0</ele><time>2026-04-30T12:22:40.396Z</time></trkpt><trkpt lat="46.5666091" lon="12.5218511"><ele>1376.0</ele><time>2026-04-30T12:22:41.396Z</time></trkpt><trkpt lat="46.56668" lon="12.5217263"><ele>1377.0</ele><time>2026-04-30T12:22:42.396Z</time></trkpt><trkpt lat="46.5667562" lon="12.5215887"><ele>1378.0</ele><time>2026-04-30T12:22:43.396Z</time></trkpt><trkpt lat="46.5668239" lon="12.5214468"><ele>1379.0</ele><time>2026-04-30T12:22:44.396Z</time></trkpt><trkpt lat="46.5669467" lon="12.521188"><ele>1379.0</ele><time>2026-04-30T12:22:46.396Z</time></trkpt><trkpt lat="46.5669899" lon="12.5210975"><ele>1379.0</ele><time>2026-04-30T12:22:47.396Z</time></trkpt><trkpt lat="46.5670436" lon="12.5209675"><ele>1379.0</ele><time>2026-04-30T12:22:49.396Z</time></trkpt><trkpt lat="46.5671134" lon="12.5208704"><ele>1379.0</ele><time>2026-04-30T12:22:51.396Z</time></trkpt><trkpt lat="46.567239" lon="12.5208246"><ele>1379.0</ele><time>2026-04-30T12:22:53.396Z</time></trkpt><trkpt lat="46.5673118" lon="12.5208083"><ele>1381.1666666666667</ele><time>2026-04-30T12:22:54.396Z</time></trkpt><trkpt lat="46.5673883" lon="12.5207907"><ele>1383.3333333333335</ele><time>2026-04-30T12:22:55.396Z</time></trkpt><trkpt lat="46.5674602" lon="12.5207636"><ele>1385.5</ele><time>2026-04-30T12:22:56.396Z</time></trkpt><trkpt lat="46.5675365" lon="12.5207355"><ele>1387.6666666666667</ele><time>2026-04-30T12:22:57.396Z</time></trkpt><trkpt lat="46.5676128" lon="12.5207043"><ele>1389.8333333333333</ele><time>2026-04-30T12:22:58.396Z</time></trkpt><trkpt lat="46.5677006" lon="12.5206168"><ele>1392.0</ele><time>2026-04-30T12:23:00.396Z</time></trkpt><trkpt lat="46.5676619" lon="12.5205013"><ele>1392.0</ele><time>2026-04-30T12:23:02.396Z</time></trkpt><trkpt lat="46.567599" lon="12.5204386"><ele>1392.0</ele><time>2026-04-30T12:23:03.396Z</time></trkpt><trkpt lat="46.5675116" lon="12.5202709"><ele>1392.0</ele><time>2026-04-30T12:23:05.396Z</time></trkpt><trkpt lat="46.5674657" lon="12.5201222"><ele>1392.0</ele><time>2026-04-30T12:23:07.396Z</time></trkpt><trkpt lat="46.5674904" lon="12.5199374"><ele>1393.3333333333333</ele><time>2026-04-30T12:23:09.396Z</time></trkpt><trkpt lat="46.5674889" lon="12.5197978"><ele>1394.6666666666667</ele><time>2026-04-30T12:23:11.396Z</time></trkpt><trkpt lat="46.5674801" lon="12.5196434"><ele>1396.0</ele><time>2026-04-30T12:23:13.396Z</time></trkpt><trkpt lat="46.5675004" lon="12.5194862"><ele>1397.3333333333335</ele><time>2026-04-30T12:23:15.396Z</time></trkpt><trkpt lat="46.5675296" lon="12.5193997"><ele>1398.6666666666667</ele><time>2026-04-30T12:23:16.396Z</time></trkpt><trkpt lat="46.5675578" lon="12.5193123"><ele>1400.0</ele><time>2026-04-30T12:23:17.396Z</time></trkpt><trkpt lat="46.5676014" lon="12.5192304"><ele>1400.5</ele><time>2026-04-30T12:23:18.396Z</time></trkpt><trkpt lat="46.5676539" lon="12.519162"><ele>1401.0</ele><time>2026-04-30T12:23:19.396Z</time></trkpt><trkpt lat="46.5677128" lon="12.5190866"><ele>1401.5</ele><time>2026-04-30T12:23:20.396Z</time></trkpt><trkpt lat="46.5677581" lon="12.5189922"><ele>1402.0</ele><time>2026-04-30T12:23:21.396Z</time></trkpt><trkpt lat="46.5677979" lon="12.5188835"><ele>1402.5</ele><time>2026-04-30T12:23:22.397Z</time></trkpt><trkpt lat="46.5678326" lon="12.5187623"><ele>1403.0</ele><time>2026-04-30T12:23:23.397Z</time></trkpt><trkpt lat="46.5678736" lon="12.5186383"><ele>1408.6000000000001</ele><time>2026-04-30T12:23:24.396Z</time></trkpt><trkpt lat="46.5678927" lon="12.5185333"><ele>1414.2</ele><time>2026-04-30T12:23:25.396Z</time></trkpt><trkpt lat="46.5678993" lon="12.5184218"><ele>1419.8</ele><time>2026-04-30T12:23:26.396Z</time></trkpt><trkpt lat="46.56791" lon="12.5183308"><ele>1425.4</ele><time>2026-04-30T12:23:27.396Z</time></trkpt><trkpt lat="46.5679868" lon="12.5181624"><ele>1431.0</ele><time>2026-04-30T12:23:29.396Z</time></trkpt><trkpt lat="46.5680633" lon="12.5180733"><ele>1431.0</ele><time>2026-04-30T12:23:30.396Z</time></trkpt><trkpt lat="46.5681239" lon="12.5179849"><ele>1431.0</ele><time>2026-04-30T12:23:31.397Z</time></trkpt><trkpt lat="46.5681843" lon="12.5178927"><ele>1431.0</ele><time>2026-04-30T12:23:32.396Z</time></trkpt><trkpt lat="46.5682676" lon="12.517801"><ele>1431.0</ele><time>2026-04-30T12:23:33.396Z</time></trkpt><trkpt lat="46.5683519" lon="12.5177054"><ele>1431.0</ele><time>2026-04-30T12:23:34.396Z</time></trkpt><trkpt lat="46.5684333" lon="12.5176151"><ele>1432.6</ele><time>2026-04-30T12:23:35.396Z</time></trkpt><trkpt lat="46.5685124" lon="12.5175366"><ele>1434.1999999999998</ele><time>2026-04-30T12:23:36.396Z</time></trkpt><trkpt lat="46.5685921" lon="12.5174656"><ele>1435.8000000000002</ele><time>2026-04-30T12:23:37.396Z</time></trkpt><trkpt lat="46.5686669" lon="12.5173903"><ele>1437.4</ele><time>2026-04-30T12:23:38.396Z</time></trkpt><trkpt lat="46.5687316" lon="12.5173172"><ele>1439.0</ele><time>2026-04-30T12:23:39.396Z</time></trkpt><trkpt lat="46.5687913" lon="12.5172008"><ele>1441.0</ele><time>2026-04-30T12:23:40.396Z</time></trkpt><trkpt lat="46.5688372" lon="12.5170756"><ele>1443.0</ele><time>2026-04-30T12:23:41.396Z</time></trkpt><trkpt lat="46.5688814" lon="12.5169492"><ele>1445.0</ele><time>2026-04-30T12:23:42.396Z</time></trkpt><trkpt lat="46.5689273" lon="12.5168194"><ele>1447.0</ele><time>2026-04-30T12:23:43.396Z</time></trkpt><trkpt lat="46.5689833" lon="12.5166977"><ele>1449.0</ele><time>2026-04-30T12:23:44.396Z</time></trkpt><trkpt lat="46.5690419" lon="12.5165893"><ele>1449.0</ele><time>2026-04-30T12:23:45.397Z</time></trkpt><trkpt lat="46.5690963" lon="12.5164794"><ele>1449.0</ele><time>2026-04-30T12:23:46.396Z</time></trkpt><trkpt lat="46.5691567" lon="12.5163754"><ele>1449.0</ele><time>2026-04-30T12:23:47.396Z</time></trkpt><trkpt lat="46.5692214" lon="12.5162791"><ele>1449.0</ele><time>2026-04-30T12:23:48.396Z</time></trkpt><trkpt lat="46.5692832" lon="12.5161708"><ele>1449.0</ele><time>2026-04-30T12:23:49.396Z</time></trkpt><trkpt lat="46.5693345" lon="12.5160563"><ele>1448.8000000000002</ele><time>2026-04-30T12:23:50.396Z</time></trkpt><trkpt lat="46.5694039" lon="12.5159451"><ele>1448.6000000000001</ele><time>2026-04-30T12:23:51.396Z</time></trkpt><trkpt lat="46.569469" lon="12.515832"><ele>1448.4</ele><time>2026-04-30T12:23:52.396Z</time></trkpt><trkpt lat="46.5695356" lon="12.5157126"><ele>1448.2</ele><time>2026-04-30T12:23:53.396Z</time></trkpt><trkpt lat="46.5695978" lon="12.5155926"><ele>1448.0</ele><time>2026-04-30T12:23:54.396Z</time></trkpt><trkpt lat="46.5696678" lon="12.5154986"><ele>1450.0</ele><time>2026-04-30T12:23:55.397Z</time></trkpt><trkpt lat="46.5697379" lon="12.5154052"><ele>1452.0</ele><time>2026-04-30T12:23:56.396Z</time></trkpt><trkpt lat="46.5698062" lon="12.5153162"><ele>1454.0</ele><time>2026-04-30T12:23:57.396Z</time></trkpt><trkpt lat="46.5699144" lon="12.5152533"><ele>1456.0</ele><time>2026-04-30T12:23:58.396Z</time></trkpt><trkpt lat="46.5699848" lon="12.5151405"><ele>1458.0</ele><time>2026-04-30T12:23:59.396Z</time></trkpt><trkpt lat="46.5700371" lon="12.5150175"><ele>1457.8333333333333</ele><time>2026-04-30T12:24:00.396Z</time></trkpt><trkpt lat="46.5700806" lon="12.5148956"><ele>1457.6666666666667</ele><time>2026-04-30T12:24:01.396Z</time></trkpt><trkpt lat="46.570096" lon="12.5147549"><ele>1457.5</ele><time>2026-04-30T12:24:02.396Z</time></trkpt><trkpt lat="46.5701094" lon="12.5146494"><ele>1457.3333333333335</ele><time>2026-04-30T12:24:03.396Z</time></trkpt><trkpt lat="46.570124" lon="12.5145496"><ele>1457.1666666666667</ele><time>2026-04-30T12:24:04.396Z</time></trkpt><trkpt lat="46.5701303" lon="12.5144463"><ele>1457.0</ele><time>2026-04-30T12:24:05.396Z</time></trkpt><trkpt lat="46.5701504" lon="12.5143435"><ele>1457.0</ele><time>2026-04-30T12:24:06.396Z</time></trkpt><trkpt lat="46.5701791" lon="12.5142485"><ele>1457.0</ele><time>2026-04-30T12:24:07.396Z</time></trkpt><trkpt lat="46.5702314" lon="12.5141363"><ele>1457.0</ele><time>2026-04-30T12:24:08.396Z</time></trkpt><trkpt lat="46.5703085" lon="12.5140515"><ele>1457.0</ele><time>2026-04-30T12:24:09.396Z</time></trkpt><trkpt lat="46.5704031" lon="12.5139718"><ele>1457.0</ele><time>2026-04-30T12:24:10.396Z</time></trkpt><trkpt lat="46.5704896" lon="12.5139009"><ele>1457.8333333333335</ele><time>2026-04-30T12:24:11.396Z</time></trkpt><trkpt lat="46.570553" lon="12.5138224"><ele>1458.6666666666667</ele><time>2026-04-30T12:24:12.396Z</time></trkpt><trkpt lat="46.5706074" lon="12.5137575"><ele>1459.5</ele><time>2026-04-30T12:24:13.396Z</time></trkpt><trkpt lat="46.5706279" lon="12.5136672"><ele>1460.3333333333333</ele><time>2026-04-30T12:24:14.396Z</time></trkpt><trkpt lat="46.5705993" lon="12.5135459"><ele>1461.1666666666665</ele><time>2026-04-30T12:24:15.396Z</time></trkpt><trkpt lat="46.5705594" lon="12.5134143"><ele>1462.0</ele><time>2026-04-30T12:24:16.396Z</time></trkpt><trkpt lat="46.5705361" lon="12.5132911"><ele>1462.0</ele><time>2026-04-30T12:24:17.396Z</time></trkpt><trkpt lat="46.5705263" lon="12.5131693"><ele>1462.0</ele><time>2026-04-30T12:24:18.396Z</time></trkpt><trkpt lat="46.5705314" lon="12.5130315"><ele>1462.0</ele><time>2026-04-30T12:24:19.396Z</time></trkpt><trkpt lat="46.5706108" lon="12.5129178"><ele>1462.0</ele><time>2026-04-30T12:24:20.396Z</time></trkpt><trkpt lat="46.5706492" lon="12.5127857"><ele>1462.0</ele><time>2026-04-30T12:24:21.396Z</time></trkpt><trkpt lat="46.57073" lon="12.5126753"><ele>1461.8</ele><time>2026-04-30T12:24:22.396Z</time></trkpt><trkpt lat="46.5708345" lon="12.512603"><ele>1461.6</ele><time>2026-04-30T12:24:23.396Z</time></trkpt><trkpt lat="46.5709171" lon="12.5125184"><ele>1461.3999999999999</ele><time>2026-04-30T12:24:24.396Z</time></trkpt><trkpt lat="46.5709999" lon="12.5124232"><ele>1461.1999999999998</ele><time>2026-04-30T12:24:25.396Z</time></trkpt><trkpt lat="46.5710812" lon="12.5123811"><ele>1461.0</ele><time>2026-04-30T12:24:26.396Z</time></trkpt><trkpt lat="46.5711626" lon="12.5123134"><ele>1460.1999999999998</ele><time>2026-04-30T12:24:27.396Z</time></trkpt><trkpt lat="46.5712436" lon="12.5122384"><ele>1459.3999999999999</ele><time>2026-04-30T12:24:28.396Z</time></trkpt><trkpt lat="46.5713163" lon="12.5121814"><ele>1458.6</ele><time>2026-04-30T12:24:29.396Z</time></trkpt><trkpt lat="46.5713827" lon="12.5121017"><ele>1457.8</ele><time>2026-04-30T12:24:30.396Z</time></trkpt><trkpt lat="46.5714412" lon="12.5120424"><ele>1457.0</ele><time>2026-04-30T12:24:31.396Z</time></trkpt><trkpt lat="46.5715336" lon="12.5119456"><ele>1456.6666666666667</ele><time>2026-04-30T12:24:33.396Z</time></trkpt><trkpt lat="46.5715833" lon="12.5118823"><ele>1456.3333333333335</ele><time>2026-04-30T12:24:34.396Z</time></trkpt><trkpt lat="46.5716377" lon="12.5118061"><ele>1456.0</ele><time>2026-04-30T12:24:35.396Z</time></trkpt><trkpt lat="46.5716885" lon="12.5117071"><ele>1455.6666666666667</ele><time>2026-04-30T12:24:36.396Z</time></trkpt><trkpt lat="46.5717546" lon="12.5116088"><ele>1455.3333333333333</ele><time>2026-04-30T12:24:37.396Z</time></trkpt><trkpt lat="46.5718184" lon="12.511498"><ele>1455.0</ele><time>2026-04-30T12:24:38.396Z</time></trkpt><trkpt lat="46.5718854" lon="12.5113678"><ele>1454.2</ele><time>2026-04-30T12:24:39.396Z</time></trkpt><trkpt lat="46.571939" lon="12.5112272"><ele>1453.4</ele><time>2026-04-30T12:24:40.397Z</time></trkpt><trkpt lat="46.5719858" lon="12.5110986"><ele>1452.6</ele><time>2026-04-30T12:24:41.396Z</time></trkpt><trkpt lat="46.5719997" lon="12.5109728"><ele>1451.8</ele><time>2026-04-30T12:24:42.396Z</time></trkpt><trkpt lat="46.5719863" lon="12.5108519"><ele>1451.0</ele><time>2026-04-30T12:24:43.396Z</time></trkpt><trkpt lat="46.5719457" lon="12.5107275"><ele>1451.0</ele><time>2026-04-30T12:24:44.396Z</time></trkpt><trkpt lat="46.5718923" lon="12.5106067"><ele>1451.0</ele><time>2026-04-30T12:24:45.397Z</time></trkpt><trkpt lat="46.5718352" lon="12.5104893"><ele>1451.0</ele><time>2026-04-30T12:24:46.396Z</time></trkpt><trkpt lat="46.5717599" lon="12.5103634"><ele>1451.0</ele><time>2026-04-30T12:24:47.396Z</time></trkpt><trkpt lat="46.5716941" lon="12.5102396"><ele>1451.0</ele><time>2026-04-30T12:24:48.396Z</time></trkpt><trkpt lat="46.5716332" lon="12.5101232"><ele>1451.0</ele><time>2026-04-30T12:24:49.396Z</time></trkpt><trkpt lat="46.5716095" lon="12.5099913"><ele>1451.0</ele><time>2026-04-30T12:24:50.396Z</time></trkpt><trkpt lat="46.5715904" lon="12.5098633"><ele>1451.0</ele><time>2026-04-30T12:24:51.397Z</time></trkpt><trkpt lat="46.5716023" lon="12.5097208"><ele>1451.0</ele><time>2026-04-30T12:24:52.396Z</time></trkpt><trkpt lat="46.5716638" lon="12.5095976"><ele>1451.0</ele><time>2026-04-30T12:24:53.396Z</time></trkpt><trkpt lat="46.5717059" lon="12.5094455"><ele>1451.0</ele><time>2026-04-30T12:24:54.396Z</time></trkpt><trkpt lat="46.5717242" lon="12.5092677"><ele>1451.0</ele><time>2026-04-30T12:24:55.396Z</time></trkpt><trkpt lat="46.5717561" lon="12.5091126"><ele>1451.0</ele><time>2026-04-30T12:24:56.396Z</time></trkpt><trkpt lat="46.5717829" lon="12.508963"><ele>1451.0</ele><time>2026-04-30T12:24:57.396Z</time></trkpt><trkpt lat="46.5717946" lon="12.5088209"><ele>1451.0</ele><time>2026-04-30T12:24:58.396Z</time></trkpt><trkpt lat="46.5717561" lon="12.5086755"><ele>1451.1999999999998</ele><time>2026-04-30T12:24:59.396Z</time></trkpt><trkpt lat="46.5717278" lon="12.5085374"><ele>1451.3999999999999</ele><time>2026-04-30T12:25:00.396Z</time></trkpt><trkpt lat="46.5716849" lon="12.5083839"><ele>1451.6</ele><time>2026-04-30T12:25:01.396Z</time></trkpt><trkpt lat="46.5716392" lon="12.5082363"><ele>1451.8</ele><time>2026-04-30T12:25:02.396Z</time></trkpt><trkpt lat="46.5716109" lon="12.508085"><ele>1452.0</ele><time>2026-04-30T12:25:03.396Z</time></trkpt><trkpt lat="46.5715889" lon="12.5079384"><ele>1453.0</ele><time>2026-04-30T12:25:04.397Z</time></trkpt><trkpt lat="46.5715715" lon="12.5077891"><ele>1454.0</ele><time>2026-04-30T12:25:05.396Z</time></trkpt><trkpt lat="46.5715314" lon="12.5076457"><ele>1455.0</ele><time>2026-04-30T12:25:06.396Z</time></trkpt><trkpt lat="46.5714833" lon="12.507512"><ele>1456.0</ele><time>2026-04-30T12:25:07.396Z</time></trkpt><trkpt lat="46.5714216" lon="12.5073748"><ele>1457.0</ele><time>2026-04-30T12:25:08.396Z</time></trkpt><trkpt lat="46.5713431" lon="12.5072496"><ele>1457.0</ele><time>2026-04-30T12:25:09.396Z</time></trkpt><trkpt lat="46.5712813" lon="12.5071251"><ele>1457.0</ele><time>2026-04-30T12:25:10.396Z</time></trkpt><trkpt lat="46.5712328" lon="12.5069898"><ele>1457.0</ele><time>2026-04-30T12:25:11.396Z</time></trkpt><trkpt lat="46.5712105" lon="12.5068428"><ele>1457.0</ele><time>2026-04-30T12:25:12.396Z</time></trkpt><trkpt lat="46.5711923" lon="12.5066903"><ele>1457.0</ele><time>2026-04-30T12:25:13.397Z</time></trkpt><trkpt lat="46.5711736" lon="12.5065344"><ele>1457.1999999999998</ele><time>2026-04-30T12:25:14.396Z</time></trkpt><trkpt lat="46.5711607" lon="12.506376"><ele>1457.4</ele><time>2026-04-30T12:25:15.396Z</time></trkpt><trkpt lat="46.5711682" lon="12.5062154"><ele>1457.6</ele><time>2026-04-30T12:25:16.396Z</time></trkpt><trkpt lat="46.5711894" lon="12.5060524"><ele>1457.8000000000002</ele><time>2026-04-30T12:25:17.396Z</time></trkpt><trkpt lat="46.5712189" lon="12.5058914"><ele>1458.0</ele><time>2026-04-30T12:25:18.396Z</time></trkpt><trkpt lat="46.5712551" lon="12.5057327"><ele>1458.0</ele><time>2026-04-30T12:25:19.397Z</time></trkpt><trkpt lat="46.5712925" lon="12.5055681"><ele>1458.0</ele><time>2026-04-30T12:25:20.396Z</time></trkpt><trkpt lat="46.5713315" lon="12.5054074"><ele>1458.0</ele><time>2026-04-30T12:25:21.396Z</time></trkpt><trkpt lat="46.571384" lon="12.505247"><ele>1458.0</ele><time>2026-04-30T12:25:22.396Z</time></trkpt><trkpt lat="46.5714565" lon="12.5051037"><ele>1457.0</ele><time>2026-04-30T12:25:23.396Z</time></trkpt><trkpt lat="46.5715379" lon="12.5049798"><ele>1456.0</ele><time>2026-04-30T12:25:24.396Z</time></trkpt><trkpt lat="46.5716281" lon="12.5048726"><ele>1455.0</ele><time>2026-04-30T12:25:25.396Z</time></trkpt><trkpt lat="46.571721" lon="12.5047772"><ele>1454.0</ele><time>2026-04-30T12:25:26.396Z</time></trkpt><trkpt lat="46.5718213" lon="12.504689"><ele>1454.0</ele><time>2026-04-30T12:25:27.396Z</time></trkpt><trkpt lat="46.5719316" lon="12.5046054"><ele>1454.0</ele><time>2026-04-30T12:25:28.396Z</time></trkpt><trkpt lat="46.5720441" lon="12.5045245"><ele>1454.0</ele><time>2026-04-30T12:25:29.396Z</time></trkpt><trkpt lat="46.5721544" lon="12.5044448"><ele>1454.0</ele><time>2026-04-30T12:25:30.396Z</time></trkpt><trkpt lat="46.5722691" lon="12.5043469"><ele>1451.75</ele><time>2026-04-30T12:25:31.396Z</time></trkpt><trkpt lat="46.5723922" lon="12.5042474"><ele>1449.5</ele><time>2026-04-30T12:25:32.396Z</time></trkpt><trkpt lat="46.5725351" lon="12.5041788"><ele>1447.25</ele><time>2026-04-30T12:25:33.396Z</time></trkpt><trkpt lat="46.5726597" lon="12.5041083"><ele>1445.0</ele><time>2026-04-30T12:25:34.396Z</time></trkpt><trkpt lat="46.5727731" lon="12.5040416"><ele>1443.5</ele><time>2026-04-30T12:25:35.397Z</time></trkpt><trkpt lat="46.5728794" lon="12.5039685"><ele>1442.0</ele><time>2026-04-30T12:25:36.396Z</time></trkpt><trkpt lat="46.572983" lon="12.5038708"><ele>1440.5</ele><time>2026-04-30T12:25:37.396Z</time></trkpt><trkpt lat="46.5730818" lon="12.5037612"><ele>1439.0</ele><time>2026-04-30T12:25:38.396Z</time></trkpt><trkpt lat="46.5731824" lon="12.5036395"><ele>1439.0</ele><time>2026-04-30T12:25:39.396Z</time></trkpt><trkpt lat="46.5732868" lon="12.5035133"><ele>1439.0</ele><time>2026-04-30T12:25:40.396Z</time></trkpt><trkpt lat="46.5733779" lon="12.503384"><ele>1439.0</ele><time>2026-04-30T12:25:41.396Z</time></trkpt><trkpt lat="46.5734647" lon="12.5032522"><ele>1439.0</ele><time>2026-04-30T12:25:42.396Z</time></trkpt><trkpt lat="46.5735561" lon="12.5031262"><ele>1439.0</ele><time>2026-04-30T12:25:43.396Z</time></trkpt><trkpt lat="46.5736475" lon="12.5030124"><ele>1439.0</ele><time>2026-04-30T12:25:44.396Z</time></trkpt><trkpt lat="46.5737411" lon="12.5028968"><ele>1439.0</ele><time>2026-04-30T12:25:45.396Z</time></trkpt><trkpt lat="46.5738315" lon="12.5027805"><ele>1439.0</ele><time>2026-04-30T12:25:46.396Z</time></trkpt><trkpt lat="46.5740156" lon="12.502556"><ele>1439.5</ele><time>2026-04-30T12:25:48.396Z</time></trkpt><trkpt lat="46.5740915" lon="12.5024164"><ele>1440.0</ele><time>2026-04-30T12:25:49.396Z</time></trkpt><trkpt lat="46.5741611" lon="12.5022796"><ele>1440.5</ele><time>2026-04-30T12:25:50.396Z</time></trkpt><trkpt lat="46.5742239" lon="12.5021344"><ele>1441.0</ele><time>2026-04-30T12:25:51.396Z</time></trkpt><trkpt lat="46.5742874" lon="12.5019908"><ele>1441.0</ele><time>2026-04-30T12:25:52.396Z</time></trkpt><trkpt lat="46.5743499" lon="12.5018523"><ele>1441.0</ele><time>2026-04-30T12:25:53.396Z</time></trkpt><trkpt lat="46.5744194" lon="12.5017192"><ele>1441.0</ele><time>2026-04-30T12:25:54.396Z</time></trkpt><trkpt lat="46.5744927" lon="12.5015839"><ele>1441.0</ele><time>2026-04-30T12:25:55.396Z</time></trkpt><trkpt lat="46.5745676" lon="12.5014455"><ele>1442.0</ele><time>2026-04-30T12:25:56.396Z</time></trkpt><trkpt lat="46.5746416" lon="12.5013117"><ele>1443.0</ele><time>2026-04-30T12:25:57.396Z</time></trkpt><trkpt lat="46.5747141" lon="12.5011904"><ele>1444.0</ele><time>2026-04-30T12:25:58.396Z</time></trkpt><trkpt lat="46.5747802" lon="12.5010759"><ele>1445.0</ele><time>2026-04-30T12:25:59.396Z</time></trkpt><trkpt lat="46.5748466" lon="12.5009776"><ele>1446.0</ele><time>2026-04-30T12:26:00.396Z</time></trkpt><trkpt lat="46.5749266" lon="12.5009092"><ele>1446.0</ele><time>2026-04-30T12:26:01.396Z</time></trkpt><trkpt lat="46.5750102" lon="12.5008684"><ele>1446.0</ele><time>2026-04-30T12:26:02.396Z</time></trkpt><trkpt lat="46.5750997" lon="12.5008655"><ele>1446.0</ele><time>2026-04-30T12:26:03.396Z</time></trkpt><trkpt lat="46.5752004" lon="12.5008868"><ele>1446.0</ele><time>2026-04-30T12:26:04.397Z</time></trkpt><trkpt lat="46.5752988" lon="12.5009023"><ele>1446.0</ele><time>2026-04-30T12:26:05.396Z</time></trkpt><trkpt lat="46.5753985" lon="12.5009359"><ele>1446.1999999999998</ele><time>2026-04-30T12:26:06.396Z</time></trkpt><trkpt lat="46.5754954" lon="12.5009903"><ele>1446.3999999999999</ele><time>2026-04-30T12:26:07.396Z</time></trkpt><trkpt lat="46.5755939" lon="12.5010465"><ele>1446.6</ele><time>2026-04-30T12:26:08.396Z</time></trkpt><trkpt lat="46.575677" lon="12.5010872"><ele>1446.8</ele><time>2026-04-30T12:26:09.396Z</time></trkpt><trkpt lat="46.5758024" lon="12.5010919"><ele>1447.0</ele><time>2026-04-30T12:26:10.396Z</time></trkpt><trkpt lat="46.5759049" lon="12.5011004"><ele>1447.0</ele><time>2026-04-30T12:26:11.396Z</time></trkpt><trkpt lat="46.5760252" lon="12.5010894"><ele>1447.0</ele><time>2026-04-30T12:26:12.396Z</time></trkpt><trkpt lat="46.5761488" lon="12.5010788"><ele>1447.0</ele><time>2026-04-30T12:26:13.396Z</time></trkpt><trkpt lat="46.5762775" lon="12.5010459"><ele>1447.0</ele><time>2026-04-30T12:26:14.396Z</time></trkpt><trkpt lat="46.5764011" lon="12.5010215"><ele>1448.5</ele><time>2026-04-30T12:26:15.396Z</time></trkpt><trkpt lat="46.5765252" lon="12.50099"><ele>1450.0</ele><time>2026-04-30T12:26:16.396Z</time></trkpt><trkpt lat="46.5766343" lon="12.5009613"><ele>1451.5</ele><time>2026-04-30T12:26:17.396Z</time></trkpt><trkpt lat="46.5767396" lon="12.5008719"><ele>1453.0</ele><time>2026-04-30T12:26:18.396Z</time></trkpt><trkpt lat="46.5768526" lon="12.5007922"><ele>1453.0</ele><time>2026-04-30T12:26:19.396Z</time></trkpt><trkpt lat="46.5769686" lon="12.5007313"><ele>1453.0</ele><time>2026-04-30T12:26:20.396Z</time></trkpt><trkpt lat="46.5770936" lon="12.5007035"><ele>1453.0</ele><time>2026-04-30T12:26:21.396Z</time></trkpt><trkpt lat="46.5772194" lon="12.5006833"><ele>1453.0</ele><time>2026-04-30T12:26:22.396Z</time></trkpt><trkpt lat="46.5773414" lon="12.5006356"><ele>1450.75</ele><time>2026-04-30T12:26:23.396Z</time></trkpt><trkpt lat="46.5774653" lon="12.5005852"><ele>1448.5</ele><time>2026-04-30T12:26:24.396Z</time></trkpt><trkpt lat="46.5775878" lon="12.5005397"><ele>1446.25</ele><time>2026-04-30T12:26:25.397Z</time></trkpt><trkpt lat="46.5777154" lon="12.5004911"><ele>1444.0</ele><time>2026-04-30T12:26:26.396Z</time></trkpt><trkpt lat="46.5778408" lon="12.5004299"><ele>1445.75</ele><time>2026-04-30T12:26:27.396Z</time></trkpt><trkpt lat="46.5779599" lon="12.5003771"><ele>1447.5</ele><time>2026-04-30T12:26:28.396Z</time></trkpt><trkpt lat="46.5780729" lon="12.5003265"><ele>1449.25</ele><time>2026-04-30T12:26:29.397Z</time></trkpt><trkpt lat="46.578182" lon="12.5002621"><ele>1451.0</ele><time>2026-04-30T12:26:30.396Z</time></trkpt><trkpt lat="46.5782803" lon="12.5001967"><ele>1451.0</ele><time>2026-04-30T12:26:31.396Z</time></trkpt><trkpt lat="46.5783661" lon="12.5001327"><ele>1451.0</ele><time>2026-04-30T12:26:32.396Z</time></trkpt><trkpt lat="46.5784451" lon="12.5000674"><ele>1451.0</ele><time>2026-04-30T12:26:33.397Z</time></trkpt><trkpt lat="46.5785155" lon="12.5000068"><ele>1451.0</ele><time>2026-04-30T12:26:34.396Z</time></trkpt><trkpt lat="46.5785847" lon="12.4999415"><ele>1451.0</ele><time>2026-04-30T12:26:35.397Z</time></trkpt><trkpt lat="46.578657" lon="12.4998811"><ele>1451.0</ele><time>2026-04-30T12:26:36.396Z</time></trkpt><trkpt lat="46.5787338" lon="12.4998137"><ele>1449.0</ele><time>2026-04-30T12:26:37.396Z</time></trkpt><trkpt lat="46.578809" lon="12.4997464"><ele>1447.0</ele><time>2026-04-30T12:26:38.397Z</time></trkpt><trkpt lat="46.5788812" lon="12.4996646"><ele>1445.0</ele><time>2026-04-30T12:26:39.396Z</time></trkpt><trkpt lat="46.5789492" lon="12.4995641"><ele>1443.0</ele><time>2026-04-30T12:26:40.396Z</time></trkpt><trkpt lat="46.5790049" lon="12.4994251"><ele>1441.0</ele><time>2026-04-30T12:26:41.396Z</time></trkpt><trkpt lat="46.579063" lon="12.4992836"><ele>1441.0</ele><time>2026-04-30T12:26:42.396Z</time></trkpt><trkpt lat="46.5791212" lon="12.4991393"><ele>1441.0</ele><time>2026-04-30T12:26:43.396Z</time></trkpt><trkpt lat="46.5791847" lon="12.4989857"><ele>1441.0</ele><time>2026-04-30T12:26:44.396Z</time></trkpt><trkpt lat="46.579239" lon="12.4988251"><ele>1441.0</ele><time>2026-04-30T12:26:45.396Z</time></trkpt><trkpt lat="46.5793115" lon="12.4986586"><ele>1443.75</ele><time>2026-04-30T12:26:46.396Z</time></trkpt><trkpt lat="46.5793835" lon="12.4984914"><ele>1446.5</ele><time>2026-04-30T12:26:47.396Z</time></trkpt><trkpt lat="46.5794611" lon="12.4983445"><ele>1449.25</ele><time>2026-04-30T12:26:48.396Z</time></trkpt><trkpt lat="46.5795498" lon="12.4982033"><ele>1452.0</ele><time>2026-04-30T12:26:49.396Z</time></trkpt><trkpt lat="46.5796301" lon="12.4980512"><ele>1447.5</ele><time>2026-04-30T12:26:50.396Z</time></trkpt><trkpt lat="46.5797106" lon="12.4978946"><ele>1443.0</ele><time>2026-04-30T12:26:51.396Z</time></trkpt><trkpt lat="46.5797719" lon="12.4977408"><ele>1438.5</ele><time>2026-04-30T12:26:52.396Z</time></trkpt><trkpt lat="46.5798485" lon="12.4976039"><ele>1434.0</ele><time>2026-04-30T12:26:53.396Z</time></trkpt><trkpt lat="46.5799314" lon="12.4974847"><ele>1434.0</ele><time>2026-04-30T12:26:54.396Z</time></trkpt><trkpt lat="46.5800602" lon="12.4972404"><ele>1434.0</ele><time>2026-04-30T12:26:56.396Z</time></trkpt><trkpt lat="46.5801037" lon="12.4971159"><ele>1434.0</ele><time>2026-04-30T12:26:57.396Z</time></trkpt><trkpt lat="46.5801015" lon="12.4969528"><ele>1434.0</ele><time>2026-04-30T12:26:58.396Z</time></trkpt><trkpt lat="46.580108" lon="12.4967934"><ele>1435.5</ele><time>2026-04-30T12:26:59.396Z</time></trkpt><trkpt lat="46.5800887" lon="12.4966457"><ele>1437.0</ele><time>2026-04-30T12:27:00.396Z</time></trkpt><trkpt lat="46.580088" lon="12.4964578"><ele>1438.5</ele><time>2026-04-30T12:27:01.396Z</time></trkpt><trkpt lat="46.5801111" lon="12.4962786"><ele>1440.0</ele><time>2026-04-30T12:27:02.396Z</time></trkpt><trkpt lat="46.580136" lon="12.4960874"><ele>1440.0</ele><time>2026-04-30T12:27:03.396Z</time></trkpt><trkpt lat="46.580161" lon="12.4959117"><ele>1440.0</ele><time>2026-04-30T12:27:04.396Z</time></trkpt><trkpt lat="46.5802425" lon="12.4957714"><ele>1440.0</ele><time>2026-04-30T12:27:05.396Z</time></trkpt><trkpt lat="46.5803098" lon="12.4956223"><ele>1440.0</ele><time>2026-04-30T12:27:06.396Z</time></trkpt><trkpt lat="46.5803876" lon="12.4954773"><ele>1437.75</ele><time>2026-04-30T12:27:07.396Z</time></trkpt><trkpt lat="46.5804669" lon="12.4953319"><ele>1435.5</ele><time>2026-04-30T12:27:08.396Z</time></trkpt><trkpt lat="46.5805607" lon="12.495201"><ele>1433.25</ele><time>2026-04-30T12:27:09.396Z</time></trkpt><trkpt lat="46.5806387" lon="12.4950659"><ele>1431.0</ele><time>2026-04-30T12:27:10.396Z</time></trkpt><trkpt lat="46.5807142" lon="12.4949578"><ele>1431.0</ele><time>2026-04-30T12:27:11.396Z</time></trkpt><trkpt lat="46.5807767" lon="12.4948429"><ele>1431.0</ele><time>2026-04-30T12:27:12.396Z</time></trkpt><trkpt lat="46.5808419" lon="12.49472"><ele>1431.0</ele><time>2026-04-30T12:27:13.396Z</time></trkpt><trkpt lat="46.5808776" lon="12.4945882"><ele>1431.0</ele><time>2026-04-30T12:27:14.396Z</time></trkpt><trkpt lat="46.5809389" lon="12.4944759"><ele>1431.0</ele><time>2026-04-30T12:27:15.396Z</time></trkpt><trkpt lat="46.5810122" lon="12.4943365"><ele>1431.8</ele><time>2026-04-30T12:27:16.396Z</time></trkpt><trkpt lat="46.5810775" lon="12.4942136"><ele>1432.6</ele><time>2026-04-30T12:27:17.396Z</time></trkpt><trkpt lat="46.5811334" lon="12.4940773"><ele>1433.4</ele><time>2026-04-30T12:27:18.396Z</time></trkpt><trkpt lat="46.5811821" lon="12.4939462"><ele>1434.2</ele><time>2026-04-30T12:27:19.396Z</time></trkpt><trkpt lat="46.5812173" lon="12.4937933"><ele>1435.0</ele><time>2026-04-30T12:27:20.396Z</time></trkpt><trkpt lat="46.5812139" lon="12.4936067"><ele>1430.2</ele><time>2026-04-30T12:27:21.396Z</time></trkpt><trkpt lat="46.5812294" lon="12.4934614"><ele>1425.4</ele><time>2026-04-30T12:27:22.396Z</time></trkpt><trkpt lat="46.5812335" lon="12.4933414"><ele>1420.6</ele><time>2026-04-30T12:27:23.396Z</time></trkpt><trkpt lat="46.5812082" lon="12.4931918"><ele>1415.8</ele><time>2026-04-30T12:27:24.396Z</time></trkpt><trkpt lat="46.5812084" lon="12.4930318"><ele>1411.0</ele><time>2026-04-30T12:27:25.396Z</time></trkpt><trkpt lat="46.5812119" lon="12.4928585"><ele>1412.8</ele><time>2026-04-30T12:27:26.396Z</time></trkpt><trkpt lat="46.5812067" lon="12.4926796"><ele>1414.6</ele><time>2026-04-30T12:27:27.396Z</time></trkpt><trkpt lat="46.5811963" lon="12.4925173"><ele>1416.4</ele><time>2026-04-30T12:27:28.396Z</time></trkpt><trkpt lat="46.5811847" lon="12.492375"><ele>1418.2</ele><time>2026-04-30T12:27:29.396Z</time></trkpt><trkpt lat="46.5811277" lon="12.4922366"><ele>1420.0</ele><time>2026-04-30T12:27:31.396Z</time></trkpt><trkpt lat="46.5810191" lon="12.4921596"><ele>1415.8</ele><time>2026-04-30T12:27:32.396Z</time></trkpt><trkpt lat="46.5809298" lon="12.4920681"><ele>1411.6</ele><time>2026-04-30T12:27:33.396Z</time></trkpt><trkpt lat="46.5808455" lon="12.4920035"><ele>1407.4</ele><time>2026-04-30T12:27:34.396Z</time></trkpt><trkpt lat="46.5807567" lon="12.4919531"><ele>1403.2</ele><time>2026-04-30T12:27:35.396Z</time></trkpt><trkpt lat="46.5806717" lon="12.491895"><ele>1399.0</ele><time>2026-04-30T12:27:36.396Z</time></trkpt><trkpt lat="46.5805769" lon="12.4918334"><ele>1399.0</ele><time>2026-04-30T12:27:37.396Z</time></trkpt><trkpt lat="46.5804758" lon="12.4917675"><ele>1399.0</ele><time>2026-04-30T12:27:38.396Z</time></trkpt><trkpt lat="46.5803584" lon="12.4916964"><ele>1399.0</ele><time>2026-04-30T12:27:39.396Z</time></trkpt><trkpt lat="46.5802551" lon="12.4916284"><ele>1399.0</ele><time>2026-04-30T12:27:40.396Z</time></trkpt><trkpt lat="46.5801507" lon="12.4915653"><ele>1401.6</ele><time>2026-04-30T12:27:41.396Z</time></trkpt><trkpt lat="46.5800453" lon="12.4915209"><ele>1404.2</ele><time>2026-04-30T12:27:42.396Z</time></trkpt><trkpt lat="46.5799326" lon="12.4914991"><ele>1406.8</ele><time>2026-04-30T12:27:43.396Z</time></trkpt><trkpt lat="46.5798294" lon="12.4914941"><ele>1409.3999999999999</ele><time>2026-04-30T12:27:44.396Z</time></trkpt><trkpt lat="46.5797275" lon="12.4914438"><ele>1412.0</ele><time>2026-04-30T12:27:45.396Z</time></trkpt><trkpt lat="46.5796142" lon="12.4914563"><ele>1414.0</ele><time>2026-04-30T12:27:46.396Z</time></trkpt><trkpt lat="46.5794988" lon="12.4914718"><ele>1416.0</ele><time>2026-04-30T12:27:47.396Z</time></trkpt><trkpt lat="46.5793853" lon="12.4914642"><ele>1418.0</ele><time>2026-04-30T12:27:48.396Z</time></trkpt><trkpt lat="46.5792733" lon="12.4914605"><ele>1420.0</ele><time>2026-04-30T12:27:49.396Z</time></trkpt><trkpt lat="46.5791569" lon="12.4914789"><ele>1420.0</ele><time>2026-04-30T12:27:50.396Z</time></trkpt><trkpt lat="46.5790391" lon="12.4914924"><ele>1420.0</ele><time>2026-04-30T12:27:51.396Z</time></trkpt><trkpt lat="46.5789179" lon="12.4915008"><ele>1420.0</ele><time>2026-04-30T12:27:52.396Z</time></trkpt><trkpt lat="46.5787928" lon="12.4915069"><ele>1420.0</ele><time>2026-04-30T12:27:53.396Z</time></trkpt><trkpt lat="46.57869" lon="12.491528"><ele>1421.25</ele><time>2026-04-30T12:27:54.396Z</time></trkpt><trkpt lat="46.5785689" lon="12.491538"><ele>1422.5</ele><time>2026-04-30T12:27:55.396Z</time></trkpt><trkpt lat="46.5784343" lon="12.4915617"><ele>1423.75</ele><time>2026-04-30T12:27:56.396Z</time></trkpt><trkpt lat="46.5783053" lon="12.4915785"><ele>1425.0</ele><time>2026-04-30T12:27:57.396Z</time></trkpt><trkpt lat="46.578162" lon="12.4915632"><ele>1425.0</ele><time>2026-04-30T12:27:58.396Z</time></trkpt><trkpt lat="46.5780329" lon="12.4915506"><ele>1425.0</ele><time>2026-04-30T12:27:59.396Z</time></trkpt><trkpt lat="46.5779036" lon="12.4915423"><ele>1425.0</ele><time>2026-04-30T12:28:00.396Z</time></trkpt><trkpt lat="46.5777013" lon="12.491457"><ele>1427.75</ele><time>2026-04-30T12:28:02.396Z</time></trkpt><trkpt lat="46.5775876" lon="12.4914435"><ele>1430.5</ele><time>2026-04-30T12:28:03.396Z</time></trkpt><trkpt lat="46.5774856" lon="12.4914102"><ele>1433.25</ele><time>2026-04-30T12:28:04.396Z</time></trkpt><trkpt lat="46.5773804" lon="12.4913408"><ele>1436.0</ele><time>2026-04-30T12:28:05.396Z</time></trkpt><trkpt lat="46.5772698" lon="12.4912622"><ele>1432.8</ele><time>2026-04-30T12:28:06.396Z</time></trkpt><trkpt lat="46.5771626" lon="12.491134"><ele>1429.6</ele><time>2026-04-30T12:28:07.396Z</time></trkpt><trkpt lat="46.5770698" lon="12.491078"><ele>1426.4</ele><time>2026-04-30T12:28:08.396Z</time></trkpt><trkpt lat="46.5769913" lon="12.4910098"><ele>1423.2</ele><time>2026-04-30T12:28:09.396Z</time></trkpt><trkpt lat="46.5769242" lon="12.4909558"><ele>1420.0</ele><time>2026-04-30T12:28:10.396Z</time></trkpt><trkpt lat="46.5768579" lon="12.4909092"><ele>1420.0</ele><time>2026-04-30T12:28:11.396Z</time></trkpt><trkpt lat="46.5768843" lon="12.4908206"><ele>1420.0</ele><time>2026-04-30T12:28:26.397Z</time></trkpt><trkpt lat="46.5769712" lon="12.490755"><ele>1420.0</ele><time>2026-04-30T12:28:29.396Z</time></trkpt><trkpt lat="46.5770632" lon="12.4906648"><ele>1420.0</ele><time>2026-04-30T12:28:33.396Z</time></trkpt><trkpt lat="46.5771187" lon="12.4906166"><ele>1420.0</ele><time>2026-04-30T12:28:35.396Z</time></trkpt><trkpt lat="46.577188" lon="12.4905151"><ele>1420.0</ele><time>2026-04-30T12:28:38.396Z</time></trkpt><trkpt lat="46.5772163" lon="12.4904095"><ele>1416.5</ele><time>2026-04-30T12:28:40.396Z</time></trkpt><trkpt lat="46.577277" lon="12.4903036"><ele>1413.0</ele><time>2026-04-30T12:28:42.396Z</time></trkpt><trkpt lat="46.5773229" lon="12.4902106"><ele>1409.5</ele><time>2026-04-30T12:28:43.396Z</time></trkpt><trkpt lat="46.5773709" lon="12.4901046"><ele>1406.0</ele><time>2026-04-30T12:28:45.396Z</time></trkpt><trkpt lat="46.5774028" lon="12.490021"><ele>1402.5</ele><time>2026-04-30T12:28:47.396Z</time></trkpt><trkpt lat="46.5774529" lon="12.4899197"><ele>1399.0</ele><time>2026-04-30T12:28:49.396Z</time></trkpt><trkpt lat="46.577509" lon="12.4898261"><ele>1399.0</ele><time>2026-04-30T12:28:51.396Z</time></trkpt><trkpt lat="46.5775148" lon="12.4897307"><ele>1399.0</ele><time>2026-04-30T12:28:55.396Z</time></trkpt><trkpt lat="46.5774634" lon="12.4896477"><ele>1399.0</ele><time>2026-04-30T12:28:58.396Z</time></trkpt><trkpt lat="46.5773873" lon="12.4895808"><ele>1399.0</ele><time>2026-04-30T12:29:01.396Z</time></trkpt><trkpt lat="46.5772969" lon="12.4895388"><ele>1399.0</ele><time>2026-04-30T12:29:04.396Z</time></trkpt><trkpt lat="46.5772314" lon="12.4895369"><ele>1399.0</ele><time>2026-04-30T12:29:08.396Z</time></trkpt><trkpt lat="46.5772138" lon="12.4894422"><ele>1396.3333333333333</ele><time>2026-04-30T12:29:28.397Z</time></trkpt><trkpt lat="46.5771987" lon="12.4893429"><ele>1393.6666666666665</ele><time>2026-04-30T12:29:37.396Z</time></trkpt><trkpt lat="46.5772653" lon="12.4892418"><ele>1391.0</ele><time>2026-04-30T12:29:40.396Z</time></trkpt><trkpt lat="46.5773189" lon="12.4891367"><ele>1388.3333333333333</ele><time>2026-04-30T12:29:42.396Z</time></trkpt><trkpt lat="46.5773705" lon="12.4890693"><ele>1385.6666666666667</ele><time>2026-04-30T12:29:43.396Z</time></trkpt><trkpt lat="46.5774137" lon="12.4889749"><ele>1383.0</ele><time>2026-04-30T12:29:44.396Z</time></trkpt><trkpt lat="46.5774728" lon="12.4889188"><ele>1383.0</ele><time>2026-04-30T12:29:45.396Z</time></trkpt><trkpt lat="46.5775196" lon="12.488844"><ele>1383.0</ele><time>2026-04-30T12:29:46.396Z</time></trkpt><trkpt lat="46.5775821" lon="12.4888041"><ele>1383.0</ele><time>2026-04-30T12:29:52.396Z</time></trkpt><trkpt lat="46.577642" lon="12.4887289"><ele>1383.0</ele><time>2026-04-30T12:29:54.396Z</time></trkpt><trkpt lat="46.5777263" lon="12.4885786"><ele>1383.0</ele><time>2026-04-30T12:29:56.396Z</time></trkpt><trkpt lat="46.5777736" lon="12.488506"><ele>1383.0</ele><time>2026-04-30T12:29:57.396Z</time></trkpt><trkpt lat="46.577828" lon="12.4884262"><ele>1381.4</ele><time>2026-04-30T12:29:58.396Z</time></trkpt><trkpt lat="46.5779373" lon="12.4883337"><ele>1379.8000000000002</ele><time>2026-04-30T12:30:00.397Z</time></trkpt><trkpt lat="46.5780327" lon="12.4884453"><ele>1378.2</ele><time>2026-04-30T12:30:06.396Z</time></trkpt><trkpt lat="46.5779985" lon="12.4885462"><ele>1376.6</ele><time>2026-04-30T12:30:08.396Z</time></trkpt><trkpt lat="46.5779968" lon="12.4886727"><ele>1375.0</ele><time>2026-04-30T12:30:10.396Z</time></trkpt><trkpt lat="46.5779909" lon="12.4888084"><ele>1375.0</ele><time>2026-04-30T12:30:12.396Z</time></trkpt><trkpt lat="46.5779685" lon="12.4889227"><ele>1375.0</ele><time>2026-04-30T12:30:14.396Z</time></trkpt><trkpt lat="46.578032" lon="12.4888427"><ele>1375.0</ele><time>2026-04-30T12:30:23.396Z</time></trkpt><trkpt lat="46.5780953" lon="12.4888992"><ele>1375.0</ele><time>2026-04-30T12:30:31.396Z</time></trkpt><trkpt lat="46.5781589" lon="12.4889443"><ele>1375.0</ele><time>2026-04-30T12:30:39.396Z</time></trkpt><trkpt lat="46.5782553" lon="12.4889107"><ele>1375.0</ele><time>2026-04-30T12:31:03.396Z</time></trkpt><trkpt lat="46.5783043" lon="12.488793"><ele>1373.0</ele><time>2026-04-30T12:31:06.396Z</time></trkpt><trkpt lat="46.5783362" lon="12.4886519"><ele>1371.0</ele><time>2026-04-30T12:31:07.396Z</time></trkpt><trkpt lat="46.5783687" lon="12.48852"><ele>1369.0</ele><time>2026-04-30T12:31:08.396Z</time></trkpt><trkpt lat="46.5783981" lon="12.488417"><ele>1367.0</ele><time>2026-04-30T12:31:10.396Z</time></trkpt><trkpt lat="46.578565" lon="12.4883818"><ele>1365.0</ele><time>2026-04-30T12:31:19.396Z</time></trkpt><trkpt lat="46.5787217" lon="12.4884454"><ele>1363.0</ele><time>2026-04-30T12:31:22.396Z</time></trkpt><trkpt lat="46.5789094" lon="12.4884443"><ele>1361.0</ele><time>2026-04-30T12:31:26.396Z</time></trkpt><trkpt lat="46.5789711" lon="12.4884713"><ele>1359.0</ele><time>2026-04-30T12:31:35.396Z</time></trkpt><trkpt lat="46.5789038" lon="12.4884795"><ele>1357.0</ele><time>2026-04-30T12:32:01.396Z</time></trkpt><trkpt lat="46.5788419" lon="12.4884034"><ele>1355.0</ele><time>2026-04-30T12:32:04.416Z</time></trkpt><trkpt lat="46.5787659" lon="12.4883643"><ele>1356.6666666666667</ele><time>2026-04-30T12:32:06.396Z</time></trkpt><trkpt lat="46.5786653" lon="12.4883721"><ele>1358.3333333333335</ele><time>2026-04-30T12:32:10.422Z</time></trkpt><trkpt lat="46.5786097" lon="12.4884174"><ele>1360.0</ele><time>2026-04-30T12:32:13.356Z</time></trkpt><trkpt lat="46.5785493" lon="12.4884607"><ele>1361.6666666666667</ele><time>2026-04-30T12:32:17.401Z</time></trkpt><trkpt lat="46.5784757" lon="12.4884441"><ele>1363.3333333333333</ele><time>2026-04-30T12:32:21.396Z</time></trkpt><trkpt lat="46.5784184" lon="12.4884979"><ele>1365.0</ele><time>2026-04-30T12:32:25.396Z</time></trkpt><trkpt lat="46.5783579" lon="12.4885871"><ele>1367.0</ele><time>2026-04-30T12:32:27.396Z</time></trkpt><trkpt lat="46.5782747" lon="12.4887864"><ele>1369.0</ele><time>2026-04-30T12:32:33.407Z</time></trkpt><trkpt lat="46.5782169" lon="12.4888267"><ele>1371.0</ele><time>2026-04-30T12:32:36.406Z</time></trkpt><trkpt lat="46.5781387" lon="12.488878"><ele>1373.0</ele><time>2026-04-30T12:32:40.396Z</time></trkpt><trkpt lat="46.5780811" lon="12.4889332"><ele>1375.0</ele><time>2026-04-30T12:32:42.396Z</time></trkpt><trkpt lat="46.5780158" lon="12.4889877"><ele>1375.0</ele><time>2026-04-30T12:32:44.396Z</time></trkpt><trkpt lat="46.577952" lon="12.4890137"><ele>1375.0</ele><time>2026-04-30T12:32:47.397Z</time></trkpt><trkpt lat="46.5779465" lon="12.4888949"><ele>1375.0</ele><time>2026-04-30T12:32:50.396Z</time></trkpt><trkpt lat="46.5779651" lon="12.4887194"><ele>1375.0</ele><time>2026-04-30T12:32:52.396Z</time></trkpt><trkpt lat="46.5779657" lon="12.4886253"><ele>1375.0</ele><time>2026-04-30T12:32:53.396Z</time></trkpt><trkpt lat="46.5779761" lon="12.4885348"><ele>1375.0</ele><time>2026-04-30T12:32:54.396Z</time></trkpt><trkpt lat="46.5779976" lon="12.488446"><ele>1373.3333333333333</ele><time>2026-04-30T12:32:55.396Z</time></trkpt><trkpt lat="46.5780158" lon="12.4883475"><ele>1371.6666666666665</ele><time>2026-04-30T12:32:56.396Z</time></trkpt><trkpt lat="46.5780391" lon="12.4882499"><ele>1370.0</ele><time>2026-04-30T12:32:57.396Z</time></trkpt><trkpt lat="46.5780658" lon="12.4881515"><ele>1368.3333333333333</ele><time>2026-04-30T12:32:58.396Z</time></trkpt><trkpt lat="46.5780879" lon="12.4880452"><ele>1366.6666666666667</ele><time>2026-04-30T12:32:59.396Z</time></trkpt><trkpt lat="46.5781158" lon="12.4879273"><ele>1365.0</ele><time>2026-04-30T12:33:00.396Z</time></trkpt><trkpt lat="46.5781451" lon="12.4878062"><ele>1364.6666666666667</ele><time>2026-04-30T12:33:01.396Z</time></trkpt><trkpt lat="46.5781513" lon="12.4876805"><ele>1364.3333333333333</ele><time>2026-04-30T12:33:02.396Z</time></trkpt><trkpt lat="46.5781648" lon="12.4875829"><ele>1364.0</ele><time>2026-04-30T12:33:03.396Z</time></trkpt><trkpt lat="46.5781805" lon="12.4874717"><ele>1363.6666666666665</ele><time>2026-04-30T12:33:04.396Z</time></trkpt><trkpt lat="46.5781769" lon="12.4873354"><ele>1363.3333333333333</ele><time>2026-04-30T12:33:05.396Z</time></trkpt><trkpt lat="46.5781539" lon="12.487203"><ele>1363.0</ele><time>2026-04-30T12:33:06.396Z</time></trkpt><trkpt lat="46.5781161" lon="12.4870862"><ele>1363.0</ele><time>2026-04-30T12:33:07.396Z</time></trkpt><trkpt lat="46.5780806" lon="12.4869673"><ele>1363.0</ele><time>2026-04-30T12:33:08.396Z</time></trkpt><trkpt lat="46.5780971" lon="12.4868456"><ele>1363.0</ele><time>2026-04-30T12:33:09.396Z</time></trkpt><trkpt lat="46.5781055" lon="12.486728"><ele>1363.0</ele><time>2026-04-30T12:33:10.396Z</time></trkpt><trkpt lat="46.578134" lon="12.4866025"><ele>1363.0</ele><time>2026-04-30T12:33:11.396Z</time></trkpt><trkpt lat="46.5782068" lon="12.4865338"><ele>1363.0</ele><time>2026-04-30T12:33:12.396Z</time></trkpt><trkpt lat="46.5782634" lon="12.4864218"><ele>1363.0</ele><time>2026-04-30T12:33:13.396Z</time></trkpt><trkpt lat="46.5783218" lon="12.4863227"><ele>1363.0</ele><time>2026-04-30T12:33:14.396Z</time></trkpt><trkpt lat="46.5783706" lon="12.4862301"><ele>1363.0</ele><time>2026-04-30T12:33:15.396Z</time></trkpt><trkpt lat="46.5784031" lon="12.4861248"><ele>1363.0</ele><time>2026-04-30T12:33:16.396Z</time></trkpt><trkpt lat="46.5784216" lon="12.4860201"><ele>1363.0</ele><time>2026-04-30T12:33:17.396Z</time></trkpt><trkpt lat="46.5784215" lon="12.4858953"><ele>1363.0</ele><time>2026-04-30T12:33:18.396Z</time></trkpt><trkpt lat="46.5784142" lon="12.4857698"><ele>1363.4</ele><time>2026-04-30T12:33:19.396Z</time></trkpt><trkpt lat="46.5784116" lon="12.4856399"><ele>1363.8000000000002</ele><time>2026-04-30T12:33:20.396Z</time></trkpt><trkpt lat="46.5784111" lon="12.48551"><ele>1364.2</ele><time>2026-04-30T12:33:21.396Z</time></trkpt><trkpt lat="46.5784115" lon="12.4853763"><ele>1364.6</ele><time>2026-04-30T12:33:22.396Z</time></trkpt><trkpt lat="46.5784641" lon="12.4852666"><ele>1365.0</ele><time>2026-04-30T12:33:23.396Z</time></trkpt><trkpt lat="46.5785003" lon="12.4851464"><ele>1365.2</ele><time>2026-04-30T12:33:24.396Z</time></trkpt><trkpt lat="46.5785269" lon="12.4850136"><ele>1365.4</ele><time>2026-04-30T12:33:25.396Z</time></trkpt><trkpt lat="46.5785512" lon="12.4848783"><ele>1365.6</ele><time>2026-04-30T12:33:26.396Z</time></trkpt><trkpt lat="46.5785724" lon="12.4847452"><ele>1365.8</ele><time>2026-04-30T12:33:27.396Z</time></trkpt><trkpt lat="46.5785786" lon="12.4846287"><ele>1366.0</ele><time>2026-04-30T12:33:28.396Z</time></trkpt><trkpt lat="46.5786252" lon="12.4844859"><ele>1366.1999999999998</ele><time>2026-04-30T12:33:30.396Z</time></trkpt><trkpt lat="46.5786266" lon="12.4843709"><ele>1366.3999999999999</ele><time>2026-04-30T12:33:32.396Z</time></trkpt><trkpt lat="46.5786714" lon="12.4842306"><ele>1366.6</ele><time>2026-04-30T12:33:35.396Z</time></trkpt><trkpt lat="46.5787076" lon="12.4841048"><ele>1366.8</ele><time>2026-04-30T12:33:37.396Z</time></trkpt><trkpt lat="46.5786204" lon="12.4840009"><ele>1367.0</ele><time>2026-04-30T12:33:47.396Z</time></trkpt><trkpt lat="46.5785348" lon="12.4838999"><ele>1367.0</ele><time>2026-04-30T12:33:49.396Z</time></trkpt><trkpt lat="46.5784628" lon="12.4838033"><ele>1367.0</ele><time>2026-04-30T12:33:51.396Z</time></trkpt><trkpt lat="46.5783874" lon="12.483693"><ele>1367.0</ele><time>2026-04-30T12:33:53.396Z</time></trkpt><trkpt lat="46.5783455" lon="12.4835826"><ele>1367.0</ele><time>2026-04-30T12:33:55.396Z</time></trkpt><trkpt lat="46.5782779" lon="12.4835035"><ele>1367.0</ele><time>2026-04-30T12:33:58.396Z</time></trkpt><trkpt lat="46.5781881" lon="12.4834629"><ele>1368.8333333333335</ele><time>2026-04-30T12:34:00.396Z</time></trkpt><trkpt lat="46.5781" lon="12.4834293"><ele>1370.6666666666667</ele><time>2026-04-30T12:34:02.396Z</time></trkpt><trkpt lat="46.5780368" lon="12.4834481"><ele>1372.5</ele><time>2026-04-30T12:34:03.396Z</time></trkpt><trkpt lat="46.5779724" lon="12.4834345"><ele>1374.3333333333333</ele><time>2026-04-30T12:34:05.396Z</time></trkpt><trkpt lat="46.5779042" lon="12.483378"><ele>1376.1666666666665</ele><time>2026-04-30T12:34:12.396Z</time></trkpt><trkpt lat="46.5778335" lon="12.4833401"><ele>1378.0</ele><time>2026-04-30T12:34:14.396Z</time></trkpt><trkpt lat="46.577738" lon="12.4833325"><ele>1380.0</ele><time>2026-04-30T12:34:16.396Z</time></trkpt><trkpt lat="46.5776604" lon="12.4833349"><ele>1382.0</ele><time>2026-04-30T12:34:18.397Z</time></trkpt><trkpt lat="46.5776035" lon="12.4832908"><ele>1384.0</ele><time>2026-04-30T12:34:20.396Z</time></trkpt><trkpt lat="46.5775153" lon="12.4832051"><ele>1386.0</ele><time>2026-04-30T12:34:22.397Z</time></trkpt><trkpt lat="46.5774525" lon="12.4831545"><ele>1388.0</ele><time>2026-04-30T12:34:24.396Z</time></trkpt><trkpt lat="46.5774268" lon="12.4830379"><ele>1390.0</ele><time>2026-04-30T12:34:26.396Z</time></trkpt><trkpt lat="46.5773927" lon="12.4829361"><ele>1390.8333333333333</ele><time>2026-04-30T12:34:28.396Z</time></trkpt><trkpt lat="46.5773569" lon="12.4828254"><ele>1391.6666666666665</ele><time>2026-04-30T12:34:30.396Z</time></trkpt><trkpt lat="46.5773172" lon="12.4827198"><ele>1392.5</ele><time>2026-04-30T12:34:32.396Z</time></trkpt><trkpt lat="46.5773033" lon="12.4825718"><ele>1393.3333333333333</ele><time>2026-04-30T12:34:34.396Z</time></trkpt><trkpt lat="46.5772983" lon="12.4824802"><ele>1394.1666666666667</ele><time>2026-04-30T12:34:36.396Z</time></trkpt><trkpt lat="46.577359" lon="12.482417"><ele>1395.0</ele><time>2026-04-30T12:34:53.397Z</time></trkpt><trkpt lat="46.5774294" lon="12.4824323"><ele>1395.0</ele><time>2026-04-30T12:34:57.396Z</time></trkpt><trkpt lat="46.5774972" lon="12.4824417"><ele>1395.0</ele><time>2026-04-30T12:35:01.396Z</time></trkpt><trkpt lat="46.5775639" lon="12.4824158"><ele>1395.0</ele><time>2026-04-30T12:35:06.396Z</time></trkpt><trkpt lat="46.5776275" lon="12.4824765"><ele>1395.0</ele><time>2026-04-30T12:35:11.396Z</time></trkpt><trkpt lat="46.5776873" lon="12.4825268"><ele>1395.0</ele><time>2026-04-30T12:35:14.396Z</time></trkpt><trkpt lat="46.577757" lon="12.4825979"><ele>1395.0</ele><time>2026-04-30T12:35:17.397Z</time></trkpt><trkpt lat="46.5778258" lon="12.4825794"><ele>1395.0</ele><time>2026-04-30T12:35:23.396Z</time></trkpt><trkpt lat="46.5778976" lon="12.4826122"><ele>1394.0</ele><time>2026-04-30T12:35:30.396Z</time></trkpt><trkpt lat="46.5779635" lon="12.4825867"><ele>1393.0</ele><time>2026-04-30T12:35:36.396Z</time></trkpt><trkpt lat="46.5780242" lon="12.4824988"><ele>1392.0</ele><time>2026-04-30T12:35:39.396Z</time></trkpt><trkpt lat="46.5780835" lon="12.4825371"><ele>1391.0</ele><time>2026-04-30T12:35:43.396Z</time></trkpt><trkpt lat="46.5781306" lon="12.4826029"><ele>1390.0</ele><time>2026-04-30T12:35:52.396Z</time></trkpt><trkpt lat="46.5782173" lon="12.4825842"><ele>1389.0</ele><time>2026-04-30T12:35:55.397Z</time></trkpt><trkpt lat="46.5783098" lon="12.4825681"><ele>1389.0</ele><time>2026-04-30T12:35:57.396Z</time></trkpt><trkpt lat="46.5784061" lon="12.4825231"><ele>1389.0</ele><time>2026-04-30T12:35:59.396Z</time></trkpt><trkpt lat="46.5784795" lon="12.482458"><ele>1389.0</ele><time>2026-04-30T12:36:01.397Z</time></trkpt><trkpt lat="46.5785422" lon="12.4823948"><ele>1389.0</ele><time>2026-04-30T12:36:03.396Z</time></trkpt><trkpt lat="46.5785635" lon="12.4822719"><ele>1389.0</ele><time>2026-04-30T12:36:05.397Z</time></trkpt><trkpt lat="46.578609" lon="12.4821721"><ele>1389.0</ele><time>2026-04-30T12:36:07.396Z</time></trkpt><trkpt lat="46.5786868" lon="12.4820648"><ele>1388.5</ele><time>2026-04-30T12:36:09.396Z</time></trkpt><trkpt lat="46.5787653" lon="12.4819879"><ele>1388.0</ele><time>2026-04-30T12:36:10.396Z</time></trkpt><trkpt lat="46.5788327" lon="12.4819387"><ele>1387.5</ele><time>2026-04-30T12:36:11.396Z</time></trkpt><trkpt lat="46.5788981" lon="12.4819043"><ele>1387.0</ele><time>2026-04-30T12:36:12.396Z</time></trkpt><trkpt lat="46.5789556" lon="12.4818446"><ele>1386.5</ele><time>2026-04-30T12:36:13.396Z</time></trkpt><trkpt lat="46.5790325" lon="12.4817967"><ele>1386.0</ele><time>2026-04-30T12:36:14.396Z</time></trkpt><trkpt lat="46.5790957" lon="12.4817535"><ele>1386.0</ele><time>2026-04-30T12:36:15.396Z</time></trkpt><trkpt lat="46.5791529" lon="12.48171"><ele>1386.0</ele><time>2026-04-30T12:36:16.396Z</time></trkpt><trkpt lat="46.5792589" lon="12.4816697"><ele>1386.0</ele><time>2026-04-30T12:36:18.396Z</time></trkpt><trkpt lat="46.5793825" lon="12.4816958"><ele>1386.0</ele><time>2026-04-30T12:36:20.396Z</time></trkpt><trkpt lat="46.5794584" lon="12.48176"><ele>1386.0</ele><time>2026-04-30T12:36:21.396Z</time></trkpt><trkpt lat="46.5795247" lon="12.4818234"><ele>1386.6</ele><time>2026-04-30T12:36:22.396Z</time></trkpt><trkpt lat="46.5796635" lon="12.4818487"><ele>1387.1999999999998</ele><time>2026-04-30T12:36:24.396Z</time></trkpt><trkpt lat="46.5797332" lon="12.4818641"><ele>1387.8000000000002</ele><time>2026-04-30T12:36:25.396Z</time></trkpt><trkpt lat="46.5798169" lon="12.4818636"><ele>1388.4</ele><time>2026-04-30T12:36:26.397Z</time></trkpt><trkpt lat="46.5799021" lon="12.4818523"><ele>1389.0</ele><time>2026-04-30T12:36:27.396Z</time></trkpt><trkpt lat="46.5799819" lon="12.4818434"><ele>1389.0</ele><time>2026-04-30T12:36:28.396Z</time></trkpt><trkpt lat="46.5800745" lon="12.4818218"><ele>1389.0</ele><time>2026-04-30T12:36:29.397Z</time></trkpt><trkpt lat="46.5801531" lon="12.4817975"><ele>1389.0</ele><time>2026-04-30T12:36:30.396Z</time></trkpt><trkpt lat="46.5802385" lon="12.4817645"><ele>1389.0</ele><time>2026-04-30T12:36:31.396Z</time></trkpt><trkpt lat="46.580337" lon="12.4817292"><ele>1389.0</ele><time>2026-04-30T12:36:32.396Z</time></trkpt><trkpt lat="46.5804246" lon="12.4816978"><ele>1388.8333333333333</ele><time>2026-04-30T12:36:33.396Z</time></trkpt><trkpt lat="46.5805128" lon="12.481664"><ele>1388.6666666666667</ele><time>2026-04-30T12:36:34.396Z</time></trkpt><trkpt lat="46.5805921" lon="12.4816174"><ele>1388.5</ele><time>2026-04-30T12:36:35.396Z</time></trkpt><trkpt lat="46.5806809" lon="12.4815925"><ele>1388.3333333333335</ele><time>2026-04-30T12:36:36.396Z</time></trkpt><trkpt lat="46.5807748" lon="12.4815788"><ele>1388.1666666666667</ele><time>2026-04-30T12:36:37.396Z</time></trkpt><trkpt lat="46.5808577" lon="12.4815999"><ele>1388.0</ele><time>2026-04-30T12:36:38.397Z</time></trkpt><trkpt lat="46.5809292" lon="12.4815992"><ele>1388.0</ele><time>2026-04-30T12:36:39.396Z</time></trkpt><trkpt lat="46.581009" lon="12.4816487"><ele>1388.0</ele><time>2026-04-30T12:36:40.396Z</time></trkpt><trkpt lat="46.5810907" lon="12.4816567"><ele>1388.0</ele><time>2026-04-30T12:36:41.396Z</time></trkpt><trkpt lat="46.5811796" lon="12.4816356"><ele>1388.0</ele><time>2026-04-30T12:36:42.396Z</time></trkpt><trkpt lat="46.5812673" lon="12.481597"><ele>1388.0</ele><time>2026-04-30T12:36:43.396Z</time></trkpt><trkpt lat="46.581349" lon="12.4815437"><ele>1388.0</ele><time>2026-04-30T12:36:44.396Z</time></trkpt><trkpt lat="46.5814233" lon="12.4814666"><ele>1388.0</ele><time>2026-04-30T12:36:45.396Z</time></trkpt><trkpt lat="46.5814985" lon="12.481388"><ele>1388.0</ele><time>2026-04-30T12:36:46.396Z</time></trkpt><trkpt lat="46.5815767" lon="12.4813175"><ele>1388.0</ele><time>2026-04-30T12:36:47.396Z</time></trkpt><trkpt lat="46.5816561" lon="12.4812436"><ele>1388.0</ele><time>2026-04-30T12:36:48.396Z</time></trkpt><trkpt lat="46.581743" lon="12.4811849"><ele>1388.0</ele><time>2026-04-30T12:36:49.396Z</time></trkpt><trkpt lat="46.5818281" lon="12.481124"><ele>1388.0</ele><time>2026-04-30T12:36:50.396Z</time></trkpt><trkpt lat="46.5819217" lon="12.4810719"><ele>1388.0</ele><time>2026-04-30T12:36:51.396Z</time></trkpt><trkpt lat="46.5820297" lon="12.4810565"><ele>1388.0</ele><time>2026-04-30T12:36:52.396Z</time></trkpt><trkpt lat="46.5821229" lon="12.4810494"><ele>1388.0</ele><time>2026-04-30T12:36:53.396Z</time></trkpt><trkpt lat="46.5822113" lon="12.481023"><ele>1388.0</ele><time>2026-04-30T12:36:54.396Z</time></trkpt><trkpt lat="46.5822942" lon="12.4809977"><ele>1388.2</ele><time>2026-04-30T12:36:55.396Z</time></trkpt><trkpt lat="46.5823909" lon="12.4809653"><ele>1388.4</ele><time>2026-04-30T12:36:56.396Z</time></trkpt><trkpt lat="46.5824886" lon="12.4809191"><ele>1388.6000000000001</ele><time>2026-04-30T12:36:57.396Z</time></trkpt><trkpt lat="46.5825816" lon="12.4808481"><ele>1388.8000000000002</ele><time>2026-04-30T12:36:58.396Z</time></trkpt><trkpt lat="46.5825839" lon="12.4806452"><ele>1389.0</ele><time>2026-04-30T12:36:59.396Z</time></trkpt><trkpt lat="46.582646" lon="12.4805308"><ele>1389.0</ele><time>2026-04-30T12:37:00.396Z</time></trkpt><trkpt lat="46.5826922" lon="12.480444"><ele>1389.0</ele><time>2026-04-30T12:37:01.396Z</time></trkpt><trkpt lat="46.5827573" lon="12.4803449"><ele>1389.0</ele><time>2026-04-30T12:37:02.396Z</time></trkpt><trkpt lat="46.5828742" lon="12.4803201"><ele>1389.0</ele><time>2026-04-30T12:37:03.396Z</time></trkpt><trkpt lat="46.5829756" lon="12.4802562"><ele>1389.0</ele><time>2026-04-30T12:37:04.396Z</time></trkpt><trkpt lat="46.5830751" lon="12.4801955"><ele>1390.0</ele><time>2026-04-30T12:37:05.396Z</time></trkpt><trkpt lat="46.5831647" lon="12.4801361"><ele>1391.0</ele><time>2026-04-30T12:37:06.396Z</time></trkpt><trkpt lat="46.5832652" lon="12.4800846"><ele>1392.0</ele><time>2026-04-30T12:37:07.396Z</time></trkpt><trkpt lat="46.5833721" lon="12.4800456"><ele>1393.0</ele><time>2026-04-30T12:37:08.396Z</time></trkpt><trkpt lat="46.58348" lon="12.4799842"><ele>1394.0</ele><time>2026-04-30T12:37:09.396Z</time></trkpt><trkpt lat="46.5835785" lon="12.479949"><ele>1392.0</ele><time>2026-04-30T12:37:10.396Z</time></trkpt><trkpt lat="46.5836906" lon="12.4799491"><ele>1390.0</ele><time>2026-04-30T12:37:11.396Z</time></trkpt><trkpt lat="46.583798" lon="12.4799628"><ele>1388.0</ele><time>2026-04-30T12:37:12.396Z</time></trkpt><trkpt lat="46.5839001" lon="12.4799427"><ele>1386.0</ele><time>2026-04-30T12:37:13.396Z</time></trkpt><trkpt lat="46.5840049" lon="12.479919"><ele>1384.0</ele><time>2026-04-30T12:37:14.396Z</time></trkpt><trkpt lat="46.5840793" lon="12.479834"><ele>1384.0</ele><time>2026-04-30T12:37:15.396Z</time></trkpt><trkpt lat="46.5841468" lon="12.4797623"><ele>1384.0</ele><time>2026-04-30T12:37:16.396Z</time></trkpt><trkpt lat="46.5842006" lon="12.4797135"><ele>1384.0</ele><time>2026-04-30T12:37:17.396Z</time></trkpt><trkpt lat="46.5843225" lon="12.4796878"><ele>1384.0</ele><time>2026-04-30T12:37:19.396Z</time></trkpt><trkpt lat="46.5843975" lon="12.479726"><ele>1384.0</ele><time>2026-04-30T12:37:20.396Z</time></trkpt><trkpt lat="46.5844854" lon="12.4798068"><ele>1384.0</ele><time>2026-04-30T12:37:21.396Z</time></trkpt><trkpt lat="46.5845726" lon="12.4799009"><ele>1384.0</ele><time>2026-04-30T12:37:22.396Z</time></trkpt><trkpt lat="46.5846583" lon="12.4800102"><ele>1384.0</ele><time>2026-04-30T12:37:23.396Z</time></trkpt><trkpt lat="46.5847376" lon="12.4801325"><ele>1384.0</ele><time>2026-04-30T12:37:24.396Z</time></trkpt><trkpt lat="46.5848111" lon="12.4802609"><ele>1384.0</ele><time>2026-04-30T12:37:25.396Z</time></trkpt><trkpt lat="46.5848848" lon="12.480392"><ele>1384.0</ele><time>2026-04-30T12:37:26.396Z</time></trkpt><trkpt lat="46.5849598" lon="12.4805247"><ele>1384.0</ele><time>2026-04-30T12:37:27.396Z</time></trkpt><trkpt lat="46.5850368" lon="12.4806573"><ele>1384.0</ele><time>2026-04-30T12:37:28.396Z</time></trkpt><trkpt lat="46.5851163" lon="12.4807951"><ele>1382.5</ele><time>2026-04-30T12:37:29.396Z</time></trkpt><trkpt lat="46.5851921" lon="12.4809374"><ele>1381.0</ele><time>2026-04-30T12:37:30.396Z</time></trkpt><trkpt lat="46.5852563" lon="12.4810779"><ele>1379.5</ele><time>2026-04-30T12:37:31.396Z</time></trkpt><trkpt lat="46.5853145" lon="12.4812208"><ele>1378.0</ele><time>2026-04-30T12:37:32.396Z</time></trkpt><trkpt lat="46.5853733" lon="12.4813566"><ele>1377.8000000000002</ele><time>2026-04-30T12:37:33.396Z</time></trkpt><trkpt lat="46.5854365" lon="12.4814855"><ele>1377.6</ele><time>2026-04-30T12:37:34.396Z</time></trkpt><trkpt lat="46.5855076" lon="12.4816028"><ele>1377.4</ele><time>2026-04-30T12:37:35.396Z</time></trkpt><trkpt lat="46.5855848" lon="12.4817145"><ele>1377.1999999999998</ele><time>2026-04-30T12:37:36.396Z</time></trkpt><trkpt lat="46.5856689" lon="12.4818118"><ele>1377.0</ele><time>2026-04-30T12:37:37.396Z</time></trkpt><trkpt lat="46.5857579" lon="12.4818999"><ele>1377.0</ele><time>2026-04-30T12:37:38.396Z</time></trkpt><trkpt lat="46.5858573" lon="12.4819666"><ele>1377.0</ele><time>2026-04-30T12:37:39.396Z</time></trkpt><trkpt lat="46.5859588" lon="12.4820148"><ele>1377.0</ele><time>2026-04-30T12:37:40.396Z</time></trkpt><trkpt lat="46.5860624" lon="12.4820418"><ele>1377.0</ele><time>2026-04-30T12:37:41.396Z</time></trkpt><trkpt lat="46.5861665" lon="12.4820587"><ele>1377.0</ele><time>2026-04-30T12:37:42.396Z</time></trkpt><trkpt lat="46.5862695" lon="12.4820437"><ele>1376.3999999999999</ele><time>2026-04-30T12:37:43.397Z</time></trkpt><trkpt lat="46.5863747" lon="12.4820298"><ele>1375.8</ele><time>2026-04-30T12:37:44.396Z</time></trkpt><trkpt lat="46.5864697" lon="12.4820278"><ele>1375.2</ele><time>2026-04-30T12:37:45.396Z</time></trkpt><trkpt lat="46.5865393" lon="12.4821"><ele>1374.6</ele><time>2026-04-30T12:37:46.396Z</time></trkpt><trkpt lat="46.586611" lon="12.482189"><ele>1374.0</ele><time>2026-04-30T12:37:47.396Z</time></trkpt><trkpt lat="46.5866145" lon="12.4823224"><ele>1371.8000000000002</ele><time>2026-04-30T12:37:48.396Z</time></trkpt><trkpt lat="46.5865855" lon="12.4824553"><ele>1369.6000000000001</ele><time>2026-04-30T12:37:49.396Z</time></trkpt><trkpt lat="46.5865432" lon="12.482584"><ele>1367.4</ele><time>2026-04-30T12:37:50.396Z</time></trkpt><trkpt lat="46.5864981" lon="12.4827145"><ele>1365.2</ele><time>2026-04-30T12:37:51.396Z</time></trkpt><trkpt lat="46.5864595" lon="12.4828498"><ele>1363.0</ele><time>2026-04-30T12:37:52.396Z</time></trkpt><trkpt lat="46.5864421" lon="12.4829896"><ele>1359.1666666666665</ele><time>2026-04-30T12:37:53.396Z</time></trkpt><trkpt lat="46.5864519" lon="12.4831228"><ele>1355.3333333333333</ele><time>2026-04-30T12:37:54.396Z</time></trkpt><trkpt lat="46.5864881" lon="12.4832397"><ele>1351.5</ele><time>2026-04-30T12:37:55.397Z</time></trkpt><trkpt lat="46.5865511" lon="12.4833172"><ele>1347.6666666666667</ele><time>2026-04-30T12:37:56.396Z</time></trkpt><trkpt lat="46.5866367" lon="12.4833316"><ele>1343.8333333333335</ele><time>2026-04-30T12:37:57.396Z</time></trkpt><trkpt lat="46.5867248" lon="12.4833235"><ele>1340.0</ele><time>2026-04-30T12:37:58.396Z</time></trkpt><trkpt lat="46.5868406" lon="12.4832835"><ele>1340.0</ele><time>2026-04-30T12:37:59.397Z</time></trkpt><trkpt lat="46.5869492" lon="12.4832156"><ele>1340.0</ele><time>2026-04-30T12:38:00.396Z</time></trkpt><trkpt lat="46.5870543" lon="12.4831581"><ele>1340.0</ele><time>2026-04-30T12:38:01.397Z</time></trkpt><trkpt lat="46.5871975" lon="12.4830822"><ele>1340.0</ele><time>2026-04-30T12:38:02.396Z</time></trkpt><trkpt lat="46.5873149" lon="12.4830338"><ele>1343.0</ele><time>2026-04-30T12:38:03.396Z</time></trkpt><trkpt lat="46.5874297" lon="12.4830005"><ele>1346.0</ele><time>2026-04-30T12:38:04.396Z</time></trkpt><trkpt lat="46.5875591" lon="12.482924"><ele>1349.0</ele><time>2026-04-30T12:38:05.396Z</time></trkpt><trkpt lat="46.5876741" lon="12.4828821"><ele>1352.0</ele><time>2026-04-30T12:38:06.396Z</time></trkpt><trkpt lat="46.5877935" lon="12.4828481"><ele>1346.75</ele><time>2026-04-30T12:38:07.396Z</time></trkpt><trkpt lat="46.5879095" lon="12.4828129"><ele>1341.5</ele><time>2026-04-30T12:38:08.396Z</time></trkpt><trkpt lat="46.588033" lon="12.482744"><ele>1336.25</ele><time>2026-04-30T12:38:09.396Z</time></trkpt><trkpt lat="46.5881506" lon="12.4827074"><ele>1331.0</ele><time>2026-04-30T12:38:10.396Z</time></trkpt><trkpt lat="46.5882739" lon="12.4826448"><ele>1331.0</ele><time>2026-04-30T12:38:11.396Z</time></trkpt><trkpt lat="46.5883962" lon="12.48259"><ele>1331.0</ele><time>2026-04-30T12:38:12.396Z</time></trkpt><trkpt lat="46.5885332" lon="12.4825292"><ele>1331.0</ele><time>2026-04-30T12:38:13.396Z</time></trkpt><trkpt lat="46.5886724" lon="12.4824737"><ele>1331.0</ele><time>2026-04-30T12:38:14.396Z</time></trkpt><trkpt lat="46.5888166" lon="12.4824428"><ele>1327.25</ele><time>2026-04-30T12:38:15.396Z</time></trkpt><trkpt lat="46.5889519" lon="12.4824216"><ele>1323.5</ele><time>2026-04-30T12:38:16.396Z</time></trkpt><trkpt lat="46.5890701" lon="12.4823991"><ele>1319.75</ele><time>2026-04-30T12:38:17.396Z</time></trkpt><trkpt lat="46.5891714" lon="12.4823657"><ele>1316.0</ele><time>2026-04-30T12:38:18.396Z</time></trkpt><trkpt lat="46.589287" lon="12.4823297"><ele>1316.0</ele><time>2026-04-30T12:38:19.396Z</time></trkpt><trkpt lat="46.5893974" lon="12.4822881"><ele>1316.0</ele><time>2026-04-30T12:38:20.396Z</time></trkpt><trkpt lat="46.5895155" lon="12.4822501"><ele>1316.0</ele><time>2026-04-30T12:38:21.396Z</time></trkpt><trkpt lat="46.5896285" lon="12.4822313"><ele>1316.0</ele><time>2026-04-30T12:38:22.396Z</time></trkpt><trkpt lat="46.5897429" lon="12.4822548"><ele>1315.1999999999998</ele><time>2026-04-30T12:38:23.396Z</time></trkpt><trkpt lat="46.5898459" lon="12.4823227"><ele>1314.3999999999999</ele><time>2026-04-30T12:38:24.396Z</time></trkpt><trkpt lat="46.5899371" lon="12.4824095"><ele>1313.6</ele><time>2026-04-30T12:38:25.396Z</time></trkpt><trkpt lat="46.5900331" lon="12.482485"><ele>1312.8</ele><time>2026-04-30T12:38:26.396Z</time></trkpt><trkpt lat="46.59013" lon="12.4825523"><ele>1312.0</ele><time>2026-04-30T12:38:27.396Z</time></trkpt><trkpt lat="46.590235" lon="12.4825824"><ele>1311.75</ele><time>2026-04-30T12:38:28.396Z</time></trkpt><trkpt lat="46.5903481" lon="12.4825717"><ele>1311.5</ele><time>2026-04-30T12:38:29.396Z</time></trkpt><trkpt lat="46.5904686" lon="12.4825402"><ele>1311.25</ele><time>2026-04-30T12:38:30.396Z</time></trkpt><trkpt lat="46.5905911" lon="12.4824977"><ele>1311.0</ele><time>2026-04-30T12:38:31.396Z</time></trkpt><trkpt lat="46.5907102" lon="12.4824466"><ele>1311.0</ele><time>2026-04-30T12:38:32.396Z</time></trkpt><trkpt lat="46.5908243" lon="12.4823897"><ele>1311.0</ele><time>2026-04-30T12:38:33.396Z</time></trkpt><trkpt lat="46.5909356" lon="12.4823284"><ele>1311.0</ele><time>2026-04-30T12:38:34.396Z</time></trkpt><trkpt lat="46.5910444" lon="12.4822666"><ele>1311.0</ele><time>2026-04-30T12:38:35.396Z</time></trkpt><trkpt lat="46.591151" lon="12.482203"><ele>1310.4</ele><time>2026-04-30T12:38:36.396Z</time></trkpt><trkpt lat="46.5912565" lon="12.482145"><ele>1309.8</ele><time>2026-04-30T12:38:37.396Z</time></trkpt><trkpt lat="46.5913633" lon="12.4821068"><ele>1309.2</ele><time>2026-04-30T12:38:38.396Z</time></trkpt><trkpt lat="46.5914693" lon="12.4820979"><ele>1308.6000000000001</ele><time>2026-04-30T12:38:39.396Z</time></trkpt><trkpt lat="46.5915737" lon="12.4821044"><ele>1308.0</ele><time>2026-04-30T12:38:40.396Z</time></trkpt><trkpt lat="46.5916756" lon="12.4821273"><ele>1308.0</ele><time>2026-04-30T12:38:41.397Z</time></trkpt><trkpt lat="46.5917769" lon="12.4821626"><ele>1308.0</ele><time>2026-04-30T12:38:42.396Z</time></trkpt><trkpt lat="46.5918802" lon="12.4821919"><ele>1308.0</ele><time>2026-04-30T12:38:43.397Z</time></trkpt><trkpt lat="46.5919874" lon="12.4821976"><ele>1308.0</ele><time>2026-04-30T12:38:44.396Z</time></trkpt><trkpt lat="46.5920976" lon="12.4821829"><ele>1308.0</ele><time>2026-04-30T12:38:45.396Z</time></trkpt><trkpt lat="46.5922044" lon="12.4821455"><ele>1308.0</ele><time>2026-04-30T12:38:46.396Z</time></trkpt><trkpt lat="46.5923098" lon="12.482094"><ele>1308.0</ele><time>2026-04-30T12:38:47.396Z</time></trkpt><trkpt lat="46.5924193" lon="12.4820335"><ele>1308.0</ele><time>2026-04-30T12:38:48.397Z</time></trkpt><trkpt lat="46.5925303" lon="12.4819551"><ele>1308.0</ele><time>2026-04-30T12:38:49.396Z</time></trkpt><trkpt lat="46.5926339" lon="12.4818474"><ele>1308.0</ele><time>2026-04-30T12:38:50.396Z</time></trkpt><trkpt lat="46.5927418" lon="12.4817204"><ele>1308.0</ele><time>2026-04-30T12:38:51.396Z</time></trkpt><trkpt lat="46.5928435" lon="12.4815919"><ele>1308.0</ele><time>2026-04-30T12:38:52.396Z</time></trkpt><trkpt lat="46.5929447" lon="12.4814654"><ele>1308.0</ele><time>2026-04-30T12:38:53.396Z</time></trkpt><trkpt lat="46.5930454" lon="12.4813482"><ele>1306.25</ele><time>2026-04-30T12:38:54.396Z</time></trkpt><trkpt lat="46.5931449" lon="12.4812334"><ele>1304.5</ele><time>2026-04-30T12:38:55.396Z</time></trkpt><trkpt lat="46.593251" lon="12.4811259"><ele>1302.75</ele><time>2026-04-30T12:38:56.396Z</time></trkpt><trkpt lat="46.5933616" lon="12.4810349"><ele>1301.0</ele><time>2026-04-30T12:38:57.396Z</time></trkpt><trkpt lat="46.5934744" lon="12.4809544"><ele>1301.0</ele><time>2026-04-30T12:38:58.396Z</time></trkpt><trkpt lat="46.5936101" lon="12.4809336"><ele>1301.0</ele><time>2026-04-30T12:38:59.396Z</time></trkpt><trkpt lat="46.5937451" lon="12.4809301"><ele>1301.0</ele><time>2026-04-30T12:39:00.396Z</time></trkpt><trkpt lat="46.5938781" lon="12.4809359"><ele>1301.0</ele><time>2026-04-30T12:39:01.396Z</time></trkpt><trkpt lat="46.5940184" lon="12.4809304"><ele>1298.0</ele><time>2026-04-30T12:39:02.396Z</time></trkpt><trkpt lat="46.5941517" lon="12.4809261"><ele>1295.0</ele><time>2026-04-30T12:39:03.396Z</time></trkpt><trkpt lat="46.5942836" lon="12.4809229"><ele>1292.0</ele><time>2026-04-30T12:39:04.396Z</time></trkpt><trkpt lat="46.5944152" lon="12.4809075"><ele>1289.0</ele><time>2026-04-30T12:39:05.396Z</time></trkpt><trkpt lat="46.5945463" lon="12.4808747"><ele>1286.0</ele><time>2026-04-30T12:39:06.396Z</time></trkpt><trkpt lat="46.5946729" lon="12.4808303"><ele>1283.0</ele><time>2026-04-30T12:39:07.396Z</time></trkpt><trkpt lat="46.594799" lon="12.4807793"><ele>1280.0</ele><time>2026-04-30T12:39:08.396Z</time></trkpt><trkpt lat="46.5949262" lon="12.4807318"><ele>1277.0</ele><time>2026-04-30T12:39:09.396Z</time></trkpt><trkpt lat="46.5950496" lon="12.4806738"><ele>1277.0</ele><time>2026-04-30T12:39:10.396Z</time></trkpt><trkpt lat="46.5951715" lon="12.4806092"><ele>1277.0</ele><time>2026-04-30T12:39:11.396Z</time></trkpt><trkpt lat="46.5952961" lon="12.4805381"><ele>1277.0</ele><time>2026-04-30T12:39:12.396Z</time></trkpt><trkpt lat="46.5954248" lon="12.4804623"><ele>1277.0</ele><time>2026-04-30T12:39:13.396Z</time></trkpt><trkpt lat="46.5955573" lon="12.4803918"><ele>1276.5</ele><time>2026-04-30T12:39:14.396Z</time></trkpt><trkpt lat="46.5956766" lon="12.4803134"><ele>1276.0</ele><time>2026-04-30T12:39:15.396Z</time></trkpt><trkpt lat="46.5957991" lon="12.4802435"><ele>1275.5</ele><time>2026-04-30T12:39:16.396Z</time></trkpt><trkpt lat="46.5959095" lon="12.4801734"><ele>1275.0</ele><time>2026-04-30T12:39:17.396Z</time></trkpt><trkpt lat="46.5960168" lon="12.4801097"><ele>1275.0</ele><time>2026-04-30T12:39:18.396Z</time></trkpt><trkpt lat="46.5961272" lon="12.4800488"><ele>1275.0</ele><time>2026-04-30T12:39:19.396Z</time></trkpt><trkpt lat="46.5962363" lon="12.4799783"><ele>1275.0</ele><time>2026-04-30T12:39:20.396Z</time></trkpt><trkpt lat="46.5963472" lon="12.479891"><ele>1275.0</ele><time>2026-04-30T12:39:21.396Z</time></trkpt><trkpt lat="46.5964546" lon="12.4797908"><ele>1273.75</ele><time>2026-04-30T12:39:22.396Z</time></trkpt><trkpt lat="46.5965637" lon="12.4796872"><ele>1272.5</ele><time>2026-04-30T12:39:23.396Z</time></trkpt><trkpt lat="46.5966758" lon="12.4795859"><ele>1271.25</ele><time>2026-04-30T12:39:24.396Z</time></trkpt><trkpt lat="46.596791" lon="12.4794899"><ele>1270.0</ele><time>2026-04-30T12:39:25.396Z</time></trkpt><trkpt lat="46.5969072" lon="12.4794091"><ele>1262.6666666666665</ele><time>2026-04-30T12:39:26.396Z</time></trkpt><trkpt lat="46.5970229" lon="12.4793321"><ele>1255.3333333333333</ele><time>2026-04-30T12:39:27.396Z</time></trkpt><trkpt lat="46.5972592" lon="12.4791776"><ele>1248.0</ele><time>2026-04-30T12:39:29.396Z</time></trkpt><trkpt lat="46.5973683" lon="12.4791102"><ele>1248.0</ele><time>2026-04-30T12:39:30.396Z</time></trkpt><trkpt lat="46.5974717" lon="12.4790323"><ele>1248.0</ele><time>2026-04-30T12:39:31.396Z</time></trkpt><trkpt lat="46.5975642" lon="12.4789363"><ele>1248.0</ele><time>2026-04-30T12:39:32.396Z</time></trkpt><trkpt lat="46.5976422" lon="12.4788159"><ele>1248.0</ele><time>2026-04-30T12:39:33.396Z</time></trkpt><trkpt lat="46.5977062" lon="12.4786767"><ele>1250.0</ele><time>2026-04-30T12:39:34.396Z</time></trkpt><trkpt lat="46.5977691" lon="12.4785281"><ele>1252.0</ele><time>2026-04-30T12:39:35.396Z</time></trkpt><trkpt lat="46.5978313" lon="12.4783775"><ele>1254.0</ele><time>2026-04-30T12:39:36.396Z</time></trkpt><trkpt lat="46.5978983" lon="12.478234"><ele>1256.0</ele><time>2026-04-30T12:39:37.396Z</time></trkpt><trkpt lat="46.5980323" lon="12.4779548"><ele>1252.6</ele><time>2026-04-30T12:39:39.396Z</time></trkpt><trkpt lat="46.5981044" lon="12.4778342"><ele>1249.1999999999998</ele><time>2026-04-30T12:39:40.396Z</time></trkpt><trkpt lat="46.5981704" lon="12.4777361"><ele>1245.8000000000002</ele><time>2026-04-30T12:39:41.396Z</time></trkpt><trkpt lat="46.5982278" lon="12.4776508"><ele>1242.4</ele><time>2026-04-30T12:39:42.396Z</time></trkpt><trkpt lat="46.5982723" lon="12.4775111"><ele>1239.0</ele><time>2026-04-30T12:39:44.396Z</time></trkpt><trkpt lat="46.5982" lon="12.4774034"><ele>1239.0</ele><time>2026-04-30T12:39:46.396Z</time></trkpt><trkpt lat="46.5981227" lon="12.4772868"><ele>1239.0</ele><time>2026-04-30T12:39:48.396Z</time></trkpt><trkpt lat="46.5980667" lon="12.4771235"><ele>1239.0</ele><time>2026-04-30T12:39:50.396Z</time></trkpt><trkpt lat="46.5980449" lon="12.4770278"><ele>1239.0</ele><time>2026-04-30T12:39:51.396Z</time></trkpt><trkpt lat="46.5980386" lon="12.4769247"><ele>1239.0</ele><time>2026-04-30T12:39:52.396Z</time></trkpt><trkpt lat="46.5980419" lon="12.4768204"><ele>1239.0</ele><time>2026-04-30T12:39:53.396Z</time></trkpt><trkpt lat="46.5980432" lon="12.4767112"><ele>1239.6666666666667</ele><time>2026-04-30T12:39:54.396Z</time></trkpt><trkpt lat="46.5980362" lon="12.4766016"><ele>1240.3333333333333</ele><time>2026-04-30T12:39:55.396Z</time></trkpt><trkpt lat="46.5980157" lon="12.4765079"><ele>1241.0</ele><time>2026-04-30T12:39:56.396Z</time></trkpt><trkpt lat="46.5979846" lon="12.4764278"><ele>1241.6666666666665</ele><time>2026-04-30T12:39:57.396Z</time></trkpt><trkpt lat="46.5979425" lon="12.4763541"><ele>1242.3333333333333</ele><time>2026-04-30T12:39:58.396Z</time></trkpt><trkpt lat="46.5978511" lon="12.4762417"><ele>1243.0</ele><time>2026-04-30T12:40:00.396Z</time></trkpt><trkpt lat="46.597798" lon="12.4761817"><ele>1254.75</ele><time>2026-04-30T12:40:01.396Z</time></trkpt><trkpt lat="46.5976954" lon="12.4760741"><ele>1266.5</ele><time>2026-04-30T12:40:03.396Z</time></trkpt><trkpt lat="46.597643" lon="12.4759319"><ele>1278.25</ele><time>2026-04-30T12:40:05.396Z</time></trkpt><trkpt lat="46.5976468" lon="12.4757304"><ele>1290.0</ele><time>2026-04-30T12:40:07.396Z</time></trkpt><trkpt lat="46.5976921" lon="12.4755871"><ele>1284.0</ele><time>2026-04-30T12:40:09.396Z</time></trkpt><trkpt lat="46.5978366" lon="12.4756492"><ele>1278.0</ele><time>2026-04-30T12:40:10.396Z</time></trkpt><trkpt lat="46.5978885" lon="12.4755885"><ele>1272.0</ele><time>2026-04-30T12:40:11.396Z</time></trkpt><trkpt lat="46.5979771" lon="12.4755424"><ele>1266.0</ele><time>2026-04-30T12:40:12.397Z</time></trkpt><trkpt lat="46.5980582" lon="12.4754945"><ele>1260.0</ele><time>2026-04-30T12:40:13.397Z</time></trkpt><trkpt lat="46.5981263" lon="12.4754634"><ele>1260.0</ele><time>2026-04-30T12:40:14.396Z</time></trkpt><trkpt lat="46.5982335" lon="12.4754446"><ele>1260.0</ele><time>2026-04-30T12:40:15.396Z</time></trkpt><trkpt lat="46.5982977" lon="12.4754474"><ele>1260.0</ele><time>2026-04-30T12:40:16.396Z</time></trkpt><trkpt lat="46.598376" lon="12.4754216"><ele>1260.0</ele><time>2026-04-30T12:40:17.396Z</time></trkpt><trkpt lat="46.5984595" lon="12.4753683"><ele>1260.0</ele><time>2026-04-30T12:40:18.396Z</time></trkpt><trkpt lat="46.5985402" lon="12.4753251"><ele>1260.0</ele><time>2026-04-30T12:40:19.396Z</time></trkpt><trkpt lat="46.598616" lon="12.4752801"><ele>1260.3333333333333</ele><time>2026-04-30T12:40:20.396Z</time></trkpt><trkpt lat="46.598686" lon="12.4752254"><ele>1260.6666666666667</ele><time>2026-04-30T12:40:21.396Z</time></trkpt><trkpt lat="46.5987578" lon="12.4751499"><ele>1261.0</ele><time>2026-04-30T12:40:22.396Z</time></trkpt><trkpt lat="46.5988306" lon="12.4751251"><ele>1261.3333333333335</ele><time>2026-04-30T12:40:23.397Z</time></trkpt><trkpt lat="46.5989116" lon="12.4751231"><ele>1261.6666666666667</ele><time>2026-04-30T12:40:24.396Z</time></trkpt><trkpt lat="46.5989904" lon="12.4751176"><ele>1262.0</ele><time>2026-04-30T12:40:25.396Z</time></trkpt><trkpt lat="46.5990674" lon="12.4751079"><ele>1262.0</ele><time>2026-04-30T12:40:26.396Z</time></trkpt><trkpt lat="46.599138" lon="12.4750904"><ele>1262.0</ele><time>2026-04-30T12:40:27.396Z</time></trkpt><trkpt lat="46.599253" lon="12.4750156"><ele>1262.0</ele><time>2026-04-30T12:40:29.397Z</time></trkpt><trkpt lat="46.5993133" lon="12.4749587"><ele>1262.0</ele><time>2026-04-30T12:40:30.397Z</time></trkpt><trkpt lat="46.5994061" lon="12.4748618"><ele>1262.0</ele><time>2026-04-30T12:40:32.396Z</time></trkpt><trkpt lat="46.5994476" lon="12.4747556"><ele>1261.0</ele><time>2026-04-30T12:40:34.396Z</time></trkpt><trkpt lat="46.5995288" lon="12.4746776"><ele>1260.0</ele><time>2026-04-30T12:40:36.396Z</time></trkpt><trkpt lat="46.5996593" lon="12.4746637"><ele>1259.0</ele><time>2026-04-30T12:40:38.396Z</time></trkpt><trkpt lat="46.5997273" lon="12.4746381"><ele>1258.0</ele><time>2026-04-30T12:40:39.396Z</time></trkpt><trkpt lat="46.5998409" lon="12.4745922"><ele>1257.0</ele><time>2026-04-30T12:40:41.396Z</time></trkpt><trkpt lat="46.5999389" lon="12.4745493"><ele>1259.1666666666667</ele><time>2026-04-30T12:40:43.396Z</time></trkpt><trkpt lat="46.6000069" lon="12.474486"><ele>1261.3333333333333</ele><time>2026-04-30T12:40:45.396Z</time></trkpt><trkpt lat="46.6000687" lon="12.4744147"><ele>1263.5</ele><time>2026-04-30T12:40:46.396Z</time></trkpt><trkpt lat="46.600126" lon="12.4743555"><ele>1265.6666666666665</ele><time>2026-04-30T12:40:47.396Z</time></trkpt><trkpt lat="46.6001856" lon="12.4743035"><ele>1267.8333333333333</ele><time>2026-04-30T12:40:48.396Z</time></trkpt><trkpt lat="46.6002631" lon="12.4742665"><ele>1270.0</ele><time>2026-04-30T12:40:49.396Z</time></trkpt><trkpt lat="46.6003508" lon="12.4742703"><ele>1269.6666666666665</ele><time>2026-04-30T12:40:50.397Z</time></trkpt><trkpt lat="46.6004398" lon="12.4742903"><ele>1269.3333333333333</ele><time>2026-04-30T12:40:51.396Z</time></trkpt><trkpt lat="46.600524" lon="12.4743319"><ele>1269.0</ele><time>2026-04-30T12:40:52.396Z</time></trkpt><trkpt lat="46.600598" lon="12.4743826"><ele>1268.6666666666667</ele><time>2026-04-30T12:40:53.396Z</time></trkpt><trkpt lat="46.600653" lon="12.4744575"><ele>1268.3333333333335</ele><time>2026-04-30T12:40:54.397Z</time></trkpt><trkpt lat="46.6006909" lon="12.474563"><ele>1268.0</ele><time>2026-04-30T12:40:55.396Z</time></trkpt><trkpt lat="46.6007146" lon="12.4746854"><ele>1268.0</ele><time>2026-04-30T12:40:56.396Z</time></trkpt><trkpt lat="46.6007216" lon="12.4748058"><ele>1268.0</ele><time>2026-04-30T12:40:57.396Z</time></trkpt><trkpt lat="46.6007234" lon="12.4749328"><ele>1268.0</ele><time>2026-04-30T12:40:58.396Z</time></trkpt><trkpt lat="46.600725" lon="12.4750561"><ele>1268.0</ele><time>2026-04-30T12:40:59.397Z</time></trkpt><trkpt lat="46.6007237" lon="12.4751853"><ele>1268.0</ele><time>2026-04-30T12:41:00.396Z</time></trkpt><trkpt lat="46.6007205" lon="12.4753119"><ele>1268.0</ele><time>2026-04-30T12:41:01.396Z</time></trkpt><trkpt lat="46.6007231" lon="12.4754169"><ele>1268.0</ele><time>2026-04-30T12:41:02.396Z</time></trkpt><trkpt lat="46.6007351" lon="12.475507"><ele>1268.0</ele><time>2026-04-30T12:41:03.396Z</time></trkpt><trkpt lat="46.6007998" lon="12.4756039"><ele>1268.0</ele><time>2026-04-30T12:41:05.396Z</time></trkpt><trkpt lat="46.60089" lon="12.475602"><ele>1268.0</ele><time>2026-04-30T12:41:07.396Z</time></trkpt><trkpt lat="46.6009712" lon="12.4755192"><ele>1268.0</ele><time>2026-04-30T12:41:09.396Z</time></trkpt><trkpt lat="46.6010444" lon="12.4753733"><ele>1268.0</ele><time>2026-04-30T12:41:11.396Z</time></trkpt><trkpt lat="46.6011357" lon="12.475203"><ele>1268.0</ele><time>2026-04-30T12:41:13.396Z</time></trkpt><trkpt lat="46.6011991" lon="12.4751376"><ele>1268.0</ele><time>2026-04-30T12:41:14.396Z</time></trkpt><trkpt lat="46.6012679" lon="12.4750773"><ele>1268.0</ele><time>2026-04-30T12:41:15.396Z</time></trkpt><trkpt lat="46.601443" lon="12.4750714"><ele>1268.8333333333335</ele><time>2026-04-30T12:41:17.396Z</time></trkpt><trkpt lat="46.6015271" lon="12.4750565"><ele>1269.6666666666667</ele><time>2026-04-30T12:41:18.396Z</time></trkpt><trkpt lat="46.6016445" lon="12.4750623"><ele>1270.5</ele><time>2026-04-30T12:41:20.397Z</time></trkpt><trkpt lat="46.6017077" lon="12.4750399"><ele>1271.3333333333333</ele><time>2026-04-30T12:41:21.396Z</time></trkpt><trkpt lat="46.6017677" lon="12.4749993"><ele>1272.1666666666665</ele><time>2026-04-30T12:41:22.396Z</time></trkpt><trkpt lat="46.6018308" lon="12.4749154"><ele>1273.0</ele><time>2026-04-30T12:41:23.396Z</time></trkpt><trkpt lat="46.6018905" lon="12.474855"><ele>1273.0</ele><time>2026-04-30T12:41:24.396Z</time></trkpt><trkpt lat="46.6019376" lon="12.4747852"><ele>1273.0</ele><time>2026-04-30T12:41:25.396Z</time></trkpt><trkpt lat="46.6020033" lon="12.4747313"><ele>1273.0</ele><time>2026-04-30T12:41:26.396Z</time></trkpt><trkpt lat="46.6020795" lon="12.474712"><ele>1273.0</ele><time>2026-04-30T12:41:27.396Z</time></trkpt><trkpt lat="46.6021447" lon="12.474684"><ele>1273.0</ele><time>2026-04-30T12:41:28.396Z</time></trkpt><trkpt lat="46.6022127" lon="12.4746619"><ele>1273.0</ele><time>2026-04-30T12:41:29.396Z</time></trkpt><trkpt lat="46.6022848" lon="12.4746491"><ele>1273.0</ele><time>2026-04-30T12:41:30.396Z</time></trkpt><trkpt lat="46.6023534" lon="12.4746571"><ele>1269.6</ele><time>2026-04-30T12:41:31.396Z</time></trkpt><trkpt lat="46.6024159" lon="12.4747004"><ele>1266.1999999999998</ele><time>2026-04-30T12:41:32.396Z</time></trkpt><trkpt lat="46.602465" lon="12.4747727"><ele>1262.8</ele><time>2026-04-30T12:41:33.396Z</time></trkpt><trkpt lat="46.6025393" lon="12.4748811"><ele>1259.3999999999999</ele><time>2026-04-30T12:41:35.396Z</time></trkpt><trkpt lat="46.6026292" lon="12.4748352"><ele>1256.0</ele><time>2026-04-30T12:41:37.396Z</time></trkpt><trkpt lat="46.6027214" lon="12.4746848"><ele>1256.0</ele><time>2026-04-30T12:41:39.396Z</time></trkpt><trkpt lat="46.6027752" lon="12.4746205"><ele>1256.0</ele><time>2026-04-30T12:41:40.396Z</time></trkpt><trkpt lat="46.602832" lon="12.4745789"><ele>1256.0</ele><time>2026-04-30T12:41:41.396Z</time></trkpt><trkpt lat="46.6028415" lon="12.4744409"><ele>1256.0</ele><time>2026-04-30T12:41:43.396Z</time></trkpt><trkpt lat="46.602834" lon="12.4743331"><ele>1256.0</ele><time>2026-04-30T12:41:44.396Z</time></trkpt><trkpt lat="46.6028377" lon="12.4742185"><ele>1256.0</ele><time>2026-04-30T12:41:45.396Z</time></trkpt><trkpt lat="46.6028405" lon="12.4740588"><ele>1256.3333333333335</ele><time>2026-04-30T12:41:47.396Z</time></trkpt><trkpt lat="46.6028149" lon="12.4739363"><ele>1256.6666666666667</ele><time>2026-04-30T12:41:49.396Z</time></trkpt><trkpt lat="46.602846" lon="12.4738409"><ele>1257.0</ele><time>2026-04-30T12:41:51.396Z</time></trkpt><trkpt lat="46.6028997" lon="12.4737234"><ele>1257.3333333333333</ele><time>2026-04-30T12:41:53.396Z</time></trkpt><trkpt lat="46.6030059" lon="12.4736771"><ele>1257.6666666666665</ele><time>2026-04-30T12:41:55.396Z</time></trkpt><trkpt lat="46.6030839" lon="12.4736644"><ele>1258.0</ele><time>2026-04-30T12:41:57.396Z</time></trkpt><trkpt lat="46.6031577" lon="12.4736727"><ele>1258.0</ele><time>2026-04-30T12:41:59.396Z</time></trkpt><trkpt lat="46.603258" lon="12.4736896"><ele>1258.0</ele><time>2026-04-30T12:42:01.396Z</time></trkpt><trkpt lat="46.6033645" lon="12.4737844"><ele>1258.0</ele><time>2026-04-30T12:42:03.396Z</time></trkpt><trkpt lat="46.6033886" lon="12.47388"><ele>1258.0</ele><time>2026-04-30T12:42:04.396Z</time></trkpt><trkpt lat="46.6034298" lon="12.4739617"><ele>1258.0</ele><time>2026-04-30T12:42:05.397Z</time></trkpt><trkpt lat="46.6034758" lon="12.4740555"><ele>1258.0</ele><time>2026-04-30T12:42:06.396Z</time></trkpt><trkpt lat="46.6035211" lon="12.474155"><ele>1258.0</ele><time>2026-04-30T12:42:07.396Z</time></trkpt><trkpt lat="46.6035672" lon="12.4742604"><ele>1258.0</ele><time>2026-04-30T12:42:08.396Z</time></trkpt><trkpt lat="46.6036127" lon="12.4743641"><ele>1258.0</ele><time>2026-04-30T12:42:09.396Z</time></trkpt><trkpt lat="46.6036588" lon="12.4744726"><ele>1258.0</ele><time>2026-04-30T12:42:10.396Z</time></trkpt><trkpt lat="46.6037053" lon="12.4745801"><ele>1258.0</ele><time>2026-04-30T12:42:11.396Z</time></trkpt><trkpt lat="46.6037502" lon="12.4746852"><ele>1258.0</ele><time>2026-04-30T12:42:12.396Z</time></trkpt><trkpt lat="46.6037968" lon="12.4747867"><ele>1254.5</ele><time>2026-04-30T12:42:13.396Z</time></trkpt><trkpt lat="46.6038412" lon="12.4748898"><ele>1251.0</ele><time>2026-04-30T12:42:14.396Z</time></trkpt><trkpt lat="46.6038888" lon="12.4749933"><ele>1247.5</ele><time>2026-04-30T12:42:15.396Z</time></trkpt><trkpt lat="46.603942" lon="12.4750985"><ele>1244.0</ele><time>2026-04-30T12:42:16.396Z</time></trkpt><trkpt lat="46.6039942" lon="12.4752089"><ele>1240.5</ele><time>2026-04-30T12:42:17.396Z</time></trkpt><trkpt lat="46.604044" lon="12.4753238"><ele>1237.0</ele><time>2026-04-30T12:42:18.396Z</time></trkpt><trkpt lat="46.6040949" lon="12.4754386"><ele>1234.2</ele><time>2026-04-30T12:42:19.396Z</time></trkpt><trkpt lat="46.6041522" lon="12.4755526"><ele>1231.4</ele><time>2026-04-30T12:42:20.396Z</time></trkpt><trkpt lat="46.6042037" lon="12.4756676"><ele>1228.6</ele><time>2026-04-30T12:42:21.396Z</time></trkpt><trkpt lat="46.604252" lon="12.4757901"><ele>1225.8</ele><time>2026-04-30T12:42:22.396Z</time></trkpt><trkpt lat="46.6043091" lon="12.4759117"><ele>1223.0</ele><time>2026-04-30T12:42:23.396Z</time></trkpt><trkpt lat="46.6043675" lon="12.4760377"><ele>1223.0</ele><time>2026-04-30T12:42:24.396Z</time></trkpt><trkpt lat="46.604427" lon="12.476173"><ele>1223.0</ele><time>2026-04-30T12:42:25.396Z</time></trkpt><trkpt lat="46.6044746" lon="12.4763182"><ele>1223.0</ele><time>2026-04-30T12:42:26.396Z</time></trkpt><trkpt lat="46.604514" lon="12.4764596"><ele>1223.0</ele><time>2026-04-30T12:42:27.396Z</time></trkpt><trkpt lat="46.604552" lon="12.4765977"><ele>1223.0</ele><time>2026-04-30T12:42:28.396Z</time></trkpt><trkpt lat="46.6045927" lon="12.4767277"><ele>1220.6666666666667</ele><time>2026-04-30T12:42:29.397Z</time></trkpt><trkpt lat="46.6046282" lon="12.476853"><ele>1218.3333333333335</ele><time>2026-04-30T12:42:30.396Z</time></trkpt><trkpt lat="46.6046606" lon="12.4769686"><ele>1216.0</ele><time>2026-04-30T12:42:31.396Z</time></trkpt><trkpt lat="46.6046967" lon="12.4770669"><ele>1213.6666666666667</ele><time>2026-04-30T12:42:32.396Z</time></trkpt><trkpt lat="46.604728" lon="12.4771521"><ele>1211.3333333333333</ele><time>2026-04-30T12:42:33.397Z</time></trkpt><trkpt lat="46.6047149" lon="12.4773219"><ele>1209.0</ele><time>2026-04-30T12:42:35.396Z</time></trkpt><trkpt lat="46.6046388" lon="12.4774707"><ele>1208.6000000000001</ele><time>2026-04-30T12:42:37.396Z</time></trkpt><trkpt lat="46.6045901" lon="12.4775437"><ele>1208.2</ele><time>2026-04-30T12:42:38.396Z</time></trkpt><trkpt lat="46.6045306" lon="12.4775978"><ele>1207.8000000000002</ele><time>2026-04-30T12:42:39.396Z</time></trkpt><trkpt lat="46.6044171" lon="12.4776316"><ele>1207.4</ele><time>2026-04-30T12:42:41.396Z</time></trkpt><trkpt lat="46.6043082" lon="12.477673"><ele>1207.0</ele><time>2026-04-30T12:42:43.396Z</time></trkpt><trkpt lat="46.6042032" lon="12.4777569"><ele>1207.0</ele><time>2026-04-30T12:42:45.396Z</time></trkpt><trkpt lat="46.6040873" lon="12.477831"><ele>1207.0</ele><time>2026-04-30T12:42:47.396Z</time></trkpt><trkpt lat="46.6039926" lon="12.4779076"><ele>1207.0</ele><time>2026-04-30T12:42:49.396Z</time></trkpt><trkpt lat="46.6039258" lon="12.4780314"><ele>1207.0</ele><time>2026-04-30T12:42:51.396Z</time></trkpt><trkpt lat="46.6038373" lon="12.4781598"><ele>1206.7142857142856</ele><time>2026-04-30T12:42:53.396Z</time></trkpt><trkpt lat="46.6038016" lon="12.4782373"><ele>1206.4285714285713</ele><time>2026-04-30T12:42:54.396Z</time></trkpt><trkpt lat="46.6037654" lon="12.4783196"><ele>1206.142857142857</ele><time>2026-04-30T12:42:55.396Z</time></trkpt><trkpt lat="46.6037237" lon="12.4784049"><ele>1205.8571428571427</ele><time>2026-04-30T12:42:56.396Z</time></trkpt><trkpt lat="46.6036856" lon="12.4784902"><ele>1205.5714285714284</ele><time>2026-04-30T12:42:57.396Z</time></trkpt><trkpt lat="46.6036467" lon="12.4785729"><ele>1205.2857142857142</ele><time>2026-04-30T12:42:58.397Z</time></trkpt><trkpt lat="46.6036063" lon="12.4786565"><ele>1205.0</ele><time>2026-04-30T12:42:59.396Z</time></trkpt><trkpt lat="46.6035669" lon="12.4787364"><ele>1203.8</ele><time>2026-04-30T12:43:00.396Z</time></trkpt><trkpt lat="46.6035061" lon="12.4788564"><ele>1202.6</ele><time>2026-04-30T12:43:02.396Z</time></trkpt><trkpt lat="46.6034615" lon="12.4789534"><ele>1201.4</ele><time>2026-04-30T12:43:04.396Z</time></trkpt><trkpt lat="46.6034063" lon="12.4790798"><ele>1200.2</ele><time>2026-04-30T12:43:06.396Z</time></trkpt><trkpt lat="46.6033429" lon="12.4792052"><ele>1199.0</ele><time>2026-04-30T12:43:08.396Z</time></trkpt><trkpt lat="46.6032526" lon="12.4792514"><ele>1199.0</ele><time>2026-04-30T12:43:10.396Z</time></trkpt><trkpt lat="46.6031505" lon="12.4792387"><ele>1199.0</ele><time>2026-04-30T12:43:12.396Z</time></trkpt><trkpt lat="46.6030508" lon="12.4791937"><ele>1199.0</ele><time>2026-04-30T12:43:14.396Z</time></trkpt><trkpt lat="46.6029601" lon="12.4791076"><ele>1199.0</ele><time>2026-04-30T12:43:16.396Z</time></trkpt><trkpt lat="46.6029034" lon="12.4790257"><ele>1199.0</ele><time>2026-04-30T12:43:18.396Z</time></trkpt><trkpt lat="46.6028365" lon="12.4789736"><ele>1199.0</ele><time>2026-04-30T12:43:21.397Z</time></trkpt><trkpt lat="46.6027719" lon="12.479041"><ele>1199.0</ele><time>2026-04-30T12:43:24.396Z</time></trkpt><trkpt lat="46.6027969" lon="12.4789481"><ele>1199.0</ele><time>2026-04-30T12:43:39.396Z</time></trkpt><trkpt lat="46.6028693" lon="12.4789555"><ele>1199.0</ele><time>2026-04-30T12:43:44.396Z</time></trkpt><trkpt lat="46.6029235" lon="12.4790337"><ele>1199.0</ele><time>2026-04-30T12:43:49.396Z</time></trkpt><trkpt lat="46.6029759" lon="12.4791091"><ele>1199.0</ele><time>2026-04-30T12:43:54.396Z</time></trkpt><trkpt lat="46.6026647" lon="12.4791003"><ele>1214.0</ele><time>2026-04-30T12:43:56.422Z</time></trkpt><trkpt lat="46.6026136" lon="12.4791712"><ele>1214.0</ele><time>2026-04-30T12:44:02.414Z</time></trkpt><trkpt lat="46.602581" lon="12.4792501"><ele>1214.0</ele><time>2026-04-30T12:44:07.302Z</time></trkpt><trkpt lat="46.6026312" lon="12.4791775"><ele>1214.0</ele><time>2026-04-30T12:44:23.396Z</time></trkpt><trkpt lat="46.602701" lon="12.4791498"><ele>1214.0</ele><time>2026-04-30T12:44:27.396Z</time></trkpt><trkpt lat="46.6028057" lon="12.4791569"><ele>1214.0</ele><time>2026-04-30T12:44:37.396Z</time></trkpt><trkpt lat="46.6028703" lon="12.4791511"><ele>1199.0</ele><time>2026-04-30T12:44:45.396Z</time></trkpt></trkseg></trk></gpx>